<?xml version="1.0" encoding="UTF-8"?>
<gpx version="1.1" creator="https://www.youtrack.es" xsi:schemaLocation="http://www.topografix.com/GPX/1/1 http://www.topografix.com/GPX/1/1/gpx.xsd http://www.garmin.com/xmlschemas/GpxExtensions/v3 http://www.garmin.com/xmlschemas/GpxExtensionsv3.xsd http://www.garmin.com/xmlschemas/TrackPointExtension/v1 http://www.garmin.com/xmlschemas/TrackPointExtensionv1.xsd" xmlns:gpxtpx="http://www.garmin.com/xmlschemas/TrackPointExtension/v1" xmlns:gpxx="http://www.garmin.com/xmlschemas/GpxExtensions/v3" xmlns:xsi="http://www.w3.org/2001/XMLSchema-instance">
  <metadata>
    <link href="https://www.youtrack.es">
      <text>YouTrack.es</text>
    </link>
    <time>2026-05-08T14:49:47Z</time>
  </metadata>
  <trk>
    <src>https://www.youtrack.es</src>
    <link href="https://www.youtrack.es/ruta/16953-pistolas-janot">
      <text>YouTrack.es</text>
    </link>
    <trkseg>
      <trkpt lat="41.551845" lon="2.096311">
        <ele>215.00</ele>
        <time>1970-01-01T00:00:00Z</time>
      </trkpt>
      <trkpt lat="41.551845" lon="2.096311">
        <ele>214.80</ele>
        <time>1970-01-01T00:00:04Z</time>
      </trkpt>
      <trkpt lat="41.551998" lon="2.096273">
        <ele>215.00</ele>
        <time>1970-01-01T00:00:08Z</time>
      </trkpt>
      <trkpt lat="41.552160" lon="2.096236">
        <ele>215.60</ele>
        <time>1970-01-01T00:00:12Z</time>
      </trkpt>
      <trkpt lat="41.552310" lon="2.096201">
        <ele>215.80</ele>
        <time>1970-01-01T00:00:16Z</time>
      </trkpt>
      <trkpt lat="41.552473" lon="2.096145">
        <ele>216.00</ele>
        <time>1970-01-01T00:00:20Z</time>
      </trkpt>
      <trkpt lat="41.552606" lon="2.096068">
        <ele>216.00</ele>
        <time>1970-01-01T00:00:24Z</time>
      </trkpt>
      <trkpt lat="41.552635" lon="2.095943">
        <ele>216.00</ele>
        <time>1970-01-01T00:00:28Z</time>
      </trkpt>
      <trkpt lat="41.552386" lon="2.097390">
        <ele>216.60</ele>
        <time>1970-01-01T00:00:38Z</time>
      </trkpt>
      <trkpt lat="41.552528" lon="2.097403">
        <ele>217.20</ele>
        <time>1970-01-01T00:00:42Z</time>
      </trkpt>
      <trkpt lat="41.552688" lon="2.097418">
        <ele>217.40</ele>
        <time>1970-01-01T00:00:46Z</time>
      </trkpt>
      <trkpt lat="41.552860" lon="2.097436">
        <ele>217.20</ele>
        <time>1970-01-01T00:00:50Z</time>
      </trkpt>
      <trkpt lat="41.553045" lon="2.097401">
        <ele>217.40</ele>
        <time>1970-01-01T00:00:54Z</time>
      </trkpt>
      <trkpt lat="41.553243" lon="2.097400">
        <ele>217.60</ele>
        <time>1970-01-01T00:00:58Z</time>
      </trkpt>
      <trkpt lat="41.553398" lon="2.097356">
        <ele>218.20</ele>
        <time>1970-01-01T00:01:02Z</time>
      </trkpt>
      <trkpt lat="41.553573" lon="2.097363">
        <ele>217.40</ele>
        <time>1970-01-01T00:01:06Z</time>
      </trkpt>
      <trkpt lat="41.553761" lon="2.097283">
        <ele>217.80</ele>
        <time>1970-01-01T00:01:10Z</time>
      </trkpt>
      <trkpt lat="41.553916" lon="2.097111">
        <ele>219.20</ele>
        <time>1970-01-01T00:01:14Z</time>
      </trkpt>
      <trkpt lat="41.554051" lon="2.097180">
        <ele>218.80</ele>
        <time>1970-01-01T00:01:18Z</time>
      </trkpt>
      <trkpt lat="41.554185" lon="2.097336">
        <ele>218.80</ele>
        <time>1970-01-01T00:01:22Z</time>
      </trkpt>
      <trkpt lat="41.554326" lon="2.097326">
        <ele>218.60</ele>
        <time>1970-01-01T00:01:26Z</time>
      </trkpt>
      <trkpt lat="41.554500" lon="2.097295">
        <ele>219.20</ele>
        <time>1970-01-01T00:01:30Z</time>
      </trkpt>
      <trkpt lat="41.554675" lon="2.097268">
        <ele>219.40</ele>
        <time>1970-01-01T00:01:34Z</time>
      </trkpt>
      <trkpt lat="41.554843" lon="2.097258">
        <ele>219.40</ele>
        <time>1970-01-01T00:01:38Z</time>
      </trkpt>
      <trkpt lat="41.555001" lon="2.097253">
        <ele>219.40</ele>
        <time>1970-01-01T00:01:42Z</time>
      </trkpt>
      <trkpt lat="41.555168" lon="2.097246">
        <ele>220.40</ele>
        <time>1970-01-01T00:01:46Z</time>
      </trkpt>
      <trkpt lat="41.555278" lon="2.097246">
        <ele>221.60</ele>
        <time>1970-01-01T00:01:50Z</time>
      </trkpt>
      <trkpt lat="41.555373" lon="2.097283">
        <ele>222.00</ele>
        <time>1970-01-01T00:01:54Z</time>
      </trkpt>
      <trkpt lat="41.555453" lon="2.097353">
        <ele>222.20</ele>
        <time>1970-01-01T00:01:58Z</time>
      </trkpt>
      <trkpt lat="41.555503" lon="2.097335">
        <ele>221.60</ele>
        <time>1970-01-01T00:02:02Z</time>
      </trkpt>
      <trkpt lat="41.555578" lon="2.097348">
        <ele>222.80</ele>
        <time>1970-01-01T00:02:06Z</time>
      </trkpt>
      <trkpt lat="41.555671" lon="2.097385">
        <ele>222.40</ele>
        <time>1970-01-01T00:02:10Z</time>
      </trkpt>
      <trkpt lat="41.555851" lon="2.097325">
        <ele>222.80</ele>
        <time>1970-01-01T00:02:14Z</time>
      </trkpt>
      <trkpt lat="41.555946" lon="2.097278">
        <ele>223.40</ele>
        <time>1970-01-01T00:02:18Z</time>
      </trkpt>
      <trkpt lat="41.556063" lon="2.097275">
        <ele>223.80</ele>
        <time>1970-01-01T00:02:22Z</time>
      </trkpt>
      <trkpt lat="41.556191" lon="2.097138">
        <ele>224.40</ele>
        <time>1970-01-01T00:02:26Z</time>
      </trkpt>
      <trkpt lat="41.556338" lon="2.097110">
        <ele>224.80</ele>
        <time>1970-01-01T00:02:30Z</time>
      </trkpt>
      <trkpt lat="41.556503" lon="2.097146">
        <ele>224.60</ele>
        <time>1970-01-01T00:02:34Z</time>
      </trkpt>
      <trkpt lat="41.556625" lon="2.097161">
        <ele>225.00</ele>
        <time>1970-01-01T00:02:38Z</time>
      </trkpt>
      <trkpt lat="41.556701" lon="2.097126">
        <ele>225.60</ele>
        <time>1970-01-01T00:02:42Z</time>
      </trkpt>
      <trkpt lat="41.556826" lon="2.097095">
        <ele>226.40</ele>
        <time>1970-01-01T00:02:46Z</time>
      </trkpt>
      <trkpt lat="41.556920" lon="2.097173">
        <ele>226.40</ele>
        <time>1970-01-01T00:02:50Z</time>
      </trkpt>
      <trkpt lat="41.557008" lon="2.097126">
        <ele>227.00</ele>
        <time>1970-01-01T00:02:54Z</time>
      </trkpt>
      <trkpt lat="41.557061" lon="2.097080">
        <ele>228.20</ele>
        <time>1970-01-01T00:02:58Z</time>
      </trkpt>
      <trkpt lat="41.557588" lon="2.096865">
        <ele>227.40</ele>
        <time>1970-01-01T00:03:02Z</time>
      </trkpt>
      <trkpt lat="41.557793" lon="2.096670">
        <ele>227.20</ele>
        <time>1970-01-01T00:03:06Z</time>
      </trkpt>
      <trkpt lat="41.557995" lon="2.096501">
        <ele>228.40</ele>
        <time>1970-01-01T00:03:10Z</time>
      </trkpt>
      <trkpt lat="41.558173" lon="2.096486">
        <ele>227.80</ele>
        <time>1970-01-01T00:03:14Z</time>
      </trkpt>
      <trkpt lat="41.558355" lon="2.096461">
        <ele>228.00</ele>
        <time>1970-01-01T00:03:18Z</time>
      </trkpt>
      <trkpt lat="41.558548" lon="2.096433">
        <ele>228.40</ele>
        <time>1970-01-01T00:03:22Z</time>
      </trkpt>
      <trkpt lat="41.558681" lon="2.096426">
        <ele>229.00</ele>
        <time>1970-01-01T00:03:26Z</time>
      </trkpt>
      <trkpt lat="41.558760" lon="2.096423">
        <ele>230.20</ele>
        <time>1970-01-01T00:03:30Z</time>
      </trkpt>
      <trkpt lat="41.559131" lon="2.096546">
        <ele>228.80</ele>
        <time>1970-01-01T00:04:37Z</time>
      </trkpt>
      <trkpt lat="41.559213" lon="2.096365">
        <ele>230.20</ele>
        <time>1970-01-01T00:04:41Z</time>
      </trkpt>
      <trkpt lat="41.559336" lon="2.096175">
        <ele>230.20</ele>
        <time>1970-01-01T00:04:45Z</time>
      </trkpt>
      <trkpt lat="41.559470" lon="2.095993">
        <ele>230.60</ele>
        <time>1970-01-01T00:04:49Z</time>
      </trkpt>
      <trkpt lat="41.559603" lon="2.095803">
        <ele>230.60</ele>
        <time>1970-01-01T00:04:53Z</time>
      </trkpt>
      <trkpt lat="41.559728" lon="2.095603">
        <ele>230.60</ele>
        <time>1970-01-01T00:04:57Z</time>
      </trkpt>
      <trkpt lat="41.559841" lon="2.095431">
        <ele>231.60</ele>
        <time>1970-01-01T00:05:01Z</time>
      </trkpt>
      <trkpt lat="41.559911" lon="2.095310">
        <ele>232.20</ele>
        <time>1970-01-01T00:05:05Z</time>
      </trkpt>
      <trkpt lat="41.559911" lon="2.095310">
        <ele>232.20</ele>
        <time>1970-01-01T00:05:09Z</time>
      </trkpt>
      <trkpt lat="41.560038" lon="2.095063">
        <ele>232.20</ele>
        <time>1970-01-01T00:05:18Z</time>
      </trkpt>
      <trkpt lat="41.560153" lon="2.094888">
        <ele>233.00</ele>
        <time>1970-01-01T00:05:22Z</time>
      </trkpt>
      <trkpt lat="41.560268" lon="2.094715">
        <ele>232.60</ele>
        <time>1970-01-01T00:05:26Z</time>
      </trkpt>
      <trkpt lat="41.560381" lon="2.094518">
        <ele>233.00</ele>
        <time>1970-01-01T00:05:30Z</time>
      </trkpt>
      <trkpt lat="41.560498" lon="2.094310">
        <ele>233.00</ele>
        <time>1970-01-01T00:05:34Z</time>
      </trkpt>
      <trkpt lat="41.560610" lon="2.094120">
        <ele>233.80</ele>
        <time>1970-01-01T00:05:38Z</time>
      </trkpt>
      <trkpt lat="41.560718" lon="2.093928">
        <ele>234.60</ele>
        <time>1970-01-01T00:05:42Z</time>
      </trkpt>
      <trkpt lat="41.560833" lon="2.093741">
        <ele>233.60</ele>
        <time>1970-01-01T00:05:46Z</time>
      </trkpt>
      <trkpt lat="41.560931" lon="2.093556">
        <ele>235.00</ele>
        <time>1970-01-01T00:05:50Z</time>
      </trkpt>
      <trkpt lat="41.561040" lon="2.093405">
        <ele>236.20</ele>
        <time>1970-01-01T00:05:54Z</time>
      </trkpt>
      <trkpt lat="41.561140" lon="2.093243">
        <ele>236.00</ele>
        <time>1970-01-01T00:05:58Z</time>
      </trkpt>
      <trkpt lat="41.561231" lon="2.093078">
        <ele>237.00</ele>
        <time>1970-01-01T00:06:02Z</time>
      </trkpt>
      <trkpt lat="41.561321" lon="2.092935">
        <ele>237.40</ele>
        <time>1970-01-01T00:06:06Z</time>
      </trkpt>
      <trkpt lat="41.561351" lon="2.092885">
        <ele>238.00</ele>
        <time>1970-01-01T00:06:10Z</time>
      </trkpt>
      <trkpt lat="41.561408" lon="2.092786">
        <ele>237.40</ele>
        <time>1970-01-01T00:06:14Z</time>
      </trkpt>
      <trkpt lat="41.561498" lon="2.092636">
        <ele>239.00</ele>
        <time>1970-01-01T00:06:18Z</time>
      </trkpt>
      <trkpt lat="41.561591" lon="2.092481">
        <ele>239.60</ele>
        <time>1970-01-01T00:06:22Z</time>
      </trkpt>
      <trkpt lat="41.561683" lon="2.092331">
        <ele>240.80</ele>
        <time>1970-01-01T00:06:26Z</time>
      </trkpt>
      <trkpt lat="41.561773" lon="2.092188">
        <ele>241.40</ele>
        <time>1970-01-01T00:06:30Z</time>
      </trkpt>
      <trkpt lat="41.561853" lon="2.092060">
        <ele>242.40</ele>
        <time>1970-01-01T00:06:34Z</time>
      </trkpt>
      <trkpt lat="41.561928" lon="2.091941">
        <ele>241.80</ele>
        <time>1970-01-01T00:06:38Z</time>
      </trkpt>
      <trkpt lat="41.562015" lon="2.091811">
        <ele>244.40</ele>
        <time>1970-01-01T00:06:42Z</time>
      </trkpt>
      <trkpt lat="41.562103" lon="2.091688">
        <ele>244.20</ele>
        <time>1970-01-01T00:06:46Z</time>
      </trkpt>
      <trkpt lat="41.562138" lon="2.091580">
        <ele>245.20</ele>
        <time>1970-01-01T00:06:50Z</time>
      </trkpt>
      <trkpt lat="41.562088" lon="2.091403">
        <ele>245.00</ele>
        <time>1970-01-01T00:07:26Z</time>
      </trkpt>
      <trkpt lat="41.562120" lon="2.091316">
        <ele>245.20</ele>
        <time>1970-01-01T00:07:30Z</time>
      </trkpt>
      <trkpt lat="41.562148" lon="2.091200">
        <ele>245.20</ele>
        <time>1970-01-01T00:07:34Z</time>
      </trkpt>
      <trkpt lat="41.562173" lon="2.091096">
        <ele>245.00</ele>
        <time>1970-01-01T00:07:38Z</time>
      </trkpt>
      <trkpt lat="41.562188" lon="2.090948">
        <ele>245.20</ele>
        <time>1970-01-01T00:07:42Z</time>
      </trkpt>
      <trkpt lat="41.562206" lon="2.090808">
        <ele>245.40</ele>
        <time>1970-01-01T00:07:46Z</time>
      </trkpt>
      <trkpt lat="41.562240" lon="2.090646">
        <ele>245.40</ele>
        <time>1970-01-01T00:07:50Z</time>
      </trkpt>
      <trkpt lat="41.562273" lon="2.090475">
        <ele>245.00</ele>
        <time>1970-01-01T00:07:54Z</time>
      </trkpt>
      <trkpt lat="41.562348" lon="2.090285">
        <ele>244.80</ele>
        <time>1970-01-01T00:07:58Z</time>
      </trkpt>
      <trkpt lat="41.562453" lon="2.090091">
        <ele>244.80</ele>
        <time>1970-01-01T00:08:02Z</time>
      </trkpt>
      <trkpt lat="41.562560" lon="2.089935">
        <ele>244.80</ele>
        <time>1970-01-01T00:08:06Z</time>
      </trkpt>
      <trkpt lat="41.562678" lon="2.089831">
        <ele>244.60</ele>
        <time>1970-01-01T00:08:10Z</time>
      </trkpt>
      <trkpt lat="41.562786" lon="2.089736">
        <ele>244.80</ele>
        <time>1970-01-01T00:08:14Z</time>
      </trkpt>
      <trkpt lat="41.562890" lon="2.089570">
        <ele>246.00</ele>
        <time>1970-01-01T00:08:18Z</time>
      </trkpt>
      <trkpt lat="41.562958" lon="2.089371">
        <ele>245.40</ele>
        <time>1970-01-01T00:08:22Z</time>
      </trkpt>
      <trkpt lat="41.562958" lon="2.089371">
        <ele>245.00</ele>
        <time>1970-01-01T00:08:26Z</time>
      </trkpt>
      <trkpt lat="41.562571" lon="2.089073">
        <ele>243.40</ele>
        <time>1970-01-01T00:08:30Z</time>
      </trkpt>
      <trkpt lat="41.562578" lon="2.088763">
        <ele>244.20</ele>
        <time>1970-01-01T00:08:44Z</time>
      </trkpt>
      <trkpt lat="41.562560" lon="2.088518">
        <ele>243.20</ele>
        <time>1970-01-01T00:08:48Z</time>
      </trkpt>
      <trkpt lat="41.562511" lon="2.088226">
        <ele>242.00</ele>
        <time>1970-01-01T00:08:52Z</time>
      </trkpt>
      <trkpt lat="41.562445" lon="2.087901">
        <ele>240.40</ele>
        <time>1970-01-01T00:08:56Z</time>
      </trkpt>
      <trkpt lat="41.562380" lon="2.087571">
        <ele>239.00</ele>
        <time>1970-01-01T00:09:00Z</time>
      </trkpt>
      <trkpt lat="41.562358" lon="2.087421">
        <ele>239.20</ele>
        <time>1970-01-01T00:09:04Z</time>
      </trkpt>
      <trkpt lat="41.562358" lon="2.087421">
        <ele>240.20</ele>
        <time>1970-01-01T00:09:08Z</time>
      </trkpt>
      <trkpt lat="41.562390" lon="2.087191">
        <ele>239.80</ele>
        <time>1970-01-01T00:09:18Z</time>
      </trkpt>
      <trkpt lat="41.562573" lon="2.087096">
        <ele>239.80</ele>
        <time>1970-01-01T00:09:22Z</time>
      </trkpt>
      <trkpt lat="41.562783" lon="2.086976">
        <ele>239.40</ele>
        <time>1970-01-01T00:09:26Z</time>
      </trkpt>
      <trkpt lat="41.562865" lon="2.086956">
        <ele>239.40</ele>
        <time>1970-01-01T00:09:30Z</time>
      </trkpt>
      <trkpt lat="41.563011" lon="2.086846">
        <ele>240.80</ele>
        <time>1970-01-01T00:09:34Z</time>
      </trkpt>
      <trkpt lat="41.563266" lon="2.086665">
        <ele>240.20</ele>
        <time>1970-01-01T00:10:23Z</time>
      </trkpt>
      <trkpt lat="41.563433" lon="2.086571">
        <ele>241.40</ele>
        <time>1970-01-01T00:10:27Z</time>
      </trkpt>
      <trkpt lat="41.563583" lon="2.086510">
        <ele>241.60</ele>
        <time>1970-01-01T00:10:31Z</time>
      </trkpt>
      <trkpt lat="41.563726" lon="2.086443">
        <ele>241.80</ele>
        <time>1970-01-01T00:10:35Z</time>
      </trkpt>
      <trkpt lat="41.563866" lon="2.086346">
        <ele>242.60</ele>
        <time>1970-01-01T00:10:39Z</time>
      </trkpt>
      <trkpt lat="41.564033" lon="2.086300">
        <ele>242.60</ele>
        <time>1970-01-01T00:10:43Z</time>
      </trkpt>
      <trkpt lat="41.564186" lon="2.086203">
        <ele>243.40</ele>
        <time>1970-01-01T00:10:47Z</time>
      </trkpt>
      <trkpt lat="41.564356" lon="2.086126">
        <ele>243.80</ele>
        <time>1970-01-01T00:10:51Z</time>
      </trkpt>
      <trkpt lat="41.564543" lon="2.086043">
        <ele>243.60</ele>
        <time>1970-01-01T00:10:55Z</time>
      </trkpt>
      <trkpt lat="41.564778" lon="2.085826">
        <ele>244.00</ele>
        <time>1970-01-01T00:10:59Z</time>
      </trkpt>
      <trkpt lat="41.564910" lon="2.085735">
        <ele>244.60</ele>
        <time>1970-01-01T00:11:03Z</time>
      </trkpt>
      <trkpt lat="41.565066" lon="2.085658">
        <ele>244.80</ele>
        <time>1970-01-01T00:11:07Z</time>
      </trkpt>
      <trkpt lat="41.565221" lon="2.085546">
        <ele>246.00</ele>
        <time>1970-01-01T00:11:11Z</time>
      </trkpt>
      <trkpt lat="41.565360" lon="2.085448">
        <ele>246.80</ele>
        <time>1970-01-01T00:11:15Z</time>
      </trkpt>
      <trkpt lat="41.565505" lon="2.085321">
        <ele>247.60</ele>
        <time>1970-01-01T00:11:19Z</time>
      </trkpt>
      <trkpt lat="41.565631" lon="2.085161">
        <ele>248.20</ele>
        <time>1970-01-01T00:11:23Z</time>
      </trkpt>
      <trkpt lat="41.565765" lon="2.085018">
        <ele>248.20</ele>
        <time>1970-01-01T00:11:27Z</time>
      </trkpt>
      <trkpt lat="41.565881" lon="2.084860">
        <ele>249.00</ele>
        <time>1970-01-01T00:11:31Z</time>
      </trkpt>
      <trkpt lat="41.565985" lon="2.084710">
        <ele>248.80</ele>
        <time>1970-01-01T00:11:35Z</time>
      </trkpt>
      <trkpt lat="41.566080" lon="2.084548">
        <ele>250.60</ele>
        <time>1970-01-01T00:11:39Z</time>
      </trkpt>
      <trkpt lat="41.566163" lon="2.084388">
        <ele>251.60</ele>
        <time>1970-01-01T00:11:43Z</time>
      </trkpt>
      <trkpt lat="41.566243" lon="2.084225">
        <ele>251.20</ele>
        <time>1970-01-01T00:11:47Z</time>
      </trkpt>
      <trkpt lat="41.566288" lon="2.084030">
        <ele>252.40</ele>
        <time>1970-01-01T00:11:51Z</time>
      </trkpt>
      <trkpt lat="41.566260" lon="2.083818">
        <ele>252.80</ele>
        <time>1970-01-01T00:11:55Z</time>
      </trkpt>
      <trkpt lat="41.566146" lon="2.083691">
        <ele>253.40</ele>
        <time>1970-01-01T00:11:59Z</time>
      </trkpt>
      <trkpt lat="41.565988" lon="2.083626">
        <ele>253.20</ele>
        <time>1970-01-01T00:12:03Z</time>
      </trkpt>
      <trkpt lat="41.565861" lon="2.083563">
        <ele>254.40</ele>
        <time>1970-01-01T00:12:07Z</time>
      </trkpt>
      <trkpt lat="41.565771" lon="2.083515">
        <ele>254.20</ele>
        <time>1970-01-01T00:12:11Z</time>
      </trkpt>
      <trkpt lat="41.565675" lon="2.083455">
        <ele>254.00</ele>
        <time>1970-01-01T00:12:15Z</time>
      </trkpt>
      <trkpt lat="41.565603" lon="2.083408">
        <ele>254.60</ele>
        <time>1970-01-01T00:12:19Z</time>
      </trkpt>
      <trkpt lat="41.565541" lon="2.083365">
        <ele>255.00</ele>
        <time>1970-01-01T00:12:23Z</time>
      </trkpt>
      <trkpt lat="41.565420" lon="2.083233">
        <ele>255.00</ele>
        <time>1970-01-01T00:12:27Z</time>
      </trkpt>
      <trkpt lat="41.565310" lon="2.083055">
        <ele>255.00</ele>
        <time>1970-01-01T00:12:31Z</time>
      </trkpt>
      <trkpt lat="41.565241" lon="2.082851">
        <ele>255.60</ele>
        <time>1970-01-01T00:12:35Z</time>
      </trkpt>
      <trkpt lat="41.565320" lon="2.082645">
        <ele>256.00</ele>
        <time>1970-01-01T00:12:39Z</time>
      </trkpt>
      <trkpt lat="41.565403" lon="2.082423">
        <ele>256.80</ele>
        <time>1970-01-01T00:12:43Z</time>
      </trkpt>
      <trkpt lat="41.565483" lon="2.082203">
        <ele>255.60</ele>
        <time>1970-01-01T00:12:47Z</time>
      </trkpt>
      <trkpt lat="41.565553" lon="2.081985">
        <ele>255.80</ele>
        <time>1970-01-01T00:12:51Z</time>
      </trkpt>
      <trkpt lat="41.565616" lon="2.081770">
        <ele>256.80</ele>
        <time>1970-01-01T00:12:55Z</time>
      </trkpt>
      <trkpt lat="41.565658" lon="2.081560">
        <ele>258.00</ele>
        <time>1970-01-01T00:12:59Z</time>
      </trkpt>
      <trkpt lat="41.565685" lon="2.081345">
        <ele>258.40</ele>
        <time>1970-01-01T00:13:03Z</time>
      </trkpt>
      <trkpt lat="41.565735" lon="2.081131">
        <ele>258.80</ele>
        <time>1970-01-01T00:13:07Z</time>
      </trkpt>
      <trkpt lat="41.565765" lon="2.080920">
        <ele>258.60</ele>
        <time>1970-01-01T00:13:11Z</time>
      </trkpt>
      <trkpt lat="41.565705" lon="2.080735">
        <ele>259.80</ele>
        <time>1970-01-01T00:13:15Z</time>
      </trkpt>
      <trkpt lat="41.565621" lon="2.080550">
        <ele>259.60</ele>
        <time>1970-01-01T00:13:19Z</time>
      </trkpt>
      <trkpt lat="41.565585" lon="2.080335">
        <ele>260.20</ele>
        <time>1970-01-01T00:13:23Z</time>
      </trkpt>
      <trkpt lat="41.565605" lon="2.080126">
        <ele>261.20</ele>
        <time>1970-01-01T00:13:27Z</time>
      </trkpt>
      <trkpt lat="41.565655" lon="2.079916">
        <ele>262.00</ele>
        <time>1970-01-01T00:13:31Z</time>
      </trkpt>
      <trkpt lat="41.565763" lon="2.079753">
        <ele>262.00</ele>
        <time>1970-01-01T00:13:35Z</time>
      </trkpt>
      <trkpt lat="41.565843" lon="2.079560">
        <ele>263.00</ele>
        <time>1970-01-01T00:13:39Z</time>
      </trkpt>
      <trkpt lat="41.565926" lon="2.079376">
        <ele>263.00</ele>
        <time>1970-01-01T00:13:43Z</time>
      </trkpt>
      <trkpt lat="41.566035" lon="2.079218">
        <ele>263.20</ele>
        <time>1970-01-01T00:13:47Z</time>
      </trkpt>
      <trkpt lat="41.566150" lon="2.079068">
        <ele>264.20</ele>
        <time>1970-01-01T00:13:51Z</time>
      </trkpt>
      <trkpt lat="41.566241" lon="2.078920">
        <ele>264.00</ele>
        <time>1970-01-01T00:13:55Z</time>
      </trkpt>
      <trkpt lat="41.566316" lon="2.078766">
        <ele>265.00</ele>
        <time>1970-01-01T00:13:59Z</time>
      </trkpt>
      <trkpt lat="41.566431" lon="2.078626">
        <ele>265.20</ele>
        <time>1970-01-01T00:14:03Z</time>
      </trkpt>
      <trkpt lat="41.566528" lon="2.078450">
        <ele>264.80</ele>
        <time>1970-01-01T00:14:07Z</time>
      </trkpt>
      <trkpt lat="41.566585" lon="2.078318">
        <ele>265.20</ele>
        <time>1970-01-01T00:14:11Z</time>
      </trkpt>
      <trkpt lat="41.566626" lon="2.078171">
        <ele>265.40</ele>
        <time>1970-01-01T00:14:15Z</time>
      </trkpt>
      <trkpt lat="41.566656" lon="2.078016">
        <ele>265.40</ele>
        <time>1970-01-01T00:14:19Z</time>
      </trkpt>
      <trkpt lat="41.566721" lon="2.077860">
        <ele>267.00</ele>
        <time>1970-01-01T00:14:23Z</time>
      </trkpt>
      <trkpt lat="41.566773" lon="2.077673">
        <ele>266.20</ele>
        <time>1970-01-01T00:14:27Z</time>
      </trkpt>
      <trkpt lat="41.566751" lon="2.077476">
        <ele>266.80</ele>
        <time>1970-01-01T00:14:31Z</time>
      </trkpt>
      <trkpt lat="41.566661" lon="2.077326">
        <ele>267.80</ele>
        <time>1970-01-01T00:14:35Z</time>
      </trkpt>
      <trkpt lat="41.566536" lon="2.077220">
        <ele>268.80</ele>
        <time>1970-01-01T00:14:39Z</time>
      </trkpt>
      <trkpt lat="41.566393" lon="2.077140">
        <ele>268.80</ele>
        <time>1970-01-01T00:14:43Z</time>
      </trkpt>
      <trkpt lat="41.566290" lon="2.077045">
        <ele>270.20</ele>
        <time>1970-01-01T00:14:47Z</time>
      </trkpt>
      <trkpt lat="41.566263" lon="2.076860">
        <ele>271.00</ele>
        <time>1970-01-01T00:14:51Z</time>
      </trkpt>
      <trkpt lat="41.566228" lon="2.076635">
        <ele>269.20</ele>
        <time>1970-01-01T00:14:55Z</time>
      </trkpt>
      <trkpt lat="41.566206" lon="2.076371">
        <ele>268.60</ele>
        <time>1970-01-01T00:14:59Z</time>
      </trkpt>
      <trkpt lat="41.566291" lon="2.076100">
        <ele>268.80</ele>
        <time>1970-01-01T00:15:03Z</time>
      </trkpt>
      <trkpt lat="41.566421" lon="2.075875">
        <ele>269.40</ele>
        <time>1970-01-01T00:15:07Z</time>
      </trkpt>
      <trkpt lat="41.566526" lon="2.075643">
        <ele>268.60</ele>
        <time>1970-01-01T00:15:11Z</time>
      </trkpt>
      <trkpt lat="41.566580" lon="2.075391">
        <ele>269.20</ele>
        <time>1970-01-01T00:15:15Z</time>
      </trkpt>
      <trkpt lat="41.566603" lon="2.075140">
        <ele>270.60</ele>
        <time>1970-01-01T00:15:19Z</time>
      </trkpt>
      <trkpt lat="41.566626" lon="2.074888">
        <ele>270.20</ele>
        <time>1970-01-01T00:15:23Z</time>
      </trkpt>
      <trkpt lat="41.566648" lon="2.074641">
        <ele>270.80</ele>
        <time>1970-01-01T00:15:27Z</time>
      </trkpt>
      <trkpt lat="41.566666" lon="2.074390">
        <ele>271.20</ele>
        <time>1970-01-01T00:15:31Z</time>
      </trkpt>
      <trkpt lat="41.566705" lon="2.074146">
        <ele>272.20</ele>
        <time>1970-01-01T00:15:35Z</time>
      </trkpt>
      <trkpt lat="41.566758" lon="2.073911">
        <ele>272.20</ele>
        <time>1970-01-01T00:15:39Z</time>
      </trkpt>
      <trkpt lat="41.566816" lon="2.073686">
        <ele>273.40</ele>
        <time>1970-01-01T00:15:43Z</time>
      </trkpt>
      <trkpt lat="41.566873" lon="2.073473">
        <ele>274.60</ele>
        <time>1970-01-01T00:15:47Z</time>
      </trkpt>
      <trkpt lat="41.566930" lon="2.073268">
        <ele>274.60</ele>
        <time>1970-01-01T00:15:51Z</time>
      </trkpt>
      <trkpt lat="41.566986" lon="2.073058">
        <ele>275.40</ele>
        <time>1970-01-01T00:15:55Z</time>
      </trkpt>
      <trkpt lat="41.567050" lon="2.072856">
        <ele>275.80</ele>
        <time>1970-01-01T00:15:59Z</time>
      </trkpt>
      <trkpt lat="41.567111" lon="2.072665">
        <ele>276.40</ele>
        <time>1970-01-01T00:16:03Z</time>
      </trkpt>
      <trkpt lat="41.567175" lon="2.072471">
        <ele>277.80</ele>
        <time>1970-01-01T00:16:07Z</time>
      </trkpt>
      <trkpt lat="41.567243" lon="2.072300">
        <ele>277.40</ele>
        <time>1970-01-01T00:16:11Z</time>
      </trkpt>
      <trkpt lat="41.567321" lon="2.072143">
        <ele>279.40</ele>
        <time>1970-01-01T00:16:15Z</time>
      </trkpt>
      <trkpt lat="41.567396" lon="2.071965">
        <ele>280.40</ele>
        <time>1970-01-01T00:16:19Z</time>
      </trkpt>
      <trkpt lat="41.567471" lon="2.071788">
        <ele>281.80</ele>
        <time>1970-01-01T00:16:23Z</time>
      </trkpt>
      <trkpt lat="41.567545" lon="2.071613">
        <ele>280.60</ele>
        <time>1970-01-01T00:16:27Z</time>
      </trkpt>
      <trkpt lat="41.567618" lon="2.071435">
        <ele>280.00</ele>
        <time>1970-01-01T00:16:31Z</time>
      </trkpt>
      <trkpt lat="41.567680" lon="2.071243">
        <ele>280.40</ele>
        <time>1970-01-01T00:16:35Z</time>
      </trkpt>
      <trkpt lat="41.567740" lon="2.071043">
        <ele>280.60</ele>
        <time>1970-01-01T00:16:39Z</time>
      </trkpt>
      <trkpt lat="41.567796" lon="2.070843">
        <ele>281.60</ele>
        <time>1970-01-01T00:16:43Z</time>
      </trkpt>
      <trkpt lat="41.567848" lon="2.070633">
        <ele>282.00</ele>
        <time>1970-01-01T00:16:47Z</time>
      </trkpt>
      <trkpt lat="41.567893" lon="2.070418">
        <ele>281.60</ele>
        <time>1970-01-01T00:16:51Z</time>
      </trkpt>
      <trkpt lat="41.567930" lon="2.070210">
        <ele>281.60</ele>
        <time>1970-01-01T00:16:55Z</time>
      </trkpt>
      <trkpt lat="41.567956" lon="2.070030">
        <ele>282.80</ele>
        <time>1970-01-01T00:16:59Z</time>
      </trkpt>
      <trkpt lat="41.567971" lon="2.069923">
        <ele>283.40</ele>
        <time>1970-01-01T00:17:03Z</time>
      </trkpt>
      <trkpt lat="41.567980" lon="2.069733">
        <ele>283.40</ele>
        <time>1970-01-01T00:17:07Z</time>
      </trkpt>
      <trkpt lat="41.568033" lon="2.069513">
        <ele>282.80</ele>
        <time>1970-01-01T00:17:11Z</time>
      </trkpt>
      <trkpt lat="41.568086" lon="2.069276">
        <ele>284.20</ele>
        <time>1970-01-01T00:17:15Z</time>
      </trkpt>
      <trkpt lat="41.568148" lon="2.069040">
        <ele>284.20</ele>
        <time>1970-01-01T00:17:19Z</time>
      </trkpt>
      <trkpt lat="41.568220" lon="2.068813">
        <ele>284.80</ele>
        <time>1970-01-01T00:17:23Z</time>
      </trkpt>
      <trkpt lat="41.568300" lon="2.068605">
        <ele>285.40</ele>
        <time>1970-01-01T00:17:27Z</time>
      </trkpt>
      <trkpt lat="41.568391" lon="2.068406">
        <ele>286.00</ele>
        <time>1970-01-01T00:17:31Z</time>
      </trkpt>
      <trkpt lat="41.568490" lon="2.068201">
        <ele>287.00</ele>
        <time>1970-01-01T00:17:35Z</time>
      </trkpt>
      <trkpt lat="41.568570" lon="2.068013">
        <ele>287.40</ele>
        <time>1970-01-01T00:17:39Z</time>
      </trkpt>
      <trkpt lat="41.568646" lon="2.067818">
        <ele>288.20</ele>
        <time>1970-01-01T00:17:43Z</time>
      </trkpt>
      <trkpt lat="41.568735" lon="2.067621">
        <ele>288.80</ele>
        <time>1970-01-01T00:17:47Z</time>
      </trkpt>
      <trkpt lat="41.568826" lon="2.067431">
        <ele>289.00</ele>
        <time>1970-01-01T00:17:51Z</time>
      </trkpt>
      <trkpt lat="41.568903" lon="2.067241">
        <ele>289.20</ele>
        <time>1970-01-01T00:17:55Z</time>
      </trkpt>
      <trkpt lat="41.568961" lon="2.067033">
        <ele>289.40</ele>
        <time>1970-01-01T00:17:59Z</time>
      </trkpt>
      <trkpt lat="41.569025" lon="2.066826">
        <ele>290.00</ele>
        <time>1970-01-01T00:18:03Z</time>
      </trkpt>
      <trkpt lat="41.569086" lon="2.066623">
        <ele>290.80</ele>
        <time>1970-01-01T00:18:07Z</time>
      </trkpt>
      <trkpt lat="41.569133" lon="2.066418">
        <ele>291.40</ele>
        <time>1970-01-01T00:18:11Z</time>
      </trkpt>
      <trkpt lat="41.569178" lon="2.066211">
        <ele>290.80</ele>
        <time>1970-01-01T00:18:15Z</time>
      </trkpt>
      <trkpt lat="41.569201" lon="2.065995">
        <ele>291.80</ele>
        <time>1970-01-01T00:18:19Z</time>
      </trkpt>
      <trkpt lat="41.569230" lon="2.065785">
        <ele>291.80</ele>
        <time>1970-01-01T00:18:23Z</time>
      </trkpt>
      <trkpt lat="41.569240" lon="2.065578">
        <ele>292.20</ele>
        <time>1970-01-01T00:18:27Z</time>
      </trkpt>
      <trkpt lat="41.569248" lon="2.065371">
        <ele>293.80</ele>
        <time>1970-01-01T00:18:31Z</time>
      </trkpt>
      <trkpt lat="41.569260" lon="2.065176">
        <ele>294.20</ele>
        <time>1970-01-01T00:18:35Z</time>
      </trkpt>
      <trkpt lat="41.569266" lon="2.064981">
        <ele>295.20</ele>
        <time>1970-01-01T00:18:39Z</time>
      </trkpt>
      <trkpt lat="41.569273" lon="2.064796">
        <ele>295.00</ele>
        <time>1970-01-01T00:18:43Z</time>
      </trkpt>
      <trkpt lat="41.569275" lon="2.064610">
        <ele>296.00</ele>
        <time>1970-01-01T00:18:47Z</time>
      </trkpt>
      <trkpt lat="41.569283" lon="2.064423">
        <ele>297.60</ele>
        <time>1970-01-01T00:18:51Z</time>
      </trkpt>
      <trkpt lat="41.569293" lon="2.064243">
        <ele>299.00</ele>
        <time>1970-01-01T00:18:55Z</time>
      </trkpt>
      <trkpt lat="41.569303" lon="2.064080">
        <ele>300.00</ele>
        <time>1970-01-01T00:18:59Z</time>
      </trkpt>
      <trkpt lat="41.569311" lon="2.063915">
        <ele>300.40</ele>
        <time>1970-01-01T00:19:03Z</time>
      </trkpt>
      <trkpt lat="41.569336" lon="2.063746">
        <ele>301.80</ele>
        <time>1970-01-01T00:19:07Z</time>
      </trkpt>
      <trkpt lat="41.569366" lon="2.063576">
        <ele>302.00</ele>
        <time>1970-01-01T00:19:11Z</time>
      </trkpt>
      <trkpt lat="41.569395" lon="2.063413">
        <ele>302.60</ele>
        <time>1970-01-01T00:19:15Z</time>
      </trkpt>
      <trkpt lat="41.569436" lon="2.063255">
        <ele>304.00</ele>
        <time>1970-01-01T00:19:19Z</time>
      </trkpt>
      <trkpt lat="41.569486" lon="2.063100">
        <ele>304.00</ele>
        <time>1970-01-01T00:19:23Z</time>
      </trkpt>
      <trkpt lat="41.569525" lon="2.062935">
        <ele>304.20</ele>
        <time>1970-01-01T00:19:27Z</time>
      </trkpt>
      <trkpt lat="41.569560" lon="2.062763">
        <ele>305.20</ele>
        <time>1970-01-01T00:19:31Z</time>
      </trkpt>
      <trkpt lat="41.569613" lon="2.062593">
        <ele>306.00</ele>
        <time>1970-01-01T00:19:35Z</time>
      </trkpt>
      <trkpt lat="41.569655" lon="2.062430">
        <ele>307.00</ele>
        <time>1970-01-01T00:19:39Z</time>
      </trkpt>
      <trkpt lat="41.569708" lon="2.062268">
        <ele>307.80</ele>
        <time>1970-01-01T00:19:43Z</time>
      </trkpt>
      <trkpt lat="41.569783" lon="2.062095">
        <ele>307.60</ele>
        <time>1970-01-01T00:19:47Z</time>
      </trkpt>
      <trkpt lat="41.569883" lon="2.061923">
        <ele>306.40</ele>
        <time>1970-01-01T00:19:51Z</time>
      </trkpt>
      <trkpt lat="41.569955" lon="2.061800">
        <ele>306.20</ele>
        <time>1970-01-01T00:19:55Z</time>
      </trkpt>
      <trkpt lat="41.570018" lon="2.061645">
        <ele>306.00</ele>
        <time>1970-01-01T00:19:59Z</time>
      </trkpt>
      <trkpt lat="41.570071" lon="2.061490">
        <ele>306.00</ele>
        <time>1970-01-01T00:20:03Z</time>
      </trkpt>
      <trkpt lat="41.570190" lon="2.061388">
        <ele>306.40</ele>
        <time>1970-01-01T00:20:07Z</time>
      </trkpt>
      <trkpt lat="41.570316" lon="2.061250">
        <ele>306.40</ele>
        <time>1970-01-01T00:20:11Z</time>
      </trkpt>
      <trkpt lat="41.570478" lon="2.061171">
        <ele>306.20</ele>
        <time>1970-01-01T00:20:15Z</time>
      </trkpt>
      <trkpt lat="41.570640" lon="2.061093">
        <ele>306.40</ele>
        <time>1970-01-01T00:20:19Z</time>
      </trkpt>
      <trkpt lat="41.570820" lon="2.061008">
        <ele>306.60</ele>
        <time>1970-01-01T00:20:23Z</time>
      </trkpt>
      <trkpt lat="41.571010" lon="2.060921">
        <ele>307.00</ele>
        <time>1970-01-01T00:20:27Z</time>
      </trkpt>
      <trkpt lat="41.571195" lon="2.060830">
        <ele>306.80</ele>
        <time>1970-01-01T00:20:31Z</time>
      </trkpt>
      <trkpt lat="41.571386" lon="2.060766">
        <ele>307.00</ele>
        <time>1970-01-01T00:20:35Z</time>
      </trkpt>
      <trkpt lat="41.571605" lon="2.060783">
        <ele>307.40</ele>
        <time>1970-01-01T00:20:39Z</time>
      </trkpt>
      <trkpt lat="41.571838" lon="2.060928">
        <ele>307.00</ele>
        <time>1970-01-01T00:20:43Z</time>
      </trkpt>
      <trkpt lat="41.572091" lon="2.061113">
        <ele>306.40</ele>
        <time>1970-01-01T00:20:47Z</time>
      </trkpt>
      <trkpt lat="41.572431" lon="2.061288">
        <ele>302.20</ele>
        <time>1970-01-01T00:20:51Z</time>
      </trkpt>
      <trkpt lat="41.572825" lon="2.061466">
        <ele>298.00</ele>
        <time>1970-01-01T00:20:55Z</time>
      </trkpt>
      <trkpt lat="41.573180" lon="2.061646">
        <ele>299.20</ele>
        <time>1970-01-01T00:20:59Z</time>
      </trkpt>
      <trkpt lat="41.573530" lon="2.061801">
        <ele>299.80</ele>
        <time>1970-01-01T00:21:03Z</time>
      </trkpt>
      <trkpt lat="41.573863" lon="2.061906">
        <ele>299.80</ele>
        <time>1970-01-01T00:21:07Z</time>
      </trkpt>
      <trkpt lat="41.574121" lon="2.061911">
        <ele>303.20</ele>
        <time>1970-01-01T00:21:11Z</time>
      </trkpt>
      <trkpt lat="41.574256" lon="2.061875">
        <ele>305.80</ele>
        <time>1970-01-01T00:21:15Z</time>
      </trkpt>
      <trkpt lat="41.574326" lon="2.061911">
        <ele>306.60</ele>
        <time>1970-01-01T00:21:19Z</time>
      </trkpt>
      <trkpt lat="41.574430" lon="2.061951">
        <ele>306.40</ele>
        <time>1970-01-01T00:21:23Z</time>
      </trkpt>
      <trkpt lat="41.574505" lon="2.061995">
        <ele>308.00</ele>
        <time>1970-01-01T00:21:27Z</time>
      </trkpt>
      <trkpt lat="41.574586" lon="2.062018">
        <ele>309.00</ele>
        <time>1970-01-01T00:21:31Z</time>
      </trkpt>
      <trkpt lat="41.574656" lon="2.062108">
        <ele>308.80</ele>
        <time>1970-01-01T00:21:35Z</time>
      </trkpt>
      <trkpt lat="41.574753" lon="2.062141">
        <ele>310.80</ele>
        <time>1970-01-01T00:21:39Z</time>
      </trkpt>
      <trkpt lat="41.574846" lon="2.062180">
        <ele>310.60</ele>
        <time>1970-01-01T00:21:43Z</time>
      </trkpt>
      <trkpt lat="41.574936" lon="2.062233">
        <ele>311.20</ele>
        <time>1970-01-01T00:21:47Z</time>
      </trkpt>
      <trkpt lat="41.575035" lon="2.062313">
        <ele>312.00</ele>
        <time>1970-01-01T00:21:51Z</time>
      </trkpt>
      <trkpt lat="41.575136" lon="2.062381">
        <ele>312.80</ele>
        <time>1970-01-01T00:21:55Z</time>
      </trkpt>
      <trkpt lat="41.575236" lon="2.062478">
        <ele>313.20</ele>
        <time>1970-01-01T00:21:59Z</time>
      </trkpt>
      <trkpt lat="41.575328" lon="2.062593">
        <ele>313.00</ele>
        <time>1970-01-01T00:22:03Z</time>
      </trkpt>
      <trkpt lat="41.575405" lon="2.062725">
        <ele>313.40</ele>
        <time>1970-01-01T00:22:07Z</time>
      </trkpt>
      <trkpt lat="41.575476" lon="2.062853">
        <ele>313.40</ele>
        <time>1970-01-01T00:22:11Z</time>
      </trkpt>
      <trkpt lat="41.575556" lon="2.062976">
        <ele>314.00</ele>
        <time>1970-01-01T00:22:15Z</time>
      </trkpt>
      <trkpt lat="41.575625" lon="2.063116">
        <ele>315.00</ele>
        <time>1970-01-01T00:22:19Z</time>
      </trkpt>
      <trkpt lat="41.575658" lon="2.063263">
        <ele>315.80</ele>
        <time>1970-01-01T00:22:23Z</time>
      </trkpt>
      <trkpt lat="41.575675" lon="2.063391">
        <ele>317.00</ele>
        <time>1970-01-01T00:22:27Z</time>
      </trkpt>
      <trkpt lat="41.575736" lon="2.063473">
        <ele>320.00</ele>
        <time>1970-01-01T00:22:31Z</time>
      </trkpt>
      <trkpt lat="41.575793" lon="2.063535">
        <ele>320.80</ele>
        <time>1970-01-01T00:22:35Z</time>
      </trkpt>
      <trkpt lat="41.575855" lon="2.063601">
        <ele>321.80</ele>
        <time>1970-01-01T00:22:39Z</time>
      </trkpt>
      <trkpt lat="41.575930" lon="2.063655">
        <ele>323.40</ele>
        <time>1970-01-01T00:22:43Z</time>
      </trkpt>
      <trkpt lat="41.576015" lon="2.063690">
        <ele>324.20</ele>
        <time>1970-01-01T00:22:47Z</time>
      </trkpt>
      <trkpt lat="41.576098" lon="2.063741">
        <ele>325.60</ele>
        <time>1970-01-01T00:22:51Z</time>
      </trkpt>
      <trkpt lat="41.576181" lon="2.063806">
        <ele>325.60</ele>
        <time>1970-01-01T00:22:55Z</time>
      </trkpt>
      <trkpt lat="41.576245" lon="2.063851">
        <ele>325.60</ele>
        <time>1970-01-01T00:22:59Z</time>
      </trkpt>
      <trkpt lat="41.576258" lon="2.063865">
        <ele>325.00</ele>
        <time>1970-01-01T00:23:12Z</time>
      </trkpt>
      <trkpt lat="41.576361" lon="2.063911">
        <ele>324.60</ele>
        <time>1970-01-01T00:23:16Z</time>
      </trkpt>
      <trkpt lat="41.576501" lon="2.063863">
        <ele>324.20</ele>
        <time>1970-01-01T00:23:20Z</time>
      </trkpt>
      <trkpt lat="41.576600" lon="2.063683">
        <ele>323.80</ele>
        <time>1970-01-01T00:23:24Z</time>
      </trkpt>
      <trkpt lat="41.576675" lon="2.063475">
        <ele>324.20</ele>
        <time>1970-01-01T00:23:28Z</time>
      </trkpt>
      <trkpt lat="41.576770" lon="2.063266">
        <ele>324.20</ele>
        <time>1970-01-01T00:23:32Z</time>
      </trkpt>
      <trkpt lat="41.576860" lon="2.063041">
        <ele>324.40</ele>
        <time>1970-01-01T00:23:36Z</time>
      </trkpt>
      <trkpt lat="41.576971" lon="2.062828">
        <ele>325.00</ele>
        <time>1970-01-01T00:23:40Z</time>
      </trkpt>
      <trkpt lat="41.577083" lon="2.062631">
        <ele>325.80</ele>
        <time>1970-01-01T00:23:44Z</time>
      </trkpt>
      <trkpt lat="41.577160" lon="2.062423">
        <ele>325.80</ele>
        <time>1970-01-01T00:23:48Z</time>
      </trkpt>
      <trkpt lat="41.577251" lon="2.062213">
        <ele>327.00</ele>
        <time>1970-01-01T00:23:52Z</time>
      </trkpt>
      <trkpt lat="41.577330" lon="2.062056">
        <ele>328.60</ele>
        <time>1970-01-01T00:23:56Z</time>
      </trkpt>
      <trkpt lat="41.577376" lon="2.061930">
        <ele>330.00</ele>
        <time>1970-01-01T00:24:00Z</time>
      </trkpt>
      <trkpt lat="41.577426" lon="2.061820">
        <ele>330.40</ele>
        <time>1970-01-01T00:24:04Z</time>
      </trkpt>
      <trkpt lat="41.577486" lon="2.061696">
        <ele>331.00</ele>
        <time>1970-01-01T00:24:08Z</time>
      </trkpt>
      <trkpt lat="41.577563" lon="2.061538">
        <ele>331.40</ele>
        <time>1970-01-01T00:24:12Z</time>
      </trkpt>
      <trkpt lat="41.577650" lon="2.061336">
        <ele>331.20</ele>
        <time>1970-01-01T00:24:16Z</time>
      </trkpt>
      <trkpt lat="41.577745" lon="2.061090">
        <ele>331.40</ele>
        <time>1970-01-01T00:24:20Z</time>
      </trkpt>
      <trkpt lat="41.577851" lon="2.060853">
        <ele>331.60</ele>
        <time>1970-01-01T00:24:24Z</time>
      </trkpt>
      <trkpt lat="41.577965" lon="2.060640">
        <ele>334.20</ele>
        <time>1970-01-01T00:24:28Z</time>
      </trkpt>
      <trkpt lat="41.578035" lon="2.060475">
        <ele>335.00</ele>
        <time>1970-01-01T00:24:32Z</time>
      </trkpt>
      <trkpt lat="41.578103" lon="2.060328">
        <ele>336.40</ele>
        <time>1970-01-01T00:24:36Z</time>
      </trkpt>
      <trkpt lat="41.578201" lon="2.060206">
        <ele>334.40</ele>
        <time>1970-01-01T00:24:40Z</time>
      </trkpt>
      <trkpt lat="41.578380" lon="2.060093">
        <ele>334.40</ele>
        <time>1970-01-01T00:24:44Z</time>
      </trkpt>
      <trkpt lat="41.578505" lon="2.059900">
        <ele>335.60</ele>
        <time>1970-01-01T00:24:48Z</time>
      </trkpt>
      <trkpt lat="41.578588" lon="2.059705">
        <ele>336.60</ele>
        <time>1970-01-01T00:24:52Z</time>
      </trkpt>
      <trkpt lat="41.578646" lon="2.059513">
        <ele>336.40</ele>
        <time>1970-01-01T00:24:56Z</time>
      </trkpt>
      <trkpt lat="41.578708" lon="2.059305">
        <ele>337.00</ele>
        <time>1970-01-01T00:25:00Z</time>
      </trkpt>
      <trkpt lat="41.578768" lon="2.059110">
        <ele>337.00</ele>
        <time>1970-01-01T00:25:04Z</time>
      </trkpt>
      <trkpt lat="41.578861" lon="2.058936">
        <ele>337.40</ele>
        <time>1970-01-01T00:25:08Z</time>
      </trkpt>
      <trkpt lat="41.578946" lon="2.058748">
        <ele>338.60</ele>
        <time>1970-01-01T00:25:12Z</time>
      </trkpt>
      <trkpt lat="41.579023" lon="2.058580">
        <ele>339.60</ele>
        <time>1970-01-01T00:25:16Z</time>
      </trkpt>
      <trkpt lat="41.579100" lon="2.058395">
        <ele>339.40</ele>
        <time>1970-01-01T00:25:20Z</time>
      </trkpt>
      <trkpt lat="41.579175" lon="2.058190">
        <ele>339.60</ele>
        <time>1970-01-01T00:25:24Z</time>
      </trkpt>
      <trkpt lat="41.579243" lon="2.057985">
        <ele>339.20</ele>
        <time>1970-01-01T00:25:28Z</time>
      </trkpt>
      <trkpt lat="41.579306" lon="2.057773">
        <ele>338.80</ele>
        <time>1970-01-01T00:25:32Z</time>
      </trkpt>
      <trkpt lat="41.579363" lon="2.057566">
        <ele>338.40</ele>
        <time>1970-01-01T00:25:36Z</time>
      </trkpt>
      <trkpt lat="41.579428" lon="2.057360">
        <ele>338.20</ele>
        <time>1970-01-01T00:25:40Z</time>
      </trkpt>
      <trkpt lat="41.579503" lon="2.057210">
        <ele>337.60</ele>
        <time>1970-01-01T00:25:44Z</time>
      </trkpt>
      <trkpt lat="41.579585" lon="2.057103">
        <ele>337.60</ele>
        <time>1970-01-01T00:25:48Z</time>
      </trkpt>
      <trkpt lat="41.579646" lon="2.056996">
        <ele>336.80</ele>
        <time>1970-01-01T00:25:52Z</time>
      </trkpt>
      <trkpt lat="41.579736" lon="2.056830">
        <ele>335.00</ele>
        <time>1970-01-01T00:25:56Z</time>
      </trkpt>
      <trkpt lat="41.579876" lon="2.056561">
        <ele>332.40</ele>
        <time>1970-01-01T00:26:00Z</time>
      </trkpt>
      <trkpt lat="41.580080" lon="2.056320">
        <ele>332.40</ele>
        <time>1970-01-01T00:26:04Z</time>
      </trkpt>
      <trkpt lat="41.580148" lon="2.056015">
        <ele>334.60</ele>
        <time>1970-01-01T00:26:08Z</time>
      </trkpt>
      <trkpt lat="41.580168" lon="2.055805">
        <ele>336.60</ele>
        <time>1970-01-01T00:26:12Z</time>
      </trkpt>
      <trkpt lat="41.580193" lon="2.055588">
        <ele>337.20</ele>
        <time>1970-01-01T00:26:16Z</time>
      </trkpt>
      <trkpt lat="41.580218" lon="2.055395">
        <ele>337.60</ele>
        <time>1970-01-01T00:26:20Z</time>
      </trkpt>
      <trkpt lat="41.580255" lon="2.055191">
        <ele>337.80</ele>
        <time>1970-01-01T00:26:24Z</time>
      </trkpt>
      <trkpt lat="41.580306" lon="2.054978">
        <ele>339.00</ele>
        <time>1970-01-01T00:26:28Z</time>
      </trkpt>
      <trkpt lat="41.580350" lon="2.054780">
        <ele>339.40</ele>
        <time>1970-01-01T00:26:32Z</time>
      </trkpt>
      <trkpt lat="41.580385" lon="2.054575">
        <ele>339.40</ele>
        <time>1970-01-01T00:26:36Z</time>
      </trkpt>
      <trkpt lat="41.580433" lon="2.054346">
        <ele>339.60</ele>
        <time>1970-01-01T00:26:40Z</time>
      </trkpt>
      <trkpt lat="41.580450" lon="2.054110">
        <ele>340.40</ele>
        <time>1970-01-01T00:26:44Z</time>
      </trkpt>
      <trkpt lat="41.580485" lon="2.053898">
        <ele>341.20</ele>
        <time>1970-01-01T00:26:48Z</time>
      </trkpt>
      <trkpt lat="41.580536" lon="2.053691">
        <ele>341.40</ele>
        <time>1970-01-01T00:26:52Z</time>
      </trkpt>
      <trkpt lat="41.580600" lon="2.053488">
        <ele>343.00</ele>
        <time>1970-01-01T00:26:56Z</time>
      </trkpt>
      <trkpt lat="41.580636" lon="2.053296">
        <ele>344.20</ele>
        <time>1970-01-01T00:27:00Z</time>
      </trkpt>
      <trkpt lat="41.580703" lon="2.053131">
        <ele>345.00</ele>
        <time>1970-01-01T00:27:04Z</time>
      </trkpt>
      <trkpt lat="41.580768" lon="2.052975">
        <ele>347.20</ele>
        <time>1970-01-01T00:27:08Z</time>
      </trkpt>
      <trkpt lat="41.580806" lon="2.052825">
        <ele>349.20</ele>
        <time>1970-01-01T00:27:12Z</time>
      </trkpt>
      <trkpt lat="41.580848" lon="2.052673">
        <ele>350.00</ele>
        <time>1970-01-01T00:27:16Z</time>
      </trkpt>
      <trkpt lat="41.580883" lon="2.052528">
        <ele>351.40</ele>
        <time>1970-01-01T00:27:20Z</time>
      </trkpt>
      <trkpt lat="41.580933" lon="2.052386">
        <ele>351.80</ele>
        <time>1970-01-01T00:27:24Z</time>
      </trkpt>
      <trkpt lat="41.580980" lon="2.052233">
        <ele>352.00</ele>
        <time>1970-01-01T00:27:28Z</time>
      </trkpt>
      <trkpt lat="41.581046" lon="2.052065">
        <ele>352.20</ele>
        <time>1970-01-01T00:27:32Z</time>
      </trkpt>
      <trkpt lat="41.581160" lon="2.051900">
        <ele>351.80</ele>
        <time>1970-01-01T00:27:36Z</time>
      </trkpt>
      <trkpt lat="41.581298" lon="2.051731">
        <ele>351.80</ele>
        <time>1970-01-01T00:27:40Z</time>
      </trkpt>
      <trkpt lat="41.581470" lon="2.051608">
        <ele>351.60</ele>
        <time>1970-01-01T00:27:44Z</time>
      </trkpt>
      <trkpt lat="41.581618" lon="2.051466">
        <ele>352.00</ele>
        <time>1970-01-01T00:27:48Z</time>
      </trkpt>
      <trkpt lat="41.581748" lon="2.051290">
        <ele>352.40</ele>
        <time>1970-01-01T00:27:52Z</time>
      </trkpt>
      <trkpt lat="41.581868" lon="2.051113">
        <ele>352.80</ele>
        <time>1970-01-01T00:27:56Z</time>
      </trkpt>
      <trkpt lat="41.581966" lon="2.050905">
        <ele>354.20</ele>
        <time>1970-01-01T00:28:00Z</time>
      </trkpt>
      <trkpt lat="41.582046" lon="2.050716">
        <ele>354.60</ele>
        <time>1970-01-01T00:28:04Z</time>
      </trkpt>
      <trkpt lat="41.582141" lon="2.050543">
        <ele>355.20</ele>
        <time>1970-01-01T00:28:08Z</time>
      </trkpt>
      <trkpt lat="41.582246" lon="2.050373">
        <ele>356.00</ele>
        <time>1970-01-01T00:28:12Z</time>
      </trkpt>
      <trkpt lat="41.582353" lon="2.050221">
        <ele>356.60</ele>
        <time>1970-01-01T00:28:16Z</time>
      </trkpt>
      <trkpt lat="41.582448" lon="2.050061">
        <ele>357.00</ele>
        <time>1970-01-01T00:28:20Z</time>
      </trkpt>
      <trkpt lat="41.582545" lon="2.049888">
        <ele>357.20</ele>
        <time>1970-01-01T00:28:24Z</time>
      </trkpt>
      <trkpt lat="41.582646" lon="2.049735">
        <ele>358.60</ele>
        <time>1970-01-01T00:28:28Z</time>
      </trkpt>
      <trkpt lat="41.582765" lon="2.049608">
        <ele>360.20</ele>
        <time>1970-01-01T00:28:32Z</time>
      </trkpt>
      <trkpt lat="41.582876" lon="2.049473">
        <ele>360.40</ele>
        <time>1970-01-01T00:28:36Z</time>
      </trkpt>
      <trkpt lat="41.582985" lon="2.049328">
        <ele>360.60</ele>
        <time>1970-01-01T00:28:40Z</time>
      </trkpt>
      <trkpt lat="41.583096" lon="2.049180">
        <ele>361.40</ele>
        <time>1970-01-01T00:28:44Z</time>
      </trkpt>
      <trkpt lat="41.583210" lon="2.049041">
        <ele>362.00</ele>
        <time>1970-01-01T00:28:48Z</time>
      </trkpt>
      <trkpt lat="41.583325" lon="2.048920">
        <ele>362.60</ele>
        <time>1970-01-01T00:28:52Z</time>
      </trkpt>
      <trkpt lat="41.583441" lon="2.048803">
        <ele>362.80</ele>
        <time>1970-01-01T00:28:56Z</time>
      </trkpt>
      <trkpt lat="41.583565" lon="2.048690">
        <ele>363.60</ele>
        <time>1970-01-01T00:29:00Z</time>
      </trkpt>
      <trkpt lat="41.583690" lon="2.048578">
        <ele>364.00</ele>
        <time>1970-01-01T00:29:04Z</time>
      </trkpt>
      <trkpt lat="41.583821" lon="2.048470">
        <ele>363.80</ele>
        <time>1970-01-01T00:29:08Z</time>
      </trkpt>
      <trkpt lat="41.583956" lon="2.048356">
        <ele>364.80</ele>
        <time>1970-01-01T00:29:12Z</time>
      </trkpt>
      <trkpt lat="41.584095" lon="2.048248">
        <ele>365.00</ele>
        <time>1970-01-01T00:29:16Z</time>
      </trkpt>
      <trkpt lat="41.584228" lon="2.048131">
        <ele>365.40</ele>
        <time>1970-01-01T00:29:20Z</time>
      </trkpt>
      <trkpt lat="41.584358" lon="2.048006">
        <ele>365.60</ele>
        <time>1970-01-01T00:29:24Z</time>
      </trkpt>
      <trkpt lat="41.584483" lon="2.047875">
        <ele>365.80</ele>
        <time>1970-01-01T00:29:28Z</time>
      </trkpt>
      <trkpt lat="41.584605" lon="2.047751">
        <ele>366.60</ele>
        <time>1970-01-01T00:29:32Z</time>
      </trkpt>
      <trkpt lat="41.584731" lon="2.047646">
        <ele>367.40</ele>
        <time>1970-01-01T00:29:36Z</time>
      </trkpt>
      <trkpt lat="41.584870" lon="2.047566">
        <ele>368.20</ele>
        <time>1970-01-01T00:29:40Z</time>
      </trkpt>
      <trkpt lat="41.584975" lon="2.047480">
        <ele>369.00</ele>
        <time>1970-01-01T00:29:44Z</time>
      </trkpt>
      <trkpt lat="41.584950" lon="2.047368">
        <ele>368.00</ele>
        <time>1970-01-01T00:29:48Z</time>
      </trkpt>
      <trkpt lat="41.584870" lon="2.047170">
        <ele>364.60</ele>
        <time>1970-01-01T00:29:52Z</time>
      </trkpt>
      <trkpt lat="41.584775" lon="2.046881">
        <ele>360.60</ele>
        <time>1970-01-01T00:29:56Z</time>
      </trkpt>
      <trkpt lat="41.584615" lon="2.046550">
        <ele>358.80</ele>
        <time>1970-01-01T00:30:00Z</time>
      </trkpt>
      <trkpt lat="41.584491" lon="2.046181">
        <ele>358.40</ele>
        <time>1970-01-01T00:30:04Z</time>
      </trkpt>
      <trkpt lat="41.584423" lon="2.045816">
        <ele>358.00</ele>
        <time>1970-01-01T00:30:08Z</time>
      </trkpt>
      <trkpt lat="41.584303" lon="2.045450">
        <ele>357.60</ele>
        <time>1970-01-01T00:30:12Z</time>
      </trkpt>
      <trkpt lat="41.584173" lon="2.045120">
        <ele>358.40</ele>
        <time>1970-01-01T00:30:16Z</time>
      </trkpt>
      <trkpt lat="41.584301" lon="2.044948">
        <ele>359.40</ele>
        <time>1970-01-01T00:30:20Z</time>
      </trkpt>
      <trkpt lat="41.584485" lon="2.044806">
        <ele>359.40</ele>
        <time>1970-01-01T00:30:24Z</time>
      </trkpt>
      <trkpt lat="41.584520" lon="2.044585">
        <ele>359.00</ele>
        <time>1970-01-01T00:30:28Z</time>
      </trkpt>
      <trkpt lat="41.584403" lon="2.044383">
        <ele>357.80</ele>
        <time>1970-01-01T00:30:32Z</time>
      </trkpt>
      <trkpt lat="41.584336" lon="2.044166">
        <ele>357.40</ele>
        <time>1970-01-01T00:30:36Z</time>
      </trkpt>
      <trkpt lat="41.584308" lon="2.043941">
        <ele>357.20</ele>
        <time>1970-01-01T00:30:40Z</time>
      </trkpt>
      <trkpt lat="41.584253" lon="2.043678">
        <ele>356.80</ele>
        <time>1970-01-01T00:30:44Z</time>
      </trkpt>
      <trkpt lat="41.584158" lon="2.043378">
        <ele>356.60</ele>
        <time>1970-01-01T00:30:48Z</time>
      </trkpt>
      <trkpt lat="41.584148" lon="2.043071">
        <ele>357.60</ele>
        <time>1970-01-01T00:30:52Z</time>
      </trkpt>
      <trkpt lat="41.584273" lon="2.042873">
        <ele>355.60</ele>
        <time>1970-01-01T00:30:56Z</time>
      </trkpt>
      <trkpt lat="41.584441" lon="2.042766">
        <ele>353.00</ele>
        <time>1970-01-01T00:31:00Z</time>
      </trkpt>
      <trkpt lat="41.584588" lon="2.042786">
        <ele>354.00</ele>
        <time>1970-01-01T00:31:04Z</time>
      </trkpt>
      <trkpt lat="41.584726" lon="2.042721">
        <ele>355.20</ele>
        <time>1970-01-01T00:31:08Z</time>
      </trkpt>
      <trkpt lat="41.584878" lon="2.042650">
        <ele>355.60</ele>
        <time>1970-01-01T00:31:12Z</time>
      </trkpt>
      <trkpt lat="41.584995" lon="2.042533">
        <ele>356.80</ele>
        <time>1970-01-01T00:31:16Z</time>
      </trkpt>
      <trkpt lat="41.585136" lon="2.042431">
        <ele>357.00</ele>
        <time>1970-01-01T00:31:20Z</time>
      </trkpt>
      <trkpt lat="41.585280" lon="2.042291">
        <ele>358.00</ele>
        <time>1970-01-01T00:31:24Z</time>
      </trkpt>
      <trkpt lat="41.585441" lon="2.042198">
        <ele>358.40</ele>
        <time>1970-01-01T00:31:28Z</time>
      </trkpt>
      <trkpt lat="41.585555" lon="2.042118">
        <ele>358.80</ele>
        <time>1970-01-01T00:31:32Z</time>
      </trkpt>
      <trkpt lat="41.585600" lon="2.042020">
        <ele>359.80</ele>
        <time>1970-01-01T00:31:36Z</time>
      </trkpt>
      <trkpt lat="41.585686" lon="2.041856">
        <ele>360.60</ele>
        <time>1970-01-01T00:31:40Z</time>
      </trkpt>
      <trkpt lat="41.585703" lon="2.041681">
        <ele>361.80</ele>
        <time>1970-01-01T00:31:44Z</time>
      </trkpt>
      <trkpt lat="41.585650" lon="2.041530">
        <ele>364.00</ele>
        <time>1970-01-01T00:31:48Z</time>
      </trkpt>
      <trkpt lat="41.585633" lon="2.041408">
        <ele>365.80</ele>
        <time>1970-01-01T00:31:52Z</time>
      </trkpt>
      <trkpt lat="41.585638" lon="2.041275">
        <ele>366.80</ele>
        <time>1970-01-01T00:31:56Z</time>
      </trkpt>
      <trkpt lat="41.585651" lon="2.041128">
        <ele>369.40</ele>
        <time>1970-01-01T00:32:00Z</time>
      </trkpt>
      <trkpt lat="41.585711" lon="2.041023">
        <ele>369.00</ele>
        <time>1970-01-01T00:32:04Z</time>
      </trkpt>
      <trkpt lat="41.585805" lon="2.040946">
        <ele>370.80</ele>
        <time>1970-01-01T00:32:08Z</time>
      </trkpt>
      <trkpt lat="41.585901" lon="2.040865">
        <ele>371.60</ele>
        <time>1970-01-01T00:32:12Z</time>
      </trkpt>
      <trkpt lat="41.585975" lon="2.040760">
        <ele>372.40</ele>
        <time>1970-01-01T00:32:16Z</time>
      </trkpt>
      <trkpt lat="41.586023" lon="2.040640">
        <ele>372.40</ele>
        <time>1970-01-01T00:32:20Z</time>
      </trkpt>
      <trkpt lat="41.586033" lon="2.040530">
        <ele>372.80</ele>
        <time>1970-01-01T00:32:24Z</time>
      </trkpt>
      <trkpt lat="41.586015" lon="2.040401">
        <ele>373.00</ele>
        <time>1970-01-01T00:32:28Z</time>
      </trkpt>
      <trkpt lat="41.585978" lon="2.040280">
        <ele>373.40</ele>
        <time>1970-01-01T00:32:32Z</time>
      </trkpt>
      <trkpt lat="41.585938" lon="2.040161">
        <ele>373.60</ele>
        <time>1970-01-01T00:32:36Z</time>
      </trkpt>
      <trkpt lat="41.585856" lon="2.040056">
        <ele>373.80</ele>
        <time>1970-01-01T00:32:40Z</time>
      </trkpt>
      <trkpt lat="41.585775" lon="2.039950">
        <ele>373.60</ele>
        <time>1970-01-01T00:32:44Z</time>
      </trkpt>
      <trkpt lat="41.585736" lon="2.039831">
        <ele>374.20</ele>
        <time>1970-01-01T00:32:48Z</time>
      </trkpt>
      <trkpt lat="41.585858" lon="2.039755">
        <ele>374.40</ele>
        <time>1970-01-01T00:32:52Z</time>
      </trkpt>
      <trkpt lat="41.585986" lon="2.039686">
        <ele>374.80</ele>
        <time>1970-01-01T00:32:56Z</time>
      </trkpt>
      <trkpt lat="41.586120" lon="2.039718">
        <ele>375.20</ele>
        <time>1970-01-01T00:33:00Z</time>
      </trkpt>
      <trkpt lat="41.586280" lon="2.039720">
        <ele>375.20</ele>
        <time>1970-01-01T00:33:04Z</time>
      </trkpt>
      <trkpt lat="41.586438" lon="2.039730">
        <ele>376.20</ele>
        <time>1970-01-01T00:33:08Z</time>
      </trkpt>
      <trkpt lat="41.586593" lon="2.039721">
        <ele>377.00</ele>
        <time>1970-01-01T00:33:12Z</time>
      </trkpt>
      <trkpt lat="41.586728" lon="2.039700">
        <ele>377.80</ele>
        <time>1970-01-01T00:33:16Z</time>
      </trkpt>
      <trkpt lat="41.586868" lon="2.039715">
        <ele>378.00</ele>
        <time>1970-01-01T00:33:20Z</time>
      </trkpt>
      <trkpt lat="41.587011" lon="2.039680">
        <ele>378.00</ele>
        <time>1970-01-01T00:33:24Z</time>
      </trkpt>
      <trkpt lat="41.587158" lon="2.039618">
        <ele>378.60</ele>
        <time>1970-01-01T00:33:28Z</time>
      </trkpt>
      <trkpt lat="41.587301" lon="2.039570">
        <ele>378.80</ele>
        <time>1970-01-01T00:33:32Z</time>
      </trkpt>
      <trkpt lat="41.587446" lon="2.039470">
        <ele>379.00</ele>
        <time>1970-01-01T00:33:36Z</time>
      </trkpt>
      <trkpt lat="41.587588" lon="2.039395">
        <ele>379.20</ele>
        <time>1970-01-01T00:33:40Z</time>
      </trkpt>
      <trkpt lat="41.587688" lon="2.039320">
        <ele>379.20</ele>
        <time>1970-01-01T00:33:44Z</time>
      </trkpt>
      <trkpt lat="41.587788" lon="2.039178">
        <ele>378.60</ele>
        <time>1970-01-01T00:33:48Z</time>
      </trkpt>
      <trkpt lat="41.587950" lon="2.039081">
        <ele>378.60</ele>
        <time>1970-01-01T00:33:52Z</time>
      </trkpt>
      <trkpt lat="41.588128" lon="2.039005">
        <ele>379.20</ele>
        <time>1970-01-01T00:33:56Z</time>
      </trkpt>
      <trkpt lat="41.588306" lon="2.038958">
        <ele>380.40</ele>
        <time>1970-01-01T00:34:00Z</time>
      </trkpt>
      <trkpt lat="41.588475" lon="2.038923">
        <ele>380.80</ele>
        <time>1970-01-01T00:34:04Z</time>
      </trkpt>
      <trkpt lat="41.588641" lon="2.038895">
        <ele>381.40</ele>
        <time>1970-01-01T00:34:08Z</time>
      </trkpt>
      <trkpt lat="41.588773" lon="2.038823">
        <ele>381.80</ele>
        <time>1970-01-01T00:34:12Z</time>
      </trkpt>
      <trkpt lat="41.588810" lon="2.038675">
        <ele>381.40</ele>
        <time>1970-01-01T00:34:16Z</time>
      </trkpt>
      <trkpt lat="41.588891" lon="2.038538">
        <ele>382.20</ele>
        <time>1970-01-01T00:34:20Z</time>
      </trkpt>
      <trkpt lat="41.589031" lon="2.038498">
        <ele>383.20</ele>
        <time>1970-01-01T00:34:24Z</time>
      </trkpt>
      <trkpt lat="41.589180" lon="2.038460">
        <ele>384.00</ele>
        <time>1970-01-01T00:34:28Z</time>
      </trkpt>
      <trkpt lat="41.589286" lon="2.038326">
        <ele>384.60</ele>
        <time>1970-01-01T00:34:32Z</time>
      </trkpt>
      <trkpt lat="41.589386" lon="2.038180">
        <ele>385.80</ele>
        <time>1970-01-01T00:34:36Z</time>
      </trkpt>
      <trkpt lat="41.589483" lon="2.038035">
        <ele>386.80</ele>
        <time>1970-01-01T00:34:40Z</time>
      </trkpt>
      <trkpt lat="41.589570" lon="2.037891">
        <ele>387.40</ele>
        <time>1970-01-01T00:34:44Z</time>
      </trkpt>
      <trkpt lat="41.589666" lon="2.037758">
        <ele>387.40</ele>
        <time>1970-01-01T00:34:48Z</time>
      </trkpt>
      <trkpt lat="41.589771" lon="2.037621">
        <ele>388.00</ele>
        <time>1970-01-01T00:34:52Z</time>
      </trkpt>
      <trkpt lat="41.589873" lon="2.037470">
        <ele>388.00</ele>
        <time>1970-01-01T00:34:56Z</time>
      </trkpt>
      <trkpt lat="41.589978" lon="2.037320">
        <ele>388.40</ele>
        <time>1970-01-01T00:35:00Z</time>
      </trkpt>
      <trkpt lat="41.590101" lon="2.037180">
        <ele>388.60</ele>
        <time>1970-01-01T00:35:04Z</time>
      </trkpt>
      <trkpt lat="41.590231" lon="2.037081">
        <ele>388.60</ele>
        <time>1970-01-01T00:35:08Z</time>
      </trkpt>
      <trkpt lat="41.590385" lon="2.036998">
        <ele>388.20</ele>
        <time>1970-01-01T00:35:12Z</time>
      </trkpt>
      <trkpt lat="41.590515" lon="2.036815">
        <ele>389.20</ele>
        <time>1970-01-01T00:35:16Z</time>
      </trkpt>
      <trkpt lat="41.590645" lon="2.036666">
        <ele>390.00</ele>
        <time>1970-01-01T00:35:20Z</time>
      </trkpt>
      <trkpt lat="41.590781" lon="2.036526">
        <ele>390.60</ele>
        <time>1970-01-01T00:35:24Z</time>
      </trkpt>
      <trkpt lat="41.590913" lon="2.036376">
        <ele>390.60</ele>
        <time>1970-01-01T00:35:28Z</time>
      </trkpt>
      <trkpt lat="41.591025" lon="2.036275">
        <ele>391.20</ele>
        <time>1970-01-01T00:35:32Z</time>
      </trkpt>
      <trkpt lat="41.591151" lon="2.036171">
        <ele>391.60</ele>
        <time>1970-01-01T00:35:36Z</time>
      </trkpt>
      <trkpt lat="41.591270" lon="2.036053">
        <ele>392.40</ele>
        <time>1970-01-01T00:35:40Z</time>
      </trkpt>
      <trkpt lat="41.591346" lon="2.035883">
        <ele>393.00</ele>
        <time>1970-01-01T00:35:44Z</time>
      </trkpt>
      <trkpt lat="41.591433" lon="2.035743">
        <ele>392.80</ele>
        <time>1970-01-01T00:35:48Z</time>
      </trkpt>
      <trkpt lat="41.591573" lon="2.035618">
        <ele>393.20</ele>
        <time>1970-01-01T00:35:52Z</time>
      </trkpt>
      <trkpt lat="41.591683" lon="2.035491">
        <ele>393.60</ele>
        <time>1970-01-01T00:35:56Z</time>
      </trkpt>
      <trkpt lat="41.591766" lon="2.035308">
        <ele>394.40</ele>
        <time>1970-01-01T00:36:00Z</time>
      </trkpt>
      <trkpt lat="41.591886" lon="2.035166">
        <ele>394.80</ele>
        <time>1970-01-01T00:36:04Z</time>
      </trkpt>
      <trkpt lat="41.591995" lon="2.035023">
        <ele>396.20</ele>
        <time>1970-01-01T00:36:08Z</time>
      </trkpt>
      <trkpt lat="41.592095" lon="2.034905">
        <ele>396.80</ele>
        <time>1970-01-01T00:36:12Z</time>
      </trkpt>
      <trkpt lat="41.592213" lon="2.034816">
        <ele>397.20</ele>
        <time>1970-01-01T00:36:16Z</time>
      </trkpt>
      <trkpt lat="41.592331" lon="2.034716">
        <ele>398.20</ele>
        <time>1970-01-01T00:36:20Z</time>
      </trkpt>
      <trkpt lat="41.592428" lon="2.034613">
        <ele>398.60</ele>
        <time>1970-01-01T00:36:24Z</time>
      </trkpt>
      <trkpt lat="41.592518" lon="2.034515">
        <ele>399.60</ele>
        <time>1970-01-01T00:36:28Z</time>
      </trkpt>
      <trkpt lat="41.592658" lon="2.034353">
        <ele>399.60</ele>
        <time>1970-01-01T00:36:36Z</time>
      </trkpt>
      <trkpt lat="41.592780" lon="2.034251">
        <ele>400.00</ele>
        <time>1970-01-01T00:36:40Z</time>
      </trkpt>
      <trkpt lat="41.592916" lon="2.034148">
        <ele>400.40</ele>
        <time>1970-01-01T00:36:44Z</time>
      </trkpt>
      <trkpt lat="41.593031" lon="2.034026">
        <ele>401.80</ele>
        <time>1970-01-01T00:36:48Z</time>
      </trkpt>
      <trkpt lat="41.593130" lon="2.033901">
        <ele>402.20</ele>
        <time>1970-01-01T00:36:52Z</time>
      </trkpt>
      <trkpt lat="41.593240" lon="2.033790">
        <ele>402.40</ele>
        <time>1970-01-01T00:36:56Z</time>
      </trkpt>
      <trkpt lat="41.593340" lon="2.033668">
        <ele>403.40</ele>
        <time>1970-01-01T00:37:00Z</time>
      </trkpt>
      <trkpt lat="41.593443" lon="2.033575">
        <ele>404.00</ele>
        <time>1970-01-01T00:37:04Z</time>
      </trkpt>
      <trkpt lat="41.593528" lon="2.033430">
        <ele>404.20</ele>
        <time>1970-01-01T00:37:08Z</time>
      </trkpt>
      <trkpt lat="41.593643" lon="2.033330">
        <ele>405.00</ele>
        <time>1970-01-01T00:37:12Z</time>
      </trkpt>
      <trkpt lat="41.593746" lon="2.033201">
        <ele>405.40</ele>
        <time>1970-01-01T00:37:16Z</time>
      </trkpt>
      <trkpt lat="41.593823" lon="2.033065">
        <ele>406.40</ele>
        <time>1970-01-01T00:37:20Z</time>
      </trkpt>
      <trkpt lat="41.593901" lon="2.032953">
        <ele>407.00</ele>
        <time>1970-01-01T00:37:24Z</time>
      </trkpt>
      <trkpt lat="41.593985" lon="2.032836">
        <ele>408.20</ele>
        <time>1970-01-01T00:37:28Z</time>
      </trkpt>
      <trkpt lat="41.594073" lon="2.032705">
        <ele>408.40</ele>
        <time>1970-01-01T00:37:32Z</time>
      </trkpt>
      <trkpt lat="41.594175" lon="2.032583">
        <ele>408.80</ele>
        <time>1970-01-01T00:37:36Z</time>
      </trkpt>
      <trkpt lat="41.594265" lon="2.032436">
        <ele>409.20</ele>
        <time>1970-01-01T00:37:40Z</time>
      </trkpt>
      <trkpt lat="41.594306" lon="2.032256">
        <ele>409.00</ele>
        <time>1970-01-01T00:37:44Z</time>
      </trkpt>
      <trkpt lat="41.594338" lon="2.031990">
        <ele>407.00</ele>
        <time>1970-01-01T00:37:48Z</time>
      </trkpt>
      <trkpt lat="41.594390" lon="2.031675">
        <ele>405.60</ele>
        <time>1970-01-01T00:37:52Z</time>
      </trkpt>
      <trkpt lat="41.594435" lon="2.031395">
        <ele>405.60</ele>
        <time>1970-01-01T00:37:56Z</time>
      </trkpt>
      <trkpt lat="41.594571" lon="2.031226">
        <ele>406.60</ele>
        <time>1970-01-01T00:38:00Z</time>
      </trkpt>
      <trkpt lat="41.594706" lon="2.031121">
        <ele>406.80</ele>
        <time>1970-01-01T00:38:04Z</time>
      </trkpt>
      <trkpt lat="41.594831" lon="2.030983">
        <ele>407.60</ele>
        <time>1970-01-01T00:38:08Z</time>
      </trkpt>
      <trkpt lat="41.594933" lon="2.030830">
        <ele>409.20</ele>
        <time>1970-01-01T00:38:12Z</time>
      </trkpt>
      <trkpt lat="41.595013" lon="2.030673">
        <ele>410.20</ele>
        <time>1970-01-01T00:38:16Z</time>
      </trkpt>
      <trkpt lat="41.595063" lon="2.030521">
        <ele>410.40</ele>
        <time>1970-01-01T00:38:20Z</time>
      </trkpt>
      <trkpt lat="41.595121" lon="2.030368">
        <ele>410.80</ele>
        <time>1970-01-01T00:38:24Z</time>
      </trkpt>
      <trkpt lat="41.595128" lon="2.030210">
        <ele>412.00</ele>
        <time>1970-01-01T00:38:28Z</time>
      </trkpt>
      <trkpt lat="41.595081" lon="2.030076">
        <ele>413.00</ele>
        <time>1970-01-01T00:38:32Z</time>
      </trkpt>
      <trkpt lat="41.595021" lon="2.029975">
        <ele>414.60</ele>
        <time>1970-01-01T00:38:36Z</time>
      </trkpt>
      <trkpt lat="41.594945" lon="2.029870">
        <ele>414.60</ele>
        <time>1970-01-01T00:38:40Z</time>
      </trkpt>
      <trkpt lat="41.594876" lon="2.029778">
        <ele>415.40</ele>
        <time>1970-01-01T00:38:44Z</time>
      </trkpt>
      <trkpt lat="41.594796" lon="2.029665">
        <ele>415.40</ele>
        <time>1970-01-01T00:38:48Z</time>
      </trkpt>
      <trkpt lat="41.594711" lon="2.029548">
        <ele>415.80</ele>
        <time>1970-01-01T00:38:52Z</time>
      </trkpt>
      <trkpt lat="41.594605" lon="2.029431">
        <ele>415.40</ele>
        <time>1970-01-01T00:38:56Z</time>
      </trkpt>
      <trkpt lat="41.594496" lon="2.029256">
        <ele>414.40</ele>
        <time>1970-01-01T00:39:00Z</time>
      </trkpt>
      <trkpt lat="41.594341" lon="2.029090">
        <ele>412.40</ele>
        <time>1970-01-01T00:39:04Z</time>
      </trkpt>
      <trkpt lat="41.594151" lon="2.028825">
        <ele>410.80</ele>
        <time>1970-01-01T00:39:08Z</time>
      </trkpt>
      <trkpt lat="41.594016" lon="2.028636">
        <ele>412.60</ele>
        <time>1970-01-01T00:39:12Z</time>
      </trkpt>
      <trkpt lat="41.593921" lon="2.028503">
        <ele>414.60</ele>
        <time>1970-01-01T00:39:16Z</time>
      </trkpt>
      <trkpt lat="41.593840" lon="2.028361">
        <ele>416.20</ele>
        <time>1970-01-01T00:39:20Z</time>
      </trkpt>
      <trkpt lat="41.593785" lon="2.028230">
        <ele>417.40</ele>
        <time>1970-01-01T00:39:24Z</time>
      </trkpt>
      <trkpt lat="41.593751" lon="2.028121">
        <ele>418.80</ele>
        <time>1970-01-01T00:39:28Z</time>
      </trkpt>
      <trkpt lat="41.593726" lon="2.028005">
        <ele>420.00</ele>
        <time>1970-01-01T00:39:32Z</time>
      </trkpt>
      <trkpt lat="41.593705" lon="2.027891">
        <ele>420.80</ele>
        <time>1970-01-01T00:39:36Z</time>
      </trkpt>
      <trkpt lat="41.593693" lon="2.027773">
        <ele>422.80</ele>
        <time>1970-01-01T00:39:40Z</time>
      </trkpt>
      <trkpt lat="41.593663" lon="2.027645">
        <ele>423.60</ele>
        <time>1970-01-01T00:39:44Z</time>
      </trkpt>
      <trkpt lat="41.593641" lon="2.027496">
        <ele>424.40</ele>
        <time>1970-01-01T00:39:48Z</time>
      </trkpt>
      <trkpt lat="41.593608" lon="2.027353">
        <ele>424.80</ele>
        <time>1970-01-01T00:39:52Z</time>
      </trkpt>
      <trkpt lat="41.593565" lon="2.027243">
        <ele>425.00</ele>
        <time>1970-01-01T00:39:56Z</time>
      </trkpt>
      <trkpt lat="41.593573" lon="2.027103">
        <ele>424.60</ele>
        <time>1970-01-01T00:40:00Z</time>
      </trkpt>
      <trkpt lat="41.593611" lon="2.026940">
        <ele>424.80</ele>
        <time>1970-01-01T00:40:04Z</time>
      </trkpt>
      <trkpt lat="41.593646" lon="2.026786">
        <ele>424.60</ele>
        <time>1970-01-01T00:40:08Z</time>
      </trkpt>
      <trkpt lat="41.593666" lon="2.026713">
        <ele>424.40</ele>
        <time>1970-01-01T00:40:12Z</time>
      </trkpt>
      <trkpt lat="41.593731" lon="2.026721">
        <ele>425.60</ele>
        <time>1970-01-01T00:40:16Z</time>
      </trkpt>
      <trkpt lat="41.593853" lon="2.026643">
        <ele>425.60</ele>
        <time>1970-01-01T00:40:20Z</time>
      </trkpt>
      <trkpt lat="41.593945" lon="2.026456">
        <ele>424.20</ele>
        <time>1970-01-01T00:40:24Z</time>
      </trkpt>
      <trkpt lat="41.594010" lon="2.026208">
        <ele>423.80</ele>
        <time>1970-01-01T00:40:28Z</time>
      </trkpt>
      <trkpt lat="41.594070" lon="2.025923">
        <ele>423.40</ele>
        <time>1970-01-01T00:40:32Z</time>
      </trkpt>
      <trkpt lat="41.594133" lon="2.025638">
        <ele>422.60</ele>
        <time>1970-01-01T00:40:36Z</time>
      </trkpt>
      <trkpt lat="41.594110" lon="2.025491">
        <ele>423.80</ele>
        <time>1970-01-01T00:40:40Z</time>
      </trkpt>
      <trkpt lat="41.593915" lon="2.025483">
        <ele>422.20</ele>
        <time>1970-01-01T00:40:44Z</time>
      </trkpt>
      <trkpt lat="41.593765" lon="2.025385">
        <ele>421.80</ele>
        <time>1970-01-01T00:40:48Z</time>
      </trkpt>
      <trkpt lat="41.593750" lon="2.025218">
        <ele>420.40</ele>
        <time>1970-01-01T00:40:52Z</time>
      </trkpt>
      <trkpt lat="41.593808" lon="2.024965">
        <ele>419.60</ele>
        <time>1970-01-01T00:40:56Z</time>
      </trkpt>
      <trkpt lat="41.593878" lon="2.024693">
        <ele>418.80</ele>
        <time>1970-01-01T00:41:00Z</time>
      </trkpt>
      <trkpt lat="41.593958" lon="2.024375">
        <ele>418.40</ele>
        <time>1970-01-01T00:41:04Z</time>
      </trkpt>
      <trkpt lat="41.594001" lon="2.024145">
        <ele>419.40</ele>
        <time>1970-01-01T00:41:08Z</time>
      </trkpt>
      <trkpt lat="41.593998" lon="2.023970">
        <ele>420.60</ele>
        <time>1970-01-01T00:41:12Z</time>
      </trkpt>
      <trkpt lat="41.593973" lon="2.023868">
        <ele>420.60</ele>
        <time>1970-01-01T00:41:16Z</time>
      </trkpt>
      <trkpt lat="41.593868" lon="2.023798">
        <ele>419.00</ele>
        <time>1970-01-01T00:41:20Z</time>
      </trkpt>
      <trkpt lat="41.593728" lon="2.023630">
        <ele>417.60</ele>
        <time>1970-01-01T00:41:24Z</time>
      </trkpt>
      <trkpt lat="41.593513" lon="2.023473">
        <ele>416.80</ele>
        <time>1970-01-01T00:41:28Z</time>
      </trkpt>
      <trkpt lat="41.593340" lon="2.023341">
        <ele>417.20</ele>
        <time>1970-01-01T00:41:32Z</time>
      </trkpt>
      <trkpt lat="41.593335" lon="2.023345">
        <ele>418.20</ele>
        <time>1970-01-01T00:41:36Z</time>
      </trkpt>
      <trkpt lat="41.593416" lon="2.023373">
        <ele>417.80</ele>
        <time>1970-01-01T00:41:40Z</time>
      </trkpt>
      <trkpt lat="41.593380" lon="2.023283">
        <ele>417.40</ele>
        <time>1970-01-01T00:41:44Z</time>
      </trkpt>
      <trkpt lat="41.593211" lon="2.023188">
        <ele>415.80</ele>
        <time>1970-01-01T00:41:48Z</time>
      </trkpt>
      <trkpt lat="41.593058" lon="2.023106">
        <ele>414.80</ele>
        <time>1970-01-01T00:41:52Z</time>
      </trkpt>
      <trkpt lat="41.593053" lon="2.022975">
        <ele>412.40</ele>
        <time>1970-01-01T00:41:56Z</time>
      </trkpt>
      <trkpt lat="41.593208" lon="2.022975">
        <ele>411.20</ele>
        <time>1970-01-01T00:42:00Z</time>
      </trkpt>
      <trkpt lat="41.593403" lon="2.023018">
        <ele>411.80</ele>
        <time>1970-01-01T00:42:04Z</time>
      </trkpt>
      <trkpt lat="41.593600" lon="2.023048">
        <ele>411.80</ele>
        <time>1970-01-01T00:42:08Z</time>
      </trkpt>
      <trkpt lat="41.593791" lon="2.023095">
        <ele>412.80</ele>
        <time>1970-01-01T00:42:12Z</time>
      </trkpt>
      <trkpt lat="41.593973" lon="2.023191">
        <ele>414.60</ele>
        <time>1970-01-01T00:42:16Z</time>
      </trkpt>
      <trkpt lat="41.594158" lon="2.023243">
        <ele>414.60</ele>
        <time>1970-01-01T00:42:20Z</time>
      </trkpt>
      <trkpt lat="41.594331" lon="2.023298">
        <ele>415.40</ele>
        <time>1970-01-01T00:42:24Z</time>
      </trkpt>
      <trkpt lat="41.594500" lon="2.023341">
        <ele>416.40</ele>
        <time>1970-01-01T00:42:28Z</time>
      </trkpt>
      <trkpt lat="41.594658" lon="2.023400">
        <ele>417.00</ele>
        <time>1970-01-01T00:42:32Z</time>
      </trkpt>
      <trkpt lat="41.594815" lon="2.023481">
        <ele>418.00</ele>
        <time>1970-01-01T00:42:36Z</time>
      </trkpt>
      <trkpt lat="41.594968" lon="2.023565">
        <ele>418.20</ele>
        <time>1970-01-01T00:42:40Z</time>
      </trkpt>
      <trkpt lat="41.595116" lon="2.023651">
        <ele>418.60</ele>
        <time>1970-01-01T00:42:44Z</time>
      </trkpt>
      <trkpt lat="41.595261" lon="2.023740">
        <ele>419.00</ele>
        <time>1970-01-01T00:42:48Z</time>
      </trkpt>
      <trkpt lat="41.595415" lon="2.023836">
        <ele>419.60</ele>
        <time>1970-01-01T00:42:52Z</time>
      </trkpt>
      <trkpt lat="41.595546" lon="2.023936">
        <ele>419.80</ele>
        <time>1970-01-01T00:42:56Z</time>
      </trkpt>
      <trkpt lat="41.595696" lon="2.024025">
        <ele>420.60</ele>
        <time>1970-01-01T00:43:00Z</time>
      </trkpt>
      <trkpt lat="41.595843" lon="2.024110">
        <ele>421.80</ele>
        <time>1970-01-01T00:43:04Z</time>
      </trkpt>
      <trkpt lat="41.595995" lon="2.024183">
        <ele>421.60</ele>
        <time>1970-01-01T00:43:08Z</time>
      </trkpt>
      <trkpt lat="41.596145" lon="2.024265">
        <ele>422.80</ele>
        <time>1970-01-01T00:43:12Z</time>
      </trkpt>
      <trkpt lat="41.596303" lon="2.024331">
        <ele>422.80</ele>
        <time>1970-01-01T00:43:16Z</time>
      </trkpt>
      <trkpt lat="41.596456" lon="2.024386">
        <ele>423.40</ele>
        <time>1970-01-01T00:43:20Z</time>
      </trkpt>
      <trkpt lat="41.596605" lon="2.024448">
        <ele>423.80</ele>
        <time>1970-01-01T00:43:24Z</time>
      </trkpt>
      <trkpt lat="41.596750" lon="2.024501">
        <ele>424.80</ele>
        <time>1970-01-01T00:43:28Z</time>
      </trkpt>
      <trkpt lat="41.596888" lon="2.024555">
        <ele>424.80</ele>
        <time>1970-01-01T00:43:32Z</time>
      </trkpt>
      <trkpt lat="41.597040" lon="2.024596">
        <ele>426.00</ele>
        <time>1970-01-01T00:43:36Z</time>
      </trkpt>
      <trkpt lat="41.597191" lon="2.024635">
        <ele>426.20</ele>
        <time>1970-01-01T00:43:40Z</time>
      </trkpt>
      <trkpt lat="41.597346" lon="2.024671">
        <ele>426.80</ele>
        <time>1970-01-01T00:43:44Z</time>
      </trkpt>
      <trkpt lat="41.597503" lon="2.024686">
        <ele>426.80</ele>
        <time>1970-01-01T00:43:48Z</time>
      </trkpt>
      <trkpt lat="41.597656" lon="2.024705">
        <ele>427.60</ele>
        <time>1970-01-01T00:43:52Z</time>
      </trkpt>
      <trkpt lat="41.597815" lon="2.024715">
        <ele>428.00</ele>
        <time>1970-01-01T00:43:56Z</time>
      </trkpt>
      <trkpt lat="41.597970" lon="2.024726">
        <ele>428.40</ele>
        <time>1970-01-01T00:44:00Z</time>
      </trkpt>
      <trkpt lat="41.598125" lon="2.024730">
        <ele>429.00</ele>
        <time>1970-01-01T00:44:04Z</time>
      </trkpt>
      <trkpt lat="41.598270" lon="2.024733">
        <ele>429.20</ele>
        <time>1970-01-01T00:44:08Z</time>
      </trkpt>
      <trkpt lat="41.598418" lon="2.024716">
        <ele>430.00</ele>
        <time>1970-01-01T00:44:12Z</time>
      </trkpt>
      <trkpt lat="41.598555" lon="2.024716">
        <ele>430.80</ele>
        <time>1970-01-01T00:44:16Z</time>
      </trkpt>
      <trkpt lat="41.598691" lon="2.024770">
        <ele>431.00</ele>
        <time>1970-01-01T00:44:20Z</time>
      </trkpt>
      <trkpt lat="41.598840" lon="2.024755">
        <ele>432.20</ele>
        <time>1970-01-01T00:44:24Z</time>
      </trkpt>
      <trkpt lat="41.598983" lon="2.024738">
        <ele>432.20</ele>
        <time>1970-01-01T00:44:28Z</time>
      </trkpt>
      <trkpt lat="41.599133" lon="2.024708">
        <ele>432.40</ele>
        <time>1970-01-01T00:44:32Z</time>
      </trkpt>
      <trkpt lat="41.599283" lon="2.024678">
        <ele>432.80</ele>
        <time>1970-01-01T00:44:36Z</time>
      </trkpt>
      <trkpt lat="41.599425" lon="2.024650">
        <ele>434.00</ele>
        <time>1970-01-01T00:44:40Z</time>
      </trkpt>
      <trkpt lat="41.599580" lon="2.024606">
        <ele>434.00</ele>
        <time>1970-01-01T00:44:44Z</time>
      </trkpt>
      <trkpt lat="41.599738" lon="2.024563">
        <ele>435.20</ele>
        <time>1970-01-01T00:44:48Z</time>
      </trkpt>
      <trkpt lat="41.599886" lon="2.024510">
        <ele>435.00</ele>
        <time>1970-01-01T00:44:52Z</time>
      </trkpt>
      <trkpt lat="41.600030" lon="2.024445">
        <ele>436.00</ele>
        <time>1970-01-01T00:44:56Z</time>
      </trkpt>
      <trkpt lat="41.600175" lon="2.024390">
        <ele>435.80</ele>
        <time>1970-01-01T00:45:00Z</time>
      </trkpt>
      <trkpt lat="41.600326" lon="2.024358">
        <ele>437.20</ele>
        <time>1970-01-01T00:45:04Z</time>
      </trkpt>
      <trkpt lat="41.600475" lon="2.024293">
        <ele>437.00</ele>
        <time>1970-01-01T00:45:08Z</time>
      </trkpt>
      <trkpt lat="41.600616" lon="2.024228">
        <ele>437.60</ele>
        <time>1970-01-01T00:45:12Z</time>
      </trkpt>
      <trkpt lat="41.600760" lon="2.024153">
        <ele>437.80</ele>
        <time>1970-01-01T00:45:16Z</time>
      </trkpt>
      <trkpt lat="41.600901" lon="2.024070">
        <ele>439.40</ele>
        <time>1970-01-01T00:45:20Z</time>
      </trkpt>
      <trkpt lat="41.601043" lon="2.023988">
        <ele>439.80</ele>
        <time>1970-01-01T00:45:24Z</time>
      </trkpt>
      <trkpt lat="41.601180" lon="2.023895">
        <ele>440.40</ele>
        <time>1970-01-01T00:45:28Z</time>
      </trkpt>
      <trkpt lat="41.601315" lon="2.023796">
        <ele>440.60</ele>
        <time>1970-01-01T00:45:32Z</time>
      </trkpt>
      <trkpt lat="41.601460" lon="2.023730">
        <ele>441.40</ele>
        <time>1970-01-01T00:45:36Z</time>
      </trkpt>
      <trkpt lat="41.601603" lon="2.023661">
        <ele>442.00</ele>
        <time>1970-01-01T00:45:40Z</time>
      </trkpt>
      <trkpt lat="41.601748" lon="2.023578">
        <ele>442.80</ele>
        <time>1970-01-01T00:45:44Z</time>
      </trkpt>
      <trkpt lat="41.601893" lon="2.023513">
        <ele>442.80</ele>
        <time>1970-01-01T00:45:48Z</time>
      </trkpt>
      <trkpt lat="41.602031" lon="2.023440">
        <ele>443.80</ele>
        <time>1970-01-01T00:45:52Z</time>
      </trkpt>
      <trkpt lat="41.602165" lon="2.023368">
        <ele>444.60</ele>
        <time>1970-01-01T00:45:56Z</time>
      </trkpt>
      <trkpt lat="41.602291" lon="2.023300">
        <ele>445.40</ele>
        <time>1970-01-01T00:46:00Z</time>
      </trkpt>
      <trkpt lat="41.602390" lon="2.023208">
        <ele>446.20</ele>
        <time>1970-01-01T00:46:04Z</time>
      </trkpt>
      <trkpt lat="41.602510" lon="2.023145">
        <ele>447.20</ele>
        <time>1970-01-01T00:46:08Z</time>
      </trkpt>
      <trkpt lat="41.602606" lon="2.023040">
        <ele>447.20</ele>
        <time>1970-01-01T00:46:12Z</time>
      </trkpt>
      <trkpt lat="41.602630" lon="2.022871">
        <ele>447.20</ele>
        <time>1970-01-01T00:46:16Z</time>
      </trkpt>
      <trkpt lat="41.602606" lon="2.022655">
        <ele>446.20</ele>
        <time>1970-01-01T00:46:20Z</time>
      </trkpt>
      <trkpt lat="41.602576" lon="2.022473">
        <ele>447.20</ele>
        <time>1970-01-01T00:46:24Z</time>
      </trkpt>
      <trkpt lat="41.602546" lon="2.022338">
        <ele>447.20</ele>
        <time>1970-01-01T00:46:28Z</time>
      </trkpt>
      <trkpt lat="41.602485" lon="2.022088">
        <ele>446.00</ele>
        <time>1970-01-01T00:46:32Z</time>
      </trkpt>
      <trkpt lat="41.602425" lon="2.021838">
        <ele>446.20</ele>
        <time>1970-01-01T00:46:36Z</time>
      </trkpt>
      <trkpt lat="41.602375" lon="2.021618">
        <ele>447.60</ele>
        <time>1970-01-01T00:46:40Z</time>
      </trkpt>
      <trkpt lat="41.602320" lon="2.021385">
        <ele>448.20</ele>
        <time>1970-01-01T00:46:44Z</time>
      </trkpt>
      <trkpt lat="41.602265" lon="2.021176">
        <ele>448.80</ele>
        <time>1970-01-01T00:46:48Z</time>
      </trkpt>
      <trkpt lat="41.602220" lon="2.020956">
        <ele>450.20</ele>
        <time>1970-01-01T00:46:52Z</time>
      </trkpt>
      <trkpt lat="41.602163" lon="2.020733">
        <ele>450.80</ele>
        <time>1970-01-01T00:46:56Z</time>
      </trkpt>
      <trkpt lat="41.602110" lon="2.020525">
        <ele>450.80</ele>
        <time>1970-01-01T00:47:00Z</time>
      </trkpt>
      <trkpt lat="41.602110" lon="2.020525">
        <ele>452.00</ele>
        <time>1970-01-01T00:47:04Z</time>
      </trkpt>
      <trkpt lat="41.602091" lon="2.020413">
        <ele>452.00</ele>
        <time>1970-01-01T00:47:08Z</time>
      </trkpt>
      <trkpt lat="41.602093" lon="2.020211">
        <ele>452.40</ele>
        <time>1970-01-01T00:47:12Z</time>
      </trkpt>
      <trkpt lat="41.602015" lon="2.019975">
        <ele>453.20</ele>
        <time>1970-01-01T00:47:16Z</time>
      </trkpt>
      <trkpt lat="41.602021" lon="2.019738">
        <ele>454.80</ele>
        <time>1970-01-01T00:47:20Z</time>
      </trkpt>
      <trkpt lat="41.602038" lon="2.019546">
        <ele>456.00</ele>
        <time>1970-01-01T00:47:24Z</time>
      </trkpt>
      <trkpt lat="41.602028" lon="2.019370">
        <ele>457.60</ele>
        <time>1970-01-01T00:47:28Z</time>
      </trkpt>
      <trkpt lat="41.602021" lon="2.019203">
        <ele>458.80</ele>
        <time>1970-01-01T00:47:32Z</time>
      </trkpt>
      <trkpt lat="41.602046" lon="2.019065">
        <ele>459.40</ele>
        <time>1970-01-01T00:47:36Z</time>
      </trkpt>
      <trkpt lat="41.602021" lon="2.018926">
        <ele>460.00</ele>
        <time>1970-01-01T00:47:40Z</time>
      </trkpt>
      <trkpt lat="41.602016" lon="2.018806">
        <ele>461.20</ele>
        <time>1970-01-01T00:47:44Z</time>
      </trkpt>
      <trkpt lat="41.602013" lon="2.018703">
        <ele>461.80</ele>
        <time>1970-01-01T00:47:48Z</time>
      </trkpt>
      <trkpt lat="41.601985" lon="2.018586">
        <ele>462.20</ele>
        <time>1970-01-01T00:47:52Z</time>
      </trkpt>
      <trkpt lat="41.601971" lon="2.018476">
        <ele>463.00</ele>
        <time>1970-01-01T00:47:56Z</time>
      </trkpt>
      <trkpt lat="41.601955" lon="2.018343">
        <ele>463.80</ele>
        <time>1970-01-01T00:48:00Z</time>
      </trkpt>
      <trkpt lat="41.601946" lon="2.018210">
        <ele>464.40</ele>
        <time>1970-01-01T00:48:04Z</time>
      </trkpt>
      <trkpt lat="41.601931" lon="2.018081">
        <ele>464.20</ele>
        <time>1970-01-01T00:48:08Z</time>
      </trkpt>
      <trkpt lat="41.601881" lon="2.017920">
        <ele>465.60</ele>
        <time>1970-01-01T00:48:12Z</time>
      </trkpt>
      <trkpt lat="41.601815" lon="2.017750">
        <ele>465.80</ele>
        <time>1970-01-01T00:48:16Z</time>
      </trkpt>
      <trkpt lat="41.601761" lon="2.017593">
        <ele>465.80</ele>
        <time>1970-01-01T00:48:20Z</time>
      </trkpt>
      <trkpt lat="41.601771" lon="2.017381">
        <ele>466.40</ele>
        <time>1970-01-01T00:48:24Z</time>
      </trkpt>
      <trkpt lat="41.601796" lon="2.017175">
        <ele>466.80</ele>
        <time>1970-01-01T00:48:28Z</time>
      </trkpt>
      <trkpt lat="41.601821" lon="2.016978">
        <ele>466.80</ele>
        <time>1970-01-01T00:48:32Z</time>
      </trkpt>
      <trkpt lat="41.601835" lon="2.016773">
        <ele>467.20</ele>
        <time>1970-01-01T00:48:36Z</time>
      </trkpt>
      <trkpt lat="41.601858" lon="2.016566">
        <ele>465.80</ele>
        <time>1970-01-01T00:48:40Z</time>
      </trkpt>
      <trkpt lat="41.601765" lon="2.016370">
        <ele>463.00</ele>
        <time>1970-01-01T00:48:44Z</time>
      </trkpt>
      <trkpt lat="41.601505" lon="2.016151">
        <ele>457.60</ele>
        <time>1970-01-01T00:48:48Z</time>
      </trkpt>
      <trkpt lat="41.601193" lon="2.015916">
        <ele>456.80</ele>
        <time>1970-01-01T00:48:52Z</time>
      </trkpt>
      <trkpt lat="41.600961" lon="2.015615">
        <ele>456.00</ele>
        <time>1970-01-01T00:48:56Z</time>
      </trkpt>
      <trkpt lat="41.600731" lon="2.015445">
        <ele>456.80</ele>
        <time>1970-01-01T00:49:00Z</time>
      </trkpt>
      <trkpt lat="41.600485" lon="2.015323">
        <ele>459.00</ele>
        <time>1970-01-01T00:49:04Z</time>
      </trkpt>
      <trkpt lat="41.600425" lon="2.015133">
        <ele>462.00</ele>
        <time>1970-01-01T00:49:08Z</time>
      </trkpt>
      <trkpt lat="41.600390" lon="2.014978">
        <ele>462.80</ele>
        <time>1970-01-01T00:49:12Z</time>
      </trkpt>
      <trkpt lat="41.600370" lon="2.014806">
        <ele>464.00</ele>
        <time>1970-01-01T00:49:16Z</time>
      </trkpt>
      <trkpt lat="41.600336" lon="2.014651">
        <ele>464.20</ele>
        <time>1970-01-01T00:49:20Z</time>
      </trkpt>
      <trkpt lat="41.600365" lon="2.014468">
        <ele>465.20</ele>
        <time>1970-01-01T00:49:24Z</time>
      </trkpt>
      <trkpt lat="41.600431" lon="2.014306">
        <ele>466.60</ele>
        <time>1970-01-01T00:49:28Z</time>
      </trkpt>
      <trkpt lat="41.600505" lon="2.014166">
        <ele>468.00</ele>
        <time>1970-01-01T00:49:32Z</time>
      </trkpt>
      <trkpt lat="41.600595" lon="2.014048">
        <ele>469.20</ele>
        <time>1970-01-01T00:49:36Z</time>
      </trkpt>
      <trkpt lat="41.600711" lon="2.013995">
        <ele>469.20</ele>
        <time>1970-01-01T00:49:40Z</time>
      </trkpt>
      <trkpt lat="41.600831" lon="2.013988">
        <ele>469.60</ele>
        <time>1970-01-01T00:49:44Z</time>
      </trkpt>
      <trkpt lat="41.600970" lon="2.013995">
        <ele>470.00</ele>
        <time>1970-01-01T00:49:48Z</time>
      </trkpt>
      <trkpt lat="41.601116" lon="2.013965">
        <ele>469.60</ele>
        <time>1970-01-01T00:49:52Z</time>
      </trkpt>
      <trkpt lat="41.601270" lon="2.013963">
        <ele>470.00</ele>
        <time>1970-01-01T00:49:56Z</time>
      </trkpt>
      <trkpt lat="41.601426" lon="2.013953">
        <ele>470.40</ele>
        <time>1970-01-01T00:50:00Z</time>
      </trkpt>
      <trkpt lat="41.601571" lon="2.013870">
        <ele>470.60</ele>
        <time>1970-01-01T00:50:04Z</time>
      </trkpt>
      <trkpt lat="41.601646" lon="2.013738">
        <ele>471.20</ele>
        <time>1970-01-01T00:50:08Z</time>
      </trkpt>
      <trkpt lat="41.601681" lon="2.013556">
        <ele>471.20</ele>
        <time>1970-01-01T00:50:12Z</time>
      </trkpt>
      <trkpt lat="41.601716" lon="2.013371">
        <ele>471.80</ele>
        <time>1970-01-01T00:50:16Z</time>
      </trkpt>
      <trkpt lat="41.601733" lon="2.013195">
        <ele>471.80</ele>
        <time>1970-01-01T00:50:20Z</time>
      </trkpt>
      <trkpt lat="41.601728" lon="2.013013">
        <ele>472.00</ele>
        <time>1970-01-01T00:50:24Z</time>
      </trkpt>
      <trkpt lat="41.601763" lon="2.012846">
        <ele>473.00</ele>
        <time>1970-01-01T00:50:28Z</time>
      </trkpt>
      <trkpt lat="41.601783" lon="2.012655">
        <ele>473.00</ele>
        <time>1970-01-01T00:50:32Z</time>
      </trkpt>
      <trkpt lat="41.601786" lon="2.012445">
        <ele>473.60</ele>
        <time>1970-01-01T00:50:36Z</time>
      </trkpt>
      <trkpt lat="41.601841" lon="2.012281">
        <ele>474.20</ele>
        <time>1970-01-01T00:50:40Z</time>
      </trkpt>
      <trkpt lat="41.601913" lon="2.012113">
        <ele>474.80</ele>
        <time>1970-01-01T00:50:44Z</time>
      </trkpt>
      <trkpt lat="41.602001" lon="2.011995">
        <ele>476.20</ele>
        <time>1970-01-01T00:50:48Z</time>
      </trkpt>
      <trkpt lat="41.602063" lon="2.011860">
        <ele>476.60</ele>
        <time>1970-01-01T00:50:52Z</time>
      </trkpt>
      <trkpt lat="41.602101" lon="2.011716">
        <ele>476.60</ele>
        <time>1970-01-01T00:50:56Z</time>
      </trkpt>
      <trkpt lat="41.602110" lon="2.011561">
        <ele>477.00</ele>
        <time>1970-01-01T00:51:00Z</time>
      </trkpt>
      <trkpt lat="41.602115" lon="2.011383">
        <ele>477.20</ele>
        <time>1970-01-01T00:51:04Z</time>
      </trkpt>
      <trkpt lat="41.602111" lon="2.011203">
        <ele>477.40</ele>
        <time>1970-01-01T00:51:08Z</time>
      </trkpt>
      <trkpt lat="41.602083" lon="2.010968">
        <ele>476.80</ele>
        <time>1970-01-01T00:51:43Z</time>
      </trkpt>
      <trkpt lat="41.602103" lon="2.010806">
        <ele>477.60</ele>
        <time>1970-01-01T00:51:47Z</time>
      </trkpt>
      <trkpt lat="41.602123" lon="2.010633">
        <ele>478.00</ele>
        <time>1970-01-01T00:51:51Z</time>
      </trkpt>
      <trkpt lat="41.602155" lon="2.010485">
        <ele>478.80</ele>
        <time>1970-01-01T00:51:55Z</time>
      </trkpt>
      <trkpt lat="41.602155" lon="2.010396">
        <ele>479.20</ele>
        <time>1970-01-01T00:51:59Z</time>
      </trkpt>
      <trkpt lat="41.602211" lon="2.010266">
        <ele>480.60</ele>
        <time>1970-01-01T00:52:03Z</time>
      </trkpt>
      <trkpt lat="41.602270" lon="2.010120">
        <ele>482.00</ele>
        <time>1970-01-01T00:52:07Z</time>
      </trkpt>
      <trkpt lat="41.602338" lon="2.009946">
        <ele>482.80</ele>
        <time>1970-01-01T00:52:11Z</time>
      </trkpt>
      <trkpt lat="41.602411" lon="2.009791">
        <ele>483.60</ele>
        <time>1970-01-01T00:52:15Z</time>
      </trkpt>
      <trkpt lat="41.602485" lon="2.009633">
        <ele>485.00</ele>
        <time>1970-01-01T00:52:19Z</time>
      </trkpt>
      <trkpt lat="41.602550" lon="2.009478">
        <ele>485.80</ele>
        <time>1970-01-01T00:52:23Z</time>
      </trkpt>
      <trkpt lat="41.602613" lon="2.009326">
        <ele>487.20</ele>
        <time>1970-01-01T00:52:27Z</time>
      </trkpt>
      <trkpt lat="41.602671" lon="2.009178">
        <ele>487.80</ele>
        <time>1970-01-01T00:52:31Z</time>
      </trkpt>
      <trkpt lat="41.602721" lon="2.009045">
        <ele>489.20</ele>
        <time>1970-01-01T00:52:35Z</time>
      </trkpt>
      <trkpt lat="41.602776" lon="2.008903">
        <ele>490.00</ele>
        <time>1970-01-01T00:52:39Z</time>
      </trkpt>
      <trkpt lat="41.602831" lon="2.008770">
        <ele>491.20</ele>
        <time>1970-01-01T00:52:43Z</time>
      </trkpt>
      <trkpt lat="41.602883" lon="2.008640">
        <ele>491.80</ele>
        <time>1970-01-01T00:52:47Z</time>
      </trkpt>
      <trkpt lat="41.602933" lon="2.008506">
        <ele>492.80</ele>
        <time>1970-01-01T00:52:51Z</time>
      </trkpt>
      <trkpt lat="41.602985" lon="2.008381">
        <ele>494.20</ele>
        <time>1970-01-01T00:52:55Z</time>
      </trkpt>
      <trkpt lat="41.603038" lon="2.008266">
        <ele>495.80</ele>
        <time>1970-01-01T00:52:59Z</time>
      </trkpt>
      <trkpt lat="41.603110" lon="2.008185">
        <ele>496.20</ele>
        <time>1970-01-01T00:53:03Z</time>
      </trkpt>
      <trkpt lat="41.603156" lon="2.008285">
        <ele>496.80</ele>
        <time>1970-01-01T00:53:07Z</time>
      </trkpt>
      <trkpt lat="41.603123" lon="2.008416">
        <ele>498.00</ele>
        <time>1970-01-01T00:53:11Z</time>
      </trkpt>
      <trkpt lat="41.603090" lon="2.008556">
        <ele>498.20</ele>
        <time>1970-01-01T00:53:15Z</time>
      </trkpt>
      <trkpt lat="41.603048" lon="2.008726">
        <ele>498.80</ele>
        <time>1970-01-01T00:53:19Z</time>
      </trkpt>
      <trkpt lat="41.603015" lon="2.008890">
        <ele>499.00</ele>
        <time>1970-01-01T00:53:23Z</time>
      </trkpt>
      <trkpt lat="41.602985" lon="2.009066">
        <ele>499.40</ele>
        <time>1970-01-01T00:53:27Z</time>
      </trkpt>
      <trkpt lat="41.602915" lon="2.009265">
        <ele>500.20</ele>
        <time>1970-01-01T00:53:31Z</time>
      </trkpt>
      <trkpt lat="41.602861" lon="2.009461">
        <ele>500.20</ele>
        <time>1970-01-01T00:53:35Z</time>
      </trkpt>
      <trkpt lat="41.602805" lon="2.009656">
        <ele>500.80</ele>
        <time>1970-01-01T00:53:39Z</time>
      </trkpt>
      <trkpt lat="41.602750" lon="2.009846">
        <ele>501.40</ele>
        <time>1970-01-01T00:53:43Z</time>
      </trkpt>
      <trkpt lat="41.602695" lon="2.010033">
        <ele>501.40</ele>
        <time>1970-01-01T00:53:47Z</time>
      </trkpt>
      <trkpt lat="41.602643" lon="2.010218">
        <ele>501.80</ele>
        <time>1970-01-01T00:53:51Z</time>
      </trkpt>
      <trkpt lat="41.602626" lon="2.010398">
        <ele>503.40</ele>
        <time>1970-01-01T00:53:55Z</time>
      </trkpt>
      <trkpt lat="41.602725" lon="2.010466">
        <ele>503.60</ele>
        <time>1970-01-01T00:53:59Z</time>
      </trkpt>
      <trkpt lat="41.602788" lon="2.010315">
        <ele>505.20</ele>
        <time>1970-01-01T00:54:03Z</time>
      </trkpt>
      <trkpt lat="41.602825" lon="2.010158">
        <ele>506.60</ele>
        <time>1970-01-01T00:54:07Z</time>
      </trkpt>
      <trkpt lat="41.602878" lon="2.010005">
        <ele>506.40</ele>
        <time>1970-01-01T00:54:11Z</time>
      </trkpt>
      <trkpt lat="41.602935" lon="2.009850">
        <ele>507.40</ele>
        <time>1970-01-01T00:54:15Z</time>
      </trkpt>
      <trkpt lat="41.602996" lon="2.009698">
        <ele>508.00</ele>
        <time>1970-01-01T00:54:19Z</time>
      </trkpt>
      <trkpt lat="41.603061" lon="2.009541">
        <ele>509.00</ele>
        <time>1970-01-01T00:54:23Z</time>
      </trkpt>
      <trkpt lat="41.603123" lon="2.009383">
        <ele>509.80</ele>
        <time>1970-01-01T00:54:27Z</time>
      </trkpt>
      <trkpt lat="41.603183" lon="2.009233">
        <ele>510.60</ele>
        <time>1970-01-01T00:54:31Z</time>
      </trkpt>
      <trkpt lat="41.603241" lon="2.009080">
        <ele>510.80</ele>
        <time>1970-01-01T00:54:35Z</time>
      </trkpt>
      <trkpt lat="41.603295" lon="2.008926">
        <ele>511.60</ele>
        <time>1970-01-01T00:54:39Z</time>
      </trkpt>
      <trkpt lat="41.603345" lon="2.008761">
        <ele>511.80</ele>
        <time>1970-01-01T00:54:43Z</time>
      </trkpt>
      <trkpt lat="41.603406" lon="2.008590">
        <ele>512.40</ele>
        <time>1970-01-01T00:54:47Z</time>
      </trkpt>
      <trkpt lat="41.603470" lon="2.008418">
        <ele>513.20</ele>
        <time>1970-01-01T00:54:51Z</time>
      </trkpt>
      <trkpt lat="41.603530" lon="2.008253">
        <ele>514.40</ele>
        <time>1970-01-01T00:54:55Z</time>
      </trkpt>
      <trkpt lat="41.603585" lon="2.008095">
        <ele>515.20</ele>
        <time>1970-01-01T00:54:59Z</time>
      </trkpt>
      <trkpt lat="41.603635" lon="2.007941">
        <ele>516.20</ele>
        <time>1970-01-01T00:55:03Z</time>
      </trkpt>
      <trkpt lat="41.603688" lon="2.007783">
        <ele>516.80</ele>
        <time>1970-01-01T00:55:07Z</time>
      </trkpt>
      <trkpt lat="41.603736" lon="2.007623">
        <ele>517.20</ele>
        <time>1970-01-01T00:55:11Z</time>
      </trkpt>
      <trkpt lat="41.603786" lon="2.007461">
        <ele>518.20</ele>
        <time>1970-01-01T00:55:15Z</time>
      </trkpt>
      <trkpt lat="41.603870" lon="2.007331">
        <ele>518.00</ele>
        <time>1970-01-01T00:55:19Z</time>
      </trkpt>
      <trkpt lat="41.603963" lon="2.007245">
        <ele>520.00</ele>
        <time>1970-01-01T00:55:23Z</time>
      </trkpt>
      <trkpt lat="41.604051" lon="2.007195">
        <ele>521.80</ele>
        <time>1970-01-01T00:55:27Z</time>
      </trkpt>
      <trkpt lat="41.604135" lon="2.007138">
        <ele>523.60</ele>
        <time>1970-01-01T00:55:31Z</time>
      </trkpt>
      <trkpt lat="41.604225" lon="2.007095">
        <ele>524.80</ele>
        <time>1970-01-01T00:55:35Z</time>
      </trkpt>
      <trkpt lat="41.604313" lon="2.007088">
        <ele>526.00</ele>
        <time>1970-01-01T00:55:39Z</time>
      </trkpt>
      <trkpt lat="41.604370" lon="2.007175">
        <ele>527.40</ele>
        <time>1970-01-01T00:55:43Z</time>
      </trkpt>
      <trkpt lat="41.604368" lon="2.007288">
        <ele>528.20</ele>
        <time>1970-01-01T00:55:47Z</time>
      </trkpt>
      <trkpt lat="41.604318" lon="2.007385">
        <ele>530.20</ele>
        <time>1970-01-01T00:55:51Z</time>
      </trkpt>
      <trkpt lat="41.604255" lon="2.007486">
        <ele>531.00</ele>
        <time>1970-01-01T00:55:55Z</time>
      </trkpt>
      <trkpt lat="41.604185" lon="2.007610">
        <ele>531.80</ele>
        <time>1970-01-01T00:55:59Z</time>
      </trkpt>
      <trkpt lat="41.604100" lon="2.007756">
        <ele>531.60</ele>
        <time>1970-01-01T00:56:03Z</time>
      </trkpt>
      <trkpt lat="41.604018" lon="2.007913">
        <ele>533.00</ele>
        <time>1970-01-01T00:56:07Z</time>
      </trkpt>
      <trkpt lat="41.603978" lon="2.008078">
        <ele>533.20</ele>
        <time>1970-01-01T00:56:11Z</time>
      </trkpt>
      <trkpt lat="41.603945" lon="2.008225">
        <ele>534.00</ele>
        <time>1970-01-01T00:56:15Z</time>
      </trkpt>
      <trkpt lat="41.603905" lon="2.008366">
        <ele>535.80</ele>
        <time>1970-01-01T00:56:19Z</time>
      </trkpt>
      <trkpt lat="41.603880" lon="2.008505">
        <ele>535.80</ele>
        <time>1970-01-01T00:56:23Z</time>
      </trkpt>
      <trkpt lat="41.603850" lon="2.008650">
        <ele>536.80</ele>
        <time>1970-01-01T00:56:27Z</time>
      </trkpt>
      <trkpt lat="41.603818" lon="2.008800">
        <ele>537.20</ele>
        <time>1970-01-01T00:56:31Z</time>
      </trkpt>
      <trkpt lat="41.603793" lon="2.008943">
        <ele>538.00</ele>
        <time>1970-01-01T00:56:35Z</time>
      </trkpt>
      <trkpt lat="41.603753" lon="2.009091">
        <ele>539.20</ele>
        <time>1970-01-01T00:56:39Z</time>
      </trkpt>
      <trkpt lat="41.603721" lon="2.009233">
        <ele>539.60</ele>
        <time>1970-01-01T00:56:43Z</time>
      </trkpt>
      <trkpt lat="41.603705" lon="2.009385">
        <ele>540.20</ele>
        <time>1970-01-01T00:56:47Z</time>
      </trkpt>
      <trkpt lat="41.603703" lon="2.009535">
        <ele>541.60</ele>
        <time>1970-01-01T00:56:51Z</time>
      </trkpt>
      <trkpt lat="41.603691" lon="2.009666">
        <ele>542.40</ele>
        <time>1970-01-01T00:56:55Z</time>
      </trkpt>
      <trkpt lat="41.603673" lon="2.009793">
        <ele>543.60</ele>
        <time>1970-01-01T00:56:59Z</time>
      </trkpt>
      <trkpt lat="41.603651" lon="2.009918">
        <ele>545.00</ele>
        <time>1970-01-01T00:57:03Z</time>
      </trkpt>
      <trkpt lat="41.603645" lon="2.010043">
        <ele>545.80</ele>
        <time>1970-01-01T00:57:07Z</time>
      </trkpt>
      <trkpt lat="41.603633" lon="2.010166">
        <ele>546.20</ele>
        <time>1970-01-01T00:57:11Z</time>
      </trkpt>
      <trkpt lat="41.603615" lon="2.010290">
        <ele>547.00</ele>
        <time>1970-01-01T00:57:15Z</time>
      </trkpt>
      <trkpt lat="41.603600" lon="2.010410">
        <ele>548.00</ele>
        <time>1970-01-01T00:57:19Z</time>
      </trkpt>
      <trkpt lat="41.603580" lon="2.010543">
        <ele>548.60</ele>
        <time>1970-01-01T00:57:23Z</time>
      </trkpt>
      <trkpt lat="41.603561" lon="2.010675">
        <ele>549.40</ele>
        <time>1970-01-01T00:57:27Z</time>
      </trkpt>
      <trkpt lat="41.603536" lon="2.010808">
        <ele>550.20</ele>
        <time>1970-01-01T00:57:31Z</time>
      </trkpt>
      <trkpt lat="41.603515" lon="2.010938">
        <ele>550.20</ele>
        <time>1970-01-01T00:57:35Z</time>
      </trkpt>
      <trkpt lat="41.603495" lon="2.011071">
        <ele>551.00</ele>
        <time>1970-01-01T00:57:39Z</time>
      </trkpt>
      <trkpt lat="41.603488" lon="2.011195">
        <ele>552.20</ele>
        <time>1970-01-01T00:57:43Z</time>
      </trkpt>
      <trkpt lat="41.603508" lon="2.011315">
        <ele>553.00</ele>
        <time>1970-01-01T00:57:47Z</time>
      </trkpt>
      <trkpt lat="41.603580" lon="2.011381">
        <ele>554.60</ele>
        <time>1970-01-01T00:57:51Z</time>
      </trkpt>
      <trkpt lat="41.603661" lon="2.011345">
        <ele>555.20</ele>
        <time>1970-01-01T00:57:55Z</time>
      </trkpt>
      <trkpt lat="41.603726" lon="2.011268">
        <ele>556.40</ele>
        <time>1970-01-01T00:57:59Z</time>
      </trkpt>
      <trkpt lat="41.603766" lon="2.011158">
        <ele>557.20</ele>
        <time>1970-01-01T00:58:03Z</time>
      </trkpt>
      <trkpt lat="41.603815" lon="2.011056">
        <ele>558.40</ele>
        <time>1970-01-01T00:58:07Z</time>
      </trkpt>
      <trkpt lat="41.603861" lon="2.010948">
        <ele>559.00</ele>
        <time>1970-01-01T00:58:11Z</time>
      </trkpt>
      <trkpt lat="41.603901" lon="2.010830">
        <ele>559.80</ele>
        <time>1970-01-01T00:58:15Z</time>
      </trkpt>
      <trkpt lat="41.603946" lon="2.010688">
        <ele>560.40</ele>
        <time>1970-01-01T00:58:19Z</time>
      </trkpt>
      <trkpt lat="41.603998" lon="2.010526">
        <ele>560.00</ele>
        <time>1970-01-01T00:58:23Z</time>
      </trkpt>
      <trkpt lat="41.604071" lon="2.010330">
        <ele>560.40</ele>
        <time>1970-01-01T00:58:27Z</time>
      </trkpt>
      <trkpt lat="41.604131" lon="2.010101">
        <ele>559.20</ele>
        <time>1970-01-01T00:58:31Z</time>
      </trkpt>
      <trkpt lat="41.604190" lon="2.009846">
        <ele>559.40</ele>
        <time>1970-01-01T00:58:35Z</time>
      </trkpt>
      <trkpt lat="41.604253" lon="2.009573">
        <ele>559.20</ele>
        <time>1970-01-01T00:58:39Z</time>
      </trkpt>
      <trkpt lat="41.604328" lon="2.009268">
        <ele>557.80</ele>
        <time>1970-01-01T00:58:43Z</time>
      </trkpt>
      <trkpt lat="41.604455" lon="2.008971">
        <ele>558.80</ele>
        <time>1970-01-01T00:58:47Z</time>
      </trkpt>
      <trkpt lat="41.604588" lon="2.008726">
        <ele>561.00</ele>
        <time>1970-01-01T00:58:51Z</time>
      </trkpt>
      <trkpt lat="41.604715" lon="2.008533">
        <ele>562.80</ele>
        <time>1970-01-01T00:58:55Z</time>
      </trkpt>
      <trkpt lat="41.604846" lon="2.008436">
        <ele>563.60</ele>
        <time>1970-01-01T00:58:59Z</time>
      </trkpt>
      <trkpt lat="41.604888" lon="2.008546">
        <ele>563.60</ele>
        <time>1970-01-01T00:59:03Z</time>
      </trkpt>
      <trkpt lat="41.604948" lon="2.008440">
        <ele>564.40</ele>
        <time>1970-01-01T00:59:23Z</time>
      </trkpt>
      <trkpt lat="41.605031" lon="2.008351">
        <ele>563.80</ele>
        <time>1970-01-01T00:59:27Z</time>
      </trkpt>
      <trkpt lat="41.605078" lon="2.008271">
        <ele>563.60</ele>
        <time>1970-01-01T00:59:31Z</time>
      </trkpt>
      <trkpt lat="41.605043" lon="2.008035">
        <ele>559.00</ele>
        <time>1970-01-01T00:59:35Z</time>
      </trkpt>
      <trkpt lat="41.605026" lon="2.007798">
        <ele>556.40</ele>
        <time>1970-01-01T00:59:39Z</time>
      </trkpt>
      <trkpt lat="41.605110" lon="2.007591">
        <ele>550.80</ele>
        <time>1970-01-01T00:59:43Z</time>
      </trkpt>
      <trkpt lat="41.605206" lon="2.007353">
        <ele>546.80</ele>
        <time>1970-01-01T00:59:47Z</time>
      </trkpt>
      <trkpt lat="41.605306" lon="2.007088">
        <ele>542.40</ele>
        <time>1970-01-01T00:59:51Z</time>
      </trkpt>
      <trkpt lat="41.605286" lon="2.006901">
        <ele>540.00</ele>
        <time>1970-01-01T00:59:55Z</time>
      </trkpt>
      <trkpt lat="41.605186" lon="2.006733">
        <ele>538.60</ele>
        <time>1970-01-01T00:59:59Z</time>
      </trkpt>
      <trkpt lat="41.605131" lon="2.006600">
        <ele>539.20</ele>
        <time>1970-01-01T01:00:03Z</time>
      </trkpt>
      <trkpt lat="41.605135" lon="2.006476">
        <ele>539.60</ele>
        <time>1970-01-01T01:00:07Z</time>
      </trkpt>
      <trkpt lat="41.605165" lon="2.006340">
        <ele>540.20</ele>
        <time>1970-01-01T01:00:11Z</time>
      </trkpt>
      <trkpt lat="41.605215" lon="2.006213">
        <ele>540.00</ele>
        <time>1970-01-01T01:00:15Z</time>
      </trkpt>
      <trkpt lat="41.605263" lon="2.006090">
        <ele>541.40</ele>
        <time>1970-01-01T01:00:19Z</time>
      </trkpt>
      <trkpt lat="41.605341" lon="2.005955">
        <ele>541.60</ele>
        <time>1970-01-01T01:00:23Z</time>
      </trkpt>
      <trkpt lat="41.605341" lon="2.005756">
        <ele>542.00</ele>
        <time>1970-01-01T01:00:27Z</time>
      </trkpt>
      <trkpt lat="41.605295" lon="2.005571">
        <ele>542.20</ele>
        <time>1970-01-01T01:00:31Z</time>
      </trkpt>
      <trkpt lat="41.605313" lon="2.005338">
        <ele>542.60</ele>
        <time>1970-01-01T01:00:35Z</time>
      </trkpt>
      <trkpt lat="41.605323" lon="2.005148">
        <ele>542.80</ele>
        <time>1970-01-01T01:00:39Z</time>
      </trkpt>
      <trkpt lat="41.605305" lon="2.004945">
        <ele>543.00</ele>
        <time>1970-01-01T01:00:43Z</time>
      </trkpt>
      <trkpt lat="41.605303" lon="2.004763">
        <ele>544.20</ele>
        <time>1970-01-01T01:00:47Z</time>
      </trkpt>
      <trkpt lat="41.605291" lon="2.004581">
        <ele>545.20</ele>
        <time>1970-01-01T01:00:51Z</time>
      </trkpt>
      <trkpt lat="41.605288" lon="2.004391">
        <ele>546.00</ele>
        <time>1970-01-01T01:00:55Z</time>
      </trkpt>
      <trkpt lat="41.605286" lon="2.004218">
        <ele>547.00</ele>
        <time>1970-01-01T01:00:59Z</time>
      </trkpt>
      <trkpt lat="41.605256" lon="2.004033">
        <ele>547.40</ele>
        <time>1970-01-01T01:01:03Z</time>
      </trkpt>
      <trkpt lat="41.605226" lon="2.003875">
        <ele>547.80</ele>
        <time>1970-01-01T01:01:07Z</time>
      </trkpt>
      <trkpt lat="41.605206" lon="2.003703">
        <ele>548.20</ele>
        <time>1970-01-01T01:01:11Z</time>
      </trkpt>
      <trkpt lat="41.605190" lon="2.003515">
        <ele>549.60</ele>
        <time>1970-01-01T01:01:15Z</time>
      </trkpt>
      <trkpt lat="41.605203" lon="2.003346">
        <ele>549.60</ele>
        <time>1970-01-01T01:01:19Z</time>
      </trkpt>
      <trkpt lat="41.605225" lon="2.003196">
        <ele>550.60</ele>
        <time>1970-01-01T01:01:23Z</time>
      </trkpt>
      <trkpt lat="41.605245" lon="2.003070">
        <ele>551.20</ele>
        <time>1970-01-01T01:01:27Z</time>
      </trkpt>
      <trkpt lat="41.605261" lon="2.002935">
        <ele>552.60</ele>
        <time>1970-01-01T01:01:31Z</time>
      </trkpt>
      <trkpt lat="41.605298" lon="2.002820">
        <ele>553.60</ele>
        <time>1970-01-01T01:01:35Z</time>
      </trkpt>
      <trkpt lat="41.605330" lon="2.002723">
        <ele>554.40</ele>
        <time>1970-01-01T01:01:39Z</time>
      </trkpt>
      <trkpt lat="41.605375" lon="2.002648">
        <ele>555.40</ele>
        <time>1970-01-01T01:01:43Z</time>
      </trkpt>
      <trkpt lat="41.605440" lon="2.002575">
        <ele>555.60</ele>
        <time>1970-01-01T01:01:47Z</time>
      </trkpt>
      <trkpt lat="41.605498" lon="2.002538">
        <ele>556.80</ele>
        <time>1970-01-01T01:01:51Z</time>
      </trkpt>
      <trkpt lat="41.605560" lon="2.002518">
        <ele>558.20</ele>
        <time>1970-01-01T01:01:55Z</time>
      </trkpt>
      <trkpt lat="41.605693" lon="2.002480">
        <ele>557.80</ele>
        <time>1970-01-01T01:01:59Z</time>
      </trkpt>
      <trkpt lat="41.605791" lon="2.002376">
        <ele>558.00</ele>
        <time>1970-01-01T01:02:03Z</time>
      </trkpt>
      <trkpt lat="41.605885" lon="2.002233">
        <ele>558.20</ele>
        <time>1970-01-01T01:02:07Z</time>
      </trkpt>
      <trkpt lat="41.605980" lon="2.002090">
        <ele>558.00</ele>
        <time>1970-01-01T01:02:11Z</time>
      </trkpt>
      <trkpt lat="41.606051" lon="2.001938">
        <ele>558.60</ele>
        <time>1970-01-01T01:02:15Z</time>
      </trkpt>
      <trkpt lat="41.605966" lon="2.001795">
        <ele>557.80</ele>
        <time>1970-01-01T01:02:19Z</time>
      </trkpt>
      <trkpt lat="41.605853" lon="2.001806">
        <ele>558.60</ele>
        <time>1970-01-01T01:02:23Z</time>
      </trkpt>
      <trkpt lat="41.605710" lon="2.001820">
        <ele>559.00</ele>
        <time>1970-01-01T01:02:27Z</time>
      </trkpt>
      <trkpt lat="41.605593" lon="2.001708">
        <ele>559.40</ele>
        <time>1970-01-01T01:02:31Z</time>
      </trkpt>
      <trkpt lat="41.605508" lon="2.001588">
        <ele>561.00</ele>
        <time>1970-01-01T01:02:35Z</time>
      </trkpt>
      <trkpt lat="41.605440" lon="2.001518">
        <ele>561.80</ele>
        <time>1970-01-01T01:02:39Z</time>
      </trkpt>
      <trkpt lat="41.605376" lon="2.001433">
        <ele>563.40</ele>
        <time>1970-01-01T01:02:43Z</time>
      </trkpt>
      <trkpt lat="41.605333" lon="2.001365">
        <ele>564.20</ele>
        <time>1970-01-01T01:02:47Z</time>
      </trkpt>
      <trkpt lat="41.605253" lon="2.001295">
        <ele>565.40</ele>
        <time>1970-01-01T01:02:51Z</time>
      </trkpt>
      <trkpt lat="41.605165" lon="2.001261">
        <ele>566.40</ele>
        <time>1970-01-01T01:02:55Z</time>
      </trkpt>
      <trkpt lat="41.605080" lon="2.001225">
        <ele>572.20</ele>
        <time>1970-01-01T01:02:59Z</time>
      </trkpt>
      <trkpt lat="41.604975" lon="2.001191">
        <ele>567.40</ele>
        <time>1970-01-01T01:03:03Z</time>
      </trkpt>
      <trkpt lat="41.604876" lon="2.001148">
        <ele>568.20</ele>
        <time>1970-01-01T01:03:07Z</time>
      </trkpt>
      <trkpt lat="41.604826" lon="2.001060">
        <ele>569.40</ele>
        <time>1970-01-01T01:03:11Z</time>
      </trkpt>
      <trkpt lat="41.604835" lon="2.000953">
        <ele>570.00</ele>
        <time>1970-01-01T01:03:15Z</time>
      </trkpt>
      <trkpt lat="41.604886" lon="2.000868">
        <ele>570.40</ele>
        <time>1970-01-01T01:03:19Z</time>
      </trkpt>
      <trkpt lat="41.604955" lon="2.000860">
        <ele>571.60</ele>
        <time>1970-01-01T01:03:23Z</time>
      </trkpt>
      <trkpt lat="41.605015" lon="2.000900">
        <ele>572.60</ele>
        <time>1970-01-01T01:03:27Z</time>
      </trkpt>
      <trkpt lat="41.605076" lon="2.000946">
        <ele>573.60</ele>
        <time>1970-01-01T01:03:31Z</time>
      </trkpt>
      <trkpt lat="41.605148" lon="2.000960">
        <ele>574.60</ele>
        <time>1970-01-01T01:03:35Z</time>
      </trkpt>
      <trkpt lat="41.605225" lon="2.000940">
        <ele>575.80</ele>
        <time>1970-01-01T01:03:39Z</time>
      </trkpt>
      <trkpt lat="41.605305" lon="2.000916">
        <ele>576.00</ele>
        <time>1970-01-01T01:03:43Z</time>
      </trkpt>
      <trkpt lat="41.605368" lon="2.000851">
        <ele>576.20</ele>
        <time>1970-01-01T01:03:47Z</time>
      </trkpt>
      <trkpt lat="41.605483" lon="2.000756">
        <ele>575.60</ele>
        <time>1970-01-01T01:03:51Z</time>
      </trkpt>
      <trkpt lat="41.605671" lon="2.000636">
        <ele>572.80</ele>
        <time>1970-01-01T01:03:55Z</time>
      </trkpt>
      <trkpt lat="41.605936" lon="2.000476">
        <ele>569.40</ele>
        <time>1970-01-01T01:03:59Z</time>
      </trkpt>
      <trkpt lat="41.606300" lon="2.000326">
        <ele>563.60</ele>
        <time>1970-01-01T01:04:03Z</time>
      </trkpt>
      <trkpt lat="41.606550" lon="2.000195">
        <ele>564.20</ele>
        <time>1970-01-01T01:04:07Z</time>
      </trkpt>
      <trkpt lat="41.606511" lon="1.999995">
        <ele>566.40</ele>
        <time>1970-01-01T01:04:11Z</time>
      </trkpt>
      <trkpt lat="41.606453" lon="1.999810">
        <ele>567.60</ele>
        <time>1970-01-01T01:04:15Z</time>
      </trkpt>
      <trkpt lat="41.606471" lon="1.999576">
        <ele>567.20</ele>
        <time>1970-01-01T01:04:19Z</time>
      </trkpt>
      <trkpt lat="41.606598" lon="1.999426">
        <ele>568.60</ele>
        <time>1970-01-01T01:04:23Z</time>
      </trkpt>
      <trkpt lat="41.606693" lon="1.999291">
        <ele>569.40</ele>
        <time>1970-01-01T01:04:27Z</time>
      </trkpt>
      <trkpt lat="41.606746" lon="1.999138">
        <ele>571.00</ele>
        <time>1970-01-01T01:04:31Z</time>
      </trkpt>
      <trkpt lat="41.606778" lon="1.998936">
        <ele>570.60</ele>
        <time>1970-01-01T01:04:35Z</time>
      </trkpt>
      <trkpt lat="41.606790" lon="1.998720">
        <ele>571.00</ele>
        <time>1970-01-01T01:04:39Z</time>
      </trkpt>
      <trkpt lat="41.606843" lon="1.998513">
        <ele>571.60</ele>
        <time>1970-01-01T01:04:43Z</time>
      </trkpt>
      <trkpt lat="41.606963" lon="1.998476">
        <ele>573.20</ele>
        <time>1970-01-01T01:04:47Z</time>
      </trkpt>
      <trkpt lat="41.607116" lon="1.998568">
        <ele>572.60</ele>
        <time>1970-01-01T01:04:51Z</time>
      </trkpt>
      <trkpt lat="41.607298" lon="1.998630">
        <ele>570.80</ele>
        <time>1970-01-01T01:04:55Z</time>
      </trkpt>
      <trkpt lat="41.607311" lon="1.998395">
        <ele>568.20</ele>
        <time>1970-01-01T01:04:59Z</time>
      </trkpt>
      <trkpt lat="41.607328" lon="1.998045">
        <ele>565.40</ele>
        <time>1970-01-01T01:05:03Z</time>
      </trkpt>
      <trkpt lat="41.607398" lon="1.997678">
        <ele>563.00</ele>
        <time>1970-01-01T01:05:07Z</time>
      </trkpt>
      <trkpt lat="41.607345" lon="1.997311">
        <ele>561.20</ele>
        <time>1970-01-01T01:05:11Z</time>
      </trkpt>
      <trkpt lat="41.607341" lon="1.996943">
        <ele>560.20</ele>
        <time>1970-01-01T01:05:15Z</time>
      </trkpt>
      <trkpt lat="41.607438" lon="1.996610">
        <ele>560.20</ele>
        <time>1970-01-01T01:05:19Z</time>
      </trkpt>
      <trkpt lat="41.607693" lon="1.996360">
        <ele>554.60</ele>
        <time>1970-01-01T01:05:23Z</time>
      </trkpt>
      <trkpt lat="41.607961" lon="1.996290">
        <ele>556.40</ele>
        <time>1970-01-01T01:05:27Z</time>
      </trkpt>
      <trkpt lat="41.608138" lon="1.996261">
        <ele>559.40</ele>
        <time>1970-01-01T01:05:31Z</time>
      </trkpt>
      <trkpt lat="41.608233" lon="1.996241">
        <ele>560.40</ele>
        <time>1970-01-01T01:05:35Z</time>
      </trkpt>
      <trkpt lat="41.608325" lon="1.996273">
        <ele>563.00</ele>
        <time>1970-01-01T01:05:39Z</time>
      </trkpt>
      <trkpt lat="41.608420" lon="1.996318">
        <ele>563.80</ele>
        <time>1970-01-01T01:05:43Z</time>
      </trkpt>
      <trkpt lat="41.608546" lon="1.996336">
        <ele>564.00</ele>
        <time>1970-01-01T01:05:47Z</time>
      </trkpt>
      <trkpt lat="41.608678" lon="1.996386">
        <ele>564.40</ele>
        <time>1970-01-01T01:05:51Z</time>
      </trkpt>
      <trkpt lat="41.608791" lon="1.996470">
        <ele>565.00</ele>
        <time>1970-01-01T01:05:55Z</time>
      </trkpt>
      <trkpt lat="41.608908" lon="1.996391">
        <ele>566.60</ele>
        <time>1970-01-01T01:05:59Z</time>
      </trkpt>
      <trkpt lat="41.608995" lon="1.996251">
        <ele>566.40</ele>
        <time>1970-01-01T01:06:03Z</time>
      </trkpt>
      <trkpt lat="41.609045" lon="1.996091">
        <ele>568.20</ele>
        <time>1970-01-01T01:06:07Z</time>
      </trkpt>
      <trkpt lat="41.609073" lon="1.995953">
        <ele>568.60</ele>
        <time>1970-01-01T01:06:11Z</time>
      </trkpt>
      <trkpt lat="41.609108" lon="1.995828">
        <ele>570.00</ele>
        <time>1970-01-01T01:06:15Z</time>
      </trkpt>
      <trkpt lat="41.609145" lon="1.995716">
        <ele>571.60</ele>
        <time>1970-01-01T01:06:19Z</time>
      </trkpt>
      <trkpt lat="41.609193" lon="1.995605">
        <ele>572.40</ele>
        <time>1970-01-01T01:06:23Z</time>
      </trkpt>
      <trkpt lat="41.609258" lon="1.995526">
        <ele>573.20</ele>
        <time>1970-01-01T01:06:27Z</time>
      </trkpt>
      <trkpt lat="41.609335" lon="1.995456">
        <ele>574.20</ele>
        <time>1970-01-01T01:06:31Z</time>
      </trkpt>
      <trkpt lat="41.609418" lon="1.995406">
        <ele>574.80</ele>
        <time>1970-01-01T01:06:35Z</time>
      </trkpt>
      <trkpt lat="41.609525" lon="1.995336">
        <ele>574.80</ele>
        <time>1970-01-01T01:06:39Z</time>
      </trkpt>
      <trkpt lat="41.609616" lon="1.995270">
        <ele>576.00</ele>
        <time>1970-01-01T01:06:43Z</time>
      </trkpt>
      <trkpt lat="41.609691" lon="1.995190">
        <ele>576.60</ele>
        <time>1970-01-01T01:06:47Z</time>
      </trkpt>
      <trkpt lat="41.609776" lon="1.995121">
        <ele>577.40</ele>
        <time>1970-01-01T01:06:51Z</time>
      </trkpt>
      <trkpt lat="41.609880" lon="1.995053">
        <ele>577.20</ele>
        <time>1970-01-01T01:06:55Z</time>
      </trkpt>
      <trkpt lat="41.610020" lon="1.995020">
        <ele>576.80</ele>
        <time>1970-01-01T01:06:59Z</time>
      </trkpt>
      <trkpt lat="41.610145" lon="1.995031">
        <ele>577.40</ele>
        <time>1970-01-01T01:07:03Z</time>
      </trkpt>
      <trkpt lat="41.610261" lon="1.995013">
        <ele>578.60</ele>
        <time>1970-01-01T01:07:07Z</time>
      </trkpt>
      <trkpt lat="41.610340" lon="1.994936">
        <ele>579.60</ele>
        <time>1970-01-01T01:07:11Z</time>
      </trkpt>
      <trkpt lat="41.610336" lon="1.994803">
        <ele>580.40</ele>
        <time>1970-01-01T01:07:15Z</time>
      </trkpt>
      <trkpt lat="41.610330" lon="1.994690">
        <ele>582.40</ele>
        <time>1970-01-01T01:07:19Z</time>
      </trkpt>
      <trkpt lat="41.610338" lon="1.994560">
        <ele>582.40</ele>
        <time>1970-01-01T01:07:23Z</time>
      </trkpt>
      <trkpt lat="41.610355" lon="1.994411">
        <ele>583.60</ele>
        <time>1970-01-01T01:07:27Z</time>
      </trkpt>
      <trkpt lat="41.610438" lon="1.994271">
        <ele>583.20</ele>
        <time>1970-01-01T01:07:31Z</time>
      </trkpt>
      <trkpt lat="41.610588" lon="1.994105">
        <ele>581.20</ele>
        <time>1970-01-01T01:07:35Z</time>
      </trkpt>
      <trkpt lat="41.610660" lon="1.993878">
        <ele>580.40</ele>
        <time>1970-01-01T01:07:39Z</time>
      </trkpt>
      <trkpt lat="41.610523" lon="1.993843">
        <ele>582.60</ele>
        <time>1970-01-01T01:07:43Z</time>
      </trkpt>
      <trkpt lat="41.610343" lon="1.993765">
        <ele>581.60</ele>
        <time>1970-01-01T01:07:47Z</time>
      </trkpt>
      <trkpt lat="41.610191" lon="1.993580">
        <ele>580.20</ele>
        <time>1970-01-01T01:07:51Z</time>
      </trkpt>
      <trkpt lat="41.610013" lon="1.993553">
        <ele>580.00</ele>
        <time>1970-01-01T01:07:55Z</time>
      </trkpt>
      <trkpt lat="41.609865" lon="1.993765">
        <ele>578.20</ele>
        <time>1970-01-01T01:07:59Z</time>
      </trkpt>
      <trkpt lat="41.609660" lon="1.993801">
        <ele>576.40</ele>
        <time>1970-01-01T01:08:03Z</time>
      </trkpt>
      <trkpt lat="41.609368" lon="1.993715">
        <ele>573.00</ele>
        <time>1970-01-01T01:08:07Z</time>
      </trkpt>
      <trkpt lat="41.609018" lon="1.993635">
        <ele>568.80</ele>
        <time>1970-01-01T01:08:11Z</time>
      </trkpt>
      <trkpt lat="41.608718" lon="1.993580">
        <ele>570.60</ele>
        <time>1970-01-01T01:08:15Z</time>
      </trkpt>
      <trkpt lat="41.608536" lon="1.993521">
        <ele>573.20</ele>
        <time>1970-01-01T01:08:19Z</time>
      </trkpt>
      <trkpt lat="41.608385" lon="1.993451">
        <ele>575.60</ele>
        <time>1970-01-01T01:08:23Z</time>
      </trkpt>
      <trkpt lat="41.608208" lon="1.993391">
        <ele>575.80</ele>
        <time>1970-01-01T01:08:27Z</time>
      </trkpt>
      <trkpt lat="41.608088" lon="1.993283">
        <ele>576.00</ele>
        <time>1970-01-01T01:08:31Z</time>
      </trkpt>
      <trkpt lat="41.607945" lon="1.993176">
        <ele>576.80</ele>
        <time>1970-01-01T01:08:35Z</time>
      </trkpt>
      <trkpt lat="41.608013" lon="1.993071">
        <ele>578.00</ele>
        <time>1970-01-01T01:08:39Z</time>
      </trkpt>
      <trkpt lat="41.608110" lon="1.993076">
        <ele>578.60</ele>
        <time>1970-01-01T01:08:43Z</time>
      </trkpt>
      <trkpt lat="41.608206" lon="1.993111">
        <ele>579.40</ele>
        <time>1970-01-01T01:08:47Z</time>
      </trkpt>
      <trkpt lat="41.608298" lon="1.993131">
        <ele>581.00</ele>
        <time>1970-01-01T01:08:51Z</time>
      </trkpt>
      <trkpt lat="41.608381" lon="1.993143">
        <ele>581.40</ele>
        <time>1970-01-01T01:08:55Z</time>
      </trkpt>
      <trkpt lat="41.608455" lon="1.993165">
        <ele>583.40</ele>
        <time>1970-01-01T01:08:59Z</time>
      </trkpt>
      <trkpt lat="41.608528" lon="1.993168">
        <ele>585.00</ele>
        <time>1970-01-01T01:09:03Z</time>
      </trkpt>
      <trkpt lat="41.608598" lon="1.993170">
        <ele>585.60</ele>
        <time>1970-01-01T01:09:07Z</time>
      </trkpt>
      <trkpt lat="41.608666" lon="1.993160">
        <ele>587.20</ele>
        <time>1970-01-01T01:09:11Z</time>
      </trkpt>
      <trkpt lat="41.608726" lon="1.993145">
        <ele>588.80</ele>
        <time>1970-01-01T01:09:15Z</time>
      </trkpt>
      <trkpt lat="41.608793" lon="1.993141">
        <ele>589.80</ele>
        <time>1970-01-01T01:09:19Z</time>
      </trkpt>
      <trkpt lat="41.608853" lon="1.993131">
        <ele>590.80</ele>
        <time>1970-01-01T01:09:23Z</time>
      </trkpt>
      <trkpt lat="41.608895" lon="1.993103">
        <ele>592.80</ele>
        <time>1970-01-01T01:09:27Z</time>
      </trkpt>
      <trkpt lat="41.608936" lon="1.993061">
        <ele>593.60</ele>
        <time>1970-01-01T01:09:31Z</time>
      </trkpt>
      <trkpt lat="41.608966" lon="1.993011">
        <ele>594.80</ele>
        <time>1970-01-01T01:09:35Z</time>
      </trkpt>
      <trkpt lat="41.608971" lon="1.992941">
        <ele>595.40</ele>
        <time>1970-01-01T01:09:39Z</time>
      </trkpt>
      <trkpt lat="41.608975" lon="1.992876">
        <ele>596.20</ele>
        <time>1970-01-01T01:09:43Z</time>
      </trkpt>
      <trkpt lat="41.608971" lon="1.992806">
        <ele>597.00</ele>
        <time>1970-01-01T01:09:47Z</time>
      </trkpt>
      <trkpt lat="41.608973" lon="1.992726">
        <ele>597.60</ele>
        <time>1970-01-01T01:09:51Z</time>
      </trkpt>
      <trkpt lat="41.609003" lon="1.992653">
        <ele>597.60</ele>
        <time>1970-01-01T01:09:55Z</time>
      </trkpt>
      <trkpt lat="41.609040" lon="1.992576">
        <ele>598.40</ele>
        <time>1970-01-01T01:09:59Z</time>
      </trkpt>
      <trkpt lat="41.609085" lon="1.992521">
        <ele>598.60</ele>
        <time>1970-01-01T01:10:03Z</time>
      </trkpt>
      <trkpt lat="41.609128" lon="1.992458">
        <ele>599.20</ele>
        <time>1970-01-01T01:10:07Z</time>
      </trkpt>
      <trkpt lat="41.609185" lon="1.992405">
        <ele>599.60</ele>
        <time>1970-01-01T01:10:11Z</time>
      </trkpt>
      <trkpt lat="41.609238" lon="1.992351">
        <ele>600.80</ele>
        <time>1970-01-01T01:10:15Z</time>
      </trkpt>
      <trkpt lat="41.609293" lon="1.992283">
        <ele>601.00</ele>
        <time>1970-01-01T01:10:19Z</time>
      </trkpt>
      <trkpt lat="41.609343" lon="1.992225">
        <ele>602.00</ele>
        <time>1970-01-01T01:10:23Z</time>
      </trkpt>
      <trkpt lat="41.609383" lon="1.992156">
        <ele>602.60</ele>
        <time>1970-01-01T01:10:27Z</time>
      </trkpt>
      <trkpt lat="41.609418" lon="1.992085">
        <ele>604.40</ele>
        <time>1970-01-01T01:10:31Z</time>
      </trkpt>
      <trkpt lat="41.609458" lon="1.992011">
        <ele>604.40</ele>
        <time>1970-01-01T01:10:35Z</time>
      </trkpt>
      <trkpt lat="41.609473" lon="1.991925">
        <ele>605.60</ele>
        <time>1970-01-01T01:10:39Z</time>
      </trkpt>
      <trkpt lat="41.609496" lon="1.991851">
        <ele>606.60</ele>
        <time>1970-01-01T01:10:43Z</time>
      </trkpt>
      <trkpt lat="41.609511" lon="1.991775">
        <ele>607.60</ele>
        <time>1970-01-01T01:10:47Z</time>
      </trkpt>
      <trkpt lat="41.609523" lon="1.991691">
        <ele>609.00</ele>
        <time>1970-01-01T01:10:51Z</time>
      </trkpt>
      <trkpt lat="41.609550" lon="1.991630">
        <ele>610.20</ele>
        <time>1970-01-01T01:10:55Z</time>
      </trkpt>
      <trkpt lat="41.609575" lon="1.991548">
        <ele>611.00</ele>
        <time>1970-01-01T01:10:59Z</time>
      </trkpt>
      <trkpt lat="41.609605" lon="1.991476">
        <ele>611.40</ele>
        <time>1970-01-01T01:11:03Z</time>
      </trkpt>
      <trkpt lat="41.609638" lon="1.991405">
        <ele>612.60</ele>
        <time>1970-01-01T01:11:07Z</time>
      </trkpt>
      <trkpt lat="41.609673" lon="1.991330">
        <ele>613.20</ele>
        <time>1970-01-01T01:11:11Z</time>
      </trkpt>
      <trkpt lat="41.609723" lon="1.991271">
        <ele>614.00</ele>
        <time>1970-01-01T01:11:15Z</time>
      </trkpt>
      <trkpt lat="41.609765" lon="1.991195">
        <ele>614.60</ele>
        <time>1970-01-01T01:11:19Z</time>
      </trkpt>
      <trkpt lat="41.609815" lon="1.991123">
        <ele>615.40</ele>
        <time>1970-01-01T01:11:23Z</time>
      </trkpt>
      <trkpt lat="41.609870" lon="1.991018">
        <ele>615.80</ele>
        <time>1970-01-01T01:11:27Z</time>
      </trkpt>
      <trkpt lat="41.609920" lon="1.990946">
        <ele>616.80</ele>
        <time>1970-01-01T01:11:31Z</time>
      </trkpt>
      <trkpt lat="41.609963" lon="1.990878">
        <ele>618.20</ele>
        <time>1970-01-01T01:11:35Z</time>
      </trkpt>
      <trkpt lat="41.610003" lon="1.990805">
        <ele>618.60</ele>
        <time>1970-01-01T01:11:39Z</time>
      </trkpt>
      <trkpt lat="41.610050" lon="1.990708">
        <ele>619.00</ele>
        <time>1970-01-01T01:11:43Z</time>
      </trkpt>
      <trkpt lat="41.610130" lon="1.990621">
        <ele>619.20</ele>
        <time>1970-01-01T01:11:47Z</time>
      </trkpt>
      <trkpt lat="41.610205" lon="1.990560">
        <ele>619.80</ele>
        <time>1970-01-01T01:11:51Z</time>
      </trkpt>
      <trkpt lat="41.610295" lon="1.990530">
        <ele>620.20</ele>
        <time>1970-01-01T01:11:55Z</time>
      </trkpt>
      <trkpt lat="41.610376" lon="1.990436">
        <ele>620.00</ele>
        <time>1970-01-01T01:11:59Z</time>
      </trkpt>
      <trkpt lat="41.610395" lon="1.990305">
        <ele>621.40</ele>
        <time>1970-01-01T01:12:03Z</time>
      </trkpt>
      <trkpt lat="41.610435" lon="1.990185">
        <ele>622.20</ele>
        <time>1970-01-01T01:12:07Z</time>
      </trkpt>
      <trkpt lat="41.610465" lon="1.990066">
        <ele>623.60</ele>
        <time>1970-01-01T01:12:11Z</time>
      </trkpt>
      <trkpt lat="41.610456" lon="1.989940">
        <ele>624.00</ele>
        <time>1970-01-01T01:12:15Z</time>
      </trkpt>
      <trkpt lat="41.610426" lon="1.989825">
        <ele>625.00</ele>
        <time>1970-01-01T01:12:19Z</time>
      </trkpt>
      <trkpt lat="41.610360" lon="1.989711">
        <ele>625.20</ele>
        <time>1970-01-01T01:12:23Z</time>
      </trkpt>
      <trkpt lat="41.610275" lon="1.989631">
        <ele>626.00</ele>
        <time>1970-01-01T01:12:27Z</time>
      </trkpt>
      <trkpt lat="41.610220" lon="1.989533">
        <ele>627.00</ele>
        <time>1970-01-01T01:12:31Z</time>
      </trkpt>
      <trkpt lat="41.610203" lon="1.989433">
        <ele>627.40</ele>
        <time>1970-01-01T01:12:35Z</time>
      </trkpt>
      <trkpt lat="41.610226" lon="1.989336">
        <ele>628.80</ele>
        <time>1970-01-01T01:12:39Z</time>
      </trkpt>
      <trkpt lat="41.610205" lon="1.989216">
        <ele>629.40</ele>
        <time>1970-01-01T01:12:43Z</time>
      </trkpt>
      <trkpt lat="41.610253" lon="1.989110">
        <ele>630.60</ele>
        <time>1970-01-01T01:12:47Z</time>
      </trkpt>
      <trkpt lat="41.610273" lon="1.988998">
        <ele>631.00</ele>
        <time>1970-01-01T01:12:51Z</time>
      </trkpt>
      <trkpt lat="41.610248" lon="1.988881">
        <ele>631.40</ele>
        <time>1970-01-01T01:12:55Z</time>
      </trkpt>
      <trkpt lat="41.610185" lon="1.988766">
        <ele>632.00</ele>
        <time>1970-01-01T01:12:59Z</time>
      </trkpt>
      <trkpt lat="41.610158" lon="1.988635">
        <ele>632.80</ele>
        <time>1970-01-01T01:13:03Z</time>
      </trkpt>
      <trkpt lat="41.610120" lon="1.988506">
        <ele>633.20</ele>
        <time>1970-01-01T01:13:07Z</time>
      </trkpt>
      <trkpt lat="41.610043" lon="1.988385">
        <ele>633.80</ele>
        <time>1970-01-01T01:13:11Z</time>
      </trkpt>
      <trkpt lat="41.609973" lon="1.988223">
        <ele>632.80</ele>
        <time>1970-01-01T01:13:15Z</time>
      </trkpt>
      <trkpt lat="41.609908" lon="1.988130">
        <ele>634.40</ele>
        <time>1970-01-01T01:13:19Z</time>
      </trkpt>
      <trkpt lat="41.609908" lon="1.988130">
        <ele>634.40</ele>
        <time>1970-01-01T01:13:23Z</time>
      </trkpt>
      <trkpt lat="41.609713" lon="1.988048">
        <ele>634.60</ele>
        <time>1970-01-01T01:13:27Z</time>
      </trkpt>
      <trkpt lat="41.609595" lon="1.987898">
        <ele>634.40</ele>
        <time>1970-01-01T01:13:31Z</time>
      </trkpt>
      <trkpt lat="41.609461" lon="1.987715">
        <ele>635.00</ele>
        <time>1970-01-01T01:13:35Z</time>
      </trkpt>
      <trkpt lat="41.609320" lon="1.987603">
        <ele>635.20</ele>
        <time>1970-01-01T01:13:39Z</time>
      </trkpt>
      <trkpt lat="41.609146" lon="1.987493">
        <ele>631.80</ele>
        <time>1970-01-01T01:13:43Z</time>
      </trkpt>
      <trkpt lat="41.608908" lon="1.987321">
        <ele>629.80</ele>
        <time>1970-01-01T01:13:47Z</time>
      </trkpt>
      <trkpt lat="41.608580" lon="1.987348">
        <ele>626.00</ele>
        <time>1970-01-01T01:13:51Z</time>
      </trkpt>
      <trkpt lat="41.608245" lon="1.987410">
        <ele>622.40</ele>
        <time>1970-01-01T01:13:55Z</time>
      </trkpt>
      <trkpt lat="41.607943" lon="1.987321">
        <ele>620.60</ele>
        <time>1970-01-01T01:13:59Z</time>
      </trkpt>
      <trkpt lat="41.607716" lon="1.987276">
        <ele>620.20</ele>
        <time>1970-01-01T01:14:03Z</time>
      </trkpt>
      <trkpt lat="41.607570" lon="1.987286">
        <ele>619.80</ele>
        <time>1970-01-01T01:14:07Z</time>
      </trkpt>
      <trkpt lat="41.607415" lon="1.987306">
        <ele>619.20</ele>
        <time>1970-01-01T01:14:11Z</time>
      </trkpt>
      <trkpt lat="41.607240" lon="1.987375">
        <ele>617.60</ele>
        <time>1970-01-01T01:14:15Z</time>
      </trkpt>
      <trkpt lat="41.607100" lon="1.987431">
        <ele>616.20</ele>
        <time>1970-01-01T01:14:19Z</time>
      </trkpt>
      <trkpt lat="41.606951" lon="1.987513">
        <ele>613.00</ele>
        <time>1970-01-01T01:14:23Z</time>
      </trkpt>
      <trkpt lat="41.606790" lon="1.987665">
        <ele>611.40</ele>
        <time>1970-01-01T01:14:27Z</time>
      </trkpt>
      <trkpt lat="41.606628" lon="1.987781">
        <ele>608.20</ele>
        <time>1970-01-01T01:14:31Z</time>
      </trkpt>
      <trkpt lat="41.606440" lon="1.987928">
        <ele>607.00</ele>
        <time>1970-01-01T01:14:35Z</time>
      </trkpt>
      <trkpt lat="41.606258" lon="1.988128">
        <ele>606.00</ele>
        <time>1970-01-01T01:14:39Z</time>
      </trkpt>
      <trkpt lat="41.606083" lon="1.988358">
        <ele>605.00</ele>
        <time>1970-01-01T01:14:43Z</time>
      </trkpt>
      <trkpt lat="41.605956" lon="1.988515">
        <ele>604.60</ele>
        <time>1970-01-01T01:14:47Z</time>
      </trkpt>
      <trkpt lat="41.605755" lon="1.988515">
        <ele>604.60</ele>
        <time>1970-01-01T01:14:51Z</time>
      </trkpt>
      <trkpt lat="41.605590" lon="1.988530">
        <ele>602.80</ele>
        <time>1970-01-01T01:14:55Z</time>
      </trkpt>
      <trkpt lat="41.605390" lon="1.988658">
        <ele>601.60</ele>
        <time>1970-01-01T01:14:59Z</time>
      </trkpt>
      <trkpt lat="41.605215" lon="1.988716">
        <ele>601.20</ele>
        <time>1970-01-01T01:15:03Z</time>
      </trkpt>
      <trkpt lat="41.605021" lon="1.988636">
        <ele>597.60</ele>
        <time>1970-01-01T01:15:07Z</time>
      </trkpt>
      <trkpt lat="41.604841" lon="1.988705">
        <ele>596.00</ele>
        <time>1970-01-01T01:15:11Z</time>
      </trkpt>
      <trkpt lat="41.604761" lon="1.988703">
        <ele>593.40</ele>
        <time>1970-01-01T01:15:15Z</time>
      </trkpt>
      <trkpt lat="41.604653" lon="1.988711">
        <ele>591.40</ele>
        <time>1970-01-01T01:15:19Z</time>
      </trkpt>
      <trkpt lat="41.604580" lon="1.988760">
        <ele>589.60</ele>
        <time>1970-01-01T01:15:23Z</time>
      </trkpt>
      <trkpt lat="41.604411" lon="1.988925">
        <ele>584.60</ele>
        <time>1970-01-01T01:15:38Z</time>
      </trkpt>
      <trkpt lat="41.604335" lon="1.988986">
        <ele>583.20</ele>
        <time>1970-01-01T01:15:42Z</time>
      </trkpt>
      <trkpt lat="41.604203" lon="1.989105">
        <ele>580.40</ele>
        <time>1970-01-01T01:15:46Z</time>
      </trkpt>
      <trkpt lat="41.604191" lon="1.989151">
        <ele>581.00</ele>
        <time>1970-01-01T01:15:50Z</time>
      </trkpt>
      <trkpt lat="41.604166" lon="1.989185">
        <ele>577.80</ele>
        <time>1970-01-01T01:15:57Z</time>
      </trkpt>
      <trkpt lat="41.604103" lon="1.989201">
        <ele>577.80</ele>
        <time>1970-01-01T01:16:01Z</time>
      </trkpt>
      <trkpt lat="41.604045" lon="1.989210">
        <ele>575.80</ele>
        <time>1970-01-01T01:16:05Z</time>
      </trkpt>
      <trkpt lat="41.603998" lon="1.989233">
        <ele>575.80</ele>
        <time>1970-01-01T01:16:09Z</time>
      </trkpt>
      <trkpt lat="41.603945" lon="1.989231">
        <ele>572.60</ele>
        <time>1970-01-01T01:16:13Z</time>
      </trkpt>
      <trkpt lat="41.603865" lon="1.989301">
        <ele>572.40</ele>
        <time>1970-01-01T01:16:17Z</time>
      </trkpt>
      <trkpt lat="41.603776" lon="1.989371">
        <ele>570.20</ele>
        <time>1970-01-01T01:16:21Z</time>
      </trkpt>
      <trkpt lat="41.603728" lon="1.989445">
        <ele>569.40</ele>
        <time>1970-01-01T01:16:25Z</time>
      </trkpt>
      <trkpt lat="41.603686" lon="1.989500">
        <ele>569.20</ele>
        <time>1970-01-01T01:16:29Z</time>
      </trkpt>
      <trkpt lat="41.603638" lon="1.989561">
        <ele>567.80</ele>
        <time>1970-01-01T01:16:33Z</time>
      </trkpt>
      <trkpt lat="41.603585" lon="1.989620">
        <ele>566.80</ele>
        <time>1970-01-01T01:16:37Z</time>
      </trkpt>
      <trkpt lat="41.603505" lon="1.989706">
        <ele>566.20</ele>
        <time>1970-01-01T01:16:41Z</time>
      </trkpt>
      <trkpt lat="41.603455" lon="1.989758">
        <ele>564.60</ele>
        <time>1970-01-01T01:16:45Z</time>
      </trkpt>
      <trkpt lat="41.603355" lon="1.989820">
        <ele>564.20</ele>
        <time>1970-01-01T01:16:49Z</time>
      </trkpt>
      <trkpt lat="41.603308" lon="1.989913">
        <ele>563.00</ele>
        <time>1970-01-01T01:16:53Z</time>
      </trkpt>
      <trkpt lat="41.603203" lon="1.990028">
        <ele>562.80</ele>
        <time>1970-01-01T01:16:57Z</time>
      </trkpt>
      <trkpt lat="41.603130" lon="1.990155">
        <ele>561.40</ele>
        <time>1970-01-01T01:17:01Z</time>
      </trkpt>
      <trkpt lat="41.603126" lon="1.990265">
        <ele>560.40</ele>
        <time>1970-01-01T01:17:05Z</time>
      </trkpt>
      <trkpt lat="41.603065" lon="1.990413">
        <ele>559.60</ele>
        <time>1970-01-01T01:17:09Z</time>
      </trkpt>
      <trkpt lat="41.603071" lon="1.990563">
        <ele>559.20</ele>
        <time>1970-01-01T01:17:13Z</time>
      </trkpt>
      <trkpt lat="41.603060" lon="1.990675">
        <ele>557.40</ele>
        <time>1970-01-01T01:17:17Z</time>
      </trkpt>
      <trkpt lat="41.603033" lon="1.990766">
        <ele>556.40</ele>
        <time>1970-01-01T01:17:21Z</time>
      </trkpt>
      <trkpt lat="41.602968" lon="1.990881">
        <ele>554.60</ele>
        <time>1970-01-01T01:17:25Z</time>
      </trkpt>
      <trkpt lat="41.602893" lon="1.990995">
        <ele>553.40</ele>
        <time>1970-01-01T01:17:29Z</time>
      </trkpt>
      <trkpt lat="41.602803" lon="1.991168">
        <ele>553.00</ele>
        <time>1970-01-01T01:17:33Z</time>
      </trkpt>
      <trkpt lat="41.602710" lon="1.991340">
        <ele>552.20</ele>
        <time>1970-01-01T01:17:37Z</time>
      </trkpt>
      <trkpt lat="41.602638" lon="1.991551">
        <ele>552.00</ele>
        <time>1970-01-01T01:17:41Z</time>
      </trkpt>
      <trkpt lat="41.602541" lon="1.991748">
        <ele>551.60</ele>
        <time>1970-01-01T01:17:45Z</time>
      </trkpt>
      <trkpt lat="41.602451" lon="1.991955">
        <ele>552.00</ele>
        <time>1970-01-01T01:17:49Z</time>
      </trkpt>
      <trkpt lat="41.602375" lon="1.992115">
        <ele>551.20</ele>
        <time>1970-01-01T01:17:53Z</time>
      </trkpt>
      <trkpt lat="41.602198" lon="1.992263">
        <ele>549.80</ele>
        <time>1970-01-01T01:17:57Z</time>
      </trkpt>
      <trkpt lat="41.602061" lon="1.992306">
        <ele>548.40</ele>
        <time>1970-01-01T01:18:01Z</time>
      </trkpt>
      <trkpt lat="41.601948" lon="1.992310">
        <ele>547.00</ele>
        <time>1970-01-01T01:18:05Z</time>
      </trkpt>
      <trkpt lat="41.601861" lon="1.992315">
        <ele>546.20</ele>
        <time>1970-01-01T01:18:09Z</time>
      </trkpt>
      <trkpt lat="41.601836" lon="1.992308">
        <ele>545.80</ele>
        <time>1970-01-01T01:18:13Z</time>
      </trkpt>
      <trkpt lat="41.601778" lon="1.992293">
        <ele>544.60</ele>
        <time>1970-01-01T01:18:17Z</time>
      </trkpt>
      <trkpt lat="41.601733" lon="1.992296">
        <ele>544.40</ele>
        <time>1970-01-01T01:18:21Z</time>
      </trkpt>
      <trkpt lat="41.601598" lon="1.992398">
        <ele>541.00</ele>
        <time>1970-01-01T01:18:35Z</time>
      </trkpt>
      <trkpt lat="41.601498" lon="1.992388">
        <ele>539.80</ele>
        <time>1970-01-01T01:18:39Z</time>
      </trkpt>
      <trkpt lat="41.601353" lon="1.992330">
        <ele>538.20</ele>
        <time>1970-01-01T01:18:43Z</time>
      </trkpt>
      <trkpt lat="41.601196" lon="1.992335">
        <ele>538.00</ele>
        <time>1970-01-01T01:18:47Z</time>
      </trkpt>
      <trkpt lat="41.601133" lon="1.992425">
        <ele>536.80</ele>
        <time>1970-01-01T01:18:51Z</time>
      </trkpt>
      <trkpt lat="41.601093" lon="1.992436">
        <ele>536.00</ele>
        <time>1970-01-01T01:18:55Z</time>
      </trkpt>
      <trkpt lat="41.601056" lon="1.992498">
        <ele>534.60</ele>
        <time>1970-01-01T01:18:59Z</time>
      </trkpt>
      <trkpt lat="41.601043" lon="1.992555">
        <ele>532.40</ele>
        <time>1970-01-01T01:19:03Z</time>
      </trkpt>
      <trkpt lat="41.601013" lon="1.992605">
        <ele>531.20</ele>
        <time>1970-01-01T01:19:07Z</time>
      </trkpt>
      <trkpt lat="41.601013" lon="1.992656">
        <ele>530.40</ele>
        <time>1970-01-01T01:19:11Z</time>
      </trkpt>
      <trkpt lat="41.600996" lon="1.992701">
        <ele>529.20</ele>
        <time>1970-01-01T01:19:15Z</time>
      </trkpt>
      <trkpt lat="41.600996" lon="1.992701">
        <ele>527.20</ele>
        <time>1970-01-01T01:19:19Z</time>
      </trkpt>
      <trkpt lat="41.600911" lon="1.992931">
        <ele>521.20</ele>
        <time>1970-01-01T01:19:46Z</time>
      </trkpt>
      <trkpt lat="41.600850" lon="1.992956">
        <ele>520.00</ele>
        <time>1970-01-01T01:19:50Z</time>
      </trkpt>
      <trkpt lat="41.600816" lon="1.992993">
        <ele>519.40</ele>
        <time>1970-01-01T01:19:54Z</time>
      </trkpt>
      <trkpt lat="41.600781" lon="1.993078">
        <ele>518.40</ele>
        <time>1970-01-01T01:19:58Z</time>
      </trkpt>
      <trkpt lat="41.600755" lon="1.993141">
        <ele>517.00</ele>
        <time>1970-01-01T01:20:02Z</time>
      </trkpt>
      <trkpt lat="41.600728" lon="1.993145">
        <ele>515.60</ele>
        <time>1970-01-01T01:20:06Z</time>
      </trkpt>
      <trkpt lat="41.600678" lon="1.993156">
        <ele>514.40</ele>
        <time>1970-01-01T01:20:10Z</time>
      </trkpt>
      <trkpt lat="41.600638" lon="1.993196">
        <ele>512.80</ele>
        <time>1970-01-01T01:20:14Z</time>
      </trkpt>
      <trkpt lat="41.600615" lon="1.993251">
        <ele>511.80</ele>
        <time>1970-01-01T01:20:18Z</time>
      </trkpt>
      <trkpt lat="41.600583" lon="1.993288">
        <ele>510.80</ele>
        <time>1970-01-01T01:20:22Z</time>
      </trkpt>
      <trkpt lat="41.600548" lon="1.993323">
        <ele>510.20</ele>
        <time>1970-01-01T01:20:26Z</time>
      </trkpt>
      <trkpt lat="41.600575" lon="1.993413">
        <ele>509.40</ele>
        <time>1970-01-01T01:20:30Z</time>
      </trkpt>
      <trkpt lat="41.600581" lon="1.993823">
        <ele>506.00</ele>
        <time>1970-01-01T01:21:14Z</time>
      </trkpt>
      <trkpt lat="41.600556" lon="1.993988">
        <ele>503.80</ele>
        <time>1970-01-01T01:21:18Z</time>
      </trkpt>
      <trkpt lat="41.600473" lon="1.994120">
        <ele>502.20</ele>
        <time>1970-01-01T01:21:22Z</time>
      </trkpt>
      <trkpt lat="41.600445" lon="1.994153">
        <ele>502.20</ele>
        <time>1970-01-01T01:21:26Z</time>
      </trkpt>
      <trkpt lat="41.600480" lon="1.994110">
        <ele>502.20</ele>
        <time>1970-01-01T01:21:30Z</time>
      </trkpt>
      <trkpt lat="41.600493" lon="1.994016">
        <ele>502.80</ele>
        <time>1970-01-01T01:21:34Z</time>
      </trkpt>
      <trkpt lat="41.600493" lon="1.994016">
        <ele>503.60</ele>
        <time>1970-01-01T01:21:38Z</time>
      </trkpt>
      <trkpt lat="41.600490" lon="1.993968">
        <ele>502.60</ele>
        <time>1970-01-01T01:21:50Z</time>
      </trkpt>
      <trkpt lat="41.600466" lon="1.994111">
        <ele>502.20</ele>
        <time>1970-01-01T01:21:54Z</time>
      </trkpt>
      <trkpt lat="41.600418" lon="1.994198">
        <ele>501.80</ele>
        <time>1970-01-01T01:21:58Z</time>
      </trkpt>
      <trkpt lat="41.600370" lon="1.994341">
        <ele>501.20</ele>
        <time>1970-01-01T01:22:02Z</time>
      </trkpt>
      <trkpt lat="41.600306" lon="1.994505">
        <ele>500.80</ele>
        <time>1970-01-01T01:22:06Z</time>
      </trkpt>
      <trkpt lat="41.600276" lon="1.994710">
        <ele>499.80</ele>
        <time>1970-01-01T01:22:10Z</time>
      </trkpt>
      <trkpt lat="41.600171" lon="1.994903">
        <ele>500.40</ele>
        <time>1970-01-01T01:22:14Z</time>
      </trkpt>
      <trkpt lat="41.600075" lon="1.995083">
        <ele>501.40</ele>
        <time>1970-01-01T01:22:18Z</time>
      </trkpt>
      <trkpt lat="41.599961" lon="1.995250">
        <ele>497.60</ele>
        <time>1970-01-01T01:22:22Z</time>
      </trkpt>
      <trkpt lat="41.599820" lon="1.995421">
        <ele>494.40</ele>
        <time>1970-01-01T01:22:26Z</time>
      </trkpt>
      <trkpt lat="41.599676" lon="1.995668">
        <ele>493.60</ele>
        <time>1970-01-01T01:22:30Z</time>
      </trkpt>
      <trkpt lat="41.599530" lon="1.995826">
        <ele>493.60</ele>
        <time>1970-01-01T01:22:34Z</time>
      </trkpt>
      <trkpt lat="41.599323" lon="1.995930">
        <ele>492.80</ele>
        <time>1970-01-01T01:22:38Z</time>
      </trkpt>
      <trkpt lat="41.599128" lon="1.996080">
        <ele>492.40</ele>
        <time>1970-01-01T01:22:42Z</time>
      </trkpt>
      <trkpt lat="41.599010" lon="1.996173">
        <ele>491.40</ele>
        <time>1970-01-01T01:22:46Z</time>
      </trkpt>
      <trkpt lat="41.598973" lon="1.996260">
        <ele>489.60</ele>
        <time>1970-01-01T01:22:50Z</time>
      </trkpt>
      <trkpt lat="41.598936" lon="1.996298">
        <ele>488.00</ele>
        <time>1970-01-01T01:22:54Z</time>
      </trkpt>
      <trkpt lat="41.598876" lon="1.996341">
        <ele>486.20</ele>
        <time>1970-01-01T01:22:58Z</time>
      </trkpt>
      <trkpt lat="41.598818" lon="1.996435">
        <ele>484.00</ele>
        <time>1970-01-01T01:23:02Z</time>
      </trkpt>
      <trkpt lat="41.598763" lon="1.996521">
        <ele>480.00</ele>
        <time>1970-01-01T01:23:17Z</time>
      </trkpt>
      <trkpt lat="41.598721" lon="1.996576">
        <ele>479.20</ele>
        <time>1970-01-01T01:23:21Z</time>
      </trkpt>
      <trkpt lat="41.598628" lon="1.996651">
        <ele>475.40</ele>
        <time>1970-01-01T01:23:34Z</time>
      </trkpt>
      <trkpt lat="41.598601" lon="1.996683">
        <ele>475.60</ele>
        <time>1970-01-01T01:23:38Z</time>
      </trkpt>
      <trkpt lat="41.598551" lon="1.996746">
        <ele>474.60</ele>
        <time>1970-01-01T01:23:42Z</time>
      </trkpt>
      <trkpt lat="41.598498" lon="1.996788">
        <ele>471.80</ele>
        <time>1970-01-01T01:23:46Z</time>
      </trkpt>
      <trkpt lat="41.598468" lon="1.996810">
        <ele>471.00</ele>
        <time>1970-01-01T01:23:50Z</time>
      </trkpt>
      <trkpt lat="41.598445" lon="1.996845">
        <ele>470.20</ele>
        <time>1970-01-01T01:23:54Z</time>
      </trkpt>
      <trkpt lat="41.598420" lon="1.996876">
        <ele>468.60</ele>
        <time>1970-01-01T01:23:58Z</time>
      </trkpt>
      <trkpt lat="41.598375" lon="1.996888">
        <ele>467.60</ele>
        <time>1970-01-01T01:24:02Z</time>
      </trkpt>
      <trkpt lat="41.598220" lon="1.997060">
        <ele>464.20</ele>
        <time>1970-01-01T01:24:21Z</time>
      </trkpt>
      <trkpt lat="41.598148" lon="1.997168">
        <ele>463.20</ele>
        <time>1970-01-01T01:24:25Z</time>
      </trkpt>
      <trkpt lat="41.598096" lon="1.997261">
        <ele>461.40</ele>
        <time>1970-01-01T01:24:29Z</time>
      </trkpt>
      <trkpt lat="41.598036" lon="1.997331">
        <ele>460.20</ele>
        <time>1970-01-01T01:24:33Z</time>
      </trkpt>
      <trkpt lat="41.597990" lon="1.997398">
        <ele>460.20</ele>
        <time>1970-01-01T01:24:37Z</time>
      </trkpt>
      <trkpt lat="41.597935" lon="1.997458">
        <ele>457.80</ele>
        <time>1970-01-01T01:24:41Z</time>
      </trkpt>
      <trkpt lat="41.597840" lon="1.997516">
        <ele>456.80</ele>
        <time>1970-01-01T01:24:45Z</time>
      </trkpt>
      <trkpt lat="41.597680" lon="1.997658">
        <ele>449.60</ele>
        <time>1970-01-01T01:24:49Z</time>
      </trkpt>
      <trkpt lat="41.597495" lon="1.997746">
        <ele>451.40</ele>
        <time>1970-01-01T01:24:53Z</time>
      </trkpt>
      <trkpt lat="41.597286" lon="1.997770">
        <ele>451.80</ele>
        <time>1970-01-01T01:24:57Z</time>
      </trkpt>
      <trkpt lat="41.597015" lon="1.997893">
        <ele>451.00</ele>
        <time>1970-01-01T01:25:01Z</time>
      </trkpt>
      <trkpt lat="41.596763" lon="1.998116">
        <ele>449.40</ele>
        <time>1970-01-01T01:25:05Z</time>
      </trkpt>
      <trkpt lat="41.596491" lon="1.998390">
        <ele>448.40</ele>
        <time>1970-01-01T01:25:09Z</time>
      </trkpt>
      <trkpt lat="41.596161" lon="1.998663">
        <ele>442.80</ele>
        <time>1970-01-01T01:25:13Z</time>
      </trkpt>
      <trkpt lat="41.595781" lon="1.998903">
        <ele>440.40</ele>
        <time>1970-01-01T01:25:17Z</time>
      </trkpt>
      <trkpt lat="41.595401" lon="1.999061">
        <ele>438.60</ele>
        <time>1970-01-01T01:25:21Z</time>
      </trkpt>
      <trkpt lat="41.595068" lon="1.999240">
        <ele>437.80</ele>
        <time>1970-01-01T01:25:25Z</time>
      </trkpt>
      <trkpt lat="41.594810" lon="1.999466">
        <ele>438.60</ele>
        <time>1970-01-01T01:25:29Z</time>
      </trkpt>
      <trkpt lat="41.594620" lon="1.999656">
        <ele>440.00</ele>
        <time>1970-01-01T01:25:33Z</time>
      </trkpt>
      <trkpt lat="41.594555" lon="1.999708">
        <ele>440.00</ele>
        <time>1970-01-01T01:25:37Z</time>
      </trkpt>
      <trkpt lat="41.594561" lon="1.999703">
        <ele>440.60</ele>
        <time>1970-01-01T01:25:41Z</time>
      </trkpt>
      <trkpt lat="41.594593" lon="1.999633">
        <ele>440.40</ele>
        <time>1970-01-01T01:25:45Z</time>
      </trkpt>
      <trkpt lat="41.594650" lon="1.999661">
        <ele>441.00</ele>
        <time>1970-01-01T01:25:49Z</time>
      </trkpt>
      <trkpt lat="41.594771" lon="1.999693">
        <ele>438.20</ele>
        <time>1970-01-01T01:26:02Z</time>
      </trkpt>
      <trkpt lat="41.594803" lon="1.999798">
        <ele>437.60</ele>
        <time>1970-01-01T01:26:06Z</time>
      </trkpt>
      <trkpt lat="41.594813" lon="1.999905">
        <ele>438.20</ele>
        <time>1970-01-01T01:26:10Z</time>
      </trkpt>
      <trkpt lat="41.594798" lon="2.000011">
        <ele>436.40</ele>
        <time>1970-01-01T01:26:14Z</time>
      </trkpt>
      <trkpt lat="41.594778" lon="2.000155">
        <ele>436.80</ele>
        <time>1970-01-01T01:26:18Z</time>
      </trkpt>
      <trkpt lat="41.594666" lon="2.000340">
        <ele>437.60</ele>
        <time>1970-01-01T01:26:22Z</time>
      </trkpt>
      <trkpt lat="41.594530" lon="2.000553">
        <ele>433.20</ele>
        <time>1970-01-01T01:26:26Z</time>
      </trkpt>
      <trkpt lat="41.594396" lon="2.000723">
        <ele>432.40</ele>
        <time>1970-01-01T01:26:30Z</time>
      </trkpt>
      <trkpt lat="41.594256" lon="2.000806">
        <ele>432.40</ele>
        <time>1970-01-01T01:26:34Z</time>
      </trkpt>
      <trkpt lat="41.594088" lon="2.000858">
        <ele>430.20</ele>
        <time>1970-01-01T01:26:38Z</time>
      </trkpt>
      <trkpt lat="41.593931" lon="2.000905">
        <ele>428.60</ele>
        <time>1970-01-01T01:26:42Z</time>
      </trkpt>
      <trkpt lat="41.593898" lon="2.000991">
        <ele>427.80</ele>
        <time>1970-01-01T01:26:46Z</time>
      </trkpt>
      <trkpt lat="41.593976" lon="2.001093">
        <ele>426.20</ele>
        <time>1970-01-01T01:26:50Z</time>
      </trkpt>
      <trkpt lat="41.594035" lon="2.001140">
        <ele>424.20</ele>
        <time>1970-01-01T01:26:54Z</time>
      </trkpt>
      <trkpt lat="41.594066" lon="2.001218">
        <ele>421.80</ele>
        <time>1970-01-01T01:26:58Z</time>
      </trkpt>
      <trkpt lat="41.594081" lon="2.001325">
        <ele>420.20</ele>
        <time>1970-01-01T01:27:02Z</time>
      </trkpt>
      <trkpt lat="41.594103" lon="2.001420">
        <ele>417.60</ele>
        <time>1970-01-01T01:27:06Z</time>
      </trkpt>
      <trkpt lat="41.594165" lon="2.001566">
        <ele>414.00</ele>
        <time>1970-01-01T01:27:10Z</time>
      </trkpt>
      <trkpt lat="41.594165" lon="2.001566">
        <ele>412.00</ele>
        <time>1970-01-01T01:27:14Z</time>
      </trkpt>
      <trkpt lat="41.594208" lon="2.001661">
        <ele>411.00</ele>
        <time>1970-01-01T01:27:18Z</time>
      </trkpt>
      <trkpt lat="41.594286" lon="2.001795">
        <ele>409.40</ele>
        <time>1970-01-01T01:27:22Z</time>
      </trkpt>
      <trkpt lat="41.594358" lon="2.001820">
        <ele>408.80</ele>
        <time>1970-01-01T01:27:26Z</time>
      </trkpt>
      <trkpt lat="41.594351" lon="2.001923">
        <ele>407.60</ele>
        <time>1970-01-01T01:27:30Z</time>
      </trkpt>
      <trkpt lat="41.594255" lon="2.002016">
        <ele>406.80</ele>
        <time>1970-01-01T01:27:34Z</time>
      </trkpt>
      <trkpt lat="41.594310" lon="2.002231">
        <ele>402.20</ele>
        <time>1970-01-01T01:27:53Z</time>
      </trkpt>
      <trkpt lat="41.594368" lon="2.002261">
        <ele>399.20</ele>
        <time>1970-01-01T01:27:57Z</time>
      </trkpt>
      <trkpt lat="41.594503" lon="2.002331">
        <ele>398.20</ele>
        <time>1970-01-01T01:28:01Z</time>
      </trkpt>
      <trkpt lat="41.594593" lon="2.002510">
        <ele>396.80</ele>
        <time>1970-01-01T01:28:05Z</time>
      </trkpt>
      <trkpt lat="41.594688" lon="2.002636">
        <ele>396.60</ele>
        <time>1970-01-01T01:28:09Z</time>
      </trkpt>
      <trkpt lat="41.594810" lon="2.002735">
        <ele>398.00</ele>
        <time>1970-01-01T01:28:38Z</time>
      </trkpt>
      <trkpt lat="41.594910" lon="2.002830">
        <ele>399.40</ele>
        <time>1970-01-01T01:28:42Z</time>
      </trkpt>
      <trkpt lat="41.594971" lon="2.002921">
        <ele>400.80</ele>
        <time>1970-01-01T01:28:46Z</time>
      </trkpt>
      <trkpt lat="41.595035" lon="2.002966">
        <ele>402.00</ele>
        <time>1970-01-01T01:28:50Z</time>
      </trkpt>
      <trkpt lat="41.595323" lon="2.003073">
        <ele>407.20</ele>
        <time>1970-01-01T01:29:29Z</time>
      </trkpt>
      <trkpt lat="41.595540" lon="2.003145">
        <ele>407.80</ele>
        <time>1970-01-01T01:29:33Z</time>
      </trkpt>
      <trkpt lat="41.595508" lon="2.003190">
        <ele>408.60</ele>
        <time>1970-01-01T01:29:37Z</time>
      </trkpt>
      <trkpt lat="41.595413" lon="2.003228">
        <ele>409.40</ele>
        <time>1970-01-01T01:29:41Z</time>
      </trkpt>
      <trkpt lat="41.595325" lon="2.003271">
        <ele>409.40</ele>
        <time>1970-01-01T01:29:45Z</time>
      </trkpt>
      <trkpt lat="41.595328" lon="2.003320">
        <ele>411.40</ele>
        <time>1970-01-01T01:29:49Z</time>
      </trkpt>
      <trkpt lat="41.595323" lon="2.003396">
        <ele>411.40</ele>
        <time>1970-01-01T01:29:53Z</time>
      </trkpt>
      <trkpt lat="41.595243" lon="2.003545">
        <ele>412.00</ele>
        <time>1970-01-01T01:29:57Z</time>
      </trkpt>
      <trkpt lat="41.595191" lon="2.003726">
        <ele>412.60</ele>
        <time>1970-01-01T01:30:01Z</time>
      </trkpt>
      <trkpt lat="41.595175" lon="2.003886">
        <ele>413.20</ele>
        <time>1970-01-01T01:30:05Z</time>
      </trkpt>
      <trkpt lat="41.595155" lon="2.004060">
        <ele>412.80</ele>
        <time>1970-01-01T01:30:09Z</time>
      </trkpt>
      <trkpt lat="41.595115" lon="2.004240">
        <ele>413.20</ele>
        <time>1970-01-01T01:30:13Z</time>
      </trkpt>
      <trkpt lat="41.595063" lon="2.004456">
        <ele>412.60</ele>
        <time>1970-01-01T01:30:17Z</time>
      </trkpt>
      <trkpt lat="41.594983" lon="2.004660">
        <ele>410.80</ele>
        <time>1970-01-01T01:30:21Z</time>
      </trkpt>
      <trkpt lat="41.594898" lon="2.004788">
        <ele>409.80</ele>
        <time>1970-01-01T01:30:25Z</time>
      </trkpt>
      <trkpt lat="41.594898" lon="2.004788">
        <ele>409.80</ele>
        <time>1970-01-01T01:30:29Z</time>
      </trkpt>
      <trkpt lat="41.594895" lon="2.004943">
        <ele>408.00</ele>
        <time>1970-01-01T01:30:38Z</time>
      </trkpt>
      <trkpt lat="41.594983" lon="2.005050">
        <ele>406.20</ele>
        <time>1970-01-01T01:30:42Z</time>
      </trkpt>
      <trkpt lat="41.594988" lon="2.005191">
        <ele>406.20</ele>
        <time>1970-01-01T01:30:46Z</time>
      </trkpt>
      <trkpt lat="41.594940" lon="2.005228">
        <ele>406.60</ele>
        <time>1970-01-01T01:30:50Z</time>
      </trkpt>
      <trkpt lat="41.594838" lon="2.005251">
        <ele>408.20</ele>
        <time>1970-01-01T01:30:54Z</time>
      </trkpt>
      <trkpt lat="41.594790" lon="2.005333">
        <ele>411.00</ele>
        <time>1970-01-01T01:30:58Z</time>
      </trkpt>
      <trkpt lat="41.594736" lon="2.005438">
        <ele>412.80</ele>
        <time>1970-01-01T01:31:02Z</time>
      </trkpt>
      <trkpt lat="41.594728" lon="2.005551">
        <ele>413.60</ele>
        <time>1970-01-01T01:31:06Z</time>
      </trkpt>
      <trkpt lat="41.594720" lon="2.005676">
        <ele>415.20</ele>
        <time>1970-01-01T01:31:10Z</time>
      </trkpt>
      <trkpt lat="41.594740" lon="2.005805">
        <ele>415.40</ele>
        <time>1970-01-01T01:31:14Z</time>
      </trkpt>
      <trkpt lat="41.594776" lon="2.005923">
        <ele>416.40</ele>
        <time>1970-01-01T01:31:18Z</time>
      </trkpt>
      <trkpt lat="41.594778" lon="2.006056">
        <ele>416.40</ele>
        <time>1970-01-01T01:31:22Z</time>
      </trkpt>
      <trkpt lat="41.594786" lon="2.006223">
        <ele>417.00</ele>
        <time>1970-01-01T01:31:26Z</time>
      </trkpt>
      <trkpt lat="41.594818" lon="2.006376">
        <ele>416.40</ele>
        <time>1970-01-01T01:31:30Z</time>
      </trkpt>
      <trkpt lat="41.594818" lon="2.006565">
        <ele>416.40</ele>
        <time>1970-01-01T01:31:34Z</time>
      </trkpt>
      <trkpt lat="41.594816" lon="2.006721">
        <ele>418.40</ele>
        <time>1970-01-01T01:31:38Z</time>
      </trkpt>
      <trkpt lat="41.594781" lon="2.006888">
        <ele>417.20</ele>
        <time>1970-01-01T01:31:49Z</time>
      </trkpt>
      <trkpt lat="41.594778" lon="2.006958">
        <ele>417.40</ele>
        <time>1970-01-01T01:31:53Z</time>
      </trkpt>
      <trkpt lat="41.594785" lon="2.007056">
        <ele>418.40</ele>
        <time>1970-01-01T01:31:57Z</time>
      </trkpt>
      <trkpt lat="41.594773" lon="2.007140">
        <ele>418.00</ele>
        <time>1970-01-01T01:32:01Z</time>
      </trkpt>
      <trkpt lat="41.594770" lon="2.007243">
        <ele>415.40</ele>
        <time>1970-01-01T01:32:05Z</time>
      </trkpt>
      <trkpt lat="41.594798" lon="2.007416">
        <ele>413.40</ele>
        <time>1970-01-01T01:32:09Z</time>
      </trkpt>
      <trkpt lat="41.594848" lon="2.007560">
        <ele>412.80</ele>
        <time>1970-01-01T01:32:13Z</time>
      </trkpt>
      <trkpt lat="41.594845" lon="2.007748">
        <ele>411.40</ele>
        <time>1970-01-01T01:32:17Z</time>
      </trkpt>
      <trkpt lat="41.594915" lon="2.007701">
        <ele>410.40</ele>
        <time>1970-01-01T01:32:21Z</time>
      </trkpt>
      <trkpt lat="41.595008" lon="2.007657">
        <ele>410.35</ele>
        <time>1970-01-01T01:32:21.10Z</time>
      </trkpt>
      <trkpt lat="41.595123" lon="2.007643">
        <ele>410.30</ele>
        <time>1970-01-01T01:32:21.20Z</time>
      </trkpt>
      <trkpt lat="41.595233" lon="2.007628">
        <ele>410.25</ele>
        <time>1970-01-01T01:32:21.29Z</time>
      </trkpt>
      <trkpt lat="41.595337" lon="2.007599">
        <ele>410.20</ele>
        <time>1970-01-01T01:32:21.39Z</time>
      </trkpt>
      <trkpt lat="41.595428" lon="2.007573">
        <ele>410.15</ele>
        <time>1970-01-01T01:32:21.49Z</time>
      </trkpt>
      <trkpt lat="41.595469" lon="2.007558">
        <ele>410.13</ele>
        <time>1970-01-01T01:32:21.53Z</time>
      </trkpt>
      <trkpt lat="41.595507" lon="2.007510">
        <ele>410.11</ele>
        <time>1970-01-01T01:32:21.57Z</time>
      </trkpt>
      <trkpt lat="41.595547" lon="2.007474">
        <ele>410.09</ele>
        <time>1970-01-01T01:32:21.61Z</time>
      </trkpt>
      <trkpt lat="41.595592" lon="2.007424">
        <ele>410.07</ele>
        <time>1970-01-01T01:32:21.66Z</time>
      </trkpt>
      <trkpt lat="41.595640" lon="2.007375">
        <ele>410.04</ele>
        <time>1970-01-01T01:32:21.71Z</time>
      </trkpt>
      <trkpt lat="41.595690" lon="2.007323">
        <ele>410.02</ele>
        <time>1970-01-01T01:32:21.76Z</time>
      </trkpt>
      <trkpt lat="41.595734" lon="2.007289">
        <ele>410.00</ele>
        <time>1970-01-01T01:32:21.80Z</time>
      </trkpt>
      <trkpt lat="41.595769" lon="2.007252">
        <ele>409.98</ele>
        <time>1970-01-01T01:32:21.84Z</time>
      </trkpt>
      <trkpt lat="41.595805" lon="2.007206">
        <ele>409.96</ele>
        <time>1970-01-01T01:32:21.88Z</time>
      </trkpt>
      <trkpt lat="41.595835" lon="2.007144">
        <ele>409.94</ele>
        <time>1970-01-01T01:32:21.92Z</time>
      </trkpt>
      <trkpt lat="41.595870" lon="2.007078">
        <ele>409.91</ele>
        <time>1970-01-01T01:32:21.97Z</time>
      </trkpt>
      <trkpt lat="41.595903" lon="2.007012">
        <ele>409.89</ele>
        <time>1970-01-01T01:32:22.02Z</time>
      </trkpt>
      <trkpt lat="41.595930" lon="2.006940">
        <ele>409.86</ele>
        <time>1970-01-01T01:32:22.07Z</time>
      </trkpt>
      <trkpt lat="41.595940" lon="2.006870">
        <ele>409.84</ele>
        <time>1970-01-01T01:32:22.11Z</time>
      </trkpt>
      <trkpt lat="41.595942" lon="2.006790">
        <ele>409.82</ele>
        <time>1970-01-01T01:32:22.16Z</time>
      </trkpt>
      <trkpt lat="41.595927" lon="2.006714">
        <ele>409.79</ele>
        <time>1970-01-01T01:32:22.21Z</time>
      </trkpt>
      <trkpt lat="41.595909" lon="2.006650">
        <ele>409.77</ele>
        <time>1970-01-01T01:32:22.26Z</time>
      </trkpt>
      <trkpt lat="41.595882" lon="2.006590">
        <ele>409.75</ele>
        <time>1970-01-01T01:32:22.30Z</time>
      </trkpt>
      <trkpt lat="41.595849" lon="2.006527">
        <ele>409.72</ele>
        <time>1970-01-01T01:32:22.35Z</time>
      </trkpt>
      <trkpt lat="41.595824" lon="2.006470">
        <ele>409.70</ele>
        <time>1970-01-01T01:32:22.40Z</time>
      </trkpt>
      <trkpt lat="41.595805" lon="2.006382">
        <ele>409.67</ele>
        <time>1970-01-01T01:32:22.46Z</time>
      </trkpt>
      <trkpt lat="41.595798" lon="2.006292">
        <ele>409.64</ele>
        <time>1970-01-01T01:32:22.52Z</time>
      </trkpt>
      <trkpt lat="41.595802" lon="2.006193">
        <ele>409.61</ele>
        <time>1970-01-01T01:32:22.57Z</time>
      </trkpt>
      <trkpt lat="41.595809" lon="2.006136">
        <ele>409.59</ele>
        <time>1970-01-01T01:32:22.61Z</time>
      </trkpt>
      <trkpt lat="41.595857" lon="2.006059">
        <ele>409.57</ele>
        <time>1970-01-01T01:32:22.67Z</time>
      </trkpt>
      <trkpt lat="41.595892" lon="2.006003">
        <ele>409.55</ele>
        <time>1970-01-01T01:32:22.70Z</time>
      </trkpt>
      <trkpt lat="41.595927" lon="2.005944">
        <ele>409.52</ele>
        <time>1970-01-01T01:32:22.75Z</time>
      </trkpt>
      <trkpt lat="41.595970" lon="2.005907">
        <ele>409.50</ele>
        <time>1970-01-01T01:32:22.79Z</time>
      </trkpt>
      <trkpt lat="41.596005" lon="2.005847">
        <ele>409.48</ele>
        <time>1970-01-01T01:32:22.84Z</time>
      </trkpt>
      <trkpt lat="41.596046" lon="2.005812">
        <ele>409.46</ele>
        <time>1970-01-01T01:32:22.87Z</time>
      </trkpt>
      <trkpt lat="41.596089" lon="2.005776">
        <ele>409.44</ele>
        <time>1970-01-01T01:32:22.91Z</time>
      </trkpt>
      <trkpt lat="41.596131" lon="2.005741">
        <ele>409.43</ele>
        <time>1970-01-01T01:32:22.94Z</time>
      </trkpt>
      <trkpt lat="41.596185" lon="2.005755">
        <ele>409.40</ele>
        <time>1970-01-01T01:32:22.99Z</time>
      </trkpt>
      <trkpt lat="41.596244" lon="2.005753">
        <ele>409.38</ele>
        <time>1970-01-01T01:32:23.03Z</time>
      </trkpt>
      <trkpt lat="41.596298" lon="2.005738">
        <ele>409.36</ele>
        <time>1970-01-01T01:32:23.07Z</time>
      </trkpt>
      <trkpt lat="41.596344" lon="2.005709">
        <ele>409.34</ele>
        <time>1970-01-01T01:32:23.11Z</time>
      </trkpt>
      <trkpt lat="41.596394" lon="2.005681">
        <ele>409.32</ele>
        <time>1970-01-01T01:32:23.15Z</time>
      </trkpt>
      <trkpt lat="41.596449" lon="2.005669">
        <ele>409.30</ele>
        <time>1970-01-01T01:32:23.19Z</time>
      </trkpt>
      <trkpt lat="41.596498" lon="2.005672">
        <ele>409.29</ele>
        <time>1970-01-01T01:32:23.22Z</time>
      </trkpt>
      <trkpt lat="41.596538" lon="2.005706">
        <ele>409.27</ele>
        <time>1970-01-01T01:32:23.25Z</time>
      </trkpt>
      <trkpt lat="41.596580" lon="2.005745">
        <ele>409.25</ele>
        <time>1970-01-01T01:32:23.29Z</time>
      </trkpt>
      <trkpt lat="41.596615" lon="2.005780">
        <ele>409.23</ele>
        <time>1970-01-01T01:32:23.33Z</time>
      </trkpt>
      <trkpt lat="41.596651" lon="2.005814">
        <ele>409.21</ele>
        <time>1970-01-01T01:32:23.37Z</time>
      </trkpt>
      <trkpt lat="41.596680" lon="2.005837">
        <ele>409.19</ele>
        <time>1970-01-01T01:32:23.41Z</time>
      </trkpt>
      <trkpt lat="41.596716" lon="2.005822">
        <ele>409.18</ele>
        <time>1970-01-01T01:32:23.43Z</time>
      </trkpt>
      <trkpt lat="41.596746" lon="2.005809">
        <ele>409.17</ele>
        <time>1970-01-01T01:32:23.45Z</time>
      </trkpt>
      <trkpt lat="41.596778" lon="2.005772">
        <ele>409.16</ele>
        <time>1970-01-01T01:32:23.48Z</time>
      </trkpt>
      <trkpt lat="41.596791" lon="2.005736">
        <ele>409.15</ele>
        <time>1970-01-01T01:32:23.50Z</time>
      </trkpt>
      <trkpt lat="41.596805" lon="2.005672">
        <ele>409.13</ele>
        <time>1970-01-01T01:32:23.53Z</time>
      </trkpt>
      <trkpt lat="41.596827" lon="2.005602">
        <ele>409.11</ele>
        <time>1970-01-01T01:32:23.57Z</time>
      </trkpt>
      <trkpt lat="41.596841" lon="2.005540">
        <ele>409.10</ele>
        <time>1970-01-01T01:32:23.60Z</time>
      </trkpt>
      <trkpt lat="41.596877" lon="2.005471">
        <ele>409.08</ele>
        <time>1970-01-01T01:32:23.64Z</time>
      </trkpt>
      <trkpt lat="41.596913" lon="2.005413">
        <ele>409.06</ele>
        <time>1970-01-01T01:32:23.67Z</time>
      </trkpt>
      <trkpt lat="41.596952" lon="2.005364">
        <ele>409.05</ele>
        <time>1970-01-01T01:32:23.71Z</time>
      </trkpt>
      <trkpt lat="41.596989" lon="2.005319">
        <ele>409.03</ele>
        <time>1970-01-01T01:32:23.74Z</time>
      </trkpt>
      <trkpt lat="41.597028" lon="2.005279">
        <ele>409.01</ele>
        <time>1970-01-01T01:32:23.77Z</time>
      </trkpt>
      <trkpt lat="41.597070" lon="2.005234">
        <ele>409.00</ele>
        <time>1970-01-01T01:32:23.80Z</time>
      </trkpt>
      <trkpt lat="41.597116" lon="2.005200">
        <ele>408.98</ele>
        <time>1970-01-01T01:32:23.84Z</time>
      </trkpt>
      <trkpt lat="41.597168" lon="2.005150">
        <ele>408.96</ele>
        <time>1970-01-01T01:32:23.88Z</time>
      </trkpt>
      <trkpt lat="41.597321" lon="2.004984">
        <ele>408.89</ele>
        <time>1970-01-01T01:32:24.01Z</time>
      </trkpt>
      <trkpt lat="41.597546" lon="2.004747">
        <ele>408.80</ele>
        <time>1970-01-01T01:32:24.20Z</time>
      </trkpt>
      <trkpt lat="41.597777" lon="2.004503">
        <ele>408.70</ele>
        <time>1970-01-01T01:32:24.39Z</time>
      </trkpt>
      <trkpt lat="41.597979" lon="2.004290">
        <ele>408.62</ele>
        <time>1970-01-01T01:32:24.56Z</time>
      </trkpt>
      <trkpt lat="41.598180" lon="2.004079">
        <ele>408.54</ele>
        <time>1970-01-01T01:32:24.72Z</time>
      </trkpt>
      <trkpt lat="41.598420" lon="2.003863">
        <ele>408.53</ele>
        <time>1970-01-01T01:32:24.74Z</time>
      </trkpt>
      <trkpt lat="41.598566" lon="2.003604">
        <ele>408.52</ele>
        <time>1970-01-01T01:32:24.76Z</time>
      </trkpt>
      <trkpt lat="41.598711" lon="2.003391">
        <ele>408.51</ele>
        <time>1970-01-01T01:32:24.78Z</time>
      </trkpt>
      <trkpt lat="41.598856" lon="2.003179">
        <ele>408.50</ele>
        <time>1970-01-01T01:32:24.80Z</time>
      </trkpt>
      <trkpt lat="41.598877" lon="2.003059">
        <ele>408.49</ele>
        <time>1970-01-01T01:32:24.82Z</time>
      </trkpt>
      <trkpt lat="41.598970" lon="2.002950">
        <ele>408.48</ele>
        <time>1970-01-01T01:32:24.83Z</time>
      </trkpt>
      <trkpt lat="41.599111" lon="2.002921">
        <ele>408.47</ele>
        <time>1970-01-01T01:32:24.85Z</time>
      </trkpt>
      <trkpt lat="41.599257" lon="2.002886">
        <ele>408.47</ele>
        <time>1970-01-01T01:32:24.85Z</time>
      </trkpt>
      <trkpt lat="41.599393" lon="2.002859">
        <ele>408.47</ele>
        <time>1970-01-01T01:32:24.86Z</time>
      </trkpt>
      <trkpt lat="41.599514" lon="2.002813">
        <ele>408.46</ele>
        <time>1970-01-01T01:32:24.87Z</time>
      </trkpt>
      <trkpt lat="41.599622" lon="2.002741">
        <ele>408.46</ele>
        <time>1970-01-01T01:32:24.88Z</time>
      </trkpt>
      <trkpt lat="41.599729" lon="2.002668">
        <ele>408.46</ele>
        <time>1970-01-01T01:32:24.88Z</time>
      </trkpt>
      <trkpt lat="41.599855" lon="2.002580">
        <ele>408.45</ele>
        <time>1970-01-01T01:32:24.89Z</time>
      </trkpt>
      <trkpt lat="41.600025" lon="2.002482">
        <ele>408.45</ele>
        <time>1970-01-01T01:32:24.90Z</time>
      </trkpt>
      <trkpt lat="41.600180" lon="2.002380">
        <ele>408.44</ele>
        <time>1970-01-01T01:32:24.91Z</time>
      </trkpt>
      <trkpt lat="41.600277" lon="2.002345">
        <ele>408.44</ele>
        <time>1970-01-01T01:32:24.92Z</time>
      </trkpt>
      <trkpt lat="41.600329" lon="2.002352">
        <ele>408.44</ele>
        <time>1970-01-01T01:32:24.92Z</time>
      </trkpt>
      <trkpt lat="41.600400" lon="2.002323">
        <ele>408.44</ele>
        <time>1970-01-01T01:32:24.92Z</time>
      </trkpt>
      <trkpt lat="41.600484" lon="2.002251">
        <ele>408.43</ele>
        <time>1970-01-01T01:32:24.93Z</time>
      </trkpt>
      <trkpt lat="41.600545" lon="2.002209">
        <ele>408.43</ele>
        <time>1970-01-01T01:32:24.93Z</time>
      </trkpt>
      <trkpt lat="41.600627" lon="2.002167">
        <ele>408.43</ele>
        <time>1970-01-01T01:32:24.93Z</time>
      </trkpt>
      <trkpt lat="41.600701" lon="2.002175">
        <ele>408.43</ele>
        <time>1970-01-01T01:32:24.94Z</time>
      </trkpt>
      <trkpt lat="41.600766" lon="2.002187">
        <ele>408.43</ele>
        <time>1970-01-01T01:32:24.94Z</time>
      </trkpt>
      <trkpt lat="41.600834" lon="2.002194">
        <ele>408.43</ele>
        <time>1970-01-01T01:32:24.94Z</time>
      </trkpt>
      <trkpt lat="41.600934" lon="2.002225">
        <ele>408.42</ele>
        <time>1970-01-01T01:32:24.95Z</time>
      </trkpt>
      <trkpt lat="41.601033" lon="2.002253">
        <ele>408.42</ele>
        <time>1970-01-01T01:32:24.95Z</time>
      </trkpt>
      <trkpt lat="41.601117" lon="2.002278">
        <ele>408.42</ele>
        <time>1970-01-01T01:32:24.96Z</time>
      </trkpt>
      <trkpt lat="41.601186" lon="2.002330">
        <ele>408.42</ele>
        <time>1970-01-01T01:32:24.96Z</time>
      </trkpt>
      <trkpt lat="41.601230" lon="2.002374">
        <ele>408.42</ele>
        <time>1970-01-01T01:32:24.96Z</time>
      </trkpt>
      <trkpt lat="41.601278" lon="2.002405">
        <ele>408.42</ele>
        <time>1970-01-01T01:32:24.96Z</time>
      </trkpt>
      <trkpt lat="41.601316" lon="2.002445">
        <ele>408.41</ele>
        <time>1970-01-01T01:32:24.97Z</time>
      </trkpt>
      <trkpt lat="41.601351" lon="2.002481">
        <ele>408.41</ele>
        <time>1970-01-01T01:32:24.97Z</time>
      </trkpt>
      <trkpt lat="41.601382" lon="2.002513">
        <ele>408.41</ele>
        <time>1970-01-01T01:32:24.97Z</time>
      </trkpt>
      <trkpt lat="41.601439" lon="2.002540">
        <ele>408.41</ele>
        <time>1970-01-01T01:32:24.97Z</time>
      </trkpt>
      <trkpt lat="41.601492" lon="2.002566">
        <ele>408.41</ele>
        <time>1970-01-01T01:32:24.97Z</time>
      </trkpt>
      <trkpt lat="41.601552" lon="2.002583">
        <ele>408.41</ele>
        <time>1970-01-01T01:32:24.98Z</time>
      </trkpt>
      <trkpt lat="41.601607" lon="2.002610">
        <ele>408.41</ele>
        <time>1970-01-01T01:32:24.98Z</time>
      </trkpt>
      <trkpt lat="41.601651" lon="2.002635">
        <ele>408.41</ele>
        <time>1970-01-01T01:32:24.98Z</time>
      </trkpt>
      <trkpt lat="41.601678" lon="2.002698">
        <ele>408.41</ele>
        <time>1970-01-01T01:32:24.98Z</time>
      </trkpt>
      <trkpt lat="41.601708" lon="2.002765">
        <ele>408.40</ele>
        <time>1970-01-01T01:32:24.99Z</time>
      </trkpt>
      <trkpt lat="41.601731" lon="2.002817">
        <ele>408.40</ele>
        <time>1970-01-01T01:32:24.99Z</time>
      </trkpt>
      <trkpt lat="41.601753" lon="2.002887">
        <ele>408.40</ele>
        <time>1970-01-01T01:32:24.99Z</time>
      </trkpt>
      <trkpt lat="41.601773" lon="2.002926">
        <ele>408.40</ele>
        <time>1970-01-01T01:32:24.99Z</time>
      </trkpt>
      <trkpt lat="41.601787" lon="2.002957">
        <ele>408.40</ele>
        <time>1970-01-01T01:32:24.99Z</time>
      </trkpt>
      <trkpt lat="41.601807" lon="2.002972">
        <ele>408.40</ele>
        <time>1970-01-01T01:32:24.99Z</time>
      </trkpt>
      <trkpt lat="41.601827" lon="2.002986">
        <ele>408.40</ele>
        <time>1970-01-01T01:32:24.99Z</time>
      </trkpt>
      <trkpt lat="41.601837" lon="2.002993">
        <ele>408.40</ele>
        <time>1970-01-01T01:32:24.99Z</time>
      </trkpt>
      <trkpt lat="41.601858" lon="2.002966">
        <ele>408.40</ele>
        <time>1970-01-01T01:32:24.99Z</time>
      </trkpt>
      <trkpt lat="41.601900" lon="2.002950">
        <ele>408.40</ele>
        <time>1970-01-01T01:32:24.99Z</time>
      </trkpt>
      <trkpt lat="41.601938" lon="2.002938">
        <ele>408.40</ele>
        <time>1970-01-01T01:32:24.99Z</time>
      </trkpt>
      <trkpt lat="41.601993" lon="2.002926">
        <ele>408.40</ele>
        <time>1970-01-01T01:32:24.99Z</time>
      </trkpt>
      <trkpt lat="41.602043" lon="2.002916">
        <ele>408.40</ele>
        <time>1970-01-01T01:32:24.99Z</time>
      </trkpt>
      <trkpt lat="41.602086" lon="2.002910">
        <ele>408.40</ele>
        <time>1970-01-01T01:32:24.99Z</time>
      </trkpt>
      <trkpt lat="41.602132" lon="2.002907">
        <ele>408.40</ele>
        <time>1970-01-01T01:32:24.99Z</time>
      </trkpt>
      <trkpt lat="41.602170" lon="2.002904">
        <ele>408.40</ele>
        <time>1970-01-01T01:32:24.99Z</time>
      </trkpt>
      <trkpt lat="41.602210" lon="2.002903">
        <ele>408.40</ele>
        <time>1970-01-01T01:32:24.99Z</time>
      </trkpt>
      <trkpt lat="41.602243" lon="2.002898">
        <ele>408.40</ele>
        <time>1970-01-01T01:32:24.99Z</time>
      </trkpt>
      <trkpt lat="41.602271" lon="2.002898">
        <ele>408.40</ele>
        <time>1970-01-01T01:32:24.99Z</time>
      </trkpt>
      <trkpt lat="41.602298" lon="2.002883">
        <ele>408.40</ele>
        <time>1970-01-01T01:32:24.99Z</time>
      </trkpt>
      <trkpt lat="41.602312" lon="2.002872">
        <ele>408.40</ele>
        <time>1970-01-01T01:32:24.99Z</time>
      </trkpt>
      <trkpt lat="41.602340" lon="2.002860">
        <ele>408.40</ele>
        <time>1970-01-01T01:32:24.99Z</time>
      </trkpt>
      <trkpt lat="41.602365" lon="2.002847">
        <ele>408.40</ele>
        <time>1970-01-01T01:32:24.99Z</time>
      </trkpt>
      <trkpt lat="41.602392" lon="2.002840">
        <ele>408.40</ele>
        <time>1970-01-01T01:32:24.99Z</time>
      </trkpt>
      <trkpt lat="41.602414" lon="2.002832">
        <ele>408.40</ele>
        <time>1970-01-01T01:32:24.99Z</time>
      </trkpt>
      <trkpt lat="41.602426" lon="2.002828">
        <ele>408.40</ele>
        <time>1970-01-01T01:32:24.99Z</time>
      </trkpt>
      <trkpt lat="41.602459" lon="2.002837">
        <ele>408.40</ele>
        <time>1970-01-01T01:32:24.99Z</time>
      </trkpt>
      <trkpt lat="41.602498" lon="2.002845">
        <ele>408.40</ele>
        <time>1970-01-01T01:32:24.99Z</time>
      </trkpt>
      <trkpt lat="41.602544" lon="2.002857">
        <ele>408.40</ele>
        <time>1970-01-01T01:32:24.99Z</time>
      </trkpt>
      <trkpt lat="41.602584" lon="2.002864">
        <ele>408.40</ele>
        <time>1970-01-01T01:32:24.99Z</time>
      </trkpt>
      <trkpt lat="41.602619" lon="2.002876">
        <ele>408.40</ele>
        <time>1970-01-01T01:32:24.99Z</time>
      </trkpt>
      <trkpt lat="41.602659" lon="2.002891">
        <ele>408.40</ele>
        <time>1970-01-01T01:32:24.99Z</time>
      </trkpt>
      <trkpt lat="41.602690" lon="2.002906">
        <ele>408.40</ele>
        <time>1970-01-01T01:32:24.99Z</time>
      </trkpt>
      <trkpt lat="41.602722" lon="2.002923">
        <ele>408.40</ele>
        <time>1970-01-01T01:32:24.99Z</time>
      </trkpt>
      <trkpt lat="41.602759" lon="2.002940">
        <ele>408.40</ele>
        <time>1970-01-01T01:32:24.99Z</time>
      </trkpt>
      <trkpt lat="41.602801" lon="2.002945">
        <ele>408.40</ele>
        <time>1970-01-01T01:32:24.99Z</time>
      </trkpt>
      <trkpt lat="41.602831" lon="2.002948">
        <ele>408.40</ele>
        <time>1970-01-01T01:32:24.99Z</time>
      </trkpt>
      <trkpt lat="41.602854" lon="2.002951">
        <ele>408.40</ele>
        <time>1970-01-01T01:32:24.99Z</time>
      </trkpt>
      <trkpt lat="41.602887" lon="2.002937">
        <ele>408.40</ele>
        <time>1970-01-01T01:32:24.99Z</time>
      </trkpt>
      <trkpt lat="41.602918" lon="2.002920">
        <ele>408.40</ele>
        <time>1970-01-01T01:32:24.99Z</time>
      </trkpt>
      <trkpt lat="41.602938" lon="2.002898">
        <ele>408.40</ele>
        <time>1970-01-01T01:32:24.99Z</time>
      </trkpt>
      <trkpt lat="41.602956" lon="2.002863">
        <ele>408.40</ele>
        <time>1970-01-01T01:32:24.99Z</time>
      </trkpt>
      <trkpt lat="41.602971" lon="2.002824">
        <ele>408.40</ele>
        <time>1970-01-01T01:32:24.99Z</time>
      </trkpt>
      <trkpt lat="41.602990" lon="2.002779">
        <ele>408.40</ele>
        <time>1970-01-01T01:32:24.99Z</time>
      </trkpt>
      <trkpt lat="41.602994" lon="2.002731">
        <ele>408.40</ele>
        <time>1970-01-01T01:32:24.99Z</time>
      </trkpt>
      <trkpt lat="41.602998" lon="2.002684">
        <ele>408.40</ele>
        <time>1970-01-01T01:32:24.99Z</time>
      </trkpt>
      <trkpt lat="41.603011" lon="2.002625">
        <ele>408.40</ele>
        <time>1970-01-01T01:32:24.99Z</time>
      </trkpt>
      <trkpt lat="41.603026" lon="2.002570">
        <ele>408.40</ele>
        <time>1970-01-01T01:32:24.99Z</time>
      </trkpt>
      <trkpt lat="41.603035" lon="2.002516">
        <ele>408.40</ele>
        <time>1970-01-01T01:32:24.99Z</time>
      </trkpt>
      <trkpt lat="41.603050" lon="2.002441">
        <ele>408.40</ele>
        <time>1970-01-01T01:32:24.99Z</time>
      </trkpt>
      <trkpt lat="41.603069" lon="2.002352">
        <ele>408.40</ele>
        <time>1970-01-01T01:32:24.99Z</time>
      </trkpt>
      <trkpt lat="41.603084" lon="2.002274">
        <ele>408.40</ele>
        <time>1970-01-01T01:32:25Z</time>
      </trkpt>
      <trkpt lat="41.603102" lon="2.002193">
        <ele>408.40</ele>
        <time>1970-01-01T01:32:25Z</time>
      </trkpt>
      <trkpt lat="41.603123" lon="2.002116">
        <ele>408.40</ele>
        <time>1970-01-01T01:32:25Z</time>
      </trkpt>
      <trkpt lat="41.603133" lon="2.002039">
        <ele>408.40</ele>
        <time>1970-01-01T01:32:25Z</time>
      </trkpt>
      <trkpt lat="41.603145" lon="2.001960">
        <ele>408.40</ele>
        <time>1970-01-01T01:32:25Z</time>
      </trkpt>
      <trkpt lat="41.603164" lon="2.001892">
        <ele>408.40</ele>
        <time>1970-01-01T01:32:25Z</time>
      </trkpt>
      <trkpt lat="41.603189" lon="2.001832">
        <ele>408.40</ele>
        <time>1970-01-01T01:32:25Z</time>
      </trkpt>
      <trkpt lat="41.603233" lon="2.001792">
        <ele>408.40</ele>
        <time>1970-01-01T01:32:25Z</time>
      </trkpt>
      <trkpt lat="41.603274" lon="2.001763">
        <ele>408.40</ele>
        <time>1970-01-01T01:32:25Z</time>
      </trkpt>
      <trkpt lat="41.603318" lon="2.001727">
        <ele>408.40</ele>
        <time>1970-01-01T01:32:25Z</time>
      </trkpt>
      <trkpt lat="41.603362" lon="2.001698">
        <ele>408.40</ele>
        <time>1970-01-01T01:32:25Z</time>
      </trkpt>
      <trkpt lat="41.603412" lon="2.001672">
        <ele>408.40</ele>
        <time>1970-01-01T01:32:25Z</time>
      </trkpt>
      <trkpt lat="41.603458" lon="2.001646">
        <ele>408.40</ele>
        <time>1970-01-01T01:32:25Z</time>
      </trkpt>
      <trkpt lat="41.603506" lon="2.001612">
        <ele>408.40</ele>
        <time>1970-01-01T01:32:25Z</time>
      </trkpt>
      <trkpt lat="41.603546" lon="2.001586">
        <ele>408.40</ele>
        <time>1970-01-01T01:32:25Z</time>
      </trkpt>
      <trkpt lat="41.603589" lon="2.001555">
        <ele>408.40</ele>
        <time>1970-01-01T01:32:25Z</time>
      </trkpt>
      <trkpt lat="41.603616" lon="2.001537">
        <ele>408.40</ele>
        <time>1970-01-01T01:32:25Z</time>
      </trkpt>
      <trkpt lat="41.603643" lon="2.001522">
        <ele>408.40</ele>
        <time>1970-01-01T01:32:25Z</time>
      </trkpt>
      <trkpt lat="41.603672" lon="2.001497">
        <ele>408.40</ele>
        <time>1970-01-01T01:32:25Z</time>
      </trkpt>
      <trkpt lat="41.603704" lon="2.001468">
        <ele>408.40</ele>
        <time>1970-01-01T01:32:25Z</time>
      </trkpt>
      <trkpt lat="41.603743" lon="2.001438">
        <ele>408.40</ele>
        <time>1970-01-01T01:32:25Z</time>
      </trkpt>
      <trkpt lat="41.603779" lon="2.001405">
        <ele>408.40</ele>
        <time>1970-01-01T01:32:25Z</time>
      </trkpt>
      <trkpt lat="41.603808" lon="2.001381">
        <ele>408.40</ele>
        <time>1970-01-01T01:32:25Z</time>
      </trkpt>
      <trkpt lat="41.603843" lon="2.001355">
        <ele>408.40</ele>
        <time>1970-01-01T01:32:25Z</time>
      </trkpt>
      <trkpt lat="41.603872" lon="2.001326">
        <ele>408.40</ele>
        <time>1970-01-01T01:32:25Z</time>
      </trkpt>
      <trkpt lat="41.603895" lon="2.001301">
        <ele>408.40</ele>
        <time>1970-01-01T01:32:25Z</time>
      </trkpt>
      <trkpt lat="41.603919" lon="2.001276">
        <ele>408.40</ele>
        <time>1970-01-01T01:32:25Z</time>
      </trkpt>
      <trkpt lat="41.603955" lon="2.001266">
        <ele>408.40</ele>
        <time>1970-01-01T01:32:25Z</time>
      </trkpt>
      <trkpt lat="41.603998" lon="2.001258">
        <ele>408.40</ele>
        <time>1970-01-01T01:32:25Z</time>
      </trkpt>
      <trkpt lat="41.604037" lon="2.001259">
        <ele>408.40</ele>
        <time>1970-01-01T01:32:25Z</time>
      </trkpt>
      <trkpt lat="41.604073" lon="2.001256">
        <ele>408.40</ele>
        <time>1970-01-01T01:32:25Z</time>
      </trkpt>
      <trkpt lat="41.604107" lon="2.001248">
        <ele>408.40</ele>
        <time>1970-01-01T01:32:25Z</time>
      </trkpt>
      <trkpt lat="41.604144" lon="2.001245">
        <ele>408.40</ele>
        <time>1970-01-01T01:32:25Z</time>
      </trkpt>
      <trkpt lat="41.604179" lon="2.001241">
        <ele>408.40</ele>
        <time>1970-01-01T01:32:25Z</time>
      </trkpt>
      <trkpt lat="41.604211" lon="2.001240">
        <ele>408.40</ele>
        <time>1970-01-01T01:32:25Z</time>
      </trkpt>
      <trkpt lat="41.604246" lon="2.001237">
        <ele>408.40</ele>
        <time>1970-01-01T01:32:25Z</time>
      </trkpt>
      <trkpt lat="41.604286" lon="2.001229">
        <ele>408.40</ele>
        <time>1970-01-01T01:32:25Z</time>
      </trkpt>
      <trkpt lat="41.604327" lon="2.001220">
        <ele>408.40</ele>
        <time>1970-01-01T01:32:25Z</time>
      </trkpt>
      <trkpt lat="41.604362" lon="2.001210">
        <ele>408.40</ele>
        <time>1970-01-01T01:32:25Z</time>
      </trkpt>
      <trkpt lat="41.604389" lon="2.001204">
        <ele>408.40</ele>
        <time>1970-01-01T01:32:25Z</time>
      </trkpt>
      <trkpt lat="41.604417" lon="2.001200">
        <ele>408.40</ele>
        <time>1970-01-01T01:32:25Z</time>
      </trkpt>
      <trkpt lat="41.604447" lon="2.001192">
        <ele>408.40</ele>
        <time>1970-01-01T01:32:25Z</time>
      </trkpt>
      <trkpt lat="41.604482" lon="2.001183">
        <ele>408.40</ele>
        <time>1970-01-01T01:32:25Z</time>
      </trkpt>
      <trkpt lat="41.604512" lon="2.001177">
        <ele>408.40</ele>
        <time>1970-01-01T01:32:25Z</time>
      </trkpt>
      <trkpt lat="41.604547" lon="2.001188">
        <ele>408.40</ele>
        <time>1970-01-01T01:32:25Z</time>
      </trkpt>
      <trkpt lat="41.604573" lon="2.001200">
        <ele>408.40</ele>
        <time>1970-01-01T01:32:25Z</time>
      </trkpt>
      <trkpt lat="41.604609" lon="2.001215">
        <ele>408.40</ele>
        <time>1970-01-01T01:32:25Z</time>
      </trkpt>
      <trkpt lat="41.604639" lon="2.001226">
        <ele>408.40</ele>
        <time>1970-01-01T01:32:25Z</time>
      </trkpt>
      <trkpt lat="41.604667" lon="2.001236">
        <ele>408.40</ele>
        <time>1970-01-01T01:32:25Z</time>
      </trkpt>
      <trkpt lat="41.604704" lon="2.001241">
        <ele>408.40</ele>
        <time>1970-01-01T01:32:25Z</time>
      </trkpt>
      <trkpt lat="41.604739" lon="2.001247">
        <ele>408.40</ele>
        <time>1970-01-01T01:32:25Z</time>
      </trkpt>
      <trkpt lat="41.604770" lon="2.001251">
        <ele>408.40</ele>
        <time>1970-01-01T01:32:25Z</time>
      </trkpt>
      <trkpt lat="41.604802" lon="2.001251">
        <ele>408.40</ele>
        <time>1970-01-01T01:32:25Z</time>
      </trkpt>
      <trkpt lat="41.604829" lon="2.001251">
        <ele>408.40</ele>
        <time>1970-01-01T01:32:25Z</time>
      </trkpt>
      <trkpt lat="41.604862" lon="2.001250">
        <ele>408.40</ele>
        <time>1970-01-01T01:32:25Z</time>
      </trkpt>
      <trkpt lat="41.604901" lon="2.001250">
        <ele>408.40</ele>
        <time>1970-01-01T01:32:25Z</time>
      </trkpt>
      <trkpt lat="41.604950" lon="2.001251">
        <ele>408.40</ele>
        <time>1970-01-01T01:32:25Z</time>
      </trkpt>
      <trkpt lat="41.604989" lon="2.001251">
        <ele>408.40</ele>
        <time>1970-01-01T01:32:25Z</time>
      </trkpt>
      <trkpt lat="41.605023" lon="2.001246">
        <ele>408.40</ele>
        <time>1970-01-01T01:32:25Z</time>
      </trkpt>
      <trkpt lat="41.605058" lon="2.001232">
        <ele>408.40</ele>
        <time>1970-01-01T01:32:25Z</time>
      </trkpt>
      <trkpt lat="41.605059" lon="2.001233">
        <ele>558.60</ele>
        <time>1970-01-01T00:49:32Z</time>
      </trkpt>
      <trkpt lat="41.605056" lon="2.001217">
        <ele>558.63</ele>
        <time>1970-01-01T00:49:32.16Z</time>
      </trkpt>
      <trkpt lat="41.605042" lon="2.001213">
        <ele>558.67</ele>
        <time>1970-01-01T00:49:32.35Z</time>
      </trkpt>
      <trkpt lat="41.605025" lon="2.001207">
        <ele>558.72</ele>
        <time>1970-01-01T00:49:32.58Z</time>
      </trkpt>
      <trkpt lat="41.605001" lon="2.001198">
        <ele>558.78</ele>
        <time>1970-01-01T00:49:32.92Z</time>
      </trkpt>
      <trkpt lat="41.604977" lon="2.001192">
        <ele>558.86</ele>
        <time>1970-01-01T00:49:33.28Z</time>
      </trkpt>
      <trkpt lat="41.604954" lon="2.001182">
        <ele>558.93</ele>
        <time>1970-01-01T00:49:33.63Z</time>
      </trkpt>
      <trkpt lat="41.604930" lon="2.001172">
        <ele>559.00</ele>
        <time>1970-01-01T00:49:34Z</time>
      </trkpt>
      <trkpt lat="41.604900" lon="2.001160">
        <ele>559.20</ele>
        <time>1970-01-01T00:49:35Z</time>
      </trkpt>
      <trkpt lat="41.604875" lon="2.001148">
        <ele>559.40</ele>
        <time>1970-01-01T00:49:36Z</time>
      </trkpt>
      <trkpt lat="41.604856" lon="2.001114">
        <ele>559.61</ele>
        <time>1970-01-01T00:49:37.07Z</time>
      </trkpt>
      <trkpt lat="41.604839" lon="2.001084">
        <ele>559.80</ele>
        <time>1970-01-01T00:49:38Z</time>
      </trkpt>
      <trkpt lat="41.604822" lon="2.001065">
        <ele>560.00</ele>
        <time>1970-01-01T00:49:39Z</time>
      </trkpt>
      <trkpt lat="41.604809" lon="2.001045">
        <ele>560.20</ele>
        <time>1970-01-01T00:49:40Z</time>
      </trkpt>
      <trkpt lat="41.604801" lon="2.001022">
        <ele>560.20</ele>
        <time>1970-01-01T00:49:41Z</time>
      </trkpt>
      <trkpt lat="41.604795" lon="2.000994">
        <ele>560.60</ele>
        <time>1970-01-01T00:49:42Z</time>
      </trkpt>
      <trkpt lat="41.604791" lon="2.000942">
        <ele>560.40</ele>
        <time>1970-01-01T00:49:44Z</time>
      </trkpt>
      <trkpt lat="41.604812" lon="2.000891">
        <ele>561.00</ele>
        <time>1970-01-01T00:49:46Z</time>
      </trkpt>
      <trkpt lat="41.604831" lon="2.000871">
        <ele>561.20</ele>
        <time>1970-01-01T00:49:47Z</time>
      </trkpt>
      <trkpt lat="41.604852" lon="2.000858">
        <ele>561.60</ele>
        <time>1970-01-01T00:49:48Z</time>
      </trkpt>
      <trkpt lat="41.604896" lon="2.000858">
        <ele>562.00</ele>
        <time>1970-01-01T00:49:50Z</time>
      </trkpt>
      <trkpt lat="41.604916" lon="2.000861">
        <ele>562.60</ele>
        <time>1970-01-01T00:49:51Z</time>
      </trkpt>
      <trkpt lat="41.604937" lon="2.000864">
        <ele>562.80</ele>
        <time>1970-01-01T00:49:52Z</time>
      </trkpt>
      <trkpt lat="41.604975" lon="2.000876">
        <ele>563.40</ele>
        <time>1970-01-01T00:49:54Z</time>
      </trkpt>
      <trkpt lat="41.604995" lon="2.000884">
        <ele>563.60</ele>
        <time>1970-01-01T00:49:55Z</time>
      </trkpt>
      <trkpt lat="41.605013" lon="2.000897">
        <ele>563.80</ele>
        <time>1970-01-01T00:49:56Z</time>
      </trkpt>
      <trkpt lat="41.605030" lon="2.000910">
        <ele>564.00</ele>
        <time>1970-01-01T00:49:57Z</time>
      </trkpt>
      <trkpt lat="41.605048" lon="2.000919">
        <ele>564.20</ele>
        <time>1970-01-01T00:49:58Z</time>
      </trkpt>
      <trkpt lat="41.605066" lon="2.000930">
        <ele>564.60</ele>
        <time>1970-01-01T00:49:59Z</time>
      </trkpt>
      <trkpt lat="41.605084" lon="2.000938">
        <ele>564.80</ele>
        <time>1970-01-01T00:50:00Z</time>
      </trkpt>
      <trkpt lat="41.605126" lon="2.000950">
        <ele>565.20</ele>
        <time>1970-01-01T00:50:02Z</time>
      </trkpt>
      <trkpt lat="41.605150" lon="2.000951">
        <ele>565.60</ele>
        <time>1970-01-01T00:50:03Z</time>
      </trkpt>
      <trkpt lat="41.605172" lon="2.000949">
        <ele>565.80</ele>
        <time>1970-01-01T00:50:04Z</time>
      </trkpt>
      <trkpt lat="41.605213" lon="2.000934">
        <ele>566.40</ele>
        <time>1970-01-01T00:50:06Z</time>
      </trkpt>
      <trkpt lat="41.605236" lon="2.000924">
        <ele>566.80</ele>
        <time>1970-01-01T00:50:07Z</time>
      </trkpt>
      <trkpt lat="41.605260" lon="2.000915">
        <ele>567.00</ele>
        <time>1970-01-01T00:50:08Z</time>
      </trkpt>
      <trkpt lat="41.605302" lon="2.000894">
        <ele>567.60</ele>
        <time>1970-01-01T00:50:10Z</time>
      </trkpt>
      <trkpt lat="41.605320" lon="2.000881">
        <ele>567.80</ele>
        <time>1970-01-01T00:50:11Z</time>
      </trkpt>
      <trkpt lat="41.605337" lon="2.000867">
        <ele>567.80</ele>
        <time>1970-01-01T00:50:12Z</time>
      </trkpt>
      <trkpt lat="41.605374" lon="2.000835">
        <ele>568.40</ele>
        <time>1970-01-01T00:50:14Z</time>
      </trkpt>
      <trkpt lat="41.605424" lon="2.000785">
        <ele>568.80</ele>
        <time>1970-01-01T00:50:16Z</time>
      </trkpt>
      <trkpt lat="41.605459" lon="2.000756">
        <ele>569.00</ele>
        <time>1970-01-01T00:50:17Z</time>
      </trkpt>
      <trkpt lat="41.605500" lon="2.000727">
        <ele>569.00</ele>
        <time>1970-01-01T00:50:18Z</time>
      </trkpt>
      <trkpt lat="41.605607" lon="2.000661">
        <ele>569.00</ele>
        <time>1970-01-01T00:50:20Z</time>
      </trkpt>
      <trkpt lat="41.605741" lon="2.000577">
        <ele>569.00</ele>
        <time>1970-01-01T00:50:22Z</time>
      </trkpt>
      <trkpt lat="41.605904" lon="2.000471">
        <ele>569.00</ele>
        <time>1970-01-01T00:50:24Z</time>
      </trkpt>
      <trkpt lat="41.606086" lon="2.000368">
        <ele>569.00</ele>
        <time>1970-01-01T00:50:26Z</time>
      </trkpt>
      <trkpt lat="41.606284" lon="2.000283">
        <ele>568.20</ele>
        <time>1970-01-01T00:50:28Z</time>
      </trkpt>
      <trkpt lat="41.606465" lon="2.000225">
        <ele>567.40</ele>
        <time>1970-01-01T00:50:30Z</time>
      </trkpt>
      <trkpt lat="41.606533" lon="2.000188">
        <ele>566.80</ele>
        <time>1970-01-01T00:50:31Z</time>
      </trkpt>
      <trkpt lat="41.606586" lon="2.000145">
        <ele>566.20</ele>
        <time>1970-01-01T00:50:32Z</time>
      </trkpt>
      <trkpt lat="41.606567" lon="2.000011">
        <ele>564.20</ele>
        <time>1970-01-01T00:50:34Z</time>
      </trkpt>
      <trkpt lat="41.606513" lon="1.999885">
        <ele>562.60</ele>
        <time>1970-01-01T00:50:36Z</time>
      </trkpt>
      <trkpt lat="41.606472" lon="1.999736">
        <ele>562.00</ele>
        <time>1970-01-01T00:50:38Z</time>
      </trkpt>
      <trkpt lat="41.606472" lon="1.999576">
        <ele>561.80</ele>
        <time>1970-01-01T00:50:40Z</time>
      </trkpt>
      <trkpt lat="41.606497" lon="1.999505">
        <ele>561.80</ele>
        <time>1970-01-01T00:50:41Z</time>
      </trkpt>
      <trkpt lat="41.606535" lon="1.999453">
        <ele>561.80</ele>
        <time>1970-01-01T00:50:42Z</time>
      </trkpt>
      <trkpt lat="41.606577" lon="1.999412">
        <ele>561.80</ele>
        <time>1970-01-01T00:50:43Z</time>
      </trkpt>
      <trkpt lat="41.606614" lon="1.999372">
        <ele>561.80</ele>
        <time>1970-01-01T00:50:44Z</time>
      </trkpt>
      <trkpt lat="41.606665" lon="1.999290">
        <ele>561.80</ele>
        <time>1970-01-01T00:50:46Z</time>
      </trkpt>
      <trkpt lat="41.606697" lon="1.999215">
        <ele>561.80</ele>
        <time>1970-01-01T00:50:48Z</time>
      </trkpt>
      <trkpt lat="41.606710" lon="1.999174">
        <ele>562.00</ele>
        <time>1970-01-01T00:50:49Z</time>
      </trkpt>
      <trkpt lat="41.606727" lon="1.999131">
        <ele>562.00</ele>
        <time>1970-01-01T00:50:50Z</time>
      </trkpt>
      <trkpt lat="41.606761" lon="1.999046">
        <ele>562.20</ele>
        <time>1970-01-01T00:50:52Z</time>
      </trkpt>
      <trkpt lat="41.606789" lon="1.998952">
        <ele>562.80</ele>
        <time>1970-01-01T00:50:54Z</time>
      </trkpt>
      <trkpt lat="41.606797" lon="1.998902">
        <ele>563.00</ele>
        <time>1970-01-01T00:50:55Z</time>
      </trkpt>
      <trkpt lat="41.606802" lon="1.998852">
        <ele>563.40</ele>
        <time>1970-01-01T00:50:56Z</time>
      </trkpt>
      <trkpt lat="41.606804" lon="1.998799">
        <ele>563.60</ele>
        <time>1970-01-01T00:50:57Z</time>
      </trkpt>
      <trkpt lat="41.606805" lon="1.998746">
        <ele>563.80</ele>
        <time>1970-01-01T00:50:58Z</time>
      </trkpt>
      <trkpt lat="41.606809" lon="1.998639">
        <ele>564.20</ele>
        <time>1970-01-01T00:51:00Z</time>
      </trkpt>
      <trkpt lat="41.606815" lon="1.998584">
        <ele>564.40</ele>
        <time>1970-01-01T00:51:01Z</time>
      </trkpt>
      <trkpt lat="41.606825" lon="1.998532">
        <ele>564.60</ele>
        <time>1970-01-01T00:51:02Z</time>
      </trkpt>
      <trkpt lat="41.606841" lon="1.998481">
        <ele>564.80</ele>
        <time>1970-01-01T00:51:03Z</time>
      </trkpt>
      <trkpt lat="41.606865" lon="1.998438">
        <ele>564.80</ele>
        <time>1970-01-01T00:51:04Z</time>
      </trkpt>
      <trkpt lat="41.606896" lon="1.998408">
        <ele>565.00</ele>
        <time>1970-01-01T00:51:05Z</time>
      </trkpt>
      <trkpt lat="41.606930" lon="1.998398">
        <ele>565.20</ele>
        <time>1970-01-01T00:51:06Z</time>
      </trkpt>
      <trkpt lat="41.606995" lon="1.998429">
        <ele>565.20</ele>
        <time>1970-01-01T00:51:08Z</time>
      </trkpt>
      <trkpt lat="41.607024" lon="1.998449">
        <ele>565.40</ele>
        <time>1970-01-01T00:51:09Z</time>
      </trkpt>
      <trkpt lat="41.607053" lon="1.998470">
        <ele>565.40</ele>
        <time>1970-01-01T00:51:10Z</time>
      </trkpt>
      <trkpt lat="41.607130" lon="1.998525">
        <ele>565.40</ele>
        <time>1970-01-01T00:51:12Z</time>
      </trkpt>
      <trkpt lat="41.607217" lon="1.998574">
        <ele>565.40</ele>
        <time>1970-01-01T00:51:14Z</time>
      </trkpt>
      <trkpt lat="41.607293" lon="1.998572">
        <ele>565.40</ele>
        <time>1970-01-01T00:51:16Z</time>
      </trkpt>
      <trkpt lat="41.607323" lon="1.998497">
        <ele>565.40</ele>
        <time>1970-01-01T00:51:18Z</time>
      </trkpt>
      <trkpt lat="41.607321" lon="1.998447">
        <ele>565.40</ele>
        <time>1970-01-01T00:51:19Z</time>
      </trkpt>
      <trkpt lat="41.607310" lon="1.998392">
        <ele>565.40</ele>
        <time>1970-01-01T00:51:20Z</time>
      </trkpt>
      <trkpt lat="41.607297" lon="1.998331">
        <ele>565.40</ele>
        <time>1970-01-01T00:51:21Z</time>
      </trkpt>
      <trkpt lat="41.607289" lon="1.998267">
        <ele>565.20</ele>
        <time>1970-01-01T00:51:22Z</time>
      </trkpt>
      <trkpt lat="41.607287" lon="1.998196">
        <ele>565.20</ele>
        <time>1970-01-01T00:51:23Z</time>
      </trkpt>
      <trkpt lat="41.607294" lon="1.998118">
        <ele>564.60</ele>
        <time>1970-01-01T00:51:24Z</time>
      </trkpt>
      <trkpt lat="41.607330" lon="1.997954">
        <ele>563.80</ele>
        <time>1970-01-01T00:51:26Z</time>
      </trkpt>
      <trkpt lat="41.607352" lon="1.997864">
        <ele>563.60</ele>
        <time>1970-01-01T00:51:27Z</time>
      </trkpt>
      <trkpt lat="41.607371" lon="1.997769">
        <ele>563.40</ele>
        <time>1970-01-01T00:51:28Z</time>
      </trkpt>
      <trkpt lat="41.607375" lon="1.997571">
        <ele>562.80</ele>
        <time>1970-01-01T00:51:30Z</time>
      </trkpt>
      <trkpt lat="41.607360" lon="1.997473">
        <ele>562.00</ele>
        <time>1970-01-01T00:51:31Z</time>
      </trkpt>
      <trkpt lat="41.607343" lon="1.997377">
        <ele>561.20</ele>
        <time>1970-01-01T00:51:32Z</time>
      </trkpt>
      <trkpt lat="41.607330" lon="1.997275">
        <ele>560.60</ele>
        <time>1970-01-01T00:51:33Z</time>
      </trkpt>
      <trkpt lat="41.607323" lon="1.997170">
        <ele>560.20</ele>
        <time>1970-01-01T00:51:34Z</time>
      </trkpt>
      <trkpt lat="41.607318" lon="1.997067">
        <ele>559.80</ele>
        <time>1970-01-01T00:51:35Z</time>
      </trkpt>
      <trkpt lat="41.607312" lon="1.996965">
        <ele>559.40</ele>
        <time>1970-01-01T00:51:36Z</time>
      </trkpt>
      <trkpt lat="41.607310" lon="1.996868">
        <ele>559.20</ele>
        <time>1970-01-01T00:51:37Z</time>
      </trkpt>
      <trkpt lat="41.607316" lon="1.996777">
        <ele>559.00</ele>
        <time>1970-01-01T00:51:38Z</time>
      </trkpt>
      <trkpt lat="41.607356" lon="1.996614">
        <ele>558.60</ele>
        <time>1970-01-01T00:51:40Z</time>
      </trkpt>
      <trkpt lat="41.607398" lon="1.996540">
        <ele>558.00</ele>
        <time>1970-01-01T00:51:41Z</time>
      </trkpt>
      <trkpt lat="41.607457" lon="1.996472">
        <ele>557.60</ele>
        <time>1970-01-01T00:51:42Z</time>
      </trkpt>
      <trkpt lat="41.607523" lon="1.996408">
        <ele>557.40</ele>
        <time>1970-01-01T00:51:43Z</time>
      </trkpt>
      <trkpt lat="41.607594" lon="1.996357">
        <ele>557.00</ele>
        <time>1970-01-01T00:51:44Z</time>
      </trkpt>
      <trkpt lat="41.607670" lon="1.996316">
        <ele>556.60</ele>
        <time>1970-01-01T00:51:45Z</time>
      </trkpt>
      <trkpt lat="41.607746" lon="1.996287">
        <ele>556.20</ele>
        <time>1970-01-01T00:51:46Z</time>
      </trkpt>
      <trkpt lat="41.607892" lon="1.996248">
        <ele>555.20</ele>
        <time>1970-01-01T00:51:48Z</time>
      </trkpt>
      <trkpt lat="41.608015" lon="1.996218">
        <ele>554.20</ele>
        <time>1970-01-01T00:51:50Z</time>
      </trkpt>
      <trkpt lat="41.608066" lon="1.996206">
        <ele>553.80</ele>
        <time>1970-01-01T00:51:51Z</time>
      </trkpt>
      <trkpt lat="41.608108" lon="1.996197">
        <ele>553.60</ele>
        <time>1970-01-01T00:51:52Z</time>
      </trkpt>
      <trkpt lat="41.608174" lon="1.996182">
        <ele>553.40</ele>
        <time>1970-01-01T00:51:54Z</time>
      </trkpt>
      <trkpt lat="41.608231" lon="1.996188">
        <ele>553.40</ele>
        <time>1970-01-01T00:51:56Z</time>
      </trkpt>
      <trkpt lat="41.608284" lon="1.996207">
        <ele>553.40</ele>
        <time>1970-01-01T00:51:58Z</time>
      </trkpt>
      <trkpt lat="41.608335" lon="1.996224">
        <ele>553.40</ele>
        <time>1970-01-01T00:52:00Z</time>
      </trkpt>
      <trkpt lat="41.608387" lon="1.996249">
        <ele>553.80</ele>
        <time>1970-01-01T00:52:02Z</time>
      </trkpt>
      <trkpt lat="41.608444" lon="1.996273">
        <ele>554.60</ele>
        <time>1970-01-01T00:52:04Z</time>
      </trkpt>
      <trkpt lat="41.608475" lon="1.996281">
        <ele>555.00</ele>
        <time>1970-01-01T00:52:05Z</time>
      </trkpt>
      <trkpt lat="41.608507" lon="1.996286">
        <ele>555.40</ele>
        <time>1970-01-01T00:52:06Z</time>
      </trkpt>
      <trkpt lat="41.608574" lon="1.996300">
        <ele>556.20</ele>
        <time>1970-01-01T00:52:08Z</time>
      </trkpt>
      <trkpt lat="41.608637" lon="1.996327">
        <ele>557.20</ele>
        <time>1970-01-01T00:52:10Z</time>
      </trkpt>
      <trkpt lat="41.608668" lon="1.996347">
        <ele>557.40</ele>
        <time>1970-01-01T00:52:11Z</time>
      </trkpt>
      <trkpt lat="41.608698" lon="1.996370">
        <ele>557.60</ele>
        <time>1970-01-01T00:52:12Z</time>
      </trkpt>
      <trkpt lat="41.608757" lon="1.996409">
        <ele>557.80</ele>
        <time>1970-01-01T00:52:14Z</time>
      </trkpt>
      <trkpt lat="41.608820" lon="1.996422">
        <ele>558.20</ele>
        <time>1970-01-01T00:52:16Z</time>
      </trkpt>
      <trkpt lat="41.608848" lon="1.996411">
        <ele>558.40</ele>
        <time>1970-01-01T00:52:17Z</time>
      </trkpt>
      <trkpt lat="41.608874" lon="1.996393">
        <ele>558.40</ele>
        <time>1970-01-01T00:52:18Z</time>
      </trkpt>
      <trkpt lat="41.608920" lon="1.996342">
        <ele>558.80</ele>
        <time>1970-01-01T00:52:20Z</time>
      </trkpt>
      <trkpt lat="41.608941" lon="1.996311">
        <ele>559.00</ele>
        <time>1970-01-01T00:52:21Z</time>
      </trkpt>
      <trkpt lat="41.608961" lon="1.996276">
        <ele>559.00</ele>
        <time>1970-01-01T00:52:22Z</time>
      </trkpt>
      <trkpt lat="41.608997" lon="1.996208">
        <ele>559.20</ele>
        <time>1970-01-01T00:52:24Z</time>
      </trkpt>
      <trkpt lat="41.609024" lon="1.996134">
        <ele>559.40</ele>
        <time>1970-01-01T00:52:26Z</time>
      </trkpt>
      <trkpt lat="41.609038" lon="1.996059">
        <ele>560.00</ele>
        <time>1970-01-01T00:52:28Z</time>
      </trkpt>
      <trkpt lat="41.609049" lon="1.995980">
        <ele>560.40</ele>
        <time>1970-01-01T00:52:30Z</time>
      </trkpt>
      <trkpt lat="41.609064" lon="1.995904">
        <ele>561.00</ele>
        <time>1970-01-01T00:52:32Z</time>
      </trkpt>
      <trkpt lat="41.609072" lon="1.995868">
        <ele>561.00</ele>
        <time>1970-01-01T00:52:33Z</time>
      </trkpt>
      <trkpt lat="41.609081" lon="1.995833">
        <ele>561.20</ele>
        <time>1970-01-01T00:52:34Z</time>
      </trkpt>
      <trkpt lat="41.609104" lon="1.995767">
        <ele>561.60</ele>
        <time>1970-01-01T00:52:36Z</time>
      </trkpt>
      <trkpt lat="41.609128" lon="1.995712">
        <ele>562.60</ele>
        <time>1970-01-01T00:52:38Z</time>
      </trkpt>
      <trkpt lat="41.609138" lon="1.995684">
        <ele>562.80</ele>
        <time>1970-01-01T00:52:39Z</time>
      </trkpt>
      <trkpt lat="41.609148" lon="1.995657">
        <ele>563.00</ele>
        <time>1970-01-01T00:52:40Z</time>
      </trkpt>
      <trkpt lat="41.609173" lon="1.995601">
        <ele>563.60</ele>
        <time>1970-01-01T00:52:42Z</time>
      </trkpt>
      <trkpt lat="41.609191" lon="1.995571">
        <ele>563.80</ele>
        <time>1970-01-01T00:52:43Z</time>
      </trkpt>
      <trkpt lat="41.609210" lon="1.995544">
        <ele>564.00</ele>
        <time>1970-01-01T00:52:44Z</time>
      </trkpt>
      <trkpt lat="41.609252" lon="1.995497">
        <ele>564.60</ele>
        <time>1970-01-01T00:52:46Z</time>
      </trkpt>
      <trkpt lat="41.609273" lon="1.995475">
        <ele>565.00</ele>
        <time>1970-01-01T00:52:47Z</time>
      </trkpt>
      <trkpt lat="41.609296" lon="1.995454">
        <ele>565.20</ele>
        <time>1970-01-01T00:52:48Z</time>
      </trkpt>
      <trkpt lat="41.609347" lon="1.995416">
        <ele>566.00</ele>
        <time>1970-01-01T00:52:50Z</time>
      </trkpt>
      <trkpt lat="41.609375" lon="1.995398">
        <ele>566.20</ele>
        <time>1970-01-01T00:52:51Z</time>
      </trkpt>
      <trkpt lat="41.609403" lon="1.995381">
        <ele>566.40</ele>
        <time>1970-01-01T00:52:52Z</time>
      </trkpt>
      <trkpt lat="41.609460" lon="1.995344">
        <ele>567.00</ele>
        <time>1970-01-01T00:52:54Z</time>
      </trkpt>
      <trkpt lat="41.609489" lon="1.995324">
        <ele>567.40</ele>
        <time>1970-01-01T00:52:55Z</time>
      </trkpt>
      <trkpt lat="41.609517" lon="1.995303">
        <ele>567.60</ele>
        <time>1970-01-01T00:52:56Z</time>
      </trkpt>
      <trkpt lat="41.609570" lon="1.995257">
        <ele>568.00</ele>
        <time>1970-01-01T00:52:58Z</time>
      </trkpt>
      <trkpt lat="41.609619" lon="1.995220">
        <ele>568.40</ele>
        <time>1970-01-01T00:53:00Z</time>
      </trkpt>
      <trkpt lat="41.609641" lon="1.995200">
        <ele>568.60</ele>
        <time>1970-01-01T00:53:01Z</time>
      </trkpt>
      <trkpt lat="41.609665" lon="1.995180">
        <ele>568.60</ele>
        <time>1970-01-01T00:53:02Z</time>
      </trkpt>
      <trkpt lat="41.609712" lon="1.995138">
        <ele>568.80</ele>
        <time>1970-01-01T00:53:04Z</time>
      </trkpt>
      <trkpt lat="41.609760" lon="1.995103">
        <ele>569.20</ele>
        <time>1970-01-01T00:53:06Z</time>
      </trkpt>
      <trkpt lat="41.609816" lon="1.995072">
        <ele>569.40</ele>
        <time>1970-01-01T00:53:08Z</time>
      </trkpt>
      <trkpt lat="41.609846" lon="1.995054">
        <ele>569.80</ele>
        <time>1970-01-01T00:53:09Z</time>
      </trkpt>
      <trkpt lat="41.609878" lon="1.995037">
        <ele>570.00</ele>
        <time>1970-01-01T00:53:10Z</time>
      </trkpt>
      <trkpt lat="41.609943" lon="1.995003">
        <ele>570.40</ele>
        <time>1970-01-01T00:53:12Z</time>
      </trkpt>
      <trkpt lat="41.610012" lon="1.994982">
        <ele>570.60</ele>
        <time>1970-01-01T00:53:14Z</time>
      </trkpt>
      <trkpt lat="41.610048" lon="1.994981">
        <ele>570.80</ele>
        <time>1970-01-01T00:53:15Z</time>
      </trkpt>
      <trkpt lat="41.610082" lon="1.994982">
        <ele>571.00</ele>
        <time>1970-01-01T00:53:16Z</time>
      </trkpt>
      <trkpt lat="41.610146" lon="1.994992">
        <ele>571.00</ele>
        <time>1970-01-01T00:53:18Z</time>
      </trkpt>
      <trkpt lat="41.610204" lon="1.994995">
        <ele>571.20</ele>
        <time>1970-01-01T00:53:20Z</time>
      </trkpt>
      <trkpt lat="41.610229" lon="1.994996">
        <ele>571.20</ele>
        <time>1970-01-01T00:53:21Z</time>
      </trkpt>
      <trkpt lat="41.610251" lon="1.994992">
        <ele>571.20</ele>
        <time>1970-01-01T00:53:22Z</time>
      </trkpt>
      <trkpt lat="41.610298" lon="1.994966">
        <ele>571.40</ele>
        <time>1970-01-01T00:53:24Z</time>
      </trkpt>
      <trkpt lat="41.610335" lon="1.994910">
        <ele>571.60</ele>
        <time>1970-01-01T00:53:26Z</time>
      </trkpt>
      <trkpt lat="41.610349" lon="1.994838">
        <ele>572.00</ele>
        <time>1970-01-01T00:53:28Z</time>
      </trkpt>
      <trkpt lat="41.610337" lon="1.994766">
        <ele>572.40</ele>
        <time>1970-01-01T00:53:30Z</time>
      </trkpt>
      <trkpt lat="41.610327" lon="1.994735">
        <ele>572.80</ele>
        <time>1970-01-01T00:53:31Z</time>
      </trkpt>
      <trkpt lat="41.610317" lon="1.994700">
        <ele>573.00</ele>
        <time>1970-01-01T00:53:32Z</time>
      </trkpt>
      <trkpt lat="41.610302" lon="1.994623">
        <ele>574.00</ele>
        <time>1970-01-01T00:53:34Z</time>
      </trkpt>
      <trkpt lat="41.610297" lon="1.994584">
        <ele>574.20</ele>
        <time>1970-01-01T00:53:35Z</time>
      </trkpt>
      <trkpt lat="41.610292" lon="1.994543">
        <ele>574.40</ele>
        <time>1970-01-01T00:53:36Z</time>
      </trkpt>
      <trkpt lat="41.610290" lon="1.994503">
        <ele>574.80</ele>
        <time>1970-01-01T00:53:37Z</time>
      </trkpt>
      <trkpt lat="41.610293" lon="1.994462">
        <ele>575.00</ele>
        <time>1970-01-01T00:53:38Z</time>
      </trkpt>
      <trkpt lat="41.610302" lon="1.994419">
        <ele>575.20</ele>
        <time>1970-01-01T00:53:39Z</time>
      </trkpt>
      <trkpt lat="41.610318" lon="1.994375">
        <ele>575.60</ele>
        <time>1970-01-01T00:53:40Z</time>
      </trkpt>
      <trkpt lat="41.610339" lon="1.994335">
        <ele>576.00</ele>
        <time>1970-01-01T00:53:41Z</time>
      </trkpt>
      <trkpt lat="41.610365" lon="1.994298">
        <ele>576.20</ele>
        <time>1970-01-01T00:53:42Z</time>
      </trkpt>
      <trkpt lat="41.610426" lon="1.994219">
        <ele>576.20</ele>
        <time>1970-01-01T00:53:44Z</time>
      </trkpt>
      <trkpt lat="41.610500" lon="1.994135">
        <ele>576.20</ele>
        <time>1970-01-01T00:53:46Z</time>
      </trkpt>
      <trkpt lat="41.610573" lon="1.994033">
        <ele>576.40</ele>
        <time>1970-01-01T00:53:48Z</time>
      </trkpt>
      <trkpt lat="41.610602" lon="1.993911">
        <ele>576.40</ele>
        <time>1970-01-01T00:53:50Z</time>
      </trkpt>
      <trkpt lat="41.610571" lon="1.993813">
        <ele>576.40</ele>
        <time>1970-01-01T00:53:52Z</time>
      </trkpt>
      <trkpt lat="41.610547" lon="1.993794">
        <ele>576.40</ele>
        <time>1970-01-01T00:53:53Z</time>
      </trkpt>
      <trkpt lat="41.610519" lon="1.993795">
        <ele>576.20</ele>
        <time>1970-01-01T00:53:54Z</time>
      </trkpt>
      <trkpt lat="41.610462" lon="1.993786">
        <ele>575.80</ele>
        <time>1970-01-01T00:53:56Z</time>
      </trkpt>
      <trkpt lat="41.610428" lon="1.993780">
        <ele>575.80</ele>
        <time>1970-01-01T00:53:57Z</time>
      </trkpt>
      <trkpt lat="41.610389" lon="1.993770">
        <ele>575.60</ele>
        <time>1970-01-01T00:53:58Z</time>
      </trkpt>
      <trkpt lat="41.610346" lon="1.993753">
        <ele>575.60</ele>
        <time>1970-01-01T00:53:59Z</time>
      </trkpt>
      <trkpt lat="41.610302" lon="1.993729">
        <ele>575.60</ele>
        <time>1970-01-01T00:54:00Z</time>
      </trkpt>
      <trkpt lat="41.610262" lon="1.993702">
        <ele>575.40</ele>
        <time>1970-01-01T00:54:01Z</time>
      </trkpt>
      <trkpt lat="41.610226" lon="1.993669">
        <ele>575.20</ele>
        <time>1970-01-01T00:54:02Z</time>
      </trkpt>
      <trkpt lat="41.610163" lon="1.993587">
        <ele>575.20</ele>
        <time>1970-01-01T00:54:04Z</time>
      </trkpt>
      <trkpt lat="41.610134" lon="1.993543">
        <ele>575.20</ele>
        <time>1970-01-01T00:54:05Z</time>
      </trkpt>
      <trkpt lat="41.610108" lon="1.993507">
        <ele>575.20</ele>
        <time>1970-01-01T00:54:06Z</time>
      </trkpt>
      <trkpt lat="41.610077" lon="1.993484">
        <ele>575.20</ele>
        <time>1970-01-01T00:54:07Z</time>
      </trkpt>
      <trkpt lat="41.610045" lon="1.993484">
        <ele>575.20</ele>
        <time>1970-01-01T00:54:08Z</time>
      </trkpt>
      <trkpt lat="41.610019" lon="1.993501">
        <ele>575.20</ele>
        <time>1970-01-01T00:54:09Z</time>
      </trkpt>
      <trkpt lat="41.609993" lon="1.993531">
        <ele>575.20</ele>
        <time>1970-01-01T00:54:10Z</time>
      </trkpt>
      <trkpt lat="41.609968" lon="1.993572">
        <ele>575.20</ele>
        <time>1970-01-01T00:54:11Z</time>
      </trkpt>
      <trkpt lat="41.609940" lon="1.993616">
        <ele>575.20</ele>
        <time>1970-01-01T00:54:12Z</time>
      </trkpt>
      <trkpt lat="41.609912" lon="1.993668">
        <ele>575.00</ele>
        <time>1970-01-01T00:54:13Z</time>
      </trkpt>
      <trkpt lat="41.609879" lon="1.993720">
        <ele>575.00</ele>
        <time>1970-01-01T00:54:14Z</time>
      </trkpt>
      <trkpt lat="41.609841" lon="1.993769">
        <ele>575.00</ele>
        <time>1970-01-01T00:54:15Z</time>
      </trkpt>
      <trkpt lat="41.609800" lon="1.993807">
        <ele>574.80</ele>
        <time>1970-01-01T00:54:16Z</time>
      </trkpt>
      <trkpt lat="41.609755" lon="1.993827">
        <ele>574.80</ele>
        <time>1970-01-01T00:54:17Z</time>
      </trkpt>
      <trkpt lat="41.609708" lon="1.993825">
        <ele>574.60</ele>
        <time>1970-01-01T00:54:18Z</time>
      </trkpt>
      <trkpt lat="41.609601" lon="1.993790">
        <ele>574.60</ele>
        <time>1970-01-01T00:54:20Z</time>
      </trkpt>
      <trkpt lat="41.609472" lon="1.993763">
        <ele>574.00</ele>
        <time>1970-01-01T00:54:22Z</time>
      </trkpt>
      <trkpt lat="41.609402" lon="1.993747">
        <ele>573.80</ele>
        <time>1970-01-01T00:54:23Z</time>
      </trkpt>
      <trkpt lat="41.609331" lon="1.993730">
        <ele>573.40</ele>
        <time>1970-01-01T00:54:24Z</time>
      </trkpt>
      <trkpt lat="41.609255" lon="1.993710">
        <ele>573.00</ele>
        <time>1970-01-01T00:54:25Z</time>
      </trkpt>
      <trkpt lat="41.609175" lon="1.993686">
        <ele>572.40</ele>
        <time>1970-01-01T00:54:26Z</time>
      </trkpt>
      <trkpt lat="41.609014" lon="1.993647">
        <ele>570.80</ele>
        <time>1970-01-01T00:54:28Z</time>
      </trkpt>
      <trkpt lat="41.608879" lon="1.993622">
        <ele>570.20</ele>
        <time>1970-01-01T00:54:30Z</time>
      </trkpt>
      <trkpt lat="41.608816" lon="1.993608">
        <ele>569.80</ele>
        <time>1970-01-01T00:54:31Z</time>
      </trkpt>
      <trkpt lat="41.608755" lon="1.993593">
        <ele>569.20</ele>
        <time>1970-01-01T00:54:32Z</time>
      </trkpt>
      <trkpt lat="41.608695" lon="1.993578">
        <ele>568.40</ele>
        <time>1970-01-01T00:54:33Z</time>
      </trkpt>
      <trkpt lat="41.608641" lon="1.993563">
        <ele>568.20</ele>
        <time>1970-01-01T00:54:34Z</time>
      </trkpt>
      <trkpt lat="41.608590" lon="1.993544">
        <ele>568.00</ele>
        <time>1970-01-01T00:54:35Z</time>
      </trkpt>
      <trkpt lat="41.608543" lon="1.993525">
        <ele>567.80</ele>
        <time>1970-01-01T00:54:36Z</time>
      </trkpt>
      <trkpt lat="41.608500" lon="1.993509">
        <ele>567.80</ele>
        <time>1970-01-01T00:54:37Z</time>
      </trkpt>
      <trkpt lat="41.608462" lon="1.993493">
        <ele>567.80</ele>
        <time>1970-01-01T00:54:38Z</time>
      </trkpt>
      <trkpt lat="41.608385" lon="1.993467">
        <ele>567.80</ele>
        <time>1970-01-01T00:54:40Z</time>
      </trkpt>
      <trkpt lat="41.608301" lon="1.993442">
        <ele>567.80</ele>
        <time>1970-01-01T00:54:42Z</time>
      </trkpt>
      <trkpt lat="41.608257" lon="1.993426">
        <ele>568.00</ele>
        <time>1970-01-01T00:54:43Z</time>
      </trkpt>
      <trkpt lat="41.608211" lon="1.993409">
        <ele>568.20</ele>
        <time>1970-01-01T00:54:44Z</time>
      </trkpt>
      <trkpt lat="41.608045" lon="1.993326">
        <ele>569.00</ele>
        <time>1970-01-01T00:54:47Z</time>
      </trkpt>
      <trkpt lat="41.607975" lon="1.993278">
        <ele>569.40</ele>
        <time>1970-01-01T00:54:50Z</time>
      </trkpt>
      <trkpt lat="41.607942" lon="1.993255">
        <ele>569.60</ele>
        <time>1970-01-01T00:54:51Z</time>
      </trkpt>
      <trkpt lat="41.607912" lon="1.993232">
        <ele>569.80</ele>
        <time>1970-01-01T00:54:52Z</time>
      </trkpt>
      <trkpt lat="41.607864" lon="1.993191">
        <ele>570.00</ele>
        <time>1970-01-01T00:54:54Z</time>
      </trkpt>
      <trkpt lat="41.607831" lon="1.993147">
        <ele>570.20</ele>
        <time>1970-01-01T00:54:56Z</time>
      </trkpt>
      <trkpt lat="41.607806" lon="1.993111">
        <ele>570.40</ele>
        <time>1970-01-01T00:54:58Z</time>
      </trkpt>
      <trkpt lat="41.607786" lon="1.993077">
        <ele>570.60</ele>
        <time>1970-01-01T00:55:00Z</time>
      </trkpt>
      <trkpt lat="41.607766" lon="1.993014">
        <ele>570.80</ele>
        <time>1970-01-01T00:55:02Z</time>
      </trkpt>
      <trkpt lat="41.607782" lon="1.992913">
        <ele>571.00</ele>
        <time>1970-01-01T00:55:04Z</time>
      </trkpt>
      <trkpt lat="41.607801" lon="1.992855">
        <ele>571.00</ele>
        <time>1970-01-01T00:55:05Z</time>
      </trkpt>
      <trkpt lat="41.607829" lon="1.992796">
        <ele>571.20</ele>
        <time>1970-01-01T00:55:06Z</time>
      </trkpt>
      <trkpt lat="41.607861" lon="1.992737">
        <ele>571.20</ele>
        <time>1970-01-01T00:55:07Z</time>
      </trkpt>
      <trkpt lat="41.607892" lon="1.992677">
        <ele>571.20</ele>
        <time>1970-01-01T00:55:08Z</time>
      </trkpt>
      <trkpt lat="41.607961" lon="1.992544">
        <ele>571.20</ele>
        <time>1970-01-01T00:55:10Z</time>
      </trkpt>
      <trkpt lat="41.608030" lon="1.992405">
        <ele>571.00</ele>
        <time>1970-01-01T00:55:12Z</time>
      </trkpt>
      <trkpt lat="41.608098" lon="1.992284">
        <ele>570.40</ele>
        <time>1970-01-01T00:55:14Z</time>
      </trkpt>
      <trkpt lat="41.608120" lon="1.992243">
        <ele>570.20</ele>
        <time>1970-01-01T00:55:15Z</time>
      </trkpt>
      <trkpt lat="41.608123" lon="1.992222">
        <ele>569.80</ele>
        <time>1970-01-01T00:55:16Z</time>
      </trkpt>
      <trkpt lat="41.608125" lon="1.992215">
        <ele>569.40</ele>
        <time>1970-01-01T00:55:18Z</time>
      </trkpt>
      <trkpt lat="41.608189" lon="1.992175">
        <ele>566.80</ele>
        <time>1970-01-01T00:55:26Z</time>
      </trkpt>
      <trkpt lat="41.608213" lon="1.992149">
        <ele>566.60</ele>
        <time>1970-01-01T00:55:27Z</time>
      </trkpt>
      <trkpt lat="41.608240" lon="1.992122">
        <ele>566.60</ele>
        <time>1970-01-01T00:55:28Z</time>
      </trkpt>
      <trkpt lat="41.608294" lon="1.992060">
        <ele>566.60</ele>
        <time>1970-01-01T00:55:30Z</time>
      </trkpt>
      <trkpt lat="41.608319" lon="1.992028">
        <ele>566.40</ele>
        <time>1970-01-01T00:55:32Z</time>
      </trkpt>
      <trkpt lat="41.608329" lon="1.992028">
        <ele>566.40</ele>
        <time>1970-01-01T00:55:33Z</time>
      </trkpt>
      <trkpt lat="41.608338" lon="1.992027">
        <ele>566.40</ele>
        <time>1970-01-01T00:55:34Z</time>
      </trkpt>
      <trkpt lat="41.608344" lon="1.992026">
        <ele>566.40</ele>
        <time>1970-01-01T00:55:36Z</time>
      </trkpt>
      <trkpt lat="41.608386" lon="1.991964">
        <ele>565.80</ele>
        <time>1970-01-01T00:55:57Z</time>
      </trkpt>
      <trkpt lat="41.608394" lon="1.991927">
        <ele>565.80</ele>
        <time>1970-01-01T00:55:58Z</time>
      </trkpt>
      <trkpt lat="41.608395" lon="1.991879">
        <ele>565.80</ele>
        <time>1970-01-01T00:55:59Z</time>
      </trkpt>
      <trkpt lat="41.608389" lon="1.991823">
        <ele>565.80</ele>
        <time>1970-01-01T00:56:00Z</time>
      </trkpt>
      <trkpt lat="41.608364" lon="1.991705">
        <ele>565.80</ele>
        <time>1970-01-01T00:56:02Z</time>
      </trkpt>
      <trkpt lat="41.608347" lon="1.991639">
        <ele>565.60</ele>
        <time>1970-01-01T00:56:03Z</time>
      </trkpt>
      <trkpt lat="41.608330" lon="1.991571">
        <ele>565.60</ele>
        <time>1970-01-01T00:56:04Z</time>
      </trkpt>
      <trkpt lat="41.608318" lon="1.991497">
        <ele>565.60</ele>
        <time>1970-01-01T00:56:05Z</time>
      </trkpt>
      <trkpt lat="41.608309" lon="1.991430">
        <ele>565.60</ele>
        <time>1970-01-01T00:56:06Z</time>
      </trkpt>
      <trkpt lat="41.608302" lon="1.991285">
        <ele>565.40</ele>
        <time>1970-01-01T00:56:08Z</time>
      </trkpt>
      <trkpt lat="41.608300" lon="1.991207">
        <ele>565.20</ele>
        <time>1970-01-01T00:56:09Z</time>
      </trkpt>
      <trkpt lat="41.608297" lon="1.991130">
        <ele>565.00</ele>
        <time>1970-01-01T00:56:10Z</time>
      </trkpt>
      <trkpt lat="41.608293" lon="1.990980">
        <ele>564.60</ele>
        <time>1970-01-01T00:56:12Z</time>
      </trkpt>
      <trkpt lat="41.608307" lon="1.990827">
        <ele>564.20</ele>
        <time>1970-01-01T00:56:14Z</time>
      </trkpt>
      <trkpt lat="41.608362" lon="1.990726">
        <ele>563.80</ele>
        <time>1970-01-01T00:56:16Z</time>
      </trkpt>
      <trkpt lat="41.608395" lon="1.990708">
        <ele>563.60</ele>
        <time>1970-01-01T00:56:17Z</time>
      </trkpt>
      <trkpt lat="41.608424" lon="1.990700">
        <ele>563.40</ele>
        <time>1970-01-01T00:56:18Z</time>
      </trkpt>
      <trkpt lat="41.608455" lon="1.990695">
        <ele>563.40</ele>
        <time>1970-01-01T00:56:19Z</time>
      </trkpt>
      <trkpt lat="41.608485" lon="1.990690">
        <ele>563.40</ele>
        <time>1970-01-01T00:56:20Z</time>
      </trkpt>
      <trkpt lat="41.608543" lon="1.990680">
        <ele>563.40</ele>
        <time>1970-01-01T00:56:22Z</time>
      </trkpt>
      <trkpt lat="41.608594" lon="1.990673">
        <ele>563.40</ele>
        <time>1970-01-01T00:56:24Z</time>
      </trkpt>
      <trkpt lat="41.608644" lon="1.990669">
        <ele>563.40</ele>
        <time>1970-01-01T00:56:26Z</time>
      </trkpt>
      <trkpt lat="41.608698" lon="1.990661">
        <ele>563.80</ele>
        <time>1970-01-01T00:56:28Z</time>
      </trkpt>
      <trkpt lat="41.608742" lon="1.990641">
        <ele>565.00</ele>
        <time>1970-01-01T00:56:30Z</time>
      </trkpt>
      <trkpt lat="41.608760" lon="1.990638">
        <ele>565.40</ele>
        <time>1970-01-01T00:56:31Z</time>
      </trkpt>
      <trkpt lat="41.608783" lon="1.990636">
        <ele>566.00</ele>
        <time>1970-01-01T00:56:32Z</time>
      </trkpt>
      <trkpt lat="41.608810" lon="1.990633">
        <ele>566.60</ele>
        <time>1970-01-01T00:56:33Z</time>
      </trkpt>
      <trkpt lat="41.608836" lon="1.990626">
        <ele>567.00</ele>
        <time>1970-01-01T00:56:34Z</time>
      </trkpt>
      <trkpt lat="41.608885" lon="1.990614">
        <ele>568.00</ele>
        <time>1970-01-01T00:56:36Z</time>
      </trkpt>
      <trkpt lat="41.608925" lon="1.990602">
        <ele>569.00</ele>
        <time>1970-01-01T00:56:38Z</time>
      </trkpt>
      <trkpt lat="41.608941" lon="1.990594">
        <ele>569.40</ele>
        <time>1970-01-01T00:56:39Z</time>
      </trkpt>
      <trkpt lat="41.608959" lon="1.990587">
        <ele>569.80</ele>
        <time>1970-01-01T00:56:40Z</time>
      </trkpt>
      <trkpt lat="41.608974" lon="1.990574">
        <ele>570.20</ele>
        <time>1970-01-01T00:56:41Z</time>
      </trkpt>
      <trkpt lat="41.608983" lon="1.990551">
        <ele>570.40</ele>
        <time>1970-01-01T00:56:42Z</time>
      </trkpt>
      <trkpt lat="41.608982" lon="1.990524">
        <ele>571.00</ele>
        <time>1970-01-01T00:56:43Z</time>
      </trkpt>
      <trkpt lat="41.608972" lon="1.990494">
        <ele>571.40</ele>
        <time>1970-01-01T00:56:44Z</time>
      </trkpt>
      <trkpt lat="41.608955" lon="1.990468">
        <ele>571.80</ele>
        <time>1970-01-01T00:56:45Z</time>
      </trkpt>
      <trkpt lat="41.608934" lon="1.990444">
        <ele>571.80</ele>
        <time>1970-01-01T00:56:46Z</time>
      </trkpt>
      <trkpt lat="41.608911" lon="1.990427">
        <ele>572.00</ele>
        <time>1970-01-01T00:56:47Z</time>
      </trkpt>
      <trkpt lat="41.608887" lon="1.990410">
        <ele>572.00</ele>
        <time>1970-01-01T00:56:48Z</time>
      </trkpt>
      <trkpt lat="41.608866" lon="1.990394">
        <ele>572.20</ele>
        <time>1970-01-01T00:56:49Z</time>
      </trkpt>
      <trkpt lat="41.608848" lon="1.990374">
        <ele>572.20</ele>
        <time>1970-01-01T00:56:50Z</time>
      </trkpt>
      <trkpt lat="41.608807" lon="1.990335">
        <ele>572.20</ele>
        <time>1970-01-01T00:56:52Z</time>
      </trkpt>
      <trkpt lat="41.608776" lon="1.990311">
        <ele>572.20</ele>
        <time>1970-01-01T00:56:53Z</time>
      </trkpt>
      <trkpt lat="41.608738" lon="1.990287">
        <ele>572.20</ele>
        <time>1970-01-01T00:56:54Z</time>
      </trkpt>
      <trkpt lat="41.608645" lon="1.990244">
        <ele>572.20</ele>
        <time>1970-01-01T00:56:56Z</time>
      </trkpt>
      <trkpt lat="41.608533" lon="1.990203">
        <ele>572.40</ele>
        <time>1970-01-01T00:56:58Z</time>
      </trkpt>
      <trkpt lat="41.608403" lon="1.990166">
        <ele>572.20</ele>
        <time>1970-01-01T00:57:00Z</time>
      </trkpt>
      <trkpt lat="41.608280" lon="1.990125">
        <ele>572.20</ele>
        <time>1970-01-01T00:57:02Z</time>
      </trkpt>
      <trkpt lat="41.608186" lon="1.990086">
        <ele>571.60</ele>
        <time>1970-01-01T00:57:04Z</time>
      </trkpt>
      <trkpt lat="41.608087" lon="1.990052">
        <ele>570.40</ele>
        <time>1970-01-01T00:57:06Z</time>
      </trkpt>
      <trkpt lat="41.608039" lon="1.990050">
        <ele>569.60</ele>
        <time>1970-01-01T00:57:07Z</time>
      </trkpt>
      <trkpt lat="41.607994" lon="1.990049">
        <ele>568.80</ele>
        <time>1970-01-01T00:57:08Z</time>
      </trkpt>
      <trkpt lat="41.607907" lon="1.990067">
        <ele>566.80</ele>
        <time>1970-01-01T00:57:10Z</time>
      </trkpt>
      <trkpt lat="41.607819" lon="1.990114">
        <ele>565.00</ele>
        <time>1970-01-01T00:57:12Z</time>
      </trkpt>
      <trkpt lat="41.607727" lon="1.990141">
        <ele>563.00</ele>
        <time>1970-01-01T00:57:14Z</time>
      </trkpt>
      <trkpt lat="41.607689" lon="1.990133">
        <ele>562.00</ele>
        <time>1970-01-01T00:57:15Z</time>
      </trkpt>
      <trkpt lat="41.607664" lon="1.990107">
        <ele>561.40</ele>
        <time>1970-01-01T00:57:16Z</time>
      </trkpt>
      <trkpt lat="41.607655" lon="1.990062">
        <ele>560.60</ele>
        <time>1970-01-01T00:57:17Z</time>
      </trkpt>
      <trkpt lat="41.607658" lon="1.990010">
        <ele>559.80</ele>
        <time>1970-01-01T00:57:18Z</time>
      </trkpt>
      <trkpt lat="41.607679" lon="1.989883">
        <ele>558.20</ele>
        <time>1970-01-01T00:57:20Z</time>
      </trkpt>
      <trkpt lat="41.607672" lon="1.989740">
        <ele>556.60</ele>
        <time>1970-01-01T00:57:22Z</time>
      </trkpt>
      <trkpt lat="41.607617" lon="1.989597">
        <ele>555.20</ele>
        <time>1970-01-01T00:57:24Z</time>
      </trkpt>
      <trkpt lat="41.607552" lon="1.989460">
        <ele>554.00</ele>
        <time>1970-01-01T00:57:26Z</time>
      </trkpt>
      <trkpt lat="41.607500" lon="1.989345">
        <ele>553.80</ele>
        <time>1970-01-01T00:57:28Z</time>
      </trkpt>
      <trkpt lat="41.607467" lon="1.989314">
        <ele>553.80</ele>
        <time>1970-01-01T00:57:29Z</time>
      </trkpt>
      <trkpt lat="41.607434" lon="1.989315">
        <ele>553.60</ele>
        <time>1970-01-01T00:57:30Z</time>
      </trkpt>
      <trkpt lat="41.607388" lon="1.989350">
        <ele>552.60</ele>
        <time>1970-01-01T00:57:32Z</time>
      </trkpt>
      <trkpt lat="41.607356" lon="1.989379">
        <ele>550.60</ele>
        <time>1970-01-01T00:57:34Z</time>
      </trkpt>
      <trkpt lat="41.607337" lon="1.989397">
        <ele>549.20</ele>
        <time>1970-01-01T00:57:36Z</time>
      </trkpt>
      <trkpt lat="41.607333" lon="1.989397">
        <ele>548.80</ele>
        <time>1970-01-01T00:57:37Z</time>
      </trkpt>
      <trkpt lat="41.607328" lon="1.989403">
        <ele>548.60</ele>
        <time>1970-01-01T00:57:38Z</time>
      </trkpt>
      <trkpt lat="41.607314" lon="1.989407">
        <ele>548.20</ele>
        <time>1970-01-01T00:57:39Z</time>
      </trkpt>
      <trkpt lat="41.607298" lon="1.989417">
        <ele>547.80</ele>
        <time>1970-01-01T00:57:40Z</time>
      </trkpt>
      <trkpt lat="41.607264" lon="1.989451">
        <ele>546.80</ele>
        <time>1970-01-01T00:57:42Z</time>
      </trkpt>
      <trkpt lat="41.607243" lon="1.989473">
        <ele>546.60</ele>
        <time>1970-01-01T00:57:43Z</time>
      </trkpt>
      <trkpt lat="41.607208" lon="1.989495">
        <ele>546.20</ele>
        <time>1970-01-01T00:57:44Z</time>
      </trkpt>
      <trkpt lat="41.607126" lon="1.989553">
        <ele>545.80</ele>
        <time>1970-01-01T00:57:46Z</time>
      </trkpt>
      <trkpt lat="41.607087" lon="1.989591">
        <ele>545.80</ele>
        <time>1970-01-01T00:57:47Z</time>
      </trkpt>
      <trkpt lat="41.607047" lon="1.989625">
        <ele>545.60</ele>
        <time>1970-01-01T00:57:48Z</time>
      </trkpt>
      <trkpt lat="41.606984" lon="1.989692">
        <ele>545.40</ele>
        <time>1970-01-01T00:57:50Z</time>
      </trkpt>
      <trkpt lat="41.606907" lon="1.989741">
        <ele>543.80</ele>
        <time>1970-01-01T00:57:52Z</time>
      </trkpt>
      <trkpt lat="41.606869" lon="1.989774">
        <ele>543.20</ele>
        <time>1970-01-01T00:57:53Z</time>
      </trkpt>
      <trkpt lat="41.606831" lon="1.989808">
        <ele>542.20</ele>
        <time>1970-01-01T00:57:54Z</time>
      </trkpt>
      <trkpt lat="41.606761" lon="1.989871">
        <ele>540.80</ele>
        <time>1970-01-01T00:57:56Z</time>
      </trkpt>
      <trkpt lat="41.606726" lon="1.989898">
        <ele>540.00</ele>
        <time>1970-01-01T00:57:57Z</time>
      </trkpt>
      <trkpt lat="41.606704" lon="1.989925">
        <ele>539.20</ele>
        <time>1970-01-01T00:57:58Z</time>
      </trkpt>
      <trkpt lat="41.606653" lon="1.989981">
        <ele>538.00</ele>
        <time>1970-01-01T00:58:00Z</time>
      </trkpt>
      <trkpt lat="41.606616" lon="1.990013">
        <ele>537.40</ele>
        <time>1970-01-01T00:58:01Z</time>
      </trkpt>
      <trkpt lat="41.606572" lon="1.990050">
        <ele>536.80</ele>
        <time>1970-01-01T00:58:02Z</time>
      </trkpt>
      <trkpt lat="41.606474" lon="1.990124">
        <ele>535.60</ele>
        <time>1970-01-01T00:58:04Z</time>
      </trkpt>
      <trkpt lat="41.606360" lon="1.990225">
        <ele>534.20</ele>
        <time>1970-01-01T00:58:06Z</time>
      </trkpt>
      <trkpt lat="41.606259" lon="1.990316">
        <ele>533.00</ele>
        <time>1970-01-01T00:58:08Z</time>
      </trkpt>
      <trkpt lat="41.606182" lon="1.990370">
        <ele>531.80</ele>
        <time>1970-01-01T00:58:10Z</time>
      </trkpt>
      <trkpt lat="41.606111" lon="1.990437">
        <ele>531.00</ele>
        <time>1970-01-01T00:58:12Z</time>
      </trkpt>
      <trkpt lat="41.606085" lon="1.990464">
        <ele>530.40</ele>
        <time>1970-01-01T00:58:13Z</time>
      </trkpt>
      <trkpt lat="41.606062" lon="1.990486">
        <ele>530.00</ele>
        <time>1970-01-01T00:58:14Z</time>
      </trkpt>
      <trkpt lat="41.606015" lon="1.990526">
        <ele>529.00</ele>
        <time>1970-01-01T00:58:16Z</time>
      </trkpt>
      <trkpt lat="41.605956" lon="1.990561">
        <ele>527.60</ele>
        <time>1970-01-01T00:58:18Z</time>
      </trkpt>
      <trkpt lat="41.605893" lon="1.990646">
        <ele>525.40</ele>
        <time>1970-01-01T00:58:20Z</time>
      </trkpt>
      <trkpt lat="41.605846" lon="1.990715">
        <ele>523.60</ele>
        <time>1970-01-01T00:58:22Z</time>
      </trkpt>
      <trkpt lat="41.605795" lon="1.990787">
        <ele>522.00</ele>
        <time>1970-01-01T00:58:24Z</time>
      </trkpt>
      <trkpt lat="41.605769" lon="1.990815">
        <ele>521.40</ele>
        <time>1970-01-01T00:58:25Z</time>
      </trkpt>
      <trkpt lat="41.605743" lon="1.990844">
        <ele>520.80</ele>
        <time>1970-01-01T00:58:26Z</time>
      </trkpt>
      <trkpt lat="41.605687" lon="1.990914">
        <ele>519.60</ele>
        <time>1970-01-01T00:58:28Z</time>
      </trkpt>
      <trkpt lat="41.605635" lon="1.990985">
        <ele>518.20</ele>
        <time>1970-01-01T00:58:30Z</time>
      </trkpt>
      <trkpt lat="41.605580" lon="1.991055">
        <ele>517.20</ele>
        <time>1970-01-01T00:58:32Z</time>
      </trkpt>
      <trkpt lat="41.605513" lon="1.991141">
        <ele>516.40</ele>
        <time>1970-01-01T00:58:34Z</time>
      </trkpt>
      <trkpt lat="41.605477" lon="1.991187">
        <ele>515.80</ele>
        <time>1970-01-01T00:58:35Z</time>
      </trkpt>
      <trkpt lat="41.605442" lon="1.991228">
        <ele>515.40</ele>
        <time>1970-01-01T00:58:36Z</time>
      </trkpt>
      <trkpt lat="41.605414" lon="1.991263">
        <ele>514.60</ele>
        <time>1970-01-01T00:58:37Z</time>
      </trkpt>
      <trkpt lat="41.605391" lon="1.991288">
        <ele>513.80</ele>
        <time>1970-01-01T00:58:38Z</time>
      </trkpt>
      <trkpt lat="41.605367" lon="1.991302">
        <ele>513.00</ele>
        <time>1970-01-01T00:58:39Z</time>
      </trkpt>
      <trkpt lat="41.605339" lon="1.991316">
        <ele>512.20</ele>
        <time>1970-01-01T00:58:40Z</time>
      </trkpt>
      <trkpt lat="41.605308" lon="1.991335">
        <ele>511.80</ele>
        <time>1970-01-01T00:58:41Z</time>
      </trkpt>
      <trkpt lat="41.605269" lon="1.991351">
        <ele>511.20</ele>
        <time>1970-01-01T00:58:42Z</time>
      </trkpt>
      <trkpt lat="41.605225" lon="1.991361">
        <ele>511.00</ele>
        <time>1970-01-01T00:58:43Z</time>
      </trkpt>
      <trkpt lat="41.605172" lon="1.991367">
        <ele>510.60</ele>
        <time>1970-01-01T00:58:44Z</time>
      </trkpt>
      <trkpt lat="41.605117" lon="1.991375">
        <ele>510.20</ele>
        <time>1970-01-01T00:58:45Z</time>
      </trkpt>
      <trkpt lat="41.605069" lon="1.991395">
        <ele>509.80</ele>
        <time>1970-01-01T00:58:46Z</time>
      </trkpt>
      <trkpt lat="41.605028" lon="1.991426">
        <ele>509.40</ele>
        <time>1970-01-01T00:58:47Z</time>
      </trkpt>
      <trkpt lat="41.604991" lon="1.991462">
        <ele>508.60</ele>
        <time>1970-01-01T00:58:48Z</time>
      </trkpt>
      <trkpt lat="41.604962" lon="1.991487">
        <ele>507.80</ele>
        <time>1970-01-01T00:58:49Z</time>
      </trkpt>
      <trkpt lat="41.604940" lon="1.991497">
        <ele>507.20</ele>
        <time>1970-01-01T00:58:50Z</time>
      </trkpt>
      <trkpt lat="41.604916" lon="1.991497">
        <ele>506.40</ele>
        <time>1970-01-01T00:58:51Z</time>
      </trkpt>
      <trkpt lat="41.604887" lon="1.991494">
        <ele>505.80</ele>
        <time>1970-01-01T00:58:52Z</time>
      </trkpt>
      <trkpt lat="41.604852" lon="1.991496">
        <ele>505.20</ele>
        <time>1970-01-01T00:58:53Z</time>
      </trkpt>
      <trkpt lat="41.604815" lon="1.991500">
        <ele>504.60</ele>
        <time>1970-01-01T00:58:54Z</time>
      </trkpt>
      <trkpt lat="41.604775" lon="1.991506">
        <ele>504.00</ele>
        <time>1970-01-01T00:58:55Z</time>
      </trkpt>
      <trkpt lat="41.604742" lon="1.991514">
        <ele>503.40</ele>
        <time>1970-01-01T00:58:56Z</time>
      </trkpt>
      <trkpt lat="41.604721" lon="1.991520">
        <ele>502.80</ele>
        <time>1970-01-01T00:58:57Z</time>
      </trkpt>
      <trkpt lat="41.604699" lon="1.991528">
        <ele>502.20</ele>
        <time>1970-01-01T00:58:58Z</time>
      </trkpt>
      <trkpt lat="41.604680" lon="1.991531">
        <ele>501.80</ele>
        <time>1970-01-01T00:58:59Z</time>
      </trkpt>
      <trkpt lat="41.604661" lon="1.991537">
        <ele>501.40</ele>
        <time>1970-01-01T00:59:00Z</time>
      </trkpt>
      <trkpt lat="41.604644" lon="1.991538">
        <ele>501.00</ele>
        <time>1970-01-01T00:59:01Z</time>
      </trkpt>
      <trkpt lat="41.604631" lon="1.991542">
        <ele>500.60</ele>
        <time>1970-01-01T00:59:02Z</time>
      </trkpt>
      <trkpt lat="41.604619" lon="1.991544">
        <ele>500.20</ele>
        <time>1970-01-01T00:59:03Z</time>
      </trkpt>
      <trkpt lat="41.604604" lon="1.991544">
        <ele>500.00</ele>
        <time>1970-01-01T00:59:04Z</time>
      </trkpt>
      <trkpt lat="41.604564" lon="1.991544">
        <ele>499.00</ele>
        <time>1970-01-01T00:59:06Z</time>
      </trkpt>
      <trkpt lat="41.604518" lon="1.991552">
        <ele>498.20</ele>
        <time>1970-01-01T00:59:08Z</time>
      </trkpt>
      <trkpt lat="41.604487" lon="1.991562">
        <ele>497.60</ele>
        <time>1970-01-01T00:59:09Z</time>
      </trkpt>
      <trkpt lat="41.604452" lon="1.991564">
        <ele>497.40</ele>
        <time>1970-01-01T00:59:10Z</time>
      </trkpt>
      <trkpt lat="41.604368" lon="1.991584">
        <ele>496.60</ele>
        <time>1970-01-01T00:59:12Z</time>
      </trkpt>
      <trkpt lat="41.604283" lon="1.991613">
        <ele>496.00</ele>
        <time>1970-01-01T00:59:14Z</time>
      </trkpt>
      <trkpt lat="41.604247" lon="1.991615">
        <ele>495.40</ele>
        <time>1970-01-01T00:59:15Z</time>
      </trkpt>
      <trkpt lat="41.604210" lon="1.991614">
        <ele>495.20</ele>
        <time>1970-01-01T00:59:16Z</time>
      </trkpt>
      <trkpt lat="41.604124" lon="1.991604">
        <ele>494.40</ele>
        <time>1970-01-01T00:59:18Z</time>
      </trkpt>
      <trkpt lat="41.604046" lon="1.991630">
        <ele>493.60</ele>
        <time>1970-01-01T00:59:20Z</time>
      </trkpt>
      <trkpt lat="41.604014" lon="1.991665">
        <ele>493.20</ele>
        <time>1970-01-01T00:59:21Z</time>
      </trkpt>
      <trkpt lat="41.603978" lon="1.991712">
        <ele>492.80</ele>
        <time>1970-01-01T00:59:22Z</time>
      </trkpt>
      <trkpt lat="41.603898" lon="1.991798">
        <ele>492.00</ele>
        <time>1970-01-01T00:59:24Z</time>
      </trkpt>
      <trkpt lat="41.603861" lon="1.991844">
        <ele>491.60</ele>
        <time>1970-01-01T00:59:25Z</time>
      </trkpt>
      <trkpt lat="41.603823" lon="1.991891">
        <ele>491.60</ele>
        <time>1970-01-01T00:59:26Z</time>
      </trkpt>
      <trkpt lat="41.603736" lon="1.991996">
        <ele>491.40</ele>
        <time>1970-01-01T00:59:28Z</time>
      </trkpt>
      <trkpt lat="41.603694" lon="1.992042">
        <ele>491.40</ele>
        <time>1970-01-01T00:59:29Z</time>
      </trkpt>
      <trkpt lat="41.603660" lon="1.992088">
        <ele>491.00</ele>
        <time>1970-01-01T00:59:30Z</time>
      </trkpt>
      <trkpt lat="41.603626" lon="1.992136">
        <ele>491.00</ele>
        <time>1970-01-01T00:59:31Z</time>
      </trkpt>
      <trkpt lat="41.603591" lon="1.992181">
        <ele>491.00</ele>
        <time>1970-01-01T00:59:32Z</time>
      </trkpt>
      <trkpt lat="41.603506" lon="1.992273">
        <ele>490.60</ele>
        <time>1970-01-01T00:59:34Z</time>
      </trkpt>
      <trkpt lat="41.603423" lon="1.992374">
        <ele>490.40</ele>
        <time>1970-01-01T00:59:36Z</time>
      </trkpt>
      <trkpt lat="41.603347" lon="1.992511">
        <ele>490.40</ele>
        <time>1970-01-01T00:59:38Z</time>
      </trkpt>
      <trkpt lat="41.603269" lon="1.992637">
        <ele>490.40</ele>
        <time>1970-01-01T00:59:40Z</time>
      </trkpt>
      <trkpt lat="41.603217" lon="1.992775">
        <ele>490.40</ele>
        <time>1970-01-01T00:59:42Z</time>
      </trkpt>
      <trkpt lat="41.603186" lon="1.992922">
        <ele>490.40</ele>
        <time>1970-01-01T00:59:44Z</time>
      </trkpt>
      <trkpt lat="41.603157" lon="1.993071">
        <ele>490.40</ele>
        <time>1970-01-01T00:59:46Z</time>
      </trkpt>
      <trkpt lat="41.603142" lon="1.993151">
        <ele>490.40</ele>
        <time>1970-01-01T00:59:47Z</time>
      </trkpt>
      <trkpt lat="41.603121" lon="1.993228">
        <ele>490.60</ele>
        <time>1970-01-01T00:59:48Z</time>
      </trkpt>
      <trkpt lat="41.603086" lon="1.993368">
        <ele>490.80</ele>
        <time>1970-01-01T00:59:50Z</time>
      </trkpt>
      <trkpt lat="41.603069" lon="1.993430">
        <ele>491.00</ele>
        <time>1970-01-01T00:59:51Z</time>
      </trkpt>
      <trkpt lat="41.603050" lon="1.993486">
        <ele>491.40</ele>
        <time>1970-01-01T00:59:52Z</time>
      </trkpt>
      <trkpt lat="41.603013" lon="1.993588">
        <ele>491.80</ele>
        <time>1970-01-01T00:59:54Z</time>
      </trkpt>
      <trkpt lat="41.602972" lon="1.993660">
        <ele>492.20</ele>
        <time>1970-01-01T00:59:56Z</time>
      </trkpt>
      <trkpt lat="41.602956" lon="1.993687">
        <ele>492.60</ele>
        <time>1970-01-01T00:59:57Z</time>
      </trkpt>
      <trkpt lat="41.602932" lon="1.993717">
        <ele>492.80</ele>
        <time>1970-01-01T00:59:58Z</time>
      </trkpt>
      <trkpt lat="41.602872" lon="1.993765">
        <ele>493.40</ele>
        <time>1970-01-01T01:00:00Z</time>
      </trkpt>
      <trkpt lat="41.602834" lon="1.993786">
        <ele>493.60</ele>
        <time>1970-01-01T01:00:01Z</time>
      </trkpt>
      <trkpt lat="41.602793" lon="1.993800">
        <ele>494.00</ele>
        <time>1970-01-01T01:00:02Z</time>
      </trkpt>
      <trkpt lat="41.602699" lon="1.993821">
        <ele>494.60</ele>
        <time>1970-01-01T01:00:04Z</time>
      </trkpt>
      <trkpt lat="41.602599" lon="1.993835">
        <ele>495.20</ele>
        <time>1970-01-01T01:00:06Z</time>
      </trkpt>
      <trkpt lat="41.602498" lon="1.993838">
        <ele>495.60</ele>
        <time>1970-01-01T01:00:08Z</time>
      </trkpt>
      <trkpt lat="41.602453" lon="1.993843">
        <ele>495.80</ele>
        <time>1970-01-01T01:00:09Z</time>
      </trkpt>
      <trkpt lat="41.602414" lon="1.993851">
        <ele>495.80</ele>
        <time>1970-01-01T01:00:10Z</time>
      </trkpt>
      <trkpt lat="41.602378" lon="1.993857">
        <ele>495.80</ele>
        <time>1970-01-01T01:00:11Z</time>
      </trkpt>
      <trkpt lat="41.602345" lon="1.993866">
        <ele>495.80</ele>
        <time>1970-01-01T01:00:12Z</time>
      </trkpt>
      <trkpt lat="41.602282" lon="1.993902">
        <ele>495.80</ele>
        <time>1970-01-01T01:00:14Z</time>
      </trkpt>
      <trkpt lat="41.602220" lon="1.993931">
        <ele>495.80</ele>
        <time>1970-01-01T01:00:16Z</time>
      </trkpt>
      <trkpt lat="41.602178" lon="1.993943">
        <ele>495.60</ele>
        <time>1970-01-01T01:00:17Z</time>
      </trkpt>
      <trkpt lat="41.602131" lon="1.993955">
        <ele>495.40</ele>
        <time>1970-01-01T01:00:18Z</time>
      </trkpt>
      <trkpt lat="41.602081" lon="1.993961">
        <ele>495.00</ele>
        <time>1970-01-01T01:00:19Z</time>
      </trkpt>
      <trkpt lat="41.602029" lon="1.993961">
        <ele>494.80</ele>
        <time>1970-01-01T01:00:20Z</time>
      </trkpt>
      <trkpt lat="41.601930" lon="1.993975">
        <ele>494.60</ele>
        <time>1970-01-01T01:00:22Z</time>
      </trkpt>
      <trkpt lat="41.601890" lon="1.994003">
        <ele>494.20</ele>
        <time>1970-01-01T01:00:23Z</time>
      </trkpt>
      <trkpt lat="41.601855" lon="1.994044">
        <ele>493.80</ele>
        <time>1970-01-01T01:00:24Z</time>
      </trkpt>
      <trkpt lat="41.601819" lon="1.994093">
        <ele>493.20</ele>
        <time>1970-01-01T01:00:25Z</time>
      </trkpt>
      <trkpt lat="41.601784" lon="1.994146">
        <ele>492.80</ele>
        <time>1970-01-01T01:00:26Z</time>
      </trkpt>
      <trkpt lat="41.601696" lon="1.994263">
        <ele>492.00</ele>
        <time>1970-01-01T01:00:28Z</time>
      </trkpt>
      <trkpt lat="41.601651" lon="1.994310">
        <ele>491.60</ele>
        <time>1970-01-01T01:00:29Z</time>
      </trkpt>
      <trkpt lat="41.601605" lon="1.994348">
        <ele>491.20</ele>
        <time>1970-01-01T01:00:30Z</time>
      </trkpt>
      <trkpt lat="41.601508" lon="1.994377">
        <ele>491.00</ele>
        <time>1970-01-01T01:00:32Z</time>
      </trkpt>
      <trkpt lat="41.601398" lon="1.994329">
        <ele>490.60</ele>
        <time>1970-01-01T01:00:34Z</time>
      </trkpt>
      <trkpt lat="41.601340" lon="1.994291">
        <ele>490.60</ele>
        <time>1970-01-01T01:00:35Z</time>
      </trkpt>
      <trkpt lat="41.601282" lon="1.994262">
        <ele>490.60</ele>
        <time>1970-01-01T01:00:36Z</time>
      </trkpt>
      <trkpt lat="41.601185" lon="1.994189">
        <ele>490.40</ele>
        <time>1970-01-01T01:00:38Z</time>
      </trkpt>
      <trkpt lat="41.601145" lon="1.994138">
        <ele>490.40</ele>
        <time>1970-01-01T01:00:39Z</time>
      </trkpt>
      <trkpt lat="41.601107" lon="1.994080">
        <ele>490.40</ele>
        <time>1970-01-01T01:00:40Z</time>
      </trkpt>
      <trkpt lat="41.601030" lon="1.993984">
        <ele>490.20</ele>
        <time>1970-01-01T01:00:42Z</time>
      </trkpt>
      <trkpt lat="41.600949" lon="1.993983">
        <ele>490.00</ele>
        <time>1970-01-01T01:00:44Z</time>
      </trkpt>
      <trkpt lat="41.600867" lon="1.994029">
        <ele>489.40</ele>
        <time>1970-01-01T01:00:46Z</time>
      </trkpt>
      <trkpt lat="41.600816" lon="1.994076">
        <ele>488.80</ele>
        <time>1970-01-01T01:00:48Z</time>
      </trkpt>
      <trkpt lat="41.600809" lon="1.994083">
        <ele>488.40</ele>
        <time>1970-01-01T01:00:50Z</time>
      </trkpt>
      <trkpt lat="41.600729" lon="1.994140">
        <ele>486.00</ele>
        <time>1970-01-01T01:05:13Z</time>
      </trkpt>
      <trkpt lat="41.600703" lon="1.994164">
        <ele>486.00</ele>
        <time>1970-01-01T01:05:15Z</time>
      </trkpt>
      <trkpt lat="41.600670" lon="1.994202">
        <ele>486.00</ele>
        <time>1970-01-01T01:05:17Z</time>
      </trkpt>
      <trkpt lat="41.600635" lon="1.994248">
        <ele>486.20</ele>
        <time>1970-01-01T01:05:19Z</time>
      </trkpt>
      <trkpt lat="41.600615" lon="1.994271">
        <ele>486.40</ele>
        <time>1970-01-01T01:05:20Z</time>
      </trkpt>
      <trkpt lat="41.600594" lon="1.994294">
        <ele>486.60</ele>
        <time>1970-01-01T01:05:21Z</time>
      </trkpt>
      <trkpt lat="41.600553" lon="1.994340">
        <ele>486.80</ele>
        <time>1970-01-01T01:05:23Z</time>
      </trkpt>
      <trkpt lat="41.600513" lon="1.994381">
        <ele>486.80</ele>
        <time>1970-01-01T01:05:25Z</time>
      </trkpt>
      <trkpt lat="41.600473" lon="1.994427">
        <ele>487.20</ele>
        <time>1970-01-01T01:05:27Z</time>
      </trkpt>
      <trkpt lat="41.600458" lon="1.994450">
        <ele>487.40</ele>
        <time>1970-01-01T01:05:28Z</time>
      </trkpt>
      <trkpt lat="41.600441" lon="1.994472">
        <ele>487.60</ele>
        <time>1970-01-01T01:05:29Z</time>
      </trkpt>
      <trkpt lat="41.600403" lon="1.994510">
        <ele>488.00</ele>
        <time>1970-01-01T01:05:31Z</time>
      </trkpt>
      <trkpt lat="41.600371" lon="1.994552">
        <ele>488.60</ele>
        <time>1970-01-01T01:05:33Z</time>
      </trkpt>
      <trkpt lat="41.600358" lon="1.994568">
        <ele>488.80</ele>
        <time>1970-01-01T01:05:34Z</time>
      </trkpt>
      <trkpt lat="41.600346" lon="1.994577">
        <ele>489.40</ele>
        <time>1970-01-01T01:05:35Z</time>
      </trkpt>
      <trkpt lat="41.600332" lon="1.994581">
        <ele>489.60</ele>
        <time>1970-01-01T01:05:36Z</time>
      </trkpt>
      <trkpt lat="41.600318" lon="1.994578">
        <ele>489.80</ele>
        <time>1970-01-01T01:05:37Z</time>
      </trkpt>
      <trkpt lat="41.600302" lon="1.994568">
        <ele>490.20</ele>
        <time>1970-01-01T01:05:38Z</time>
      </trkpt>
      <trkpt lat="41.600289" lon="1.994547">
        <ele>490.40</ele>
        <time>1970-01-01T01:05:39Z</time>
      </trkpt>
      <trkpt lat="41.600284" lon="1.994486">
        <ele>490.80</ele>
        <time>1970-01-01T01:05:41Z</time>
      </trkpt>
      <trkpt lat="41.600292" lon="1.994457">
        <ele>491.00</ele>
        <time>1970-01-01T01:05:42Z</time>
      </trkpt>
      <trkpt lat="41.600304" lon="1.994433">
        <ele>491.40</ele>
        <time>1970-01-01T01:05:43Z</time>
      </trkpt>
      <trkpt lat="41.600318" lon="1.994408">
        <ele>491.60</ele>
        <time>1970-01-01T01:05:44Z</time>
      </trkpt>
      <trkpt lat="41.600331" lon="1.994383">
        <ele>491.60</ele>
        <time>1970-01-01T01:05:45Z</time>
      </trkpt>
      <trkpt lat="41.600357" lon="1.994334">
        <ele>491.80</ele>
        <time>1970-01-01T01:05:47Z</time>
      </trkpt>
      <trkpt lat="41.600378" lon="1.994284">
        <ele>492.00</ele>
        <time>1970-01-01T01:05:49Z</time>
      </trkpt>
      <trkpt lat="41.600389" lon="1.994262">
        <ele>492.00</ele>
        <time>1970-01-01T01:05:50Z</time>
      </trkpt>
      <trkpt lat="41.600399" lon="1.994241">
        <ele>492.00</ele>
        <time>1970-01-01T01:05:51Z</time>
      </trkpt>
      <trkpt lat="41.600403" lon="1.994230">
        <ele>492.20</ele>
        <time>1970-01-01T01:05:53Z</time>
      </trkpt>
      <trkpt lat="41.600404" lon="1.994231">
        <ele>492.40</ele>
        <time>1970-01-01T01:05:54Z</time>
      </trkpt>
      <trkpt lat="41.600419" lon="1.994186">
        <ele>492.60</ele>
        <time>1970-01-01T01:06:52Z</time>
      </trkpt>
      <trkpt lat="41.600431" lon="1.994165">
        <ele>492.60</ele>
        <time>1970-01-01T01:06:53Z</time>
      </trkpt>
      <trkpt lat="41.600464" lon="1.994124">
        <ele>492.60</ele>
        <time>1970-01-01T01:06:55Z</time>
      </trkpt>
      <trkpt lat="41.600498" lon="1.994084">
        <ele>492.60</ele>
        <time>1970-01-01T01:06:57Z</time>
      </trkpt>
      <trkpt lat="41.600513" lon="1.994061">
        <ele>492.60</ele>
        <time>1970-01-01T01:06:58Z</time>
      </trkpt>
      <trkpt lat="41.600525" lon="1.994036">
        <ele>492.60</ele>
        <time>1970-01-01T01:06:59Z</time>
      </trkpt>
      <trkpt lat="41.600543" lon="1.993983">
        <ele>492.80</ele>
        <time>1970-01-01T01:07:01Z</time>
      </trkpt>
      <trkpt lat="41.600552" lon="1.993934">
        <ele>493.20</ele>
        <time>1970-01-01T01:07:03Z</time>
      </trkpt>
      <trkpt lat="41.600552" lon="1.993885">
        <ele>493.40</ele>
        <time>1970-01-01T01:07:05Z</time>
      </trkpt>
      <trkpt lat="41.600549" lon="1.993858">
        <ele>493.60</ele>
        <time>1970-01-01T01:07:06Z</time>
      </trkpt>
      <trkpt lat="41.600545" lon="1.993830">
        <ele>493.80</ele>
        <time>1970-01-01T01:07:07Z</time>
      </trkpt>
      <trkpt lat="41.600534" lon="1.993774">
        <ele>494.60</ele>
        <time>1970-01-01T01:07:09Z</time>
      </trkpt>
      <trkpt lat="41.600528" lon="1.993745">
        <ele>495.00</ele>
        <time>1970-01-01T01:07:10Z</time>
      </trkpt>
      <trkpt lat="41.600523" lon="1.993716">
        <ele>495.40</ele>
        <time>1970-01-01T01:07:11Z</time>
      </trkpt>
      <trkpt lat="41.600505" lon="1.993655">
        <ele>496.20</ele>
        <time>1970-01-01T01:07:13Z</time>
      </trkpt>
      <trkpt lat="41.600481" lon="1.993590">
        <ele>496.80</ele>
        <time>1970-01-01T01:07:15Z</time>
      </trkpt>
      <trkpt lat="41.600460" lon="1.993512">
        <ele>497.40</ele>
        <time>1970-01-01T01:07:17Z</time>
      </trkpt>
      <trkpt lat="41.600447" lon="1.993416">
        <ele>497.80</ele>
        <time>1970-01-01T01:07:19Z</time>
      </trkpt>
      <trkpt lat="41.600444" lon="1.993320">
        <ele>498.00</ele>
        <time>1970-01-01T01:07:21Z</time>
      </trkpt>
      <trkpt lat="41.600446" lon="1.993235">
        <ele>498.20</ele>
        <time>1970-01-01T01:07:23Z</time>
      </trkpt>
      <trkpt lat="41.600442" lon="1.993161">
        <ele>498.20</ele>
        <time>1970-01-01T01:07:25Z</time>
      </trkpt>
      <trkpt lat="41.600437" lon="1.993092">
        <ele>498.20</ele>
        <time>1970-01-01T01:07:27Z</time>
      </trkpt>
      <trkpt lat="41.600434" lon="1.993027">
        <ele>498.40</ele>
        <time>1970-01-01T01:07:29Z</time>
      </trkpt>
      <trkpt lat="41.600424" lon="1.992963">
        <ele>498.40</ele>
        <time>1970-01-01T01:07:31Z</time>
      </trkpt>
      <trkpt lat="41.600415" lon="1.992900">
        <ele>498.80</ele>
        <time>1970-01-01T01:07:33Z</time>
      </trkpt>
      <trkpt lat="41.600403" lon="1.992842">
        <ele>499.40</ele>
        <time>1970-01-01T01:07:35Z</time>
      </trkpt>
      <trkpt lat="41.600395" lon="1.992782">
        <ele>500.40</ele>
        <time>1970-01-01T01:07:37Z</time>
      </trkpt>
      <trkpt lat="41.600392" lon="1.992750">
        <ele>500.60</ele>
        <time>1970-01-01T01:07:38Z</time>
      </trkpt>
      <trkpt lat="41.600389" lon="1.992721">
        <ele>501.20</ele>
        <time>1970-01-01T01:07:39Z</time>
      </trkpt>
      <trkpt lat="41.600383" lon="1.992670">
        <ele>502.00</ele>
        <time>1970-01-01T01:07:41Z</time>
      </trkpt>
      <trkpt lat="41.600381" lon="1.992654">
        <ele>502.40</ele>
        <time>1970-01-01T01:07:42Z</time>
      </trkpt>
      <trkpt lat="41.600379" lon="1.992643">
        <ele>502.80</ele>
        <time>1970-01-01T01:07:43Z</time>
      </trkpt>
      <trkpt lat="41.600381" lon="1.992636">
        <ele>503.20</ele>
        <time>1970-01-01T01:07:44Z</time>
      </trkpt>
      <trkpt lat="41.600387" lon="1.992629">
        <ele>503.60</ele>
        <time>1970-01-01T01:07:45Z</time>
      </trkpt>
      <trkpt lat="41.600394" lon="1.992627">
        <ele>504.20</ele>
        <time>1970-01-01T01:07:47Z</time>
      </trkpt>
      <trkpt lat="41.600398" lon="1.992649">
        <ele>504.80</ele>
        <time>1970-01-01T01:07:49Z</time>
      </trkpt>
      <trkpt lat="41.600398" lon="1.992716">
        <ele>505.20</ele>
        <time>1970-01-01T01:07:51Z</time>
      </trkpt>
      <trkpt lat="41.600398" lon="1.992740">
        <ele>505.40</ele>
        <time>1970-01-01T01:07:52Z</time>
      </trkpt>
      <trkpt lat="41.600399" lon="1.992748">
        <ele>505.40</ele>
        <time>1970-01-01T01:07:53Z</time>
      </trkpt>
      <trkpt lat="41.600400" lon="1.992750">
        <ele>505.40</ele>
        <time>1970-01-01T01:07:54Z</time>
      </trkpt>
      <trkpt lat="41.600342" lon="1.992717">
        <ele>504.60</ele>
        <time>1970-01-01T01:08:09Z</time>
      </trkpt>
      <trkpt lat="41.600333" lon="1.992699">
        <ele>504.60</ele>
        <time>1970-01-01T01:08:10Z</time>
      </trkpt>
      <trkpt lat="41.600328" lon="1.992675">
        <ele>504.60</ele>
        <time>1970-01-01T01:08:11Z</time>
      </trkpt>
      <trkpt lat="41.600322" lon="1.992648">
        <ele>504.60</ele>
        <time>1970-01-01T01:08:12Z</time>
      </trkpt>
      <trkpt lat="41.600311" lon="1.992622">
        <ele>504.40</ele>
        <time>1970-01-01T01:08:13Z</time>
      </trkpt>
      <trkpt lat="41.600295" lon="1.992600">
        <ele>504.40</ele>
        <time>1970-01-01T01:08:14Z</time>
      </trkpt>
      <trkpt lat="41.600278" lon="1.992579">
        <ele>504.40</ele>
        <time>1970-01-01T01:08:15Z</time>
      </trkpt>
      <trkpt lat="41.600259" lon="1.992554">
        <ele>504.20</ele>
        <time>1970-01-01T01:08:16Z</time>
      </trkpt>
      <trkpt lat="41.600235" lon="1.992531">
        <ele>504.40</ele>
        <time>1970-01-01T01:08:17Z</time>
      </trkpt>
      <trkpt lat="41.600189" lon="1.992483">
        <ele>504.20</ele>
        <time>1970-01-01T01:08:19Z</time>
      </trkpt>
      <trkpt lat="41.600179" lon="1.992448">
        <ele>504.20</ele>
        <time>1970-01-01T01:08:20Z</time>
      </trkpt>
      <trkpt lat="41.600170" lon="1.992407">
        <ele>504.20</ele>
        <time>1970-01-01T01:08:21Z</time>
      </trkpt>
      <trkpt lat="41.600171" lon="1.992309">
        <ele>504.00</ele>
        <time>1970-01-01T01:08:23Z</time>
      </trkpt>
      <trkpt lat="41.600184" lon="1.992198">
        <ele>504.00</ele>
        <time>1970-01-01T01:08:25Z</time>
      </trkpt>
      <trkpt lat="41.600194" lon="1.992080">
        <ele>503.60</ele>
        <time>1970-01-01T01:08:27Z</time>
      </trkpt>
      <trkpt lat="41.600205" lon="1.992026">
        <ele>503.20</ele>
        <time>1970-01-01T01:08:28Z</time>
      </trkpt>
      <trkpt lat="41.600224" lon="1.991978">
        <ele>503.00</ele>
        <time>1970-01-01T01:08:29Z</time>
      </trkpt>
      <trkpt lat="41.600249" lon="1.991937">
        <ele>502.80</ele>
        <time>1970-01-01T01:08:30Z</time>
      </trkpt>
      <trkpt lat="41.600279" lon="1.991894">
        <ele>502.40</ele>
        <time>1970-01-01T01:08:31Z</time>
      </trkpt>
      <trkpt lat="41.600311" lon="1.991851">
        <ele>502.20</ele>
        <time>1970-01-01T01:08:32Z</time>
      </trkpt>
      <trkpt lat="41.600336" lon="1.991809">
        <ele>502.00</ele>
        <time>1970-01-01T01:08:33Z</time>
      </trkpt>
      <trkpt lat="41.600350" lon="1.991771">
        <ele>501.60</ele>
        <time>1970-01-01T01:08:34Z</time>
      </trkpt>
      <trkpt lat="41.600351" lon="1.991731">
        <ele>501.40</ele>
        <time>1970-01-01T01:08:35Z</time>
      </trkpt>
      <trkpt lat="41.600341" lon="1.991682">
        <ele>501.00</ele>
        <time>1970-01-01T01:08:36Z</time>
      </trkpt>
      <trkpt lat="41.600326" lon="1.991626">
        <ele>500.60</ele>
        <time>1970-01-01T01:08:37Z</time>
      </trkpt>
      <trkpt lat="41.600314" lon="1.991567">
        <ele>500.20</ele>
        <time>1970-01-01T01:08:38Z</time>
      </trkpt>
      <trkpt lat="41.600304" lon="1.991516">
        <ele>500.00</ele>
        <time>1970-01-01T01:08:39Z</time>
      </trkpt>
      <trkpt lat="41.600303" lon="1.991472">
        <ele>499.60</ele>
        <time>1970-01-01T01:08:40Z</time>
      </trkpt>
      <trkpt lat="41.600312" lon="1.991432">
        <ele>499.20</ele>
        <time>1970-01-01T01:08:41Z</time>
      </trkpt>
      <trkpt lat="41.600331" lon="1.991395">
        <ele>498.60</ele>
        <time>1970-01-01T01:08:42Z</time>
      </trkpt>
      <trkpt lat="41.600358" lon="1.991359">
        <ele>498.00</ele>
        <time>1970-01-01T01:08:43Z</time>
      </trkpt>
      <trkpt lat="41.600421" lon="1.991286">
        <ele>497.60</ele>
        <time>1970-01-01T01:08:45Z</time>
      </trkpt>
      <trkpt lat="41.600452" lon="1.991247">
        <ele>497.60</ele>
        <time>1970-01-01T01:08:46Z</time>
      </trkpt>
      <trkpt lat="41.600485" lon="1.991208">
        <ele>497.40</ele>
        <time>1970-01-01T01:08:47Z</time>
      </trkpt>
      <trkpt lat="41.600563" lon="1.991138">
        <ele>497.00</ele>
        <time>1970-01-01T01:08:49Z</time>
      </trkpt>
      <trkpt lat="41.600591" lon="1.991108">
        <ele>497.00</ele>
        <time>1970-01-01T01:08:50Z</time>
      </trkpt>
      <trkpt lat="41.600606" lon="1.991081">
        <ele>496.80</ele>
        <time>1970-01-01T01:08:51Z</time>
      </trkpt>
      <trkpt lat="41.600640" lon="1.991017">
        <ele>496.80</ele>
        <time>1970-01-01T01:08:53Z</time>
      </trkpt>
      <trkpt lat="41.600662" lon="1.990990">
        <ele>496.80</ele>
        <time>1970-01-01T01:08:54Z</time>
      </trkpt>
      <trkpt lat="41.600687" lon="1.990966">
        <ele>496.80</ele>
        <time>1970-01-01T01:08:55Z</time>
      </trkpt>
      <trkpt lat="41.600700" lon="1.990939">
        <ele>496.80</ele>
        <time>1970-01-01T01:08:56Z</time>
      </trkpt>
      <trkpt lat="41.600699" lon="1.990909">
        <ele>496.80</ele>
        <time>1970-01-01T01:08:57Z</time>
      </trkpt>
      <trkpt lat="41.600687" lon="1.990876">
        <ele>496.80</ele>
        <time>1970-01-01T01:08:58Z</time>
      </trkpt>
      <trkpt lat="41.600679" lon="1.990842">
        <ele>496.80</ele>
        <time>1970-01-01T01:08:59Z</time>
      </trkpt>
      <trkpt lat="41.600675" lon="1.990763">
        <ele>496.80</ele>
        <time>1970-01-01T01:09:01Z</time>
      </trkpt>
      <trkpt lat="41.600670" lon="1.990723">
        <ele>496.80</ele>
        <time>1970-01-01T01:09:02Z</time>
      </trkpt>
      <trkpt lat="41.600661" lon="1.990689">
        <ele>496.80</ele>
        <time>1970-01-01T01:09:03Z</time>
      </trkpt>
      <trkpt lat="41.600659" lon="1.990657">
        <ele>497.20</ele>
        <time>1970-01-01T01:09:04Z</time>
      </trkpt>
      <trkpt lat="41.600663" lon="1.990627">
        <ele>497.40</ele>
        <time>1970-01-01T01:09:05Z</time>
      </trkpt>
      <trkpt lat="41.600664" lon="1.990590">
        <ele>497.60</ele>
        <time>1970-01-01T01:09:06Z</time>
      </trkpt>
      <trkpt lat="41.600667" lon="1.990556">
        <ele>497.60</ele>
        <time>1970-01-01T01:09:07Z</time>
      </trkpt>
      <trkpt lat="41.600679" lon="1.990520">
        <ele>498.00</ele>
        <time>1970-01-01T01:09:09Z</time>
      </trkpt>
      <trkpt lat="41.600685" lon="1.990495">
        <ele>498.00</ele>
        <time>1970-01-01T01:09:10Z</time>
      </trkpt>
      <trkpt lat="41.600693" lon="1.990461">
        <ele>498.00</ele>
        <time>1970-01-01T01:09:11Z</time>
      </trkpt>
      <trkpt lat="41.600725" lon="1.990384">
        <ele>498.00</ele>
        <time>1970-01-01T01:09:13Z</time>
      </trkpt>
      <trkpt lat="41.600752" lon="1.990350">
        <ele>498.00</ele>
        <time>1970-01-01T01:09:14Z</time>
      </trkpt>
      <trkpt lat="41.600776" lon="1.990322">
        <ele>498.00</ele>
        <time>1970-01-01T01:09:15Z</time>
      </trkpt>
      <trkpt lat="41.600820" lon="1.990264">
        <ele>498.00</ele>
        <time>1970-01-01T01:09:17Z</time>
      </trkpt>
      <trkpt lat="41.600865" lon="1.990214">
        <ele>498.00</ele>
        <time>1970-01-01T01:09:19Z</time>
      </trkpt>
      <trkpt lat="41.600922" lon="1.990166">
        <ele>498.00</ele>
        <time>1970-01-01T01:09:21Z</time>
      </trkpt>
      <trkpt lat="41.600985" lon="1.990114">
        <ele>497.80</ele>
        <time>1970-01-01T01:09:23Z</time>
      </trkpt>
      <trkpt lat="41.601008" lon="1.990082">
        <ele>497.80</ele>
        <time>1970-01-01T01:09:24Z</time>
      </trkpt>
      <trkpt lat="41.601026" lon="1.990046">
        <ele>497.80</ele>
        <time>1970-01-01T01:09:25Z</time>
      </trkpt>
      <trkpt lat="41.601059" lon="1.989968">
        <ele>497.80</ele>
        <time>1970-01-01T01:09:27Z</time>
      </trkpt>
      <trkpt lat="41.601101" lon="1.989894">
        <ele>497.80</ele>
        <time>1970-01-01T01:09:29Z</time>
      </trkpt>
      <trkpt lat="41.601124" lon="1.989857">
        <ele>497.80</ele>
        <time>1970-01-01T01:09:30Z</time>
      </trkpt>
      <trkpt lat="41.601144" lon="1.989825">
        <ele>497.80</ele>
        <time>1970-01-01T01:09:31Z</time>
      </trkpt>
      <trkpt lat="41.601185" lon="1.989772">
        <ele>497.80</ele>
        <time>1970-01-01T01:09:33Z</time>
      </trkpt>
      <trkpt lat="41.601238" lon="1.989730">
        <ele>498.00</ele>
        <time>1970-01-01T01:09:35Z</time>
      </trkpt>
      <trkpt lat="41.601281" lon="1.989700">
        <ele>498.40</ele>
        <time>1970-01-01T01:09:37Z</time>
      </trkpt>
      <trkpt lat="41.601306" lon="1.989690">
        <ele>498.40</ele>
        <time>1970-01-01T01:09:38Z</time>
      </trkpt>
      <trkpt lat="41.601333" lon="1.989684">
        <ele>498.40</ele>
        <time>1970-01-01T01:09:39Z</time>
      </trkpt>
      <trkpt lat="41.601382" lon="1.989669">
        <ele>498.60</ele>
        <time>1970-01-01T01:09:41Z</time>
      </trkpt>
      <trkpt lat="41.601429" lon="1.989647">
        <ele>498.60</ele>
        <time>1970-01-01T01:09:43Z</time>
      </trkpt>
      <trkpt lat="41.601462" lon="1.989636">
        <ele>498.60</ele>
        <time>1970-01-01T01:09:44Z</time>
      </trkpt>
      <trkpt lat="41.601499" lon="1.989626">
        <ele>498.60</ele>
        <time>1970-01-01T01:09:45Z</time>
      </trkpt>
      <trkpt lat="41.601577" lon="1.989610">
        <ele>498.60</ele>
        <time>1970-01-01T01:09:47Z</time>
      </trkpt>
      <trkpt lat="41.601633" lon="1.989589">
        <ele>498.60</ele>
        <time>1970-01-01T01:09:49Z</time>
      </trkpt>
      <trkpt lat="41.601642" lon="1.989569">
        <ele>498.40</ele>
        <time>1970-01-01T01:09:50Z</time>
      </trkpt>
      <trkpt lat="41.601641" lon="1.989534">
        <ele>498.40</ele>
        <time>1970-01-01T01:09:51Z</time>
      </trkpt>
      <trkpt lat="41.601636" lon="1.989503">
        <ele>498.40</ele>
        <time>1970-01-01T01:09:52Z</time>
      </trkpt>
      <trkpt lat="41.601629" lon="1.989467">
        <ele>498.40</ele>
        <time>1970-01-01T01:09:53Z</time>
      </trkpt>
      <trkpt lat="41.601613" lon="1.989381">
        <ele>498.40</ele>
        <time>1970-01-01T01:09:55Z</time>
      </trkpt>
      <trkpt lat="41.601607" lon="1.989333">
        <ele>498.40</ele>
        <time>1970-01-01T01:09:56Z</time>
      </trkpt>
      <trkpt lat="41.601599" lon="1.989278">
        <ele>498.40</ele>
        <time>1970-01-01T01:09:57Z</time>
      </trkpt>
      <trkpt lat="41.601586" lon="1.989166">
        <ele>498.40</ele>
        <time>1970-01-01T01:09:59Z</time>
      </trkpt>
      <trkpt lat="41.601615" lon="1.989072">
        <ele>498.40</ele>
        <time>1970-01-01T01:10:01Z</time>
      </trkpt>
      <trkpt lat="41.601657" lon="1.988992">
        <ele>498.20</ele>
        <time>1970-01-01T01:10:03Z</time>
      </trkpt>
      <trkpt lat="41.601676" lon="1.988940">
        <ele>498.20</ele>
        <time>1970-01-01T01:10:05Z</time>
      </trkpt>
      <trkpt lat="41.601673" lon="1.988931">
        <ele>498.20</ele>
        <time>1970-01-01T01:10:06Z</time>
      </trkpt>
      <trkpt lat="41.601657" lon="1.988918">
        <ele>498.20</ele>
        <time>1970-01-01T01:10:07Z</time>
      </trkpt>
      <trkpt lat="41.601613" lon="1.988897">
        <ele>498.20</ele>
        <time>1970-01-01T01:10:09Z</time>
      </trkpt>
      <trkpt lat="41.601586" lon="1.988897">
        <ele>498.00</ele>
        <time>1970-01-01T01:10:10Z</time>
      </trkpt>
      <trkpt lat="41.601563" lon="1.988898">
        <ele>497.80</ele>
        <time>1970-01-01T01:10:11Z</time>
      </trkpt>
      <trkpt lat="41.601530" lon="1.988897">
        <ele>497.40</ele>
        <time>1970-01-01T01:10:13Z</time>
      </trkpt>
      <trkpt lat="41.601514" lon="1.988888">
        <ele>497.20</ele>
        <time>1970-01-01T01:10:14Z</time>
      </trkpt>
      <trkpt lat="41.601495" lon="1.988881">
        <ele>496.20</ele>
        <time>1970-01-01T01:10:15Z</time>
      </trkpt>
      <trkpt lat="41.601478" lon="1.988883">
        <ele>495.60</ele>
        <time>1970-01-01T01:10:16Z</time>
      </trkpt>
      <trkpt lat="41.601466" lon="1.988887">
        <ele>494.80</ele>
        <time>1970-01-01T01:10:17Z</time>
      </trkpt>
      <trkpt lat="41.601450" lon="1.988885">
        <ele>493.80</ele>
        <time>1970-01-01T01:10:18Z</time>
      </trkpt>
      <trkpt lat="41.601440" lon="1.988885">
        <ele>492.80</ele>
        <time>1970-01-01T01:10:19Z</time>
      </trkpt>
      <trkpt lat="41.601434" lon="1.988879">
        <ele>491.20</ele>
        <time>1970-01-01T01:10:21Z</time>
      </trkpt>
      <trkpt lat="41.601379" lon="1.988891">
        <ele>489.00</ele>
        <time>1970-01-01T01:10:24Z</time>
      </trkpt>
      <trkpt lat="41.601337" lon="1.988904">
        <ele>487.20</ele>
        <time>1970-01-01T01:10:26Z</time>
      </trkpt>
      <trkpt lat="41.601312" lon="1.988882">
        <ele>485.80</ele>
        <time>1970-01-01T01:10:28Z</time>
      </trkpt>
      <trkpt lat="41.601289" lon="1.988856">
        <ele>485.20</ele>
        <time>1970-01-01T01:10:30Z</time>
      </trkpt>
      <trkpt lat="41.601255" lon="1.988869">
        <ele>484.20</ele>
        <time>1970-01-01T01:10:32Z</time>
      </trkpt>
      <trkpt lat="41.601207" lon="1.988904">
        <ele>483.20</ele>
        <time>1970-01-01T01:10:34Z</time>
      </trkpt>
      <trkpt lat="41.601183" lon="1.988910">
        <ele>482.80</ele>
        <time>1970-01-01T01:10:35Z</time>
      </trkpt>
      <trkpt lat="41.601162" lon="1.988907">
        <ele>482.20</ele>
        <time>1970-01-01T01:10:36Z</time>
      </trkpt>
      <trkpt lat="41.601149" lon="1.988903">
        <ele>481.60</ele>
        <time>1970-01-01T01:10:37Z</time>
      </trkpt>
      <trkpt lat="41.601138" lon="1.988901">
        <ele>481.00</ele>
        <time>1970-01-01T01:10:38Z</time>
      </trkpt>
      <trkpt lat="41.601120" lon="1.988898">
        <ele>480.00</ele>
        <time>1970-01-01T01:10:40Z</time>
      </trkpt>
      <trkpt lat="41.601098" lon="1.988890">
        <ele>479.60</ele>
        <time>1970-01-01T01:10:41Z</time>
      </trkpt>
      <trkpt lat="41.601070" lon="1.988876">
        <ele>479.20</ele>
        <time>1970-01-01T01:10:42Z</time>
      </trkpt>
      <trkpt lat="41.601040" lon="1.988875">
        <ele>478.60</ele>
        <time>1970-01-01T01:10:43Z</time>
      </trkpt>
      <trkpt lat="41.601009" lon="1.988893">
        <ele>478.00</ele>
        <time>1970-01-01T01:10:44Z</time>
      </trkpt>
      <trkpt lat="41.600979" lon="1.988917">
        <ele>477.60</ele>
        <time>1970-01-01T01:10:45Z</time>
      </trkpt>
      <trkpt lat="41.600957" lon="1.988937">
        <ele>477.00</ele>
        <time>1970-01-01T01:10:46Z</time>
      </trkpt>
      <trkpt lat="41.600915" lon="1.988990">
        <ele>476.20</ele>
        <time>1970-01-01T01:10:48Z</time>
      </trkpt>
      <trkpt lat="41.600883" lon="1.989016">
        <ele>475.80</ele>
        <time>1970-01-01T01:10:49Z</time>
      </trkpt>
      <trkpt lat="41.600846" lon="1.989041">
        <ele>475.20</ele>
        <time>1970-01-01T01:10:50Z</time>
      </trkpt>
      <trkpt lat="41.600769" lon="1.989083">
        <ele>474.20</ele>
        <time>1970-01-01T01:10:52Z</time>
      </trkpt>
      <trkpt lat="41.600706" lon="1.989145">
        <ele>472.80</ele>
        <time>1970-01-01T01:10:54Z</time>
      </trkpt>
      <trkpt lat="41.600666" lon="1.989223">
        <ele>471.60</ele>
        <time>1970-01-01T01:10:56Z</time>
      </trkpt>
      <trkpt lat="41.600616" lon="1.989291">
        <ele>470.80</ele>
        <time>1970-01-01T01:10:58Z</time>
      </trkpt>
      <trkpt lat="41.600594" lon="1.989320">
        <ele>470.40</ele>
        <time>1970-01-01T01:10:59Z</time>
      </trkpt>
      <trkpt lat="41.600576" lon="1.989346">
        <ele>470.20</ele>
        <time>1970-01-01T01:11:00Z</time>
      </trkpt>
      <trkpt lat="41.600517" lon="1.989388">
        <ele>469.80</ele>
        <time>1970-01-01T01:11:02Z</time>
      </trkpt>
      <trkpt lat="41.600483" lon="1.989408">
        <ele>469.60</ele>
        <time>1970-01-01T01:11:03Z</time>
      </trkpt>
      <trkpt lat="41.600450" lon="1.989432">
        <ele>469.40</ele>
        <time>1970-01-01T01:11:04Z</time>
      </trkpt>
      <trkpt lat="41.600393" lon="1.989483">
        <ele>469.00</ele>
        <time>1970-01-01T01:11:06Z</time>
      </trkpt>
      <trkpt lat="41.600360" lon="1.989523">
        <ele>468.60</ele>
        <time>1970-01-01T01:11:07Z</time>
      </trkpt>
      <trkpt lat="41.600324" lon="1.989563">
        <ele>468.40</ele>
        <time>1970-01-01T01:11:08Z</time>
      </trkpt>
      <trkpt lat="41.600281" lon="1.989604">
        <ele>468.00</ele>
        <time>1970-01-01T01:11:09Z</time>
      </trkpt>
      <trkpt lat="41.600231" lon="1.989636">
        <ele>467.80</ele>
        <time>1970-01-01T01:11:10Z</time>
      </trkpt>
      <trkpt lat="41.600172" lon="1.989655">
        <ele>467.80</ele>
        <time>1970-01-01T01:11:11Z</time>
      </trkpt>
      <trkpt lat="41.600113" lon="1.989669">
        <ele>467.60</ele>
        <time>1970-01-01T01:11:12Z</time>
      </trkpt>
      <trkpt lat="41.599989" lon="1.989697">
        <ele>467.40</ele>
        <time>1970-01-01T01:11:14Z</time>
      </trkpt>
      <trkpt lat="41.599881" lon="1.989725">
        <ele>467.20</ele>
        <time>1970-01-01T01:11:16Z</time>
      </trkpt>
      <trkpt lat="41.599832" lon="1.989753">
        <ele>467.00</ele>
        <time>1970-01-01T01:11:17Z</time>
      </trkpt>
      <trkpt lat="41.599791" lon="1.989788">
        <ele>466.60</ele>
        <time>1970-01-01T01:11:18Z</time>
      </trkpt>
      <trkpt lat="41.599729" lon="1.989874">
        <ele>466.00</ele>
        <time>1970-01-01T01:11:20Z</time>
      </trkpt>
      <trkpt lat="41.599696" lon="1.989931">
        <ele>465.60</ele>
        <time>1970-01-01T01:11:21Z</time>
      </trkpt>
      <trkpt lat="41.599666" lon="1.989988">
        <ele>465.20</ele>
        <time>1970-01-01T01:11:22Z</time>
      </trkpt>
      <trkpt lat="41.599638" lon="1.990041">
        <ele>464.80</ele>
        <time>1970-01-01T01:11:23Z</time>
      </trkpt>
      <trkpt lat="41.599615" lon="1.990089">
        <ele>464.20</ele>
        <time>1970-01-01T01:11:24Z</time>
      </trkpt>
      <trkpt lat="41.599595" lon="1.990142">
        <ele>463.80</ele>
        <time>1970-01-01T01:11:25Z</time>
      </trkpt>
      <trkpt lat="41.599573" lon="1.990200">
        <ele>463.40</ele>
        <time>1970-01-01T01:11:26Z</time>
      </trkpt>
      <trkpt lat="41.599509" lon="1.990325">
        <ele>462.60</ele>
        <time>1970-01-01T01:11:28Z</time>
      </trkpt>
      <trkpt lat="41.599470" lon="1.990387">
        <ele>462.20</ele>
        <time>1970-01-01T01:11:29Z</time>
      </trkpt>
      <trkpt lat="41.599440" lon="1.990452">
        <ele>461.80</ele>
        <time>1970-01-01T01:11:30Z</time>
      </trkpt>
      <trkpt lat="41.599421" lon="1.990515">
        <ele>461.40</ele>
        <time>1970-01-01T01:11:31Z</time>
      </trkpt>
      <trkpt lat="41.599404" lon="1.990575">
        <ele>460.80</ele>
        <time>1970-01-01T01:11:32Z</time>
      </trkpt>
      <trkpt lat="41.599372" lon="1.990615">
        <ele>460.40</ele>
        <time>1970-01-01T01:11:33Z</time>
      </trkpt>
      <trkpt lat="41.599335" lon="1.990647">
        <ele>459.80</ele>
        <time>1970-01-01T01:11:34Z</time>
      </trkpt>
      <trkpt lat="41.599300" lon="1.990683">
        <ele>459.20</ele>
        <time>1970-01-01T01:11:35Z</time>
      </trkpt>
      <trkpt lat="41.599263" lon="1.990713">
        <ele>458.80</ele>
        <time>1970-01-01T01:11:36Z</time>
      </trkpt>
      <trkpt lat="41.599215" lon="1.990790">
        <ele>457.60</ele>
        <time>1970-01-01T01:11:38Z</time>
      </trkpt>
      <trkpt lat="41.599184" lon="1.990869">
        <ele>456.40</ele>
        <time>1970-01-01T01:11:40Z</time>
      </trkpt>
      <trkpt lat="41.599145" lon="1.990923">
        <ele>455.60</ele>
        <time>1970-01-01T01:11:42Z</time>
      </trkpt>
      <trkpt lat="41.599122" lon="1.990948">
        <ele>455.40</ele>
        <time>1970-01-01T01:11:43Z</time>
      </trkpt>
      <trkpt lat="41.599103" lon="1.990977">
        <ele>455.20</ele>
        <time>1970-01-01T01:11:44Z</time>
      </trkpt>
      <trkpt lat="41.599064" lon="1.991056">
        <ele>454.60</ele>
        <time>1970-01-01T01:11:46Z</time>
      </trkpt>
      <trkpt lat="41.599041" lon="1.991094">
        <ele>454.00</ele>
        <time>1970-01-01T01:11:47Z</time>
      </trkpt>
      <trkpt lat="41.599019" lon="1.991122">
        <ele>453.60</ele>
        <time>1970-01-01T01:11:48Z</time>
      </trkpt>
      <trkpt lat="41.598980" lon="1.991181">
        <ele>452.80</ele>
        <time>1970-01-01T01:11:50Z</time>
      </trkpt>
      <trkpt lat="41.598964" lon="1.991217">
        <ele>452.80</ele>
        <time>1970-01-01T01:11:51Z</time>
      </trkpt>
      <trkpt lat="41.598947" lon="1.991256">
        <ele>452.60</ele>
        <time>1970-01-01T01:11:52Z</time>
      </trkpt>
      <trkpt lat="41.598924" lon="1.991347">
        <ele>452.60</ele>
        <time>1970-01-01T01:11:54Z</time>
      </trkpt>
      <trkpt lat="41.598919" lon="1.991386">
        <ele>452.60</ele>
        <time>1970-01-01T01:11:55Z</time>
      </trkpt>
      <trkpt lat="41.598909" lon="1.991422">
        <ele>452.60</ele>
        <time>1970-01-01T01:11:56Z</time>
      </trkpt>
      <trkpt lat="41.598902" lon="1.991507">
        <ele>452.60</ele>
        <time>1970-01-01T01:11:58Z</time>
      </trkpt>
      <trkpt lat="41.598895" lon="1.991541">
        <ele>452.60</ele>
        <time>1970-01-01T01:11:59Z</time>
      </trkpt>
      <trkpt lat="41.598887" lon="1.991571">
        <ele>452.40</ele>
        <time>1970-01-01T01:12:00Z</time>
      </trkpt>
      <trkpt lat="41.598870" lon="1.991657">
        <ele>452.40</ele>
        <time>1970-01-01T01:12:02Z</time>
      </trkpt>
      <trkpt lat="41.598859" lon="1.991703">
        <ele>452.40</ele>
        <time>1970-01-01T01:12:03Z</time>
      </trkpt>
      <trkpt lat="41.598848" lon="1.991750">
        <ele>452.40</ele>
        <time>1970-01-01T01:12:04Z</time>
      </trkpt>
      <trkpt lat="41.598813" lon="1.991823">
        <ele>452.20</ele>
        <time>1970-01-01T01:12:06Z</time>
      </trkpt>
      <trkpt lat="41.598784" lon="1.991850">
        <ele>452.20</ele>
        <time>1970-01-01T01:12:07Z</time>
      </trkpt>
      <trkpt lat="41.598751" lon="1.991876">
        <ele>452.20</ele>
        <time>1970-01-01T01:12:08Z</time>
      </trkpt>
      <trkpt lat="41.598716" lon="1.991914">
        <ele>452.00</ele>
        <time>1970-01-01T01:12:09Z</time>
      </trkpt>
      <trkpt lat="41.598692" lon="1.991961">
        <ele>451.80</ele>
        <time>1970-01-01T01:12:10Z</time>
      </trkpt>
      <trkpt lat="41.598675" lon="1.992005">
        <ele>451.60</ele>
        <time>1970-01-01T01:12:11Z</time>
      </trkpt>
      <trkpt lat="41.598647" lon="1.992042">
        <ele>451.00</ele>
        <time>1970-01-01T01:12:12Z</time>
      </trkpt>
      <trkpt lat="41.598618" lon="1.992081">
        <ele>450.40</ele>
        <time>1970-01-01T01:12:13Z</time>
      </trkpt>
      <trkpt lat="41.598593" lon="1.992124">
        <ele>450.00</ele>
        <time>1970-01-01T01:12:14Z</time>
      </trkpt>
      <trkpt lat="41.598554" lon="1.992221">
        <ele>449.40</ele>
        <time>1970-01-01T01:12:16Z</time>
      </trkpt>
      <trkpt lat="41.598536" lon="1.992320">
        <ele>449.00</ele>
        <time>1970-01-01T01:12:18Z</time>
      </trkpt>
      <trkpt lat="41.598507" lon="1.992430">
        <ele>448.40</ele>
        <time>1970-01-01T01:12:20Z</time>
      </trkpt>
      <trkpt lat="41.598491" lon="1.992486">
        <ele>448.20</ele>
        <time>1970-01-01T01:12:21Z</time>
      </trkpt>
      <trkpt lat="41.598476" lon="1.992540">
        <ele>448.00</ele>
        <time>1970-01-01T01:12:22Z</time>
      </trkpt>
      <trkpt lat="41.598468" lon="1.992593">
        <ele>447.60</ele>
        <time>1970-01-01T01:12:23Z</time>
      </trkpt>
      <trkpt lat="41.598460" lon="1.992643">
        <ele>447.20</ele>
        <time>1970-01-01T01:12:24Z</time>
      </trkpt>
      <trkpt lat="41.598456" lon="1.992684">
        <ele>446.80</ele>
        <time>1970-01-01T01:12:25Z</time>
      </trkpt>
      <trkpt lat="41.598457" lon="1.992732">
        <ele>446.40</ele>
        <time>1970-01-01T01:12:26Z</time>
      </trkpt>
      <trkpt lat="41.598456" lon="1.992836">
        <ele>445.60</ele>
        <time>1970-01-01T01:12:28Z</time>
      </trkpt>
      <trkpt lat="41.598441" lon="1.992929">
        <ele>445.00</ele>
        <time>1970-01-01T01:12:30Z</time>
      </trkpt>
      <trkpt lat="41.598440" lon="1.992977">
        <ele>444.60</ele>
        <time>1970-01-01T01:12:31Z</time>
      </trkpt>
      <trkpt lat="41.598444" lon="1.993034">
        <ele>444.20</ele>
        <time>1970-01-01T01:12:32Z</time>
      </trkpt>
      <trkpt lat="41.598460" lon="1.993156">
        <ele>443.00</ele>
        <time>1970-01-01T01:12:34Z</time>
      </trkpt>
      <trkpt lat="41.598472" lon="1.993212">
        <ele>442.80</ele>
        <time>1970-01-01T01:12:35Z</time>
      </trkpt>
      <trkpt lat="41.598484" lon="1.993264">
        <ele>442.60</ele>
        <time>1970-01-01T01:12:36Z</time>
      </trkpt>
      <trkpt lat="41.598483" lon="1.993357">
        <ele>442.40</ele>
        <time>1970-01-01T01:12:38Z</time>
      </trkpt>
      <trkpt lat="41.598466" lon="1.993395">
        <ele>442.20</ele>
        <time>1970-01-01T01:12:39Z</time>
      </trkpt>
      <trkpt lat="41.598441" lon="1.993425">
        <ele>442.20</ele>
        <time>1970-01-01T01:12:40Z</time>
      </trkpt>
      <trkpt lat="41.598415" lon="1.993453">
        <ele>441.80</ele>
        <time>1970-01-01T01:12:41Z</time>
      </trkpt>
      <trkpt lat="41.598389" lon="1.993476">
        <ele>441.40</ele>
        <time>1970-01-01T01:12:42Z</time>
      </trkpt>
      <trkpt lat="41.598362" lon="1.993499">
        <ele>440.80</ele>
        <time>1970-01-01T01:12:43Z</time>
      </trkpt>
      <trkpt lat="41.598334" lon="1.993526">
        <ele>440.20</ele>
        <time>1970-01-01T01:12:44Z</time>
      </trkpt>
      <trkpt lat="41.598302" lon="1.993561">
        <ele>439.60</ele>
        <time>1970-01-01T01:12:45Z</time>
      </trkpt>
      <trkpt lat="41.598273" lon="1.993599">
        <ele>439.00</ele>
        <time>1970-01-01T01:12:46Z</time>
      </trkpt>
      <trkpt lat="41.598238" lon="1.993668">
        <ele>438.20</ele>
        <time>1970-01-01T01:12:48Z</time>
      </trkpt>
      <trkpt lat="41.598217" lon="1.993715">
        <ele>437.60</ele>
        <time>1970-01-01T01:12:50Z</time>
      </trkpt>
      <trkpt lat="41.598216" lon="1.993721">
        <ele>437.20</ele>
        <time>1970-01-01T01:12:52Z</time>
      </trkpt>
      <trkpt lat="41.598192" lon="1.993776">
        <ele>434.60</ele>
        <time>1970-01-01T01:13:19Z</time>
      </trkpt>
      <trkpt lat="41.598178" lon="1.993808">
        <ele>434.60</ele>
        <time>1970-01-01T01:13:20Z</time>
      </trkpt>
      <trkpt lat="41.598149" lon="1.993885">
        <ele>434.60</ele>
        <time>1970-01-01T01:13:22Z</time>
      </trkpt>
      <trkpt lat="41.598129" lon="1.993971">
        <ele>434.60</ele>
        <time>1970-01-01T01:13:24Z</time>
      </trkpt>
      <trkpt lat="41.598099" lon="1.994070">
        <ele>434.60</ele>
        <time>1970-01-01T01:13:26Z</time>
      </trkpt>
      <trkpt lat="41.598061" lon="1.994185">
        <ele>434.60</ele>
        <time>1970-01-01T01:13:28Z</time>
      </trkpt>
      <trkpt lat="41.598026" lon="1.994311">
        <ele>434.20</ele>
        <time>1970-01-01T01:13:30Z</time>
      </trkpt>
      <trkpt lat="41.598003" lon="1.994371">
        <ele>433.80</ele>
        <time>1970-01-01T01:13:31Z</time>
      </trkpt>
      <trkpt lat="41.597977" lon="1.994431">
        <ele>433.20</ele>
        <time>1970-01-01T01:13:32Z</time>
      </trkpt>
      <trkpt lat="41.597951" lon="1.994496">
        <ele>432.60</ele>
        <time>1970-01-01T01:13:33Z</time>
      </trkpt>
      <trkpt lat="41.597926" lon="1.994566">
        <ele>432.40</ele>
        <time>1970-01-01T01:13:34Z</time>
      </trkpt>
      <trkpt lat="41.597898" lon="1.994639">
        <ele>432.00</ele>
        <time>1970-01-01T01:13:35Z</time>
      </trkpt>
      <trkpt lat="41.597871" lon="1.994711">
        <ele>431.80</ele>
        <time>1970-01-01T01:13:36Z</time>
      </trkpt>
      <trkpt lat="41.597850" lon="1.994770">
        <ele>431.40</ele>
        <time>1970-01-01T01:13:37Z</time>
      </trkpt>
      <trkpt lat="41.597843" lon="1.994819">
        <ele>431.20</ele>
        <time>1970-01-01T01:13:38Z</time>
      </trkpt>
      <trkpt lat="41.597852" lon="1.994864">
        <ele>430.80</ele>
        <time>1970-01-01T01:13:39Z</time>
      </trkpt>
      <trkpt lat="41.597870" lon="1.994904">
        <ele>430.40</ele>
        <time>1970-01-01T01:13:40Z</time>
      </trkpt>
      <trkpt lat="41.597879" lon="1.994984">
        <ele>429.40</ele>
        <time>1970-01-01T01:13:42Z</time>
      </trkpt>
      <trkpt lat="41.597852" lon="1.995057">
        <ele>428.60</ele>
        <time>1970-01-01T01:13:44Z</time>
      </trkpt>
      <trkpt lat="41.597831" lon="1.995090">
        <ele>428.00</ele>
        <time>1970-01-01T01:13:45Z</time>
      </trkpt>
      <trkpt lat="41.597810" lon="1.995112">
        <ele>427.40</ele>
        <time>1970-01-01T01:13:46Z</time>
      </trkpt>
      <trkpt lat="41.597787" lon="1.995130">
        <ele>426.80</ele>
        <time>1970-01-01T01:13:47Z</time>
      </trkpt>
      <trkpt lat="41.597756" lon="1.995149">
        <ele>426.20</ele>
        <time>1970-01-01T01:13:48Z</time>
      </trkpt>
      <trkpt lat="41.597721" lon="1.995172">
        <ele>426.00</ele>
        <time>1970-01-01T01:13:49Z</time>
      </trkpt>
      <trkpt lat="41.597685" lon="1.995207">
        <ele>425.80</ele>
        <time>1970-01-01T01:13:50Z</time>
      </trkpt>
      <trkpt lat="41.597632" lon="1.995306">
        <ele>425.80</ele>
        <time>1970-01-01T01:13:52Z</time>
      </trkpt>
      <trkpt lat="41.597614" lon="1.995363">
        <ele>425.80</ele>
        <time>1970-01-01T01:13:53Z</time>
      </trkpt>
      <trkpt lat="41.597597" lon="1.995423">
        <ele>425.80</ele>
        <time>1970-01-01T01:13:54Z</time>
      </trkpt>
      <trkpt lat="41.597574" lon="1.995484">
        <ele>425.80</ele>
        <time>1970-01-01T01:13:55Z</time>
      </trkpt>
      <trkpt lat="41.597547" lon="1.995544">
        <ele>425.80</ele>
        <time>1970-01-01T01:13:56Z</time>
      </trkpt>
      <trkpt lat="41.597499" lon="1.995657">
        <ele>425.80</ele>
        <time>1970-01-01T01:13:58Z</time>
      </trkpt>
      <trkpt lat="41.597448" lon="1.995780">
        <ele>426.40</ele>
        <time>1970-01-01T01:14:00Z</time>
      </trkpt>
      <trkpt lat="41.597399" lon="1.995925">
        <ele>426.80</ele>
        <time>1970-01-01T01:14:02Z</time>
      </trkpt>
      <trkpt lat="41.597368" lon="1.996000">
        <ele>426.80</ele>
        <time>1970-01-01T01:14:03Z</time>
      </trkpt>
      <trkpt lat="41.597333" lon="1.996073">
        <ele>427.00</ele>
        <time>1970-01-01T01:14:04Z</time>
      </trkpt>
      <trkpt lat="41.597293" lon="1.996137">
        <ele>427.00</ele>
        <time>1970-01-01T01:14:05Z</time>
      </trkpt>
      <trkpt lat="41.597249" lon="1.996202">
        <ele>427.00</ele>
        <time>1970-01-01T01:14:06Z</time>
      </trkpt>
      <trkpt lat="41.597205" lon="1.996265">
        <ele>427.00</ele>
        <time>1970-01-01T01:14:07Z</time>
      </trkpt>
      <trkpt lat="41.597158" lon="1.996330">
        <ele>427.00</ele>
        <time>1970-01-01T01:14:08Z</time>
      </trkpt>
      <trkpt lat="41.597071" lon="1.996467">
        <ele>427.00</ele>
        <time>1970-01-01T01:14:10Z</time>
      </trkpt>
      <trkpt lat="41.597045" lon="1.996536">
        <ele>427.00</ele>
        <time>1970-01-01T01:14:11Z</time>
      </trkpt>
      <trkpt lat="41.597020" lon="1.996602">
        <ele>426.60</ele>
        <time>1970-01-01T01:14:12Z</time>
      </trkpt>
      <trkpt lat="41.596945" lon="1.996686">
        <ele>426.20</ele>
        <time>1970-01-01T01:14:14Z</time>
      </trkpt>
      <trkpt lat="41.596847" lon="1.996725">
        <ele>426.00</ele>
        <time>1970-01-01T01:14:16Z</time>
      </trkpt>
      <trkpt lat="41.596799" lon="1.996736">
        <ele>425.80</ele>
        <time>1970-01-01T01:14:17Z</time>
      </trkpt>
      <trkpt lat="41.596749" lon="1.996751">
        <ele>425.20</ele>
        <time>1970-01-01T01:14:18Z</time>
      </trkpt>
      <trkpt lat="41.596645" lon="1.996821">
        <ele>424.00</ele>
        <time>1970-01-01T01:14:20Z</time>
      </trkpt>
      <trkpt lat="41.596590" lon="1.996874">
        <ele>423.60</ele>
        <time>1970-01-01T01:14:21Z</time>
      </trkpt>
      <trkpt lat="41.596536" lon="1.996930">
        <ele>423.60</ele>
        <time>1970-01-01T01:14:22Z</time>
      </trkpt>
      <trkpt lat="41.596436" lon="1.997055">
        <ele>423.20</ele>
        <time>1970-01-01T01:14:24Z</time>
      </trkpt>
      <trkpt lat="41.596392" lon="1.997130">
        <ele>422.80</ele>
        <time>1970-01-01T01:14:25Z</time>
      </trkpt>
      <trkpt lat="41.596344" lon="1.997206">
        <ele>422.80</ele>
        <time>1970-01-01T01:14:26Z</time>
      </trkpt>
      <trkpt lat="41.596230" lon="1.997352">
        <ele>422.60</ele>
        <time>1970-01-01T01:14:28Z</time>
      </trkpt>
      <trkpt lat="41.596113" lon="1.997498">
        <ele>422.60</ele>
        <time>1970-01-01T01:14:30Z</time>
      </trkpt>
      <trkpt lat="41.596051" lon="1.997574">
        <ele>422.40</ele>
        <time>1970-01-01T01:14:31Z</time>
      </trkpt>
      <trkpt lat="41.595987" lon="1.997650">
        <ele>422.40</ele>
        <time>1970-01-01T01:14:32Z</time>
      </trkpt>
      <trkpt lat="41.595861" lon="1.997788">
        <ele>422.20</ele>
        <time>1970-01-01T01:14:34Z</time>
      </trkpt>
      <trkpt lat="41.595793" lon="1.997847">
        <ele>422.00</ele>
        <time>1970-01-01T01:14:35Z</time>
      </trkpt>
      <trkpt lat="41.595727" lon="1.997889">
        <ele>421.80</ele>
        <time>1970-01-01T01:14:36Z</time>
      </trkpt>
      <trkpt lat="41.595665" lon="1.997920">
        <ele>421.80</ele>
        <time>1970-01-01T01:14:37Z</time>
      </trkpt>
      <trkpt lat="41.595604" lon="1.997954">
        <ele>421.80</ele>
        <time>1970-01-01T01:14:38Z</time>
      </trkpt>
      <trkpt lat="41.595487" lon="1.998033">
        <ele>421.60</ele>
        <time>1970-01-01T01:14:40Z</time>
      </trkpt>
      <trkpt lat="41.595436" lon="1.998076">
        <ele>421.40</ele>
        <time>1970-01-01T01:14:41Z</time>
      </trkpt>
      <trkpt lat="41.595381" lon="1.998112">
        <ele>421.00</ele>
        <time>1970-01-01T01:14:42Z</time>
      </trkpt>
      <trkpt lat="41.595327" lon="1.998140">
        <ele>420.60</ele>
        <time>1970-01-01T01:14:43Z</time>
      </trkpt>
      <trkpt lat="41.595274" lon="1.998154">
        <ele>420.00</ele>
        <time>1970-01-01T01:14:44Z</time>
      </trkpt>
      <trkpt lat="41.595221" lon="1.998167">
        <ele>419.20</ele>
        <time>1970-01-01T01:14:45Z</time>
      </trkpt>
      <trkpt lat="41.595166" lon="1.998184">
        <ele>418.40</ele>
        <time>1970-01-01T01:14:46Z</time>
      </trkpt>
      <trkpt lat="41.595111" lon="1.998196">
        <ele>418.00</ele>
        <time>1970-01-01T01:14:47Z</time>
      </trkpt>
      <trkpt lat="41.595056" lon="1.998202">
        <ele>417.80</ele>
        <time>1970-01-01T01:14:48Z</time>
      </trkpt>
      <trkpt lat="41.595002" lon="1.998220">
        <ele>417.20</ele>
        <time>1970-01-01T01:14:49Z</time>
      </trkpt>
      <trkpt lat="41.594948" lon="1.998258">
        <ele>416.40</ele>
        <time>1970-01-01T01:14:50Z</time>
      </trkpt>
      <trkpt lat="41.594831" lon="1.998338">
        <ele>413.40</ele>
        <time>1970-01-01T01:14:52Z</time>
      </trkpt>
      <trkpt lat="41.594714" lon="1.998418">
        <ele>411.60</ele>
        <time>1970-01-01T01:14:54Z</time>
      </trkpt>
      <trkpt lat="41.594651" lon="1.998451">
        <ele>410.80</ele>
        <time>1970-01-01T01:14:55Z</time>
      </trkpt>
      <trkpt lat="41.594591" lon="1.998480">
        <ele>410.00</ele>
        <time>1970-01-01T01:14:56Z</time>
      </trkpt>
      <trkpt lat="41.594474" lon="1.998531">
        <ele>408.40</ele>
        <time>1970-01-01T01:14:58Z</time>
      </trkpt>
      <trkpt lat="41.594360" lon="1.998561">
        <ele>407.00</ele>
        <time>1970-01-01T01:15:00Z</time>
      </trkpt>
      <trkpt lat="41.594260" lon="1.998605">
        <ele>406.20</ele>
        <time>1970-01-01T01:15:02Z</time>
      </trkpt>
      <trkpt lat="41.594169" lon="1.998694">
        <ele>406.00</ele>
        <time>1970-01-01T01:15:04Z</time>
      </trkpt>
      <trkpt lat="41.594085" lon="1.998813">
        <ele>405.80</ele>
        <time>1970-01-01T01:15:06Z</time>
      </trkpt>
      <trkpt lat="41.593995" lon="1.998932">
        <ele>405.80</ele>
        <time>1970-01-01T01:15:08Z</time>
      </trkpt>
      <trkpt lat="41.593967" lon="1.998977">
        <ele>405.80</ele>
        <time>1970-01-01T01:15:09Z</time>
      </trkpt>
      <trkpt lat="41.593959" lon="1.999013">
        <ele>405.80</ele>
        <time>1970-01-01T01:15:10Z</time>
      </trkpt>
      <trkpt lat="41.593976" lon="1.999064">
        <ele>406.20</ele>
        <time>1970-01-01T01:15:12Z</time>
      </trkpt>
      <trkpt lat="41.593993" lon="1.999102">
        <ele>406.60</ele>
        <time>1970-01-01T01:15:14Z</time>
      </trkpt>
      <trkpt lat="41.593995" lon="1.999149">
        <ele>407.20</ele>
        <time>1970-01-01T01:15:16Z</time>
      </trkpt>
      <trkpt lat="41.593992" lon="1.999177">
        <ele>407.80</ele>
        <time>1970-01-01T01:15:17Z</time>
      </trkpt>
      <trkpt lat="41.593986" lon="1.999205">
        <ele>408.60</ele>
        <time>1970-01-01T01:15:18Z</time>
      </trkpt>
      <trkpt lat="41.593962" lon="1.999253">
        <ele>410.20</ele>
        <time>1970-01-01T01:15:20Z</time>
      </trkpt>
      <trkpt lat="41.593930" lon="1.999325">
        <ele>411.00</ele>
        <time>1970-01-01T01:15:22Z</time>
      </trkpt>
      <trkpt lat="41.593911" lon="1.999360">
        <ele>411.40</ele>
        <time>1970-01-01T01:15:23Z</time>
      </trkpt>
      <trkpt lat="41.593891" lon="1.999392">
        <ele>411.60</ele>
        <time>1970-01-01T01:15:24Z</time>
      </trkpt>
      <trkpt lat="41.593844" lon="1.999442">
        <ele>412.20</ele>
        <time>1970-01-01T01:15:26Z</time>
      </trkpt>
      <trkpt lat="41.593818" lon="1.999462">
        <ele>412.60</ele>
        <time>1970-01-01T01:15:27Z</time>
      </trkpt>
      <trkpt lat="41.593790" lon="1.999482">
        <ele>413.00</ele>
        <time>1970-01-01T01:15:28Z</time>
      </trkpt>
      <trkpt lat="41.593733" lon="1.999521">
        <ele>413.40</ele>
        <time>1970-01-01T01:15:30Z</time>
      </trkpt>
      <trkpt lat="41.593704" lon="1.999537">
        <ele>413.60</ele>
        <time>1970-01-01T01:15:31Z</time>
      </trkpt>
      <trkpt lat="41.593674" lon="1.999552">
        <ele>413.80</ele>
        <time>1970-01-01T01:15:32Z</time>
      </trkpt>
      <trkpt lat="41.593611" lon="1.999586">
        <ele>413.80</ele>
        <time>1970-01-01T01:15:34Z</time>
      </trkpt>
      <trkpt lat="41.593548" lon="1.999621">
        <ele>413.80</ele>
        <time>1970-01-01T01:15:36Z</time>
      </trkpt>
      <trkpt lat="41.593484" lon="1.999669">
        <ele>413.80</ele>
        <time>1970-01-01T01:15:38Z</time>
      </trkpt>
      <trkpt lat="41.593420" lon="1.999732">
        <ele>413.80</ele>
        <time>1970-01-01T01:15:40Z</time>
      </trkpt>
      <trkpt lat="41.593388" lon="1.999770">
        <ele>413.80</ele>
        <time>1970-01-01T01:15:41Z</time>
      </trkpt>
      <trkpt lat="41.593357" lon="1.999812">
        <ele>413.80</ele>
        <time>1970-01-01T01:15:42Z</time>
      </trkpt>
      <trkpt lat="41.593296" lon="1.999902">
        <ele>413.80</ele>
        <time>1970-01-01T01:15:44Z</time>
      </trkpt>
      <trkpt lat="41.593250" lon="2.000008">
        <ele>413.60</ele>
        <time>1970-01-01T01:15:46Z</time>
      </trkpt>
      <trkpt lat="41.593234" lon="2.000063">
        <ele>413.60</ele>
        <time>1970-01-01T01:15:47Z</time>
      </trkpt>
      <trkpt lat="41.593215" lon="2.000118">
        <ele>413.40</ele>
        <time>1970-01-01T01:15:48Z</time>
      </trkpt>
      <trkpt lat="41.593188" lon="2.000234">
        <ele>413.00</ele>
        <time>1970-01-01T01:15:50Z</time>
      </trkpt>
      <trkpt lat="41.593178" lon="2.000292">
        <ele>413.00</ele>
        <time>1970-01-01T01:15:51Z</time>
      </trkpt>
      <trkpt lat="41.593171" lon="2.000352">
        <ele>412.80</ele>
        <time>1970-01-01T01:15:52Z</time>
      </trkpt>
      <trkpt lat="41.593169" lon="2.000412">
        <ele>412.80</ele>
        <time>1970-01-01T01:15:53Z</time>
      </trkpt>
      <trkpt lat="41.593175" lon="2.000470">
        <ele>412.80</ele>
        <time>1970-01-01T01:15:54Z</time>
      </trkpt>
      <trkpt lat="41.593207" lon="2.000569">
        <ele>412.80</ele>
        <time>1970-01-01T01:15:56Z</time>
      </trkpt>
      <trkpt lat="41.593221" lon="2.000597">
        <ele>412.80</ele>
        <time>1970-01-01T01:15:57Z</time>
      </trkpt>
      <trkpt lat="41.593234" lon="2.000625">
        <ele>412.80</ele>
        <time>1970-01-01T01:15:58Z</time>
      </trkpt>
      <trkpt lat="41.593266" lon="2.000674">
        <ele>412.80</ele>
        <time>1970-01-01T01:16:00Z</time>
      </trkpt>
      <trkpt lat="41.593292" lon="2.000711">
        <ele>412.80</ele>
        <time>1970-01-01T01:16:02Z</time>
      </trkpt>
      <trkpt lat="41.593299" lon="2.000774">
        <ele>413.00</ele>
        <time>1970-01-01T01:16:04Z</time>
      </trkpt>
      <trkpt lat="41.593323" lon="2.000842">
        <ele>413.80</ele>
        <time>1970-01-01T01:16:06Z</time>
      </trkpt>
      <trkpt lat="41.593346" lon="2.000862">
        <ele>414.20</ele>
        <time>1970-01-01T01:16:07Z</time>
      </trkpt>
      <trkpt lat="41.593367" lon="2.000887">
        <ele>414.40</ele>
        <time>1970-01-01T01:16:08Z</time>
      </trkpt>
      <trkpt lat="41.593408" lon="2.000943">
        <ele>414.60</ele>
        <time>1970-01-01T01:16:10Z</time>
      </trkpt>
      <trkpt lat="41.593422" lon="2.000974">
        <ele>414.80</ele>
        <time>1970-01-01T01:16:11Z</time>
      </trkpt>
      <trkpt lat="41.593431" lon="2.001010">
        <ele>414.80</ele>
        <time>1970-01-01T01:16:12Z</time>
      </trkpt>
      <trkpt lat="41.593446" lon="2.001107">
        <ele>414.80</ele>
        <time>1970-01-01T01:16:14Z</time>
      </trkpt>
      <trkpt lat="41.593462" lon="2.001165">
        <ele>414.80</ele>
        <time>1970-01-01T01:16:15Z</time>
      </trkpt>
      <trkpt lat="41.593485" lon="2.001231">
        <ele>415.00</ele>
        <time>1970-01-01T01:16:16Z</time>
      </trkpt>
      <trkpt lat="41.593506" lon="2.001303">
        <ele>415.00</ele>
        <time>1970-01-01T01:16:17Z</time>
      </trkpt>
      <trkpt lat="41.593524" lon="2.001379">
        <ele>415.00</ele>
        <time>1970-01-01T01:16:18Z</time>
      </trkpt>
      <trkpt lat="41.593587" lon="2.001475">
        <ele>415.00</ele>
        <time>1970-01-01T01:16:20Z</time>
      </trkpt>
      <trkpt lat="41.593636" lon="2.001514">
        <ele>415.00</ele>
        <time>1970-01-01T01:16:21Z</time>
      </trkpt>
      <trkpt lat="41.593696" lon="2.001559">
        <ele>415.00</ele>
        <time>1970-01-01T01:16:22Z</time>
      </trkpt>
      <trkpt lat="41.593760" lon="2.001612">
        <ele>415.00</ele>
        <time>1970-01-01T01:16:23Z</time>
      </trkpt>
      <trkpt lat="41.593825" lon="2.001676">
        <ele>415.00</ele>
        <time>1970-01-01T01:16:24Z</time>
      </trkpt>
      <trkpt lat="41.593957" lon="2.001816">
        <ele>414.80</ele>
        <time>1970-01-01T01:16:26Z</time>
      </trkpt>
      <trkpt lat="41.594085" lon="2.001953">
        <ele>413.80</ele>
        <time>1970-01-01T01:16:28Z</time>
      </trkpt>
      <trkpt lat="41.594137" lon="2.002016">
        <ele>413.20</ele>
        <time>1970-01-01T01:16:29Z</time>
      </trkpt>
      <trkpt lat="41.594177" lon="2.002079">
        <ele>412.60</ele>
        <time>1970-01-01T01:16:30Z</time>
      </trkpt>
      <trkpt lat="41.594210" lon="2.002143">
        <ele>411.60</ele>
        <time>1970-01-01T01:16:31Z</time>
      </trkpt>
      <trkpt lat="41.594246" lon="2.002200">
        <ele>410.60</ele>
        <time>1970-01-01T01:16:32Z</time>
      </trkpt>
      <trkpt lat="41.594281" lon="2.002246">
        <ele>409.00</ele>
        <time>1970-01-01T01:16:33Z</time>
      </trkpt>
      <trkpt lat="41.594314" lon="2.002283">
        <ele>407.60</ele>
        <time>1970-01-01T01:16:34Z</time>
      </trkpt>
      <trkpt lat="41.594354" lon="2.002311">
        <ele>406.00</ele>
        <time>1970-01-01T01:16:35Z</time>
      </trkpt>
      <trkpt lat="41.594400" lon="2.002329">
        <ele>404.00</ele>
        <time>1970-01-01T01:16:36Z</time>
      </trkpt>
      <trkpt lat="41.594459" lon="2.002346">
        <ele>402.00</ele>
        <time>1970-01-01T01:16:37Z</time>
      </trkpt>
      <trkpt lat="41.594512" lon="2.002368">
        <ele>400.00</ele>
        <time>1970-01-01T01:16:38Z</time>
      </trkpt>
      <trkpt lat="41.594547" lon="2.002413">
        <ele>398.40</ele>
        <time>1970-01-01T01:16:39Z</time>
      </trkpt>
      <trkpt lat="41.594584" lon="2.002468">
        <ele>397.00</ele>
        <time>1970-01-01T01:16:40Z</time>
      </trkpt>
      <trkpt lat="41.594628" lon="2.002526">
        <ele>395.80</ele>
        <time>1970-01-01T01:16:41Z</time>
      </trkpt>
      <trkpt lat="41.594674" lon="2.002580">
        <ele>394.60</ele>
        <time>1970-01-01T01:16:42Z</time>
      </trkpt>
      <trkpt lat="41.594711" lon="2.002628">
        <ele>392.20</ele>
        <time>1970-01-01T01:16:43Z</time>
      </trkpt>
      <trkpt lat="41.594740" lon="2.002661">
        <ele>391.40</ele>
        <time>1970-01-01T01:16:44Z</time>
      </trkpt>
      <trkpt lat="41.594766" lon="2.002675">
        <ele>390.40</ele>
        <time>1970-01-01T01:16:45Z</time>
      </trkpt>
      <trkpt lat="41.594792" lon="2.002684">
        <ele>389.40</ele>
        <time>1970-01-01T01:16:46Z</time>
      </trkpt>
      <trkpt lat="41.594815" lon="2.002687">
        <ele>388.40</ele>
        <time>1970-01-01T01:16:47Z</time>
      </trkpt>
      <trkpt lat="41.594841" lon="2.002690">
        <ele>387.40</ele>
        <time>1970-01-01T01:16:48Z</time>
      </trkpt>
      <trkpt lat="41.594870" lon="2.002696">
        <ele>387.00</ele>
        <time>1970-01-01T01:16:49Z</time>
      </trkpt>
      <trkpt lat="41.594895" lon="2.002706">
        <ele>386.60</ele>
        <time>1970-01-01T01:16:50Z</time>
      </trkpt>
      <trkpt lat="41.594911" lon="2.002727">
        <ele>385.80</ele>
        <time>1970-01-01T01:16:51Z</time>
      </trkpt>
      <trkpt lat="41.594925" lon="2.002756">
        <ele>385.60</ele>
        <time>1970-01-01T01:16:52Z</time>
      </trkpt>
      <trkpt lat="41.594939" lon="2.002785">
        <ele>385.40</ele>
        <time>1970-01-01T01:16:53Z</time>
      </trkpt>
      <trkpt lat="41.594950" lon="2.002814">
        <ele>385.40</ele>
        <time>1970-01-01T01:16:54Z</time>
      </trkpt>
      <trkpt lat="41.594972" lon="2.002858">
        <ele>385.20</ele>
        <time>1970-01-01T01:16:56Z</time>
      </trkpt>
      <trkpt lat="41.595004" lon="2.002902">
        <ele>385.20</ele>
        <time>1970-01-01T01:16:58Z</time>
      </trkpt>
      <trkpt lat="41.595024" lon="2.002918">
        <ele>385.20</ele>
        <time>1970-01-01T01:16:59Z</time>
      </trkpt>
      <trkpt lat="41.595045" lon="2.002930">
        <ele>385.20</ele>
        <time>1970-01-01T01:17:00Z</time>
      </trkpt>
      <trkpt lat="41.595089" lon="2.002959">
        <ele>385.40</ele>
        <time>1970-01-01T01:17:02Z</time>
      </trkpt>
      <trkpt lat="41.595115" lon="2.002969">
        <ele>386.00</ele>
        <time>1970-01-01T01:17:03Z</time>
      </trkpt>
      <trkpt lat="41.595140" lon="2.002973">
        <ele>386.40</ele>
        <time>1970-01-01T01:17:04Z</time>
      </trkpt>
      <trkpt lat="41.595164" lon="2.002976">
        <ele>387.00</ele>
        <time>1970-01-01T01:17:05Z</time>
      </trkpt>
      <trkpt lat="41.595187" lon="2.002979">
        <ele>387.40</ele>
        <time>1970-01-01T01:17:06Z</time>
      </trkpt>
      <trkpt lat="41.595229" lon="2.002978">
        <ele>388.20</ele>
        <time>1970-01-01T01:17:08Z</time>
      </trkpt>
      <trkpt lat="41.595251" lon="2.002976">
        <ele>388.60</ele>
        <time>1970-01-01T01:17:09Z</time>
      </trkpt>
      <trkpt lat="41.595276" lon="2.002972">
        <ele>389.20</ele>
        <time>1970-01-01T01:17:10Z</time>
      </trkpt>
      <trkpt lat="41.595303" lon="2.002966">
        <ele>389.60</ele>
        <time>1970-01-01T01:17:11Z</time>
      </trkpt>
      <trkpt lat="41.595330" lon="2.002962">
        <ele>389.80</ele>
        <time>1970-01-01T01:17:12Z</time>
      </trkpt>
      <trkpt lat="41.595383" lon="2.002960">
        <ele>390.40</ele>
        <time>1970-01-01T01:17:14Z</time>
      </trkpt>
      <trkpt lat="41.595410" lon="2.002963">
        <ele>390.60</ele>
        <time>1970-01-01T01:17:15Z</time>
      </trkpt>
      <trkpt lat="41.595438" lon="2.002969">
        <ele>391.00</ele>
        <time>1970-01-01T01:17:16Z</time>
      </trkpt>
      <trkpt lat="41.595491" lon="2.002982">
        <ele>391.60</ele>
        <time>1970-01-01T01:17:18Z</time>
      </trkpt>
      <trkpt lat="41.595515" lon="2.002990">
        <ele>391.80</ele>
        <time>1970-01-01T01:17:19Z</time>
      </trkpt>
      <trkpt lat="41.595534" lon="2.003011">
        <ele>392.20</ele>
        <time>1970-01-01T01:17:20Z</time>
      </trkpt>
      <trkpt lat="41.595553" lon="2.003081">
        <ele>392.80</ele>
        <time>1970-01-01T01:17:22Z</time>
      </trkpt>
      <trkpt lat="41.595549" lon="2.003115">
        <ele>393.20</ele>
        <time>1970-01-01T01:17:23Z</time>
      </trkpt>
      <trkpt lat="41.595534" lon="2.003143">
        <ele>393.60</ele>
        <time>1970-01-01T01:17:24Z</time>
      </trkpt>
      <trkpt lat="41.595497" lon="2.003184">
        <ele>394.00</ele>
        <time>1970-01-01T01:17:26Z</time>
      </trkpt>
      <trkpt lat="41.595450" lon="2.003217">
        <ele>394.60</ele>
        <time>1970-01-01T01:17:28Z</time>
      </trkpt>
      <trkpt lat="41.595425" lon="2.003233">
        <ele>394.80</ele>
        <time>1970-01-01T01:17:29Z</time>
      </trkpt>
      <trkpt lat="41.595404" lon="2.003245">
        <ele>395.00</ele>
        <time>1970-01-01T01:17:30Z</time>
      </trkpt>
      <trkpt lat="41.595363" lon="2.003271">
        <ele>395.40</ele>
        <time>1970-01-01T01:17:32Z</time>
      </trkpt>
      <trkpt lat="41.595327" lon="2.003318">
        <ele>395.80</ele>
        <time>1970-01-01T01:17:34Z</time>
      </trkpt>
      <trkpt lat="41.595309" lon="2.003350">
        <ele>396.00</ele>
        <time>1970-01-01T01:17:35Z</time>
      </trkpt>
      <trkpt lat="41.595286" lon="2.003376">
        <ele>396.40</ele>
        <time>1970-01-01T01:17:36Z</time>
      </trkpt>
      <trkpt lat="41.595247" lon="2.003432">
        <ele>397.00</ele>
        <time>1970-01-01T01:17:38Z</time>
      </trkpt>
      <trkpt lat="41.595233" lon="2.003467">
        <ele>397.20</ele>
        <time>1970-01-01T01:17:39Z</time>
      </trkpt>
      <trkpt lat="41.595218" lon="2.003502">
        <ele>397.40</ele>
        <time>1970-01-01T01:17:40Z</time>
      </trkpt>
      <trkpt lat="41.595203" lon="2.003537">
        <ele>397.80</ele>
        <time>1970-01-01T01:17:41Z</time>
      </trkpt>
      <trkpt lat="41.595188" lon="2.003580">
        <ele>398.00</ele>
        <time>1970-01-01T01:17:42Z</time>
      </trkpt>
      <trkpt lat="41.595175" lon="2.003625">
        <ele>398.20</ele>
        <time>1970-01-01T01:17:43Z</time>
      </trkpt>
      <trkpt lat="41.595164" lon="2.003673">
        <ele>398.40</ele>
        <time>1970-01-01T01:17:44Z</time>
      </trkpt>
      <trkpt lat="41.595149" lon="2.003776">
        <ele>399.20</ele>
        <time>1970-01-01T01:17:46Z</time>
      </trkpt>
      <trkpt lat="41.595144" lon="2.003826">
        <ele>399.40</ele>
        <time>1970-01-01T01:17:47Z</time>
      </trkpt>
      <trkpt lat="41.595139" lon="2.003876">
        <ele>399.80</ele>
        <time>1970-01-01T01:17:48Z</time>
      </trkpt>
      <trkpt lat="41.595129" lon="2.003972">
        <ele>400.40</ele>
        <time>1970-01-01T01:17:50Z</time>
      </trkpt>
      <trkpt lat="41.595124" lon="2.004021">
        <ele>400.60</ele>
        <time>1970-01-01T01:17:51Z</time>
      </trkpt>
      <trkpt lat="41.595120" lon="2.004071">
        <ele>400.60</ele>
        <time>1970-01-01T01:17:52Z</time>
      </trkpt>
      <trkpt lat="41.595113" lon="2.004176">
        <ele>401.00</ele>
        <time>1970-01-01T01:17:54Z</time>
      </trkpt>
      <trkpt lat="41.595102" lon="2.004285">
        <ele>401.20</ele>
        <time>1970-01-01T01:17:56Z</time>
      </trkpt>
      <trkpt lat="41.595077" lon="2.004406">
        <ele>401.60</ele>
        <time>1970-01-01T01:17:58Z</time>
      </trkpt>
      <trkpt lat="41.595044" lon="2.004531">
        <ele>401.60</ele>
        <time>1970-01-01T01:18:00Z</time>
      </trkpt>
      <trkpt lat="41.594986" lon="2.004663">
        <ele>401.80</ele>
        <time>1970-01-01T01:18:02Z</time>
      </trkpt>
      <trkpt lat="41.594916" lon="2.004785">
        <ele>401.80</ele>
        <time>1970-01-01T01:18:04Z</time>
      </trkpt>
      <trkpt lat="41.594878" lon="2.004878">
        <ele>401.80</ele>
        <time>1970-01-01T01:18:06Z</time>
      </trkpt>
      <trkpt lat="41.594880" lon="2.004949">
        <ele>401.80</ele>
        <time>1970-01-01T01:18:08Z</time>
      </trkpt>
      <trkpt lat="41.594900" lon="2.004985">
        <ele>401.80</ele>
        <time>1970-01-01T01:18:09Z</time>
      </trkpt>
      <trkpt lat="41.594929" lon="2.005018">
        <ele>401.60</ele>
        <time>1970-01-01T01:18:10Z</time>
      </trkpt>
      <trkpt lat="41.594988" lon="2.005090">
        <ele>400.60</ele>
        <time>1970-01-01T01:18:12Z</time>
      </trkpt>
      <trkpt lat="41.595006" lon="2.005135">
        <ele>400.00</ele>
        <time>1970-01-01T01:18:13Z</time>
      </trkpt>
      <trkpt lat="41.594997" lon="2.005184">
        <ele>399.00</ele>
        <time>1970-01-01T01:18:14Z</time>
      </trkpt>
      <trkpt lat="41.594979" lon="2.005232">
        <ele>398.40</ele>
        <time>1970-01-01T01:18:15Z</time>
      </trkpt>
      <trkpt lat="41.594947" lon="2.005259">
        <ele>397.60</ele>
        <time>1970-01-01T01:18:16Z</time>
      </trkpt>
      <trkpt lat="41.594909" lon="2.005274">
        <ele>396.80</ele>
        <time>1970-01-01T01:18:17Z</time>
      </trkpt>
      <trkpt lat="41.594868" lon="2.005282">
        <ele>396.40</ele>
        <time>1970-01-01T01:18:18Z</time>
      </trkpt>
      <trkpt lat="41.594784" lon="2.005297">
        <ele>395.80</ele>
        <time>1970-01-01T01:18:20Z</time>
      </trkpt>
      <trkpt lat="41.594749" lon="2.005317">
        <ele>395.80</ele>
        <time>1970-01-01T01:18:21Z</time>
      </trkpt>
      <trkpt lat="41.594726" lon="2.005348">
        <ele>395.60</ele>
        <time>1970-01-01T01:18:22Z</time>
      </trkpt>
      <trkpt lat="41.594713" lon="2.005380">
        <ele>395.60</ele>
        <time>1970-01-01T01:18:23Z</time>
      </trkpt>
      <trkpt lat="41.594707" lon="2.005407">
        <ele>395.60</ele>
        <time>1970-01-01T01:18:24Z</time>
      </trkpt>
      <trkpt lat="41.594701" lon="2.005459">
        <ele>395.60</ele>
        <time>1970-01-01T01:18:26Z</time>
      </trkpt>
      <trkpt lat="41.594690" lon="2.005509">
        <ele>395.60</ele>
        <time>1970-01-01T01:18:28Z</time>
      </trkpt>
      <trkpt lat="41.594695" lon="2.005568">
        <ele>396.00</ele>
        <time>1970-01-01T01:18:30Z</time>
      </trkpt>
      <trkpt lat="41.594715" lon="2.005624">
        <ele>397.00</ele>
        <time>1970-01-01T01:18:32Z</time>
      </trkpt>
      <trkpt lat="41.594724" lon="2.005649">
        <ele>398.40</ele>
        <time>1970-01-01T01:18:33Z</time>
      </trkpt>
      <trkpt lat="41.594726" lon="2.005676">
        <ele>399.00</ele>
        <time>1970-01-01T01:18:34Z</time>
      </trkpt>
      <trkpt lat="41.594731" lon="2.005708">
        <ele>399.60</ele>
        <time>1970-01-01T01:18:35Z</time>
      </trkpt>
      <trkpt lat="41.594738" lon="2.005743">
        <ele>400.00</ele>
        <time>1970-01-01T01:18:36Z</time>
      </trkpt>
      <trkpt lat="41.594743" lon="2.005781">
        <ele>400.60</ele>
        <time>1970-01-01T01:18:37Z</time>
      </trkpt>
      <trkpt lat="41.594750" lon="2.005824">
        <ele>401.20</ele>
        <time>1970-01-01T01:18:38Z</time>
      </trkpt>
      <trkpt lat="41.594760" lon="2.005865">
        <ele>401.60</ele>
        <time>1970-01-01T01:18:39Z</time>
      </trkpt>
      <trkpt lat="41.594768" lon="2.005900">
        <ele>402.00</ele>
        <time>1970-01-01T01:18:40Z</time>
      </trkpt>
      <trkpt lat="41.594778" lon="2.005975">
        <ele>402.40</ele>
        <time>1970-01-01T01:18:42Z</time>
      </trkpt>
      <trkpt lat="41.594777" lon="2.006062">
        <ele>403.00</ele>
        <time>1970-01-01T01:18:44Z</time>
      </trkpt>
      <trkpt lat="41.594776" lon="2.006111">
        <ele>403.20</ele>
        <time>1970-01-01T01:18:45Z</time>
      </trkpt>
      <trkpt lat="41.594776" lon="2.006161">
        <ele>403.20</ele>
        <time>1970-01-01T01:18:46Z</time>
      </trkpt>
      <trkpt lat="41.594786" lon="2.006266">
        <ele>403.60</ele>
        <time>1970-01-01T01:18:48Z</time>
      </trkpt>
      <trkpt lat="41.594802" lon="2.006376">
        <ele>404.00</ele>
        <time>1970-01-01T01:18:50Z</time>
      </trkpt>
      <trkpt lat="41.594808" lon="2.006436">
        <ele>404.20</ele>
        <time>1970-01-01T01:18:51Z</time>
      </trkpt>
      <trkpt lat="41.594811" lon="2.006498">
        <ele>404.20</ele>
        <time>1970-01-01T01:18:52Z</time>
      </trkpt>
      <trkpt lat="41.594800" lon="2.006616">
        <ele>404.40</ele>
        <time>1970-01-01T01:18:54Z</time>
      </trkpt>
      <trkpt lat="41.594796" lon="2.006666">
        <ele>404.60</ele>
        <time>1970-01-01T01:18:55Z</time>
      </trkpt>
      <trkpt lat="41.594796" lon="2.006713">
        <ele>404.60</ele>
        <time>1970-01-01T01:18:56Z</time>
      </trkpt>
      <trkpt lat="41.594797" lon="2.006753">
        <ele>404.80</ele>
        <time>1970-01-01T01:18:57Z</time>
      </trkpt>
      <trkpt lat="41.594803" lon="2.006786">
        <ele>404.80</ele>
        <time>1970-01-01T01:18:58Z</time>
      </trkpt>
      <trkpt lat="41.594807" lon="2.006838">
        <ele>405.00</ele>
        <time>1970-01-01T01:19:00Z</time>
      </trkpt>
      <trkpt lat="41.594791" lon="2.006896">
        <ele>405.20</ele>
        <time>1970-01-01T01:19:02Z</time>
      </trkpt>
      <trkpt lat="41.594776" lon="2.006969">
        <ele>405.20</ele>
        <time>1970-01-01T01:19:04Z</time>
      </trkpt>
      <trkpt lat="41.594779" lon="2.007032">
        <ele>405.40</ele>
        <time>1970-01-01T01:19:06Z</time>
      </trkpt>
      <trkpt lat="41.594780" lon="2.007071">
        <ele>405.60</ele>
        <time>1970-01-01T01:19:08Z</time>
      </trkpt>
      <trkpt lat="41.594782" lon="2.007112">
        <ele>405.60</ele>
        <time>1970-01-01T01:19:10Z</time>
      </trkpt>
      <trkpt lat="41.594778" lon="2.007141">
        <ele>405.60</ele>
        <time>1970-01-01T01:19:12Z</time>
      </trkpt>
      <trkpt lat="41.594771" lon="2.007174">
        <ele>405.60</ele>
        <time>1970-01-01T01:19:14Z</time>
      </trkpt>
      <trkpt lat="41.594766" lon="2.007208">
        <ele>405.60</ele>
        <time>1970-01-01T01:19:16Z</time>
      </trkpt>
      <trkpt lat="41.594768" lon="2.007247">
        <ele>405.40</ele>
        <time>1970-01-01T01:19:18Z</time>
      </trkpt>
      <trkpt lat="41.594770" lon="2.007291">
        <ele>405.40</ele>
        <time>1970-01-01T01:19:20Z</time>
      </trkpt>
      <trkpt lat="41.594772" lon="2.007316">
        <ele>405.20</ele>
        <time>1970-01-01T01:19:21Z</time>
      </trkpt>
      <trkpt lat="41.594777" lon="2.007341">
        <ele>405.00</ele>
        <time>1970-01-01T01:19:22Z</time>
      </trkpt>
      <trkpt lat="41.594789" lon="2.007381">
        <ele>404.60</ele>
        <time>1970-01-01T01:19:24Z</time>
      </trkpt>
      <trkpt lat="41.594799" lon="2.007408">
        <ele>404.00</ele>
        <time>1970-01-01T01:19:26Z</time>
      </trkpt>
      <trkpt lat="41.594800" lon="2.007423">
        <ele>403.80</ele>
        <time>1970-01-01T01:19:27Z</time>
      </trkpt>
      <trkpt lat="41.594800" lon="2.007439">
        <ele>403.20</ele>
        <time>1970-01-01T01:19:28Z</time>
      </trkpt>
      <trkpt lat="41.594810" lon="2.007477">
        <ele>402.80</ele>
        <time>1970-01-01T01:19:30Z</time>
      </trkpt>
      <trkpt lat="41.594820" lon="2.007520">
        <ele>402.60</ele>
        <time>1970-01-01T01:19:32Z</time>
      </trkpt>
      <trkpt lat="41.594826" lon="2.007538">
        <ele>402.20</ele>
        <time>1970-01-01T01:19:33Z</time>
      </trkpt>
      <trkpt lat="41.594832" lon="2.007557">
        <ele>402.20</ele>
        <time>1970-01-01T01:19:34Z</time>
      </trkpt>
      <trkpt lat="41.594837" lon="2.007576">
        <ele>402.00</ele>
        <time>1970-01-01T01:19:35Z</time>
      </trkpt>
      <trkpt lat="41.594844" lon="2.007599">
        <ele>402.00</ele>
        <time>1970-01-01T01:19:36Z</time>
      </trkpt>
      <trkpt lat="41.594847" lon="2.007633">
        <ele>402.00</ele>
        <time>1970-01-01T01:19:37Z</time>
      </trkpt>
      <trkpt lat="41.594844" lon="2.007679">
        <ele>402.00</ele>
        <time>1970-01-01T01:19:38Z</time>
      </trkpt>
      <trkpt lat="41.594836" lon="2.007782">
        <ele>401.40</ele>
        <time>1970-01-01T01:19:40Z</time>
      </trkpt>
      <trkpt lat="41.594904" lon="2.007716">
        <ele>401.39</ele>
        <time>1970-01-01T01:19:40.14Z</time>
      </trkpt>
      <trkpt lat="41.594977" lon="2.007678">
        <ele>401.37</ele>
        <time>1970-01-01T01:19:40.30Z</time>
      </trkpt>
      <trkpt lat="41.595064" lon="2.007654">
        <ele>401.35</ele>
        <time>1970-01-01T01:19:40.48Z</time>
      </trkpt>
      <trkpt lat="41.595152" lon="2.007641">
        <ele>401.33</ele>
        <time>1970-01-01T01:19:40.65Z</time>
      </trkpt>
      <trkpt lat="41.595217" lon="2.007635">
        <ele>401.32</ele>
        <time>1970-01-01T01:19:40.79Z</time>
      </trkpt>
      <trkpt lat="41.595246" lon="2.007622">
        <ele>401.32</ele>
        <time>1970-01-01T01:19:40.84Z</time>
      </trkpt>
      <trkpt lat="41.595287" lon="2.007618">
        <ele>401.31</ele>
        <time>1970-01-01T01:19:40.92Z</time>
      </trkpt>
      <trkpt lat="41.595310" lon="2.007612">
        <ele>401.30</ele>
        <time>1970-01-01T01:19:40.98Z</time>
      </trkpt>
      <trkpt lat="41.595350" lon="2.007610">
        <ele>401.29</ele>
        <time>1970-01-01T01:19:41.07Z</time>
      </trkpt>
      <trkpt lat="41.595378" lon="2.007597">
        <ele>401.29</ele>
        <time>1970-01-01T01:19:41.13Z</time>
      </trkpt>
      <trkpt lat="41.595403" lon="2.007586">
        <ele>401.28</ele>
        <time>1970-01-01T01:19:41.19Z</time>
      </trkpt>
      <trkpt lat="41.595450" lon="2.007569">
        <ele>401.27</ele>
        <time>1970-01-01T01:19:41.29Z</time>
      </trkpt>
      <trkpt lat="41.595479" lon="2.007540">
        <ele>401.26</ele>
        <time>1970-01-01T01:19:41.36Z</time>
      </trkpt>
      <trkpt lat="41.595507" lon="2.007513">
        <ele>401.26</ele>
        <time>1970-01-01T01:19:41.42Z</time>
      </trkpt>
      <trkpt lat="41.595539" lon="2.007482">
        <ele>401.25</ele>
        <time>1970-01-01T01:19:41.50Z</time>
      </trkpt>
      <trkpt lat="41.595564" lon="2.007458">
        <ele>401.24</ele>
        <time>1970-01-01T01:19:41.56Z</time>
      </trkpt>
      <trkpt lat="41.595589" lon="2.007433">
        <ele>401.24</ele>
        <time>1970-01-01T01:19:41.62Z</time>
      </trkpt>
      <trkpt lat="41.595617" lon="2.007406">
        <ele>401.23</ele>
        <time>1970-01-01T01:19:41.68Z</time>
      </trkpt>
      <trkpt lat="41.595638" lon="2.007374">
        <ele>401.23</ele>
        <time>1970-01-01T01:19:41.74Z</time>
      </trkpt>
      <trkpt lat="41.595665" lon="2.007351">
        <ele>401.22</ele>
        <time>1970-01-01T01:19:41.80Z</time>
      </trkpt>
      <trkpt lat="41.595698" lon="2.007322">
        <ele>401.21</ele>
        <time>1970-01-01T01:19:41.88Z</time>
      </trkpt>
      <trkpt lat="41.595794" lon="2.007210">
        <ele>401.22</ele>
        <time>1970-01-01T01:19:41.84Z</time>
      </trkpt>
      <trkpt lat="41.595927" lon="2.006928">
        <ele>401.21</ele>
        <time>1970-01-01T01:19:41.89Z</time>
      </trkpt>
      <trkpt lat="41.595947" lon="2.006726">
        <ele>401.21</ele>
        <time>1970-01-01T01:19:41.89Z</time>
      </trkpt>
      <trkpt lat="41.595817" lon="2.006397">
        <ele>401.21</ele>
        <time>1970-01-01T01:19:41.90Z</time>
      </trkpt>
      <trkpt lat="41.595794" lon="2.006205">
        <ele>401.21</ele>
        <time>1970-01-01T01:19:41.90Z</time>
      </trkpt>
      <trkpt lat="41.595912" lon="2.005975">
        <ele>401.21</ele>
        <time>1970-01-01T01:19:41.90Z</time>
      </trkpt>
      <trkpt lat="41.596052" lon="2.005797">
        <ele>401.21</ele>
        <time>1970-01-01T01:19:41.91Z</time>
      </trkpt>
      <trkpt lat="41.596194" lon="2.005757">
        <ele>401.21</ele>
        <time>1970-01-01T01:19:41.91Z</time>
      </trkpt>
      <trkpt lat="41.596293" lon="2.005750">
        <ele>401.21</ele>
        <time>1970-01-01T01:19:41.91Z</time>
      </trkpt>
      <trkpt lat="41.596419" lon="2.005662">
        <ele>401.21</ele>
        <time>1970-01-01T01:19:41.91Z</time>
      </trkpt>
      <trkpt lat="41.596512" lon="2.005684">
        <ele>401.21</ele>
        <time>1970-01-01T01:19:41.91Z</time>
      </trkpt>
      <trkpt lat="41.596619" lon="2.005802">
        <ele>401.21</ele>
        <time>1970-01-01T01:19:41.92Z</time>
      </trkpt>
      <trkpt lat="41.596677" lon="2.005853">
        <ele>401.21</ele>
        <time>1970-01-01T01:19:41.92Z</time>
      </trkpt>
      <trkpt lat="41.596781" lon="2.005787">
        <ele>401.21</ele>
        <time>1970-01-01T01:19:41.92Z</time>
      </trkpt>
      <trkpt lat="41.596834" lon="2.005549">
        <ele>401.21</ele>
        <time>1970-01-01T01:19:41.93Z</time>
      </trkpt>
      <trkpt lat="41.596902" lon="2.005420">
        <ele>401.21</ele>
        <time>1970-01-01T01:19:41.93Z</time>
      </trkpt>
      <trkpt lat="41.597017" lon="2.005302">
        <ele>401.21</ele>
        <time>1970-01-01T01:19:41.93Z</time>
      </trkpt>
      <trkpt lat="41.597150" lon="2.005186">
        <ele>401.21</ele>
        <time>1970-01-01T01:19:41.93Z</time>
      </trkpt>
      <trkpt lat="41.597264" lon="2.005046">
        <ele>401.21</ele>
        <time>1970-01-01T01:19:41.94Z</time>
      </trkpt>
      <trkpt lat="41.597413" lon="2.004994">
        <ele>401.21</ele>
        <time>1970-01-01T01:19:41.94Z</time>
      </trkpt>
      <trkpt lat="41.597566" lon="2.004847">
        <ele>401.21</ele>
        <time>1970-01-01T01:19:41.94Z</time>
      </trkpt>
      <trkpt lat="41.597654" lon="2.004686">
        <ele>401.21</ele>
        <time>1970-01-01T01:19:41.94Z</time>
      </trkpt>
      <trkpt lat="41.597741" lon="2.004529">
        <ele>401.21</ele>
        <time>1970-01-01T01:19:41.95Z</time>
      </trkpt>
      <trkpt lat="41.597835" lon="2.004422">
        <ele>401.21</ele>
        <time>1970-01-01T01:19:41.95Z</time>
      </trkpt>
      <trkpt lat="41.597912" lon="2.004275">
        <ele>401.21</ele>
        <time>1970-01-01T01:19:41.95Z</time>
      </trkpt>
      <trkpt lat="41.597983" lon="2.004194">
        <ele>401.20</ele>
        <time>1970-01-01T01:19:41.95Z</time>
      </trkpt>
      <trkpt lat="41.598104" lon="2.004158">
        <ele>401.20</ele>
        <time>1970-01-01T01:19:41.95Z</time>
      </trkpt>
      <trkpt lat="41.598238" lon="2.004040">
        <ele>401.20</ele>
        <time>1970-01-01T01:19:41.96Z</time>
      </trkpt>
      <trkpt lat="41.598335" lon="2.003959">
        <ele>401.20</ele>
        <time>1970-01-01T01:19:41.96Z</time>
      </trkpt>
      <trkpt lat="41.598417" lon="2.003871">
        <ele>401.20</ele>
        <time>1970-01-01T01:19:41.96Z</time>
      </trkpt>
      <trkpt lat="41.598507" lon="2.003728">
        <ele>401.20</ele>
        <time>1970-01-01T01:19:41.96Z</time>
      </trkpt>
      <trkpt lat="41.598587" lon="2.003600">
        <ele>401.20</ele>
        <time>1970-01-01T01:19:41.96Z</time>
      </trkpt>
      <trkpt lat="41.598667" lon="2.003474">
        <ele>401.20</ele>
        <time>1970-01-01T01:19:41.97Z</time>
      </trkpt>
      <trkpt lat="41.598735" lon="2.003358">
        <ele>401.20</ele>
        <time>1970-01-01T01:19:41.97Z</time>
      </trkpt>
      <trkpt lat="41.598839" lon="2.003233">
        <ele>401.20</ele>
        <time>1970-01-01T01:19:41.97Z</time>
      </trkpt>
      <trkpt lat="41.598883" lon="2.003086">
        <ele>401.20</ele>
        <time>1970-01-01T01:19:41.97Z</time>
      </trkpt>
      <trkpt lat="41.598960" lon="2.002947">
        <ele>401.20</ele>
        <time>1970-01-01T01:19:41.97Z</time>
      </trkpt>
      <trkpt lat="41.599092" lon="2.002931">
        <ele>401.20</ele>
        <time>1970-01-01T01:19:41.98Z</time>
      </trkpt>
      <trkpt lat="41.599202" lon="2.002910">
        <ele>401.20</ele>
        <time>1970-01-01T01:19:41.98Z</time>
      </trkpt>
      <trkpt lat="41.599350" lon="2.002881">
        <ele>401.20</ele>
        <time>1970-01-01T01:19:41.98Z</time>
      </trkpt>
      <trkpt lat="41.599471" lon="2.002844">
        <ele>401.20</ele>
        <time>1970-01-01T01:19:41.98Z</time>
      </trkpt>
      <trkpt lat="41.599594" lon="2.002762">
        <ele>401.20</ele>
        <time>1970-01-01T01:19:41.98Z</time>
      </trkpt>
      <trkpt lat="41.599724" lon="2.002676">
        <ele>401.20</ele>
        <time>1970-01-01T01:19:41.98Z</time>
      </trkpt>
      <trkpt lat="41.599862" lon="2.002584">
        <ele>401.20</ele>
        <time>1970-01-01T01:19:41.99Z</time>
      </trkpt>
      <trkpt lat="41.599985" lon="2.002516">
        <ele>401.20</ele>
        <time>1970-01-01T01:19:41.99Z</time>
      </trkpt>
      <trkpt lat="41.600124" lon="2.002404">
        <ele>401.20</ele>
        <time>1970-01-01T01:19:41.99Z</time>
      </trkpt>
      <trkpt lat="41.600249" lon="2.002347">
        <ele>401.20</ele>
        <time>1970-01-01T01:19:41.99Z</time>
      </trkpt>
      <trkpt lat="41.600349" lon="2.002345">
        <ele>401.20</ele>
        <time>1970-01-01T01:19:41.99Z</time>
      </trkpt>
      <trkpt lat="41.600453" lon="2.002286">
        <ele>401.20</ele>
        <time>1970-01-01T01:19:41.99Z</time>
      </trkpt>
      <trkpt lat="41.600546" lon="2.002202">
        <ele>401.20</ele>
        <time>1970-01-01T01:19:41.99Z</time>
      </trkpt>
      <trkpt lat="41.600667" lon="2.002173">
        <ele>401.20</ele>
        <time>1970-01-01T01:19:41.99Z</time>
      </trkpt>
      <trkpt lat="41.600782" lon="2.002191">
        <ele>401.20</ele>
        <time>1970-01-01T01:19:41.99Z</time>
      </trkpt>
      <trkpt lat="41.600870" lon="2.002198">
        <ele>401.20</ele>
        <time>1970-01-01T01:19:41.99Z</time>
      </trkpt>
      <trkpt lat="41.600959" lon="2.002232">
        <ele>401.20</ele>
        <time>1970-01-01T01:19:41.99Z</time>
      </trkpt>
      <trkpt lat="41.601048" lon="2.002265">
        <ele>401.20</ele>
        <time>1970-01-01T01:19:41.99Z</time>
      </trkpt>
      <trkpt lat="41.601112" lon="2.002275">
        <ele>401.20</ele>
        <time>1970-01-01T01:19:41.99Z</time>
      </trkpt>
      <trkpt lat="41.601194" lon="2.002341">
        <ele>401.20</ele>
        <time>1970-01-01T01:19:41.99Z</time>
      </trkpt>
      <trkpt lat="41.601279" lon="2.002415">
        <ele>401.20</ele>
        <time>1970-01-01T01:19:41.99Z</time>
      </trkpt>
      <trkpt lat="41.601372" lon="2.002506">
        <ele>401.20</ele>
        <time>1970-01-01T01:19:41.99Z</time>
      </trkpt>
      <trkpt lat="41.601466" lon="2.002561">
        <ele>401.20</ele>
        <time>1970-01-01T01:19:41.99Z</time>
      </trkpt>
      <trkpt lat="41.601545" lon="2.002583">
        <ele>401.20</ele>
        <time>1970-01-01T01:19:41.99Z</time>
      </trkpt>
      <trkpt lat="41.601641" lon="2.002635">
        <ele>401.20</ele>
        <time>1970-01-01T01:19:41.99Z</time>
      </trkpt>
      <trkpt lat="41.601696" lon="2.002734">
        <ele>401.20</ele>
        <time>1970-01-01T01:19:41.99Z</time>
      </trkpt>
      <trkpt lat="41.601740" lon="2.002859">
        <ele>401.20</ele>
        <time>1970-01-01T01:19:41.99Z</time>
      </trkpt>
      <trkpt lat="41.601787" lon="2.002961">
        <ele>401.20</ele>
        <time>1970-01-01T01:19:41.99Z</time>
      </trkpt>
      <trkpt lat="41.601844" lon="2.002998">
        <ele>401.20</ele>
        <time>1970-01-01T01:19:41.99Z</time>
      </trkpt>
      <trkpt lat="41.601902" lon="2.002939">
        <ele>401.20</ele>
        <time>1970-01-01T01:19:41.99Z</time>
      </trkpt>
      <trkpt lat="41.602012" lon="2.002914">
        <ele>401.20</ele>
        <time>1970-01-01T01:19:42Z</time>
      </trkpt>
      <trkpt lat="41.602108" lon="2.002906">
        <ele>401.20</ele>
        <time>1970-01-01T01:19:42Z</time>
      </trkpt>
      <trkpt lat="41.602209" lon="2.002899">
        <ele>401.20</ele>
        <time>1970-01-01T01:19:42Z</time>
      </trkpt>
      <trkpt lat="41.602265" lon="2.002904">
        <ele>401.20</ele>
        <time>1970-01-01T01:19:42Z</time>
      </trkpt>
      <trkpt lat="41.602319" lon="2.002866">
        <ele>401.20</ele>
        <time>1970-01-01T01:19:42Z</time>
      </trkpt>
      <trkpt lat="41.602382" lon="2.002840">
        <ele>401.20</ele>
        <time>1970-01-01T01:19:42Z</time>
      </trkpt>
      <trkpt lat="41.602440" lon="2.002837">
        <ele>401.20</ele>
        <time>1970-01-01T01:19:42Z</time>
      </trkpt>
      <trkpt lat="41.602498" lon="2.002852">
        <ele>401.20</ele>
        <time>1970-01-01T01:19:42Z</time>
      </trkpt>
      <trkpt lat="41.602577" lon="2.002862">
        <ele>401.20</ele>
        <time>1970-01-01T01:19:42Z</time>
      </trkpt>
      <trkpt lat="41.602643" lon="2.002895">
        <ele>401.20</ele>
        <time>1970-01-01T01:19:42Z</time>
      </trkpt>
      <trkpt lat="41.602706" lon="2.002912">
        <ele>401.20</ele>
        <time>1970-01-01T01:19:42Z</time>
      </trkpt>
      <trkpt lat="41.602754" lon="2.002932">
        <ele>401.20</ele>
        <time>1970-01-01T01:19:42Z</time>
      </trkpt>
      <trkpt lat="41.602817" lon="2.002942">
        <ele>401.20</ele>
        <time>1970-01-01T01:19:42Z</time>
      </trkpt>
      <trkpt lat="41.602862" lon="2.002954">
        <ele>401.20</ele>
        <time>1970-01-01T01:19:42Z</time>
      </trkpt>
      <trkpt lat="41.602909" lon="2.002932">
        <ele>401.20</ele>
        <time>1970-01-01T01:19:42Z</time>
      </trkpt>
      <trkpt lat="41.602947" lon="2.002881">
        <ele>401.20</ele>
        <time>1970-01-01T01:19:42Z</time>
      </trkpt>
      <trkpt lat="41.602977" lon="2.002816">
        <ele>401.20</ele>
        <time>1970-01-01T01:19:42Z</time>
      </trkpt>
      <trkpt lat="41.602994" lon="2.002771">
        <ele>401.20</ele>
        <time>1970-01-01T01:19:42Z</time>
      </trkpt>
      <trkpt lat="41.602997" lon="2.002705">
        <ele>401.20</ele>
        <time>1970-01-01T01:19:42Z</time>
      </trkpt>
      <trkpt lat="41.603008" lon="2.002640">
        <ele>401.20</ele>
        <time>1970-01-01T01:19:42Z</time>
      </trkpt>
      <trkpt lat="41.603028" lon="2.002545">
        <ele>401.20</ele>
        <time>1970-01-01T01:19:42Z</time>
      </trkpt>
      <trkpt lat="41.603048" lon="2.002466">
        <ele>401.20</ele>
        <time>1970-01-01T01:19:42Z</time>
      </trkpt>
      <trkpt lat="41.603068" lon="2.002372">
        <ele>401.20</ele>
        <time>1970-01-01T01:19:42Z</time>
      </trkpt>
      <trkpt lat="41.603086" lon="2.002270">
        <ele>401.20</ele>
        <time>1970-01-01T01:19:42Z</time>
      </trkpt>
      <trkpt lat="41.603105" lon="2.002182">
        <ele>401.20</ele>
        <time>1970-01-01T01:19:42Z</time>
      </trkpt>
      <trkpt lat="41.603127" lon="2.002114">
        <ele>401.20</ele>
        <time>1970-01-01T01:19:42Z</time>
      </trkpt>
      <trkpt lat="41.603134" lon="2.002035">
        <ele>401.20</ele>
        <time>1970-01-01T01:19:42Z</time>
      </trkpt>
      <trkpt lat="41.603145" lon="2.001958">
        <ele>401.20</ele>
        <time>1970-01-01T01:19:42Z</time>
      </trkpt>
      <trkpt lat="41.603168" lon="2.001877">
        <ele>401.20</ele>
        <time>1970-01-01T01:19:42Z</time>
      </trkpt>
      <trkpt lat="41.603196" lon="2.001828">
        <ele>401.20</ele>
        <time>1970-01-01T01:19:42Z</time>
      </trkpt>
      <trkpt lat="41.603249" lon="2.001778">
        <ele>401.20</ele>
        <time>1970-01-01T01:19:42Z</time>
      </trkpt>
      <trkpt lat="41.603305" lon="2.001741">
        <ele>401.20</ele>
        <time>1970-01-01T01:19:42Z</time>
      </trkpt>
      <trkpt lat="41.603352" lon="2.001710">
        <ele>401.20</ele>
        <time>1970-01-01T01:19:42Z</time>
      </trkpt>
      <trkpt lat="41.603399" lon="2.001679">
        <ele>401.20</ele>
        <time>1970-01-01T01:19:42Z</time>
      </trkpt>
      <trkpt lat="41.603454" lon="2.001650">
        <ele>401.20</ele>
        <time>1970-01-01T01:19:42Z</time>
      </trkpt>
      <trkpt lat="41.603506" lon="2.001611">
        <ele>401.20</ele>
        <time>1970-01-01T01:19:42Z</time>
      </trkpt>
      <trkpt lat="41.603595" lon="2.001543">
        <ele>401.20</ele>
        <time>1970-01-01T01:19:42Z</time>
      </trkpt>
      <trkpt lat="41.603691" lon="2.001488">
        <ele>401.20</ele>
        <time>1970-01-01T01:19:42Z</time>
      </trkpt>
      <trkpt lat="41.603762" lon="2.001415">
        <ele>401.20</ele>
        <time>1970-01-01T01:19:42Z</time>
      </trkpt>
      <trkpt lat="41.603847" lon="2.001349">
        <ele>401.20</ele>
        <time>1970-01-01T01:19:42Z</time>
      </trkpt>
      <trkpt lat="41.603891" lon="2.001306">
        <ele>401.20</ele>
        <time>1970-01-01T01:19:42Z</time>
      </trkpt>
      <trkpt lat="41.603918" lon="2.001276">
        <ele>401.20</ele>
        <time>1970-01-01T01:19:42Z</time>
      </trkpt>
      <trkpt lat="41.603978" lon="2.001261">
        <ele>401.20</ele>
        <time>1970-01-01T01:19:42Z</time>
      </trkpt>
      <trkpt lat="41.604014" lon="2.001261">
        <ele>401.20</ele>
        <time>1970-01-01T01:19:42Z</time>
      </trkpt>
      <trkpt lat="41.604050" lon="2.001261">
        <ele>401.20</ele>
        <time>1970-01-01T01:19:42Z</time>
      </trkpt>
      <trkpt lat="41.604088" lon="2.001252">
        <ele>401.20</ele>
        <time>1970-01-01T01:19:42Z</time>
      </trkpt>
      <trkpt lat="41.604151" lon="2.001244">
        <ele>401.20</ele>
        <time>1970-01-01T01:19:42Z</time>
      </trkpt>
      <trkpt lat="41.604195" lon="2.001242">
        <ele>401.20</ele>
        <time>1970-01-01T01:19:42Z</time>
      </trkpt>
      <trkpt lat="41.604238" lon="2.001238">
        <ele>401.20</ele>
        <time>1970-01-01T01:19:42Z</time>
      </trkpt>
      <trkpt lat="41.604293" lon="2.001227">
        <ele>401.20</ele>
        <time>1970-01-01T01:19:42Z</time>
      </trkpt>
      <trkpt lat="41.604343" lon="2.001217">
        <ele>401.20</ele>
        <time>1970-01-01T01:19:42Z</time>
      </trkpt>
      <trkpt lat="41.604394" lon="2.001204">
        <ele>401.20</ele>
        <time>1970-01-01T01:19:42Z</time>
      </trkpt>
      <trkpt lat="41.604457" lon="2.001187">
        <ele>401.20</ele>
        <time>1970-01-01T01:19:42Z</time>
      </trkpt>
      <trkpt lat="41.604496" lon="2.001180">
        <ele>401.20</ele>
        <time>1970-01-01T01:19:42Z</time>
      </trkpt>
      <trkpt lat="41.604514" lon="2.001178">
        <ele>401.20</ele>
        <time>1970-01-01T01:19:42Z</time>
      </trkpt>
      <trkpt lat="41.604540" lon="2.001186">
        <ele>401.20</ele>
        <time>1970-01-01T01:19:42Z</time>
      </trkpt>
      <trkpt lat="41.604569" lon="2.001199">
        <ele>401.20</ele>
        <time>1970-01-01T01:19:42Z</time>
      </trkpt>
      <trkpt lat="41.604606" lon="2.001218">
        <ele>401.20</ele>
        <time>1970-01-01T01:19:42Z</time>
      </trkpt>
      <trkpt lat="41.604645" lon="2.001228">
        <ele>401.20</ele>
        <time>1970-01-01T01:19:42Z</time>
      </trkpt>
      <trkpt lat="41.604672" lon="2.001237">
        <ele>401.20</ele>
        <time>1970-01-01T01:19:42Z</time>
      </trkpt>
      <trkpt lat="41.604706" lon="2.001239">
        <ele>401.20</ele>
        <time>1970-01-01T01:19:42Z</time>
      </trkpt>
      <trkpt lat="41.604743" lon="2.001250">
        <ele>401.20</ele>
        <time>1970-01-01T01:19:42Z</time>
      </trkpt>
      <trkpt lat="41.604780" lon="2.001252">
        <ele>401.20</ele>
        <time>1970-01-01T01:19:42Z</time>
      </trkpt>
      <trkpt lat="41.604826" lon="2.001254">
        <ele>401.20</ele>
        <time>1970-01-01T01:19:42Z</time>
      </trkpt>
      <trkpt lat="41.604881" lon="2.001250">
        <ele>401.20</ele>
        <time>1970-01-01T01:19:42Z</time>
      </trkpt>
      <trkpt lat="41.604918" lon="2.001248">
        <ele>401.20</ele>
        <time>1970-01-01T01:19:42Z</time>
      </trkpt>
      <trkpt lat="41.604960" lon="2.001250">
        <ele>401.20</ele>
        <time>1970-01-01T01:19:42Z</time>
      </trkpt>
      <trkpt lat="41.605007" lon="2.001249">
        <ele>401.20</ele>
        <time>1970-01-01T01:19:42Z</time>
      </trkpt>
      <trkpt lat="41.605022" lon="2.001245">
        <ele>401.20</ele>
        <time>1970-01-01T01:19:42Z</time>
      </trkpt>
      <trkpt lat="41.605049" lon="2.001239">
        <ele>401.20</ele>
        <time>1970-01-01T01:19:42Z</time>
      </trkpt>
    </trkseg>
  </trk>
</gpx>
